# Wetter Temperatur Luftdruck Luftfeuchtigkeit Sichtweite Windgeschwindigkeit Windrichtung Zeit
1 Drizzle 2 999 100 10000 3.6 130 21:58 28.01.2020
2 Rain 2 999 100 10000 4.1 140 21:39 28.01.2020
3 Rain 2 999 100 10000 4.1 140 21:20 28.01.2020
4 Rain 2 999 93 10000 4.6 140 20:46 28.01.2020
5 Clouds 2 999 93 10000 4.6 140 20:26 28.01.2020
6 Clouds 2 999 93 10000 3.1 130 19:56 28.01.2020
7 Clouds 3 999 93 10000 3.1 130 19:37 28.01.2020
8 Clouds 3 999 93 10000 3.1 130 19:19 28.01.2020
9 Clouds 2 999 100 10000 2.1 110 18:42 28.01.2020
10 Clouds 2 999 100 10000 2.1 110 18:24 28.01.2020
11 Rain 2 999 100 10000 2.6 120 17:59 28.01.2020
12 Rain 2 999 100 8000 3.6 140 17:40 28.01.2020
13 Rain 2 999 100 8000 3.6 140 17:22 28.01.2020
14 Rain 2 999 100 7000 2.1 110 16:59 28.01.2020
15 Clouds 2 1000 100 8000 2.6 160 16:41 28.01.2020
16 Clouds 2 1000 100 8000 2.6 160 16:22 28.01.2020
17 Rain 2 1000 100 8000 2.6 170 15:55 28.01.2020
18 Rain 2 1000 100 9000 3.6 160 15:37 28.01.2020
19 Rain 2 1000 100 9000 3.6 160 15:18 28.01.2020
20 Rain 2 1000 100 6000 3.1 180 14:43 28.01.2020
21 Rain 2 1000 100 6000 3.1 180 14:19 28.01.2020
22 Drizzle 2 1000 93 6000 5.1 180 13:42 28.01.2020
23 Drizzle 2 1000 93 6000 5.1 180 13:24 28.01.2020
24 Drizzle 3 1000 93 8000 4.6 180 12:45 28.01.2020
25 Drizzle 3 1000 93 8000 4.6 180 12:25 28.01.2020
26 Drizzle 3 1000 93 8000 5.1 190 11:59 28.01.2020
27 Rain 3 1001 93 8000 5.7 180 11:40 28.01.2020
28 Rain 3 1001 93 8000 5.7 180 11:21 28.01.2020
29 Rain 3 1001 93 9000 6.2 180 10:43 28.01.2020
30 Rain 3 1001 93 9000 6.2 180 10:24 28.01.2020
31 Rain 3 1001 93 9000 5.1 190 09:59 28.01.2020
32 Rain 3 1001 93 9000 5.1 180 09:39 28.01.2020
33 Rain 3 1001 93 9000 5.1 180 09:20 28.01.2020
34 Drizzle 3 1001 100 9000 3.6 150 08:44 28.01.2020
35 Drizzle 2 1001 100 9000 3.6 150 08:25 28.01.2020
36 Rain 2 1001 100 10000 4.1 170 07:42 28.01.2020
37 Rain 2 1001 100 10000 4.1 170 07:23 28.01.2020
38 Rain 2 1001 93 10000 4.1 180 06:44 28.01.2020
39 Rain 2 1001 93 10000 4.6 190 06:23 28.01.2020
40 Rain 3 1002 93 10000 4.6 180 05:35 28.01.2020
41 Rain 3 1002 93 10000 4.6 180 04:40 28.01.2020
42 Rain 3 1002 100 10000 3.1 150 03:41 28.01.2020
43 Rain 2 1003 100 10000 2.6 170 02:43 28.01.2020
44 Rain 2 1003 100 10000 2.6 180 02:24 28.01.2020
45 Rain 2 1003 100 10000 5.1 200 01:50 28.01.2020
46 Drizzle 2 1004 96 500 1.5 70 00:58 28.01.2020
47 Rain 1 1004 96 700 2.1 70 00:39 28.01.2020
48 Rain 1 1004 96 700 2.1 70 00:19 28.01.2020
49 Rain 1 1004 96 1800 2.1 90 23:42 27.01.2020
50 Rain 1 1004 96 2500 2.1 80 23:18 27.01.2020
51 Rain 1 1005 96 2600 2.6 80 22:44 27.01.2020
52 Rain 1 1005 96 2600 2.6 80 22:20 27.01.2020
53 Rain 1 1005 96 2600 2.6 80 22:20 27.01.2020
54 Drizzle 1 1005 96 2700 3.1 80 21:57 27.01.2020
55 Drizzle 1 1005 96 3500 2.6 80 21:38 27.01.2020
56 Drizzle 1 1005 96 3500 2.6 80 21:38 27.01.2020
57 Drizzle 1 1005 96 3500 2.6 80 21:19 27.01.2020
58 Drizzle 1 1005 96 3000 2.6 80 20:56 27.01.2020
59 Drizzle 1 1005 96 2600 4.1 70 20:37 27.01.2020
60 Drizzle 1 1005 96 2600 4.1 70 20:18 27.01.2020
61 Drizzle 1 1006 96 900 3.6 70 19:42 27.01.2020
62 Drizzle 1 1006 96 900 3.6 70 19:23 27.01.2020
63 Rain 1 1006 96 800 4.1 70 18:58 27.01.2020
64 Rain 1 1006 96 2500 3.6 80 18:39 27.01.2020
65 Rain 1 1006 96 2500 3.6 80 18:20 27.01.2020
66 Rain 1 1006 96 2500 3.6 80 18:20 27.01.2020
67 Rain 1 1006 96 2500 3.6 80 18:20 27.01.2020
68 Mist 1 1006 96 4000 4.1 80 17:57 27.01.2020
69 Mist 1 1006 96 4000 5.1 70 17:37 27.01.2020
70 Mist 1 1006 96 4000 5.1 70 17:18 27.01.2020
71 Mist 1 1006 96 4000 5.1 70 16:42 27.01.2020
72 Drizzle 1 1007 96 3000 4.6 70 16:24 27.01.2020
73 Drizzle 1 1007 96 3000 4.6 70 16:24 27.01.2020
74 Mist 1 1007 96 2500 4.6 80 15:56 27.01.2020
75 Mist 1 1007 96 2500 5.1 80 15:38 27.01.2020
76 Mist 0 1007 96 2500 5.1 80 15:19 27.01.2020
77 Mist 0 1007 96 2500 5.1 80 15:19 27.01.2020
78 Mist 0 1007 96 3000 5.1 90 14:55 27.01.2020
79 Rain 0 1007 96 3500 4.1 90 14:36 27.01.2020
80 Rain 0 1007 96 3500 4.1 90 14:18 27.01.2020
81 Rain 0 1008 96 5000 4.6 90 13:42 27.01.2020
82 Rain 0 1008 97 5000 4.6 90 13:21 27.01.2020
83 Rain 0 1008 97 5000 4.6 90 13:21 27.01.2020
84 Rain 1 1008 97 3500 4.6 90 12:56 27.01.2020
85 Snow 0 1008 97 3000 4.1 90 12:37 27.01.2020
86 Snow 0 1008 97 3000 4.1 90 12:19 27.01.2020
87 Snow 0 1008 97 2000 4.6 90 11:41 27.01.2020
88 Snow 0 1008 97 2000 4.6 90 11:21 27.01.2020
89 Snow 0 1009 97 1800 3.6 90 10:43 27.01.2020
90 Snow 0 1009 100 2000 3.6 80 10:25 27.01.2020
91 Snow 0 1009 100 2000 3.1 50 09:57 27.01.2020
92 Snow -1 1009 100 2200 3.1 60 09:38 27.01.2020
93 Snow -1 1009 100 2200 3.1 60 09:18 27.01.2020
94 Snow -1 1009 100 2200 3.1 60 09:18 27.01.2020
95 Snow -1 1009 100 1500 4.1 60 08:43 27.01.2020
96 Snow -1 1009 100 1500 4.1 60 08:22 27.01.2020
97 Snow -1 1009 100 2800 3.6 70 07:54 27.01.2020
98 Snow -1 1009 92 4000 4.1 70 07:35 27.01.2020
99 Clouds -1 1009 100 5000 5.1 70 06:53 27.01.2020
100 Clouds -1 1009 92 4500 4.1 70 06:25 27.01.2020
101 Clouds -1 1009 92 5000 4.1 70 05:24 27.01.2020
102 Clouds -1 1009 92 6000 4.1 70 03:49 27.01.2020
103 Clouds -1 1009 92 5000 3.6 70 02:42 27.01.2020
104 Clouds -1 1009 92 5000 3.6 70 01:29 27.01.2020
105 Clouds -1 1009 92 4500 4.1 70 00:57 27.01.2020
106 Clouds -1 1009 92 5000 4.6 60 00:36 27.01.2020
107 Clouds -1 1009 92 5000 4.6 60 00:18 27.01.2020
108 Clouds -1 1009 92 5000 4.6 60 00:18 27.01.2020
109 Clouds 0 1009 92 4500 4.1 70 23:41 26.01.2020
110 Clouds 0 1008 100 4500 4.6 60 23:19 26.01.2020
111 Clouds 0 1008 92 5000 5.1 50 22:55 26.01.2020
112 Drizzle 1 1008 92 10000 4.1 60 22:36 26.01.2020
113 Drizzle 1 1008 92 10000 4.1 60 22:18 26.01.2020
114 Drizzle 1 1007 86 10000 4.1 60 21:55 26.01.2020
115 Drizzle 1 1007 86 10000 4.6 50 21:37 26.01.2020
116 Drizzle 1 1007 86 10000 4.6 50 21:18 26.01.2020
117 Drizzle 1 1007 86 10000 4.6 50 21:18 26.01.2020
118 Drizzle 1 1007 92 10000 4.1 50 20:55 26.01.2020
119 Clouds 2 1006 92 10000 4.1 50 20:36 26.01.2020
120 Clouds 2 1006 89 10000 4.1 50 20:18 26.01.2020
121 Clouds 2 1005 93 10000 4.6 30 19:41 26.01.2020
122 Clouds 2 1005 93 10000 4.6 30 19:21 26.01.2020
123 Clouds 2 1005 93 10000 1.5 290 18:59 26.01.2020
124 Clouds 2 1005 93 10000 1.5 290 18:40 26.01.2020
125 Clouds 2 1004 86 10000 2.6 270 18:22 26.01.2020
126 Clouds 3 1004 86 10000 2.6 260 17:58 26.01.2020
127 Clouds 3 1004 86 10000 2.6 260 17:58 26.01.2020
128 Clouds 3 1004 86 10000 3.6 270 17:38 26.01.2020
129 Clouds 3 1004 86 10000 3.6 270 17:19 26.01.2020
130 Clouds 3 1003 86 10000 3.1 270 16:58 26.01.2020
131 Clouds 3 1003 86 10000 3.1 270 16:39 26.01.2020
132 Clouds 3 1003 86 10000 3.1 270 16:20 26.01.2020
133 Clouds 3 1003 86 10000 3.1 270 16:20 26.01.2020
134 Clouds 3 1004 85 0 6.77 278 15:55 26.01.2020
135 Clouds 3 1002 83 0 6.77 278 15:36 26.01.2020
136 Clouds 4 1002 83 0 6.77 278 15:18 26.01.2020
137 Clouds 4 1001 83 0 0.45 288 14:40 26.01.2020
138 Clouds 5 1003 82 0 9.43 267 14:19 26.01.2020
139 Clouds 5 1003 82 0 9.43 267 14:19 26.01.2020
140 Clouds 5 1001 83 0 0.89 291 13:42 26.01.2020
141 Clouds 5 1002 82 0 9.99 265 13:20 26.01.2020
142 Clouds 5 1001 82 0 9.99 265 12:57 26.01.2020
143 Clouds 5 1000 83 0 0.89 272 12:39 26.01.2020
144 Clouds 4 1000 84 0 1.34 278 12:21 26.01.2020
145 Clouds 5 1001 84 0 9.99 265 11:57 26.01.2020
146 Clouds 4 1001 83 0 9.99 265 11:37 26.01.2020
147 Clouds 4 1000 86 10000 6.7 260 11:18 26.01.2020
148 Clouds 4 1000 86 10000 6.7 260 10:57 26.01.2020
149 Clouds 4 1000 86 10000 6.7 260 10:38 26.01.2020
150 Clouds 4 1000 86 10000 6.7 260 10:20 26.01.2020
151 Clouds 4 999 86 10000 6.2 260 09:56 26.01.2020
152 Clouds 4 999 86 10000 7.7 250 09:38 26.01.2020
153 Clouds 4 999 86 10000 7.7 250 09:19 26.01.2020
154 Clouds 4 999 93 10000 6.2 240 08:42 26.01.2020
155 Clouds 3 999 93 10000 6.2 240 08:22 26.01.2020
156 Drizzle 3 999 93 10000 5.7 240 07:50 26.01.2020
157 Drizzle 3 999 93 7000 5.7 240 07:27 26.01.2020
158 Drizzle 3 999 93 7000 5.7 250 06:55 26.01.2020
159 Drizzle 3 999 93 7000 5.1 230 06:25 26.01.2020
160 Drizzle 3 1000 93 10000 5.7 190 05:29 26.01.2020
161 Rain 1 1003 87 10000 4.6 180 03:57 26.01.2020
162 Clouds 0 1005 92 10000 3.1 180 02:38 26.01.2020
163 Clouds -1 1005 86 10000 2.1 200 01:45 26.01.2020
164 Snow -1 1006 86 10000 1 0 01:23 26.01.2020
165 Clouds -1 1006 86 10000 2.1 240 00:43 26.01.2020
166 Clouds -1 1006 86 10000 2.1 220 00:25 26.01.2020
167 Clouds -1 1007 85 0 7.89 255 23:40 25.01.2020
168 Clouds -2 1007 86 0 9.25 277 23:21 25.01.2020
169 Clouds -2 1007 87 0 9.25 277 22:56 25.01.2020
170 Clouds -2 1007 87 0 9.25 277 22:56 25.01.2020
171 Clouds -2 1007 87 0 9.25 277 22:37 25.01.2020
172 Clouds -2 1007 86 0 9.25 277 22:18 25.01.2020
173 Clouds -2 1007 70 0 9.25 277 21:55 25.01.2020
174 Clouds -2 1007 84 0 9.25 277 21:55 25.01.2020
175 Clouds -2 1007 70 0 9.25 277 21:55 25.01.2020
176 Clouds -2 1007 69 0 9.25 277 21:36 25.01.2020
177 Clouds 2 1008 72 0 9.25 277 21:18 25.01.2020
178 Clouds 2 1008 72 0 9.25 277 20:43 25.01.2020
179 Clouds -2 1006 75 0 0.45 282 20:24 25.01.2020
180 Clouds -1 1005 80 0 3.58 270 19:48 25.01.2020
181 Clouds -1 1007 83 0 9.4 289 19:20 25.01.2020
182 Clouds -1 1007 82 0 9.4 289 18:59 25.01.2020
183 Clouds -1 1006 80 0 9.41 292 18:41 25.01.2020
184 Clouds -1 1006 80 0 9.41 292 18:20 25.01.2020
185 Clouds -1 1006 80 0 9.41 292 17:54 25.01.2020
186 Clouds -1 1006 79 0 9.4 289 17:36 25.01.2020
187 Clouds -1 1005 79 0 9.73 297 17:18 25.01.2020
188 Clouds 0 1005 77 0 9.73 297 16:42 25.01.2020
189 Clouds 0 1005 76 0 9.73 297 16:22 25.01.2020
190 Clouds 0 1005 75 0 9.73 297 15:55 25.01.2020
191 Clouds 0 1004 74 0 9.73 297 15:37 25.01.2020
192 Clouds 0 1004 73 0 9.73 297 15:18 25.01.2020
193 Clouds 1 1002 66 0 0.89 271 14:41 25.01.2020
194 Clear 1 1003 46 0 1.79 288 14:19 25.01.2020
195 Clear 1 1003 68 0 11.55 310 13:43 25.01.2020
196 Clear 2 1003 67 0 12.09 308 13:24 25.01.2020
197 Clouds 2 1000 59 10000 9.3 290 12:46 25.01.2020
198 Clouds 2 1000 59 10000 9.3 290 12:28 25.01.2020
199 Clouds 2 1000 59 10000 9.3 290 11:54 25.01.2020
200 Clouds 2 1000 59 10000 8.7 290 11:36 25.01.2020
201 Clouds 2 1000 59 10000 8.7 290 11:18 25.01.2020
202 Clouds 1 999 69 10000 7.7 280 10:41 25.01.2020
203 Clouds 1 999 69 10000 7.7 280 10:21 25.01.2020
204 Clear 1 998 69 10000 7.7 280 09:57 25.01.2020
205 Clear 1 998 68 10000 7.2 280 09:37 25.01.2020
206 Clear 1 998 68 10000 7.2 280 09:18 25.01.2020
207 Clear 0 997 68 10000 6.2 280 08:42 25.01.2020
208 Clear 0 997 68 10000 6.2 280 08:42 25.01.2020
209 Clouds 0 997 66 10000 7.7 280 07:53 25.01.2020
210 Clouds 0 997 66 10000 7.7 280 07:53 25.01.2020
211 Clouds 0 996 66 10000 6.7 280 06:58 25.01.2020
212 Clouds 0 996 66 10000 7.2 290 06:31 25.01.2020
213 Clouds 0 995 66 10000 7.2 280 05:50 25.01.2020
214 Clouds 0 995 66 10000 6.7 280 05:30 25.01.2020
215 Clouds 0 995 69 10000 5.1 290 03:55 25.01.2020
216 Clouds 0 995 69 10000 5.7 280 03:34 25.01.2020
217 Clouds 0 995 74 10000 5.7 260 02:24 25.01.2020
218 Clouds 0 995 74 10000 4.6 260 01:54 25.01.2020
219 Clouds 0 995 74 10000 4.1 250 00:52 25.01.2020
220 Clouds 0 996 86 10000 4.1 250 00:27 25.01.2020
221 Clouds 0 996 74 10000 4.1 240 23:59 24.01.2020
222 Clouds 0 996 74 10000 4.1 240 23:41 24.01.2020
223 Clouds 0 996 81 10000 4.1 240 23:23 24.01.2020
224 Clouds 0 996 100 10000 4.6 230 22:46 24.01.2020
225 Clouds 0 996 92 10000 3.6 220 22:26 24.01.2020
226 Clouds 0 997 100 10000 3.6 230 21:57 24.01.2020
227 Clouds -1 997 100 10000 3.1 220 21:39 24.01.2020
228 Clouds -1 997 100 10000 3.1 220 21:18 24.01.2020
229 Clouds -1 998 81 10000 4.1 260 20:43 24.01.2020
230 Clouds 0 998 79 10000 4.1 250 20:21 24.01.2020
231 Clouds 0 998 79 10000 4.1 250 19:58 24.01.2020
232 Clouds 0 998 79 10000 3.6 250 19:39 24.01.2020
233 Clouds 0 998 79 10000 3.6 250 19:21 24.01.2020
234 Clouds 0 998 100 10000 3.6 240 18:44 24.01.2020
235 Clouds 0 998 100 10000 3.6 240 18:25 24.01.2020
236 Clouds 0 998 100 10000 3.1 240 17:56 24.01.2020
237 Clouds 0 998 100 10000 3.1 240 17:56 24.01.2020
238 Clouds 0 998 79 10000 3.6 250 17:38 24.01.2020
239 Clouds 0 998 86 10000 3.6 250 17:20 24.01.2020
240 Clouds 1 998 86 10000 3.6 250 16:39 24.01.2020
241 Clouds 1 998 86 10000 3.6 250 16:21 24.01.2020
242 Clouds 1 998 80 10000 4.6 270 15:56 24.01.2020
243 Clouds 2 998 86 10000 5.7 260 15:38 24.01.2020
244 Clouds 2 998 86 10000 5.7 260 15:19 24.01.2020
245 Rain 3 998 86 10000 5.7 260 14:41 24.01.2020
246 Rain 3 998 86 10000 5.7 260 14:22 24.01.2020
247 Rain 3 998 86 10000 5.7 250 13:45 24.01.2020
248 Rain 3 998 86 10000 5.7 270 13:24 24.01.2020
249 Rain 3 998 93 10000 7.7 300 12:45 24.01.2020
250 Rain 3 998 93 10000 4.1 280 12:24 24.01.2020
251 Rain 3 999 74 10000 3.6 300 11:59 24.01.2020
252 Rain 3 999 74 10000 3.6 300 11:40 24.01.2020
253 Clouds 3 998 74 10000 4.1 270 11:18 24.01.2020
254 Clouds 2 999 83 10000 4.1 260 10:43 24.01.2020
255 Clouds 2 999 83 10000 4.1 260 10:21 24.01.2020
256 Clouds 2 999 83 10000 3.6 250 09:55 24.01.2020
257 Clouds 2 999 83 10000 3.6 250 09:37 24.01.2020
258 Clouds 1 999 83 10000 3.6 250 09:18 24.01.2020
259 Clouds 1 999 86 10000 4.1 250 08:40 24.01.2020
260 Rain 1 999 86 10000 3.6 250 08:19 24.01.2020
261 Clouds 1 999 84 10000 4.6 240 07:49 24.01.2020
262 Clouds 1 999 80 10000 4.6 230 07:24 24.01.2020
263 Rain 1 999 80 10000 4.1 240 06:46 24.01.2020
264 Rain 1 1000 86 10000 2.6 240 06:28 24.01.2020
265 Rain 1 999 80 10000 3.1 250 05:43 24.01.2020
266 Clouds 1 1000 86 10000 3.1 240 03:55 24.01.2020
267 Clouds 1 1001 86 10000 4.6 240 02:43 24.01.2020
268 Clouds 1 1001 86 10000 4.6 240 02:23 24.01.2020
269 Clouds 1 1001 83 10000 5.1 230 01:39 24.01.2020
270 Clouds 0 1002 84 10000 4.6 240 00:54 24.01.2020
271 Clouds 0 1002 84 10000 4.6 240 00:19 24.01.2020
272 Clouds 1 1002 80 10000 5.7 240 23:45 23.01.2020
273 Clouds 1 1002 80 10000 5.7 250 23:26 23.01.2020
274 Clouds 1 1003 80 10000 5.1 250 22:59 23.01.2020
275 Clouds 1 1003 86 10000 5.1 250 22:37 23.01.2020
276 Clouds 1 1003 86 10000 5.1 250 22:18 23.01.2020
277 Clouds 1 1003 80 10000 5.1 250 21:55 23.01.2020
278 Clouds 2 1003 80 10000 5.1 240 21:37 23.01.2020
279 Clouds 2 1003 80 10000 5.1 240 21:19 23.01.2020
280 Clouds 2 1003 83 10000 4.6 240 20:56 23.01.2020
281 Clouds 2 1004 83 10000 4.6 240 20:37 23.01.2020
282 Clouds 2 1004 79 10000 4.6 240 20:19 23.01.2020
283 Clouds 3 1004 79 10000 5.7 240 19:44 23.01.2020
284 Clouds 3 1005 79 10000 5.7 230 19:24 23.01.2020
285 Clouds 3 1005 74 10000 6.2 220 18:59 23.01.2020
286 Clouds 2 1006 80 10000 5.1 220 18:39 23.01.2020
287 Clouds 2 1006 80 10000 5.1 220 18:20 23.01.2020
288 Clouds 2 1007 80 10000 5.1 210 17:57 23.01.2020
289 Clouds 2 1007 74 10000 5.1 210 17:38 23.01.2020
290 Clouds 2 1007 74 10000 5.1 210 17:18 23.01.2020
291 Clouds 1 1009 86 10000 3.6 190 16:39 23.01.2020
292 Clouds 1 1009 86 10000 3.6 190 16:20 23.01.2020
293 Clouds 1 1010 86 10000 5.1 200 15:58 23.01.2020
294 Clouds 1 1011 86 10000 4.1 210 15:40 23.01.2020
295 Clouds 1 1011 86 10000 4.1 210 15:19 23.01.2020
296 Snow 1 1011 86 8000 3.6 220 14:59 23.01.2020
297 Snow 1 1011 86 8000 3.6 220 14:41 23.01.2020
298 Clouds 1 1012 86 10000 4.1 230 14:23 23.01.2020
299 Clouds 1 1013 86 10000 3.6 230 13:59 23.01.2020
300 Clouds 1 1013 86 10000 4.1 240 13:37 23.01.2020
301 Clouds 1 1013 80 10000 3.6 260 13:19 23.01.2020
302 Clouds 1 1013 80 10000 3.6 260 12:44 23.01.2020
303 Clouds 0 1014 78 10000 4.6 250 12:25 23.01.2020
304 Clouds 0 1014 78 10000 3.6 260 11:56 23.01.2020
305 Clouds 0 1015 92 10000 4.1 260 11:37 23.01.2020
306 Clouds 0 1015 92 10000 4.1 260 11:18 23.01.2020
307 Clouds -1 1016 92 10000 4.6 270 10:44 23.01.2020
308 Clouds -1 1015 92 10000 3.1 260 10:44 23.01.2020
309 Clouds -1 1016 92 10000 4.6 270 10:22 23.01.2020
310 Clouds -1 1016 92 10000 4.6 270 10:22 23.01.2020
311 Clouds -2 1016 92 10000 4.1 260 09:57 23.01.2020
312 Clouds -2 1016 92 10000 3.6 250 09:36 23.01.2020
313 Clouds -2 1016 92 10000 3.6 250 09:18 23.01.2020
314 Clouds -3 1016 86 10000 3.6 260 08:40 23.01.2020
315 Clouds -3 1016 86 10000 3.6 260 08:22 23.01.2020
316 Clouds -3 1016 92 10000 4.1 260 07:45 23.01.2020
317 Clouds -3 1016 92 10000 4.6 270 07:26 23.01.2020
318 Clouds -3 1016 92 10000 4.6 260 06:51 23.01.2020
319 Clouds -3 1017 86 10000 3.6 260 06:22 23.01.2020
320 Clouds -3 1017 85 10000 3.1 260 05:44 23.01.2020
321 Clouds -4 1017 85 10000 2.6 270 04:24 23.01.2020
322 Clouds -3 1017 79 10000 3.6 290 02:34 23.01.2020
323 Clouds -2 1017 79 10000 4.1 300 01:19 23.01.2020
324 Clouds -1 1017 74 10000 5.7 320 00:27 23.01.2020
325 Clouds -1 1016 74 10000 5.7 320 23:48 22.01.2020
326 Clouds -1 1016 80 10000 5.7 310 23:29 22.01.2020
327 Clouds -1 1015 80 10000 6.2 310 22:59 22.01.2020
328 Clouds -1 1015 80 10000 6.2 310 22:40 22.01.2020
329 Clouds -1 1015 80 10000 6.2 310 22:40 22.01.2020
330 Clouds -1 1015 80 10000 6.2 310 22:22 22.01.2020
331 Clouds -1 1014 80 10000 5.7 290 21:40 22.01.2020
332 Clouds -1 1014 80 10000 5.7 290 21:22 22.01.2020
333 Clouds -1 1014 80 10000 6.7 280 20:57 22.01.2020
334 Clouds -1 1013 80 10000 5.7 280 20:37 22.01.2020
335 Clear -1 1013 80 10000 5.7 280 20:19 22.01.2020
336 Clear -1 1013 80 10000 5.1 280 19:56 22.01.2020
337 Clear -1 1013 80 10000 4.6 280 19:37 22.01.2020
338 Clear -1 1013 80 10000 4.6 280 19:18 22.01.2020
339 Clear -1 1013 80 10000 5.1 290 18:56 22.01.2020
340 Clear -1 1013 74 10000 4.6 290 18:37 22.01.2020
341 Clear -1 1013 74 10000 4.6 290 18:19 22.01.2020
342 Clear 0 1012 71 10000 5.7 310 17:40 22.01.2020
343 Clear 0 1012 60 10000 5.7 310 17:21 22.01.2020
344 Clear 0 1011 60 10000 6.7 320 16:58 22.01.2020
345 Clear 0 1011 60 10000 7.2 320 16:39 22.01.2020
346 Clear 0 1011 60 10000 7.2 320 16:21 22.01.2020
347 Clouds 1 1010 64 10000 7.2 320 15:56 22.01.2020
348 Clouds 1 1009 64 10000 7.7 320 15:38 22.01.2020
349 Clouds 1 1009 64 10000 7.7 320 15:19 22.01.2020
350 Clouds 1 1008 59 10000 7.2 320 14:40 22.01.2020
351 Clouds 1 1008 59 10000 7.2 320 14:40 22.01.2020
352 Clouds 2 1008 59 10000 7.2 320 14:21 22.01.2020
353 Clouds 2 1007 55 10000 8.2 320 13:59 22.01.2020
354 Clouds 2 1007 55 10000 8.2 320 13:38 22.01.2020
355 Clouds 2 1007 59 10000 6.7 320 13:19 22.01.2020
356 Clouds 2 1006 59 10000 7.7 320 12:57 22.01.2020
357 Clouds 2 1005 59 10000 7.7 320 12:39 22.01.2020
358 Clouds 2 1005 59 10000 7.7 320 12:20 22.01.2020
359 Clouds 2 1005 59 10000 5.7 330 11:58 22.01.2020
360 Clouds 2 1004 59 10000 7.2 320 11:39 22.01.2020
361 Clouds 2 1004 59 10000 7.2 320 11:19 22.01.2020
362 Clouds 2 1004 59 10000 7.2 320 11:19 22.01.2020
363 Clouds 2 1004 59 10000 7.2 320 10:54 22.01.2020
364 Clouds 2 1003 64 10000 6.7 300 10:36 22.01.2020
365 Clouds 2 1003 64 10000 6.7 300 10:18 22.01.2020
366 Clouds 1 1003 74 10000 6.2 300 09:41 22.01.2020
367 Clouds 1 1002 73 10000 7.2 290 09:23 22.01.2020
368 Clouds 1 1002 73 10000 6.7 300 08:57 22.01.2020
369 Clouds 0 1001 72 10000 6.7 290 08:38 22.01.2020
370 Clouds 0 1001 68 10000 6.7 290 08:20 22.01.2020
371 Clouds 1 1001 68 10000 5.7 280 07:45 22.01.2020
372 Clouds 1 1001 68 10000 5.7 280 07:27 22.01.2020
373 Clouds 1 1001 68 10000 6.7 280 06:38 22.01.2020
374 Clouds 1 1001 68 10000 6.7 280 06:20 22.01.2020
375 Clouds 1 1001 68 10000 6.7 280 06:19 22.01.2020
376 Clouds 2 1001 64 10000 8.2 290 04:27 22.01.2020
377 Clouds 3 1001 64 10000 7.7 280 03:29 22.01.2020
378 Clouds 3 1001 59 10000 8.2 280 02:49 22.01.2020
379 Clouds 3 1003 59 10000 7.7 280 01:30 22.01.2020
380 Clouds 3 1003 59 10000 9.3 270 00:40 22.01.2020
381 Clouds 3 1003 59 10000 9.3 270 00:19 22.01.2020
382 Clouds 4 1004 55 10000 9.3 270 23:37 21.01.2020
383 Clouds 4 1004 55 10000 9.3 270 23:37 21.01.2020
384 Clouds 4 1004 55 10000 9.3 270 23:19 21.01.2020
385 Clouds 4 1005 55 10000 8.2 270 22:42 21.01.2020
386 Clouds 4 1005 55 10000 8.2 270 22:24 21.01.2020
387 Clouds 4 1006 59 10000 7.2 270 21:58 21.01.2020
388 Clouds 3 1006 59 10000 7.2 270 21:39 21.01.2020
389 Clouds 3 1006 59 10000 7.2 270 21:21 21.01.2020
390 Clouds 3 1006 59 10000 7.7 270 20:57 21.01.2020
391 Clouds 3 1007 59 10000 8.2 270 20:39 21.01.2020
392 Clouds 3 1007 59 10000 8.2 270 20:20 21.01.2020
393 Clouds 3 1007 59 10000 8.2 270 19:58 21.01.2020
394 Clouds 3 1007 59 10000 8.2 270 19:58 21.01.2020
395 Clouds 3 1007 59 10000 8.7 280 19:39 21.01.2020
396 Clouds 3 1007 59 10000 8.7 280 19:21 21.01.2020
397 Clouds 3 1008 59 10000 8.2 280 18:56 21.01.2020
398 Clouds 3 1008 59 10000 8.2 280 18:38 21.01.2020
399 Clouds 3 1008 59 10000 8.2 280 18:20 21.01.2020
400 Clouds 3 1008 59 10000 8.2 280 17:45 21.01.2020
401 Clouds 3 1008 59 10000 8.2 280 17:22 21.01.2020
402 Clouds 3 1008 59 10000 8.2 290 16:59 21.01.2020
403 Clouds 3 1008 59 10000 8.2 280 16:37 21.01.2020
404 Clouds 3 1008 59 10000 8.2 280 16:19 21.01.2020
405 Clouds 4 1008 55 10000 8.7 290 15:56 21.01.2020
406 Clouds 4 1008 55 10000 9.8 290 15:37 21.01.2020
407 Clouds 4 1008 55 10000 9.8 290 15:18 21.01.2020
408 Clouds 4 1009 57 0 9.65 293 14:39 21.01.2020
409 Clouds 4 1008 52 10000 9.3 290 14:20 21.01.2020
410 Clouds 5 1007 52 10000 9.3 290 13:41 21.01.2020
411 Clouds 5 1007 52 10000 9.3 290 13:19 21.01.2020
412 Clouds 5 1006 56 10000 10.3 290 12:56 21.01.2020
413 Clouds 5 1006 52 10000 9.8 300 12:38 21.01.2020
414 Clouds 5 1006 52 10000 9.8 300 12:19 21.01.2020
415 Clouds 6 1006 56 10000 10.8 300 11:40 21.01.2020
416 Clouds 6 1006 56 10000 10.8 300 11:22 21.01.2020
417 Clouds 6 1006 56 10000 11.3 300 10:59 21.01.2020
418 Clouds 6 1005 56 10000 10.8 300 10:40 21.01.2020
419 Clouds 7 1005 56 10000 10.8 300 10:21 21.01.2020
420 Clouds 7 1005 67 10000 11.3 300 09:42 21.01.2020
421 Clouds 7 1005 65 10000 9.3 290 09:23 21.01.2020
422 Clouds 7 1005 70 10000 7.2 280 08:50 21.01.2020
423 Clouds 7 1005 75 10000 6.7 270 08:32 21.01.2020
424 Clouds 7 1005 75 10000 6.7 260 08:00 21.01.2020
425 Clouds 7 1005 75 10000 7.2 270 07:40 21.01.2020
426 Clouds 7 1005 75 10000 7.2 270 07:22 21.01.2020
427 Clouds 7 1005 75 10000 7.2 270 06:49 21.01.2020
428 Rain 6 1006 75 10000 6.7 260 06:29 21.01.2020
429 Clouds 6 1007 81 10000 6.2 260 05:42 21.01.2020
430 Clouds 5 1007 81 10000 6.7 260 04:40 21.01.2020
431 Clouds 5 1008 80 10000 6.2 260 02:57 21.01.2020
432 Clouds 5 1009 80 10000 6.2 250 01:55 21.01.2020
433 Clouds 4 1009 80 10000 6.7 250 01:18 21.01.2020
434 Clouds 4 1010 86 10000 5.7 250 00:37 21.01.2020
435 Clouds 4 1011 75 10000 5.7 250 23:59 20.01.2020
436 Clouds 4 1011 75 10000 5.7 250 23:39 20.01.2020
437 Clouds 4 1011 80 10000 6.2 250 23:39 20.01.2020
438 Clouds 4 1011 80 10000 6.2 250 23:19 20.01.2020
439 Clouds 4 1011 80 10000 6.2 240 22:56 20.01.2020
440 Clouds 4 1012 80 10000 6.2 240 22:37 20.01.2020
441 Clouds 4 1012 80 10000 6.2 240 22:19 20.01.2020
442 Clouds 3 1012 86 10000 6.7 240 21:57 20.01.2020
443 Clouds 3 1013 86 10000 6.2 240 21:37 20.01.2020
444 Clouds 3 1013 86 10000 6.2 240 21:19 20.01.2020
445 Clouds 3 1014 86 10000 5.7 230 20:55 20.01.2020
446 Clouds 3 1014 86 10000 5.7 230 20:37 20.01.2020
447 Clouds 3 1014 86 10000 5.7 230 20:18 20.01.2020
448 Clouds 3 1015 87 10000 6.7 240 19:56 20.01.2020
449 Clouds 3 1016 87 10000 5.7 230 19:37 20.01.2020
450 Clouds 3 1016 87 10000 5.7 230 19:18 20.01.2020
451 Clouds 2 1017 87 10000 5.1 230 18:43 20.01.2020
452 Clouds 3 1017 87 10000 5.1 230 18:22 20.01.2020
453 Clouds 3 1017 87 10000 4.6 230 17:41 20.01.2020
454 Clouds 2 1018 82 10000 5.1 230 17:19 20.01.2020
455 Clouds 3 1018 82 10000 5.7 240 16:58 20.01.2020
456 Clouds 3 1019 82 10000 5.7 250 16:37 20.01.2020
457 Clouds 3 1019 82 10000 5.7 250 16:18 20.01.2020
458 Clouds 3 1019 82 10000 5.7 250 16:18 20.01.2020
459 Clouds 3 1019 82 10000 5.7 250 16:18 20.01.2020
460 Clouds 3 1019 82 10000 5.7 240 15:54 20.01.2020
461 Clouds 3 1019 82 10000 4.6 250 15:36 20.01.2020
462 Clouds 3 1019 82 10000 4.6 250 15:18 20.01.2020
463 Rain 3 1020 74 10000 5.7 230 14:41 20.01.2020
464 Rain 3 1020 74 10000 5.7 230 14:22 20.01.2020
465 Clouds 3 1021 74 10000 6.2 240 13:58 20.01.2020
466 Clouds 3 1021 69 10000 6.7 240 13:39 20.01.2020
467 Clouds 3 1021 69 10000 6.7 240 13:20 20.01.2020
468 Clouds 3 1021 64 10000 5.7 240 12:45 20.01.2020
469 Clouds 3 1021 64 10000 6.2 240 12:26 20.01.2020
470 Clouds 3 1022 64 10000 5.7 240 11:57 20.01.2020
471 Clouds 3 1022 74 10000 5.7 230 11:38 20.01.2020
472 Clouds 3 1022 74 10000 5.7 230 11:19 20.01.2020
473 Clouds 2 1023 74 10000 5.7 240 10:47 20.01.2020
474 Clouds 2 1024 80 10000 3.6 230 10:21 20.01.2020
475 Clouds 2 1023 80 10000 4.1 240 10:21 20.01.2020
476 Clouds 1 1024 80 10000 3.6 230 09:42 20.01.2020
477 Clouds 1 1024 86 10000 3.6 230 09:24 20.01.2020
478 Clouds 1 1024 86 10000 4.1 230 08:59 20.01.2020
479 Clouds 1 1024 86 10000 5.1 250 08:39 20.01.2020
480 Clouds 1 1024 86 10000 5.1 250 08:20 20.01.2020
481 Clouds 1 1024 86 10000 4.6 240 07:42 20.01.2020
482 Clouds 1 1024 86 10000 4.6 240 07:22 20.01.2020
483 Clouds 2 1024 78 10000 4.1 240 06:44 20.01.2020
484 Clouds 2 1024 78 10000 4.1 240 06:24 20.01.2020
485 Clouds 3 1025 78 10000 4.1 260 05:41 20.01.2020
486 Clouds 3 1025 85 10000 4.1 260 05:20 20.01.2020
487 Clouds 3 1025 80 10000 6.7 280 04:24 20.01.2020
488 Drizzle 4 1025 80 10000 6.2 270 02:33 20.01.2020
489 Clouds 3 1025 80 10000 5.7 280 01:40 20.01.2020
490 Clouds 4 1025 80 10000 5.7 280 01:20 20.01.2020
491 Clouds 4 1024 80 10000 6.2 270 00:43 20.01.2020
492 Clouds 4 1024 80 10000 6.2 270 00:21 20.01.2020
493 Clouds 4 1024 80 10000 6.2 270 23:38 19.01.2020
494 Clouds 4 1024 80 10000 6.2 270 23:19 19.01.2020
495 Clouds 4 1024 80 10000 5.7 270 22:56 19.01.2020
496 Clouds 4 1023 80 10000 5.1 280 22:37 19.01.2020
497 Clouds 4 1023 80 10000 5.1 280 22:19 19.01.2020
498 Clouds 3 1023 86 10000 5.1 270 21:56 19.01.2020
499 Drizzle 3 1023 86 10000 6.2 270 21:38 19.01.2020
500 Drizzle 3 1023 86 10000 6.2 270 21:38 19.01.2020
501 Drizzle 3 1023 86 10000 6.2 270 21:19 19.01.2020
502 Clouds 3 1022 86 10000 5.7 270 20:57 19.01.2020
503 Clouds 3 1022 80 10000 4.1 280 20:38 19.01.2020
504 Clouds 3 1022 80 10000 4.1 280 20:20 19.01.2020
505 Clouds 3 1022 80 10000 5.7 270 19:55 19.01.2020
506 Clouds 3 1022 80 10000 5.1 270 19:37 19.01.2020
507 Clouds 3 1022 80 10000 5.1 270 19:19 19.01.2020
508 Clouds 3 1022 80 10000 5.1 270 19:19 19.01.2020
509 Clouds 3 1022 80 10000 5.1 270 19:19 19.01.2020
510 Clouds 3 1021 86 10000 5.1 260 18:55 19.01.2020
511 Clouds 3 1021 86 10000 3.6 260 18:37 19.01.2020
512 Clouds 3 1021 86 10000 3.6 260 18:19 19.01.2020
513 Clouds 3 1021 86 10000 4.6 250 17:57 19.01.2020
514 Clouds 3 1020 86 10000 4.1 250 17:39 19.01.2020
515 Clouds 2 1020 86 10000 4.1 250 17:20 19.01.2020
516 Clouds 2 1020 93 10000 4.1 240 16:57 19.01.2020
517 Clouds 2 1020 93 10000 4.1 240 16:38 19.01.2020
518 Clouds 2 1020 93 10000 4.1 240 16:19 19.01.2020
519 Clouds 2 1019 93 10000 3.6 240 15:57 19.01.2020
520 Clouds 2 1019 93 10000 4.1 230 15:37 19.01.2020
521 Clouds 2 1019 93 10000 4.1 230 15:19 19.01.2020
522 Clouds 3 1019 86 10000 5.1 260 14:57 19.01.2020
523 Clouds 3 1018 81 10000 5.1 260 14:37 19.01.2020
524 Clouds 3 1018 79 10000 5.1 260 14:18 19.01.2020
525 Clouds 3 1018 79 10000 5.7 260 13:54 19.01.2020
526 Clouds 3 1017 79 10000 5.7 270 13:36 19.01.2020
527 Clouds 3 1017 79 10000 5.7 270 13:18 19.01.2020
528 Clouds 2 1016 79 10000 6.7 270 12:42 19.01.2020
529 Clouds 2 1016 79 10000 6.7 270 12:23 19.01.2020
530 Clouds 2 1016 79 10000 7.2 270 11:57 19.01.2020
531 Clouds 2 1015 79 10000 7.7 280 11:39 19.01.2020
532 Clouds 2 1015 84 10000 7.7 280 11:20 19.01.2020
533 Clouds 2 1015 84 10000 7.2 280 10:55 19.01.2020
534 Drizzle 2 1014 93 10000 7.7 270 10:37 19.01.2020
535 Drizzle 2 1014 93 10000 7.7 270 10:18 19.01.2020
536 Clouds 3 1012 93 10000 8.2 260 09:41 19.01.2020
537 Clouds 3 1012 93 10000 8.2 260 09:23 19.01.2020
538 Drizzle 4 1011 93 9000 6.2 240 08:57 19.01.2020
539 Clouds 4 1011 93 10000 6.7 220 08:38 19.01.2020
540 Clouds 4 1011 93 10000 6.7 220 08:20 19.01.2020
541 Rain 4 1010 86 10000 7.2 210 07:40 19.01.2020
542 Rain 4 1010 86 10000 7.2 210 07:21 19.01.2020
543 Clouds 4 1010 93 10000 6.2 220 06:44 19.01.2020
544 Rain 4 1009 93 10000 8.2 210 04:41 19.01.2020
545 Clouds 4 1009 86 10000 8.2 210 02:43 19.01.2020
546 Clouds 4 1009 86 10000 8.2 210 02:21 19.01.2020
547 Clouds 4 1009 86 10000 7.7 210 01:24 19.01.2020
548 Clouds 4 1009 86 10000 7.7 210 01:24 19.01.2020
549 Rain 4 1009 93 10000 7.7 210 00:45 19.01.2020
550 Clouds 4 1009 86 10000 7.2 210 00:27 19.01.2020
551 Clouds 4 1009 86 10000 7.2 210 23:55 18.01.2020
552 Clouds 5 1009 93 10000 7.2 210 23:37 18.01.2020
553 Clouds 5 1009 93 10000 7.2 210 23:18 18.01.2020
554 Clouds 5 1009 93 10000 7.7 210 22:54 18.01.2020
555 Clouds 5 1008 93 10000 8.2 210 22:36 18.01.2020
556 Clouds 5 1008 93 10000 8.2 210 22:36 18.01.2020
557 Clouds 5 1008 93 10000 8.2 210 22:18 18.01.2020
558 Rain 5 1008 93 8000 7.7 210 21:56 18.01.2020
559 Clouds 5 1008 93 8000 8.7 210 21:36 18.01.2020
560 Clouds 5 1008 93 8000 8.7 210 21:18 18.01.2020
561 Drizzle 5 1008 100 4000 7.2 210 20:41 18.01.2020
562 Drizzle 5 1008 100 3500 7.2 200 20:20 18.01.2020
563 Drizzle 5 1008 93 4500 7.7 200 19:54 18.01.2020
564 Drizzle 5 1008 93 4000 6.7 200 19:36 18.01.2020
565 Drizzle 5 1008 93 4000 6.7 200 19:18 18.01.2020
566 Drizzle 5 1008 100 3500 7.7 200 18:40 18.01.2020
567 Drizzle 4 1008 100 3500 7.7 200 18:40 18.01.2020
568 Drizzle 4 1008 100 3500 7.7 200 18:21 18.01.2020
569 Drizzle 4 1008 93 3200 7.7 200 17:41 18.01.2020
570 Drizzle 4 1008 93 3200 7.7 200 17:21 18.01.2020
571 Drizzle 4 1008 93 3400 6.7 190 16:57 18.01.2020
572 Drizzle 4 1008 93 4000 6.7 200 16:39 18.01.2020
573 Drizzle 4 1008 93 4000 6.7 200 16:21 18.01.2020
574 Drizzle 4 1008 93 2500 7.2 200 15:56 18.01.2020
575 Drizzle 4 1008 93 2800 6.7 210 15:38 18.01.2020
576 Drizzle 4 1008 93 2800 6.7 210 15:20 18.01.2020
577 Drizzle 4 1008 93 3700 7.2 200 14:41 18.01.2020
578 Drizzle 4 1008 93 2800 6.7 200 14:20 18.01.2020
579 Drizzle 4 1008 100 2500 7.7 200 13:58 18.01.2020
580 Drizzle 3 1008 93 2400 7.7 190 13:37 18.01.2020
581 Drizzle 3 1008 93 2400 7.7 190 13:18 18.01.2020
582 Drizzle 3 1008 93 2500 7.7 200 12:43 18.01.2020
583 Drizzle 3 1008 93 2500 7.7 200 12:22 18.01.2020
584 Drizzle 2 1008 93 5000 7.7 200 11:58 18.01.2020
585 Drizzle 2 1009 93 4000 7.2 200 11:40 18.01.2020
586 Drizzle 2 1009 93 4000 7.2 200 11:20 18.01.2020
587 Drizzle 2 1009 93 3500 8.7 200 10:43 18.01.2020
588 Drizzle 2 1009 93 4000 5.1 190 10:21 18.01.2020
589 Drizzle 2 1009 84 8000 6.2 200 09:55 18.01.2020
590 Clouds 2 1009 84 10000 5.1 200 09:37 18.01.2020
591 Clouds 2 1009 84 10000 5.1 200 09:18 18.01.2020
592 Clouds 2 1010 84 10000 5.7 190 08:42 18.01.2020
593 Clouds 2 1010 78 10000 5.7 190 08:20 18.01.2020
594 Clouds 2 1010 78 10000 5.7 190 07:56 18.01.2020
595 Clouds 2 1011 78 10000 5.1 180 07:37 18.01.2020
596 Clouds 1 1011 78 10000 2.6 160 06:50 18.01.2020
597 Clouds 1 1011 78 10000 3.6 160 06:22 18.01.2020
598 Clouds 1 1012 78 10000 3.1 160 05:45 18.01.2020
599 Clouds 2 1013 93 10000 4.1 170 04:19 18.01.2020
600 Clouds 4 1014 93 10000 6.2 210 02:21 18.01.2020
601 Clouds 4 1015 93 10000 5.1 210 01:36 18.01.2020
602 Clouds 5 1015 86 10000 5.7 210 00:39 18.01.2020
603 Clouds 5 1015 86 10000 6.2 210 00:19 18.01.2020
604 Clouds 5 1015 86 10000 5.7 210 23:56 17.01.2020
605 Drizzle 5 1015 93 10000 6.7 210 23:38 17.01.2020
606 Drizzle 5 1015 93 10000 6.7 210 23:18 17.01.2020
607 Drizzle 5 1016 93 7000 6.2 210 22:40 17.01.2020
608 Drizzle 5 1016 93 9000 6.7 210 22:19 17.01.2020
609 Drizzle 5 1016 93 10000 6.7 220 21:43 17.01.2020
610 Clouds 5 1016 86 10000 6.7 210 21:24 17.01.2020
611 Clouds 5 1016 86 10000 7.2 210 20:59 17.01.2020
612 Clouds 5 1016 86 10000 7.2 210 20:41 17.01.2020
613 Clouds 5 1016 86 10000 7.2 210 20:20 17.01.2020
614 Clouds 5 1016 86 10000 7.2 210 19:57 17.01.2020
615 Clouds 5 1017 86 10000 7.7 210 19:38 17.01.2020
616 Clouds 5 1017 86 10000 7.7 210 19:19 17.01.2020
617 Clouds 5 1017 86 10000 8.7 210 18:57 17.01.2020
618 Clouds 5 1017 86 10000 7.7 210 18:38 17.01.2020
619 Clouds 5 1017 86 10000 7.7 210 18:19 17.01.2020
620 Clouds 5 1017 86 10000 6.7 210 17:40 17.01.2020
621 Clouds 5 1017 86 10000 6.7 210 17:40 17.01.2020
622 Clouds 5 1017 86 10000 6.7 210 17:21 17.01.2020
623 Clouds 5 1017 86 10000 5.7 210 16:55 17.01.2020
624 Clouds 5 1017 86 10000 6.2 200 16:36 17.01.2020
625 Clouds 5 1017 86 10000 6.2 200 16:18 17.01.2020
626 Clouds 5 1018 80 10000 5.7 210 15:43 17.01.2020
627 Clouds 5 1018 80 10000 5.7 210 15:25 17.01.2020
628 Clouds 5 1018 86 10000 7.2 220 14:44 17.01.2020
629 Clouds 5 1018 86 10000 7.2 220 14:25 17.01.2020
630 Clouds 5 1018 86 10000 7.2 220 13:47 17.01.2020
631 Clouds 5 1018 86 10000 5.7 230 13:23 17.01.2020
632 Clouds 5 1018 86 10000 5.7 220 12:56 17.01.2020
633 Clouds 5 1018 93 10000 6.2 230 12:37 17.01.2020
634 Clouds 4 1018 93 10000 6.2 230 12:18 17.01.2020
635 Clouds 4 1018 93 10000 5.1 220 11:38 17.01.2020
636 Clouds 4 1018 93 10000 5.1 220 11:18 17.01.2020
637 Clouds 4 1018 93 10000 4.6 230 10:42 17.01.2020
638 Clouds 4 1018 100 10000 4.6 220 10:22 17.01.2020
639 Clouds 3 1018 93 10000 4.1 210 09:57 17.01.2020
640 Clouds 3 1018 93 10000 4.1 220 09:37 17.01.2020
641 Clouds 3 1017 100 10000 3.6 220 09:18 17.01.2020
642 Clouds 3 1017 100 10000 3.6 220 08:42 17.01.2020
643 Clouds 2 1018 93 10000 3.6 220 08:24 17.01.2020
644 Clouds 2 1017 100 10000 3.6 230 07:53 17.01.2020
645 Clouds 2 1017 93 10000 4.1 210 07:31 17.01.2020
646 Clouds 2 1017 93 10000 3.6 210 06:57 17.01.2020
647 Clouds 2 1017 93 10000 3.1 220 06:38 17.01.2020
648 Clouds 2 1017 93 10000 3.6 230 05:28 17.01.2020
649 Clear 2 1016 91 0 0.89 202 03:39 17.01.2020
650 Clear 2 1017 92 0 10.04 259 02:45 17.01.2020
651 Clear 2 1016 89 0 8.39 256 01:46 17.01.2020
652 Clear 2 1017 92 0 8.39 256 01:27 17.01.2020
653 Clear 2 1015 89 0 8.4 255 00:44 17.01.2020
654 Clear 2 1014 93 10000 3.6 250 00:20 17.01.2020
655 Clear 3 1014 93 10000 3.6 250 23:42 16.01.2020
656 Clear 3 1014 93 10000 3.6 250 23:24 16.01.2020
657 Clear 3 1014 86 10000 5.1 250 22:43 16.01.2020
658 Clear 3 1014 86 10000 5.1 250 22:22 16.01.2020
659 Clear 3 1013 86 10000 4.1 250 21:57 16.01.2020
660 Clear 4 1012 86 10000 4.1 240 21:39 16.01.2020
661 Clear 4 1012 86 10000 4.1 240 21:20 16.01.2020
662 Clouds 4 1012 93 10000 4.1 230 20:59 16.01.2020
663 Clouds 4 1012 86 10000 4.6 240 20:40 16.01.2020
664 Clouds 4 1012 86 10000 4.6 240 20:20 16.01.2020
665 Clouds 4 1011 86 10000 5.1 240 19:57 16.01.2020
666 Clouds 5 1011 93 10000 4.6 240 19:39 16.01.2020
667 Clouds 5 1011 86 10000 4.6 230 19:20 16.01.2020
668 Clouds 5 1011 86 10000 4.6 230 18:56 16.01.2020
669 Clouds 5 1011 86 10000 4.1 230 18:37 16.01.2020
670 Clouds 5 1011 86 10000 4.1 230 18:18 16.01.2020
671 Clouds 5 1011 86 10000 4.1 230 18:18 16.01.2020
672 Clouds 5 1010 86 10000 4.6 230 17:55 16.01.2020
673 Clouds 5 1010 86 10000 3.6 230 17:37 16.01.2020
674 Clouds 5 1010 86 10000 3.6 230 17:18 16.01.2020
675 Clouds 5 1009 86 10000 5.1 230 16:40 16.01.2020
676 Clouds 5 1009 86 10000 5.1 230 16:21 16.01.2020
677 Clouds 5 1009 86 10000 5.1 230 15:55 16.01.2020
678 Clouds 5 1009 86 10000 4.6 240 15:37 16.01.2020
679 Clouds 5 1009 86 10000 4.6 240 15:18 16.01.2020
680 Clouds 5 1008 86 10000 4.6 230 14:41 16.01.2020
681 Clouds 5 1008 86 10000 4.6 230 14:23 16.01.2020
682 Clouds 5 1007 86 10000 4.1 240 13:46 16.01.2020
683 Clouds 5 1007 86 10000 5.1 240 13:28 16.01.2020
684 Rain 5 1007 86 10000 4.6 230 12:57 16.01.2020
685 Rain 5 1006 86 10000 4.6 230 12:38 16.01.2020
686 Rain 5 1006 86 10000 4.6 230 12:20 16.01.2020
687 Rain 5 1006 86 10000 5.7 240 11:41 16.01.2020
688 Rain 5 1006 86 10000 5.7 240 11:23 16.01.2020
689 Clouds 5 1006 80 10000 6.2 230 10:55 16.01.2020
690 Clouds 5 1006 80 10000 6.2 230 10:55 16.01.2020
691 Clouds 5 1005 80 10000 5.1 230 10:37 16.01.2020
692 Clouds 5 1005 80 10000 5.1 230 10:19 16.01.2020
693 Clouds 5 1005 80 10000 6.2 240 09:43 16.01.2020
694 Clouds 5 1004 86 10000 5.1 230 09:24 16.01.2020
695 Clouds 4 1004 86 10000 5.1 230 08:58 16.01.2020
696 Clouds 4 1003 86 10000 5.1 230 08:40 16.01.2020
697 Clouds 4 1003 86 10000 5.1 230 08:19 16.01.2020
698 Clouds 4 1003 86 10000 5.7 230 07:42 16.01.2020
699 Clouds 4 1003 86 10000 5.7 230 07:23 16.01.2020
700 Clouds 4 1002 86 10000 5.7 220 06:52 16.01.2020
701 Clouds 4 1002 86 10000 6.2 220 06:34 16.01.2020
702 Clouds 4 1001 80 10000 6.7 220 05:49 16.01.2020
703 Clouds 5 1001 80 10000 7.2 220 04:50 16.01.2020
704 Rain 5 1001 75 10000 6.2 220 03:57 16.01.2020
705 Rain 5 1000 86 10000 4.1 210 02:47 16.01.2020
706 Clouds 5 1001 93 10000 4.6 210 01:34 16.01.2020
707 Clouds 5 1001 86 10000 4.6 220 00:43 16.01.2020
708 Clouds 5 1001 86 10000 4.6 220 00:23 16.01.2020
709 Clouds 5 1000 86 10000 4.1 220 23:45 15.01.2020
710 Clouds 5 1000 86 10000 4.1 210 23:22 15.01.2020
711 Clouds 5 1000 86 10000 4.6 220 22:56 15.01.2020
712 Clouds 5 1000 86 10000 4.6 230 22:38 15.01.2020
713 Clouds 5 1000 86 10000 4.6 230 22:18 15.01.2020
714 Clouds 6 999 81 10000 5.7 230 21:56 15.01.2020
715 Clouds 6 999 81 10000 5.1 240 21:37 15.01.2020
716 Clouds 6 999 81 10000 5.1 240 21:37 15.01.2020
717 Clouds 6 999 81 10000 5.1 240 21:18 15.01.2020
718 Clouds 6 998 87 10000 6.2 240 20:55 15.01.2020
719 Clouds 6 998 87 10000 6.2 240 20:37 15.01.2020
720 Clouds 6 998 87 10000 6.2 240 20:18 15.01.2020
721 Clouds 6 998 81 10000 7.7 240 19:54 15.01.2020
722 Clouds 6 997 87 10000 7.7 230 19:36 15.01.2020
723 Clouds 6 997 87 10000 7.7 230 19:18 15.01.2020
724 Clouds 6 997 87 10000 7.7 230 19:18 15.01.2020
725 Clouds 6 997 87 10000 7.2 230 18:55 15.01.2020
726 Clouds 7 997 87 10000 8.7 220 18:37 15.01.2020
727 Clouds 7 997 87 10000 8.7 220 18:19 15.01.2020
728 Rain 7 996 93 10000 7.7 220 17:41 15.01.2020
729 Rain 7 996 93 10000 7.7 220 17:22 15.01.2020
730 Drizzle 7 996 93 7000 8.2 220 16:57 15.01.2020
731 Drizzle 7 995 93 7000 9.3 220 16:38 15.01.2020
732 Drizzle 7 995 93 7000 9.3 220 16:20 15.01.2020
733 Drizzle 7 995 93 7000 9.3 220 16:20 15.01.2020
734 Drizzle 7 995 93 7000 9.3 220 16:20 15.01.2020
735 Drizzle 7 995 93 7000 9.3 220 16:20 15.01.2020
736 Drizzle 7 995 93 7000 9.3 220 16:20 15.01.2020
737 Rain 7 994 93 10000 9.8 220 15:43 15.01.2020
738 Rain 7 994 93 10000 9.8 220 15:21 15.01.2020
739 Drizzle 7 994 93 7000 9.8 220 14:57 15.01.2020
740 Rain 7 994 93 10000 10.8 220 14:39 15.01.2020
741 Rain 7 994 93 10000 10.8 220 14:18 15.01.2020
742 Clouds 7 994 93 10000 11.8 220 13:44 15.01.2020
743 Clouds 7 994 93 10000 11.3 220 13:23 15.01.2020
744 Drizzle 7 994 93 9000 10.8 220 12:56 15.01.2020
745 Drizzle 7 994 93 9000 12.9 220 12:37 15.01.2020
746 Drizzle 7 994 93 9000 12.9 220 12:19 15.01.2020
747 Drizzle 7 993 93 8000 12.9 220 11:54 15.01.2020
748 Drizzle 7 993 100 8000 12.9 210 11:36 15.01.2020
749 Drizzle 6 993 100 8000 12.9 210 11:18 15.01.2020
750 Rain 6 993 93 8000 11.3 200 10:41 15.01.2020
751 Rain 6 993 93 8000 11.3 200 10:21 15.01.2020
752 Rain 6 994 93 5000 12.3 200 09:41 15.01.2020
753 Rain 5 994 93 5000 12.3 200 09:22 15.01.2020
754 Rain 5 994 100 8000 11.3 180 08:45 15.01.2020
755 Rain 5 995 100 8000 10.8 190 08:27 15.01.2020
756 Rain 5 995 93 10000 9.3 180 07:56 15.01.2020
757 Rain 5 996 93 10000 7.7 190 07:35 15.01.2020
758 Rain 5 997 93 10000 8.2 190 06:57 15.01.2020
759 Rain 5 997 93 10000 8.2 190 06:57 15.01.2020
760 Rain 5 998 93 10000 8.2 200 06:38 15.01.2020
761 Rain 5 998 93 10000 8.7 210 05:52 15.01.2020
762 Clouds 5 999 86 10000 6.7 210 03:44 15.01.2020
763 Clouds 5 999 93 10000 6.2 200 01:50 15.01.2020
764 Drizzle 5 999 93 10000 7.2 210 01:22 15.01.2020
765 Drizzle 5 999 93 10000 7.7 210 00:38 15.01.2020
766 Drizzle 5 999 93 10000 7.7 210 00:20 15.01.2020
767 Drizzle 4 999 93 8000 9.3 200 23:47 14.01.2020
768 Drizzle 4 999 93 8000 9.3 200 23:28 14.01.2020
769 Drizzle 4 999 93 6000 10.3 200 22:58 14.01.2020
770 Drizzle 3 999 93 4500 11.8 200 22:40 14.01.2020
771 Drizzle 3 999 93 4500 11.8 200 22:19 14.01.2020
772 Drizzle 3 999 93 4500 10.8 190 21:57 14.01.2020
773 Rain 3 1000 93 6000 10.8 190 21:39 14.01.2020
774 Rain 3 1000 93 6000 10.8 190 21:19 14.01.2020
775 Rain 3 1000 93 5000 11.8 190 20:54 14.01.2020
776 Rain 3 1001 86 5000 9.3 180 20:36 14.01.2020
777 Rain 3 1001 86 5000 9.3 180 20:36 14.01.2020
778 Rain 3 1001 86 5000 9.3 180 20:18 14.01.2020
779 Rain 3 1001 86 5000 9.3 180 20:18 14.01.2020
780 Rain 3 1001 86 5000 9.3 180 19:55 14.01.2020
781 Rain 3 1002 86 8000 8.7 170 19:36 14.01.2020
782 Rain 3 1002 86 8000 8.7 170 19:18 14.01.2020
783 Rain 3 1002 86 10000 9.3 180 18:40 14.01.2020
784 Clouds 3 1003 86 10000 8.7 180 18:20 14.01.2020
785 Clouds 3 1003 86 10000 8.7 180 17:56 14.01.2020
786 Clouds 3 1004 90 10000 9.3 180 17:36 14.01.2020
787 Clouds 3 1004 80 10000 9.3 180 17:18 14.01.2020
788 Clouds 3 1005 80 10000 10.8 180 16:42 14.01.2020
789 Clouds 3 1005 80 10000 10.8 180 16:22 14.01.2020
790 Clouds 4 1005 80 10000 8.7 190 15:56 14.01.2020
791 Clouds 4 1006 80 10000 9.8 190 15:38 14.01.2020
792 Clouds 4 1006 80 10000 9.8 190 15:19 14.01.2020
793 Clouds 4 1006 80 10000 9.3 180 14:43 14.01.2020
794 Clouds 4 1007 86 10000 7.7 190 14:20 14.01.2020
795 Clouds 4 1007 86 10000 7.7 190 13:55 14.01.2020
796 Clouds 3 1007 80 10000 7.2 190 13:37 14.01.2020
797 Clouds 4 1007 80 10000 7.2 190 13:18 14.01.2020
798 Clouds 4 1008 80 10000 7.7 190 12:41 14.01.2020
799 Clouds 4 1008 80 10000 7.7 190 12:20 14.01.2020
800 Clouds 4 1008 80 10000 7.2 200 11:43 14.01.2020
801 Clouds 4 1008 80 10000 7.2 200 11:25 14.01.2020
802 Clouds 4 1009 80 10000 5.7 200 10:59 14.01.2020
803 Clouds 3 1009 86 10000 4.1 190 10:40 14.01.2020
804 Clouds 3 1009 84 10000 4.1 200 10:20 14.01.2020
805 Clouds 3 1009 84 10000 4.1 200 09:58 14.01.2020
806 Clouds 3 1009 84 10000 3.1 210 09:40 14.01.2020
807 Clouds 2 1009 84 10000 3.1 210 09:20 14.01.2020
808 Clouds 2 1009 84 10000 3.6 230 08:48 14.01.2020
809 Clouds 3 1009 85 10000 6.2 230 08:25 14.01.2020
810 Clouds 2 1009 85 10000 4.1 230 07:56 14.01.2020
811 Clouds 2 1008 85 10000 3.6 230 07:33 14.01.2020
812 Clouds 2 1008 85 10000 4.6 230 06:56 14.01.2020
813 Clouds 2 1008 85 10000 5.1 230 06:34 14.01.2020
814 Clouds 2 1008 80 10000 4.6 230 05:28 14.01.2020
815 Clouds 3 1008 85 10000 6.2 240 03:52 14.01.2020
816 Clouds 3 1008 85 10000 6.2 240 03:52 14.01.2020
817 Clouds 2 1007 85 10000 5.7 240 02:50 14.01.2020
818 Clouds 2 1007 87 10000 5.1 250 01:56 14.01.2020
819 Clouds 2 1007 86 10000 5.1 230 00:51 14.01.2020
820 Clouds 2 1007 86 10000 5.7 240 00:33 14.01.2020
821 Clouds 2 1007 86 10000 5.7 240 00:33 14.01.2020
822 Clouds 2 1007 86 10000 4.1 240 23:55 13.01.2020
823 Clouds 2 1007 86 10000 6.2 220 23:37 13.01.2020
824 Clouds 2 1006 87 10000 5.1 220 23:18 13.01.2020
825 Clouds 2 1007 87 10000 6.2 230 22:42 13.01.2020
826 Clouds 2 1007 87 10000 6.2 230 22:21 13.01.2020
827 Clouds 2 1006 87 10000 4.6 220 21:57 13.01.2020
828 Clouds 2 1006 87 10000 3.6 230 21:38 13.01.2020
829 Clouds 1 1006 87 10000 3.6 230 21:19 13.01.2020
830 Clouds 1 1006 87 10000 3.6 230 21:19 13.01.2020
831 Clouds 1 1006 87 10000 4.6 230 20:58 13.01.2020
832 Clouds 1 1006 87 10000 4.1 240 20:40 13.01.2020
833 Clouds 2 1006 86 10000 4.1 240 20:22 13.01.2020
834 Clouds 1 1006 86 10000 5.1 230 19:59 13.01.2020
835 Clouds 1 1006 86 10000 4.1 240 19:39 13.01.2020
836 Clouds 1 1006 86 10000 4.1 240 19:20 13.01.2020
837 Clouds 1 1006 86 10000 4.6 240 18:56 13.01.2020
838 Clouds 1 1006 86 10000 4.1 230 18:37 13.01.2020
839 Clouds 1 1006 86 10000 4.1 230 18:37 13.01.2020
840 Clouds 1 1006 86 10000 4.6 230 18:18 13.01.2020
841 Clouds 1 1006 86 10000 4.6 240 17:43 13.01.2020
842 Clouds 1 1006 86 10000 4.6 240 17:24 13.01.2020
843 Clouds 1 1006 86 10000 4.6 240 17:24 13.01.2020
844 Clouds 1 1006 86 10000 4.1 240 16:57 13.01.2020
845 Clear 1 1006 87 0 0.45 231 16:38 13.01.2020
846 Clear 1 1006 78 0 7.67 257 16:20 13.01.2020
847 Clear 1 1006 78 0 7.67 257 15:44 13.01.2020
848 Clear 1 1006 77 0 7.67 257 15:24 13.01.2020
849 Clear 1 1007 87 0 7.67 257 14:58 13.01.2020
850 Clear 1 1007 87 0 7.67 257 14:38 13.01.2020
851 Clear 1 1006 74 0 0.89 274 14:20 13.01.2020
852 Clouds 1 1006 86 0 8.13 267 13:43 13.01.2020
853 Clouds 1 1006 86 0 8.13 267 13:43 13.01.2020
854 Clouds 1 1005 86 0 0.45 293 13:25 13.01.2020
855 Clouds 1 1005 87 0 0.45 232 12:59 13.01.2020
856 Clouds 1 1005 84 10000 5.1 250 12:41 13.01.2020
857 Clouds 1 1005 84 10000 5.1 250 12:23 13.01.2020
858 Clouds 1 1005 84 10000 5.1 250 11:57 13.01.2020
859 Clouds 1 1004 84 10000 3.6 250 11:37 13.01.2020
860 Clouds 1 1004 83 10000 3.6 250 11:19 13.01.2020
861 Clouds 1 1004 83 10000 4.6 250 10:56 13.01.2020
862 Clouds 1 1004 83 10000 5.1 250 10:37 13.01.2020
863 Clouds 1 1004 83 10000 5.1 250 10:37 13.01.2020
864 Clouds 1 1004 83 10000 5.1 250 10:19 13.01.2020
865 Clouds 1 1004 83 10000 3.6 240 09:43 13.01.2020
866 Clouds 1 1004 83 10000 3.6 240 09:24 13.01.2020
867 Clouds 0 1003 83 10000 3.6 230 08:56 13.01.2020
868 Clouds 0 1003 100 10000 4.1 230 08:36 13.01.2020
869 Clear 0 1003 92 10000 2.1 230 08:18 13.01.2020
870 Clouds -1 1003 92 10000 3.1 220 07:42 13.01.2020
871 Clouds -1 1003 92 10000 3.1 220 07:21 13.01.2020
872 Clouds -1 1003 80 10000 4.6 220 06:37 13.01.2020
873 Clouds -1 1003 100 10000 3.6 210 05:37 13.01.2020
874 Clouds -1 1003 100 10000 3.6 210 05:37 13.01.2020
875 Clouds 0 1002 78 10000 3.6 190 05:18 13.01.2020
876 Clouds 0 1002 78 10000 2.6 270 03:41 13.01.2020
877 Clouds 0 1002 78 10000 4.1 270 02:50 13.01.2020
878 Clouds 1 1002 78 10000 5.1 270 02:30 13.01.2020
879 Clouds 2 1001 93 10000 5.1 250 01:33 13.01.2020
880 Clouds 2 1001 93 10000 3.6 260 00:46 13.01.2020
881 Clouds 2 1000 86 10000 4.1 280 00:26 13.01.2020
882 Clouds 2 1000 86 10000 6.2 270 23:58 12.01.2020
883 Clouds 3 999 86 10000 5.1 270 23:40 12.01.2020
884 Clouds 3 999 86 10000 5.1 270 23:21 12.01.2020
885 Clouds 3 998 86 10000 5.7 260 22:56 12.01.2020
886 Clouds 3 998 86 10000 5.1 250 22:37 12.01.2020
887 Clouds 4 998 93 10000 5.1 250 22:18 12.01.2020
888 Clouds 4 997 93 10000 5.1 260 21:42 12.01.2020
889 Clouds 4 997 93 10000 5.1 260 21:20 12.01.2020
890 Clouds 4 997 86 10000 5.7 250 20:59 12.01.2020
891 Rain 4 997 86 10000 5.1 250 20:39 12.01.2020
892 Rain 4 997 86 10000 5.1 250 20:21 12.01.2020
893 Rain 4 996 86 10000 5.7 260 19:57 12.01.2020
894 Rain 4 996 86 10000 5.7 260 19:38 12.01.2020
895 Rain 5 996 93 10000 5.7 240 19:19 12.01.2020
896 Rain 5 996 93 10000 5.7 240 19:19 12.01.2020
897 Rain 5 996 93 10000 5.1 240 18:58 12.01.2020
898 Rain 5 996 93 10000 5.1 240 18:40 12.01.2020
899 Rain 5 996 93 10000 5.1 230 18:21 12.01.2020
900 Rain 5 996 93 10000 5.1 240 17:59 12.01.2020
901 Clouds 5 996 93 10000 4.6 220 17:40 12.01.2020
902 Clouds 5 996 93 10000 4.6 220 17:19 12.01.2020
903 Rain 5 996 93 10000 3.6 230 16:56 12.01.2020
904 Rain 5 996 93 10000 4.1 230 16:37 12.01.2020
905 Rain 5 996 93 10000 4.1 230 16:19 12.01.2020
906 Clouds 5 996 93 10000 4.1 240 15:43 12.01.2020
907 Clouds 5 996 93 10000 4.1 240 15:24 12.01.2020
908 Clouds 6 996 87 10000 3.6 250 14:57 12.01.2020
909 Clouds 6 996 87 10000 5.7 250 14:38 12.01.2020
910 Clouds 6 996 87 10000 5.7 250 14:20 12.01.2020
911 Clouds 6 996 93 10000 6.2 240 13:54 12.01.2020
912 Clouds 6 995 93 10000 5.7 250 13:36 12.01.2020
913 Clouds 6 995 93 10000 5.7 250 13:18 12.01.2020
914 Clouds 6 995 93 10000 6.7 250 12:42 12.01.2020
915 Clouds 6 995 93 10000 6.7 250 12:20 12.01.2020
916 Clouds 6 995 93 10000 7.2 250 11:59 12.01.2020
917 Clouds 6 995 93 10000 6.2 250 11:39 12.01.2020
918 Clouds 6 995 93 10000 6.2 250 11:20 12.01.2020
919 Drizzle 5 995 100 6000 6.7 240 10:42 12.01.2020
920 Drizzle 5 995 100 6000 6.7 240 10:22 12.01.2020
921 Drizzle 5 995 100 8000 7.2 240 09:57 12.01.2020
922 Drizzle 5 995 100 5000 7.2 230 09:39 12.01.2020
923 Drizzle 5 995 100 5000 7.2 230 09:20 12.01.2020
924 Rain 5 995 93 8000 8.2 230 08:45 12.01.2020
925 Rain 5 995 93 8000 8.2 230 08:21 12.01.2020
926 Rain 5 995 93 5000 7.7 220 07:42 12.01.2020
927 Rain 5 995 93 5000 7.7 220 07:24 12.01.2020
928 Rain 5 995 93 7000 8.2 220 06:48 12.01.2020
929 Rain 5 996 93 10000 9.3 230 06:30 12.01.2020
930 Rain 5 996 93 10000 8.7 220 05:32 12.01.2020
931 Rain 5 997 93 10000 10.3 220 04:30 12.01.2020
932 Rain 5 998 86 7000 10.8 220 03:25 12.01.2020
933 Rain 4 999 86 10000 10.8 220 02:34 12.01.2020
934 Rain 4 1000 86 7000 13.4 220 01:51 12.01.2020
935 Rain 4 1000 93 10000 12.3 220 01:29 12.01.2020
936 Rain 4 1001 93 10000 11.8 220 00:42 12.01.2020
937 Rain 4 1001 93 10000 11.8 220 00:20 12.01.2020
938 Rain 3 1003 93 10000 11.3 210 23:42 11.01.2020
939 Rain 3 1003 93 10000 11.3 210 23:42 11.01.2020
940 Rain 3 1003 93 10000 11.3 210 23:42 11.01.2020
941 Rain 3 1003 93 10000 11.3 210 23:20 11.01.2020
942 Rain 3 1003 93 10000 11.3 220 22:59 11.01.2020
943 Rain 3 1004 93 10000 11.8 210 22:41 11.01.2020
944 Rain 3 1004 86 8000 10.3 200 22:20 11.01.2020
945 Rain 3 1004 86 8000 10.3 200 21:58 11.01.2020
946 Rain 3 1006 93 9000 11.8 210 21:40 11.01.2020
947 Rain 2 1006 86 8000 11.8 200 21:18 11.01.2020
948 Rain 3 1006 86 8000 11.8 200 20:41 11.01.2020
949 Rain 3 1007 86 10000 12.3 210 20:22 11.01.2020
950 Clouds 3 1008 75 10000 10.3 210 19:58 11.01.2020
951 Clouds 3 1009 86 10000 9.8 200 19:39 11.01.2020
952 Clouds 3 1009 86 10000 9.8 200 19:21 11.01.2020
953 Rain 3 1009 86 10000 9.3 190 18:59 11.01.2020
954 Clouds 3 1010 86 10000 9.3 200 18:39 11.01.2020
955 Clouds 2 1010 86 10000 9.3 200 18:20 11.01.2020
956 Clouds 2 1011 75 10000 10.8 190 17:58 11.01.2020
957 Clouds 2 1011 75 10000 10.8 190 17:57 11.01.2020
958 Clouds 3 1012 75 10000 9.8 200 17:39 11.01.2020
959 Clouds 2 1012 73 10000 9.8 200 17:19 11.01.2020
960 Clouds 2 1012 74 10000 8.2 200 16:45 11.01.2020
961 Clouds 2 1013 74 10000 7.2 200 16:27 11.01.2020
962 Clouds 2 1014 80 10000 6.2 200 15:59 11.01.2020
963 Clouds 2 1014 80 10000 4.1 190 15:41 11.01.2020
964 Clouds 2 1014 80 10000 4.1 190 15:22 11.01.2020
965 Clouds 1 1015 86 10000 4.6 210 14:57 11.01.2020
966 Clouds 1 1015 86 10000 4.1 220 14:38 11.01.2020
967 Clouds 1 1015 86 10000 4.1 220 14:20 11.01.2020
968 Clouds 0 1016 75 10000 3.6 210 13:40 11.01.2020
969 Clouds 0 1016 75 10000 3.6 210 13:20 11.01.2020
970 Clouds 0 1016 75 10000 3.6 210 12:58 11.01.2020
971 Clouds 1 1016 75 10000 4.1 220 12:40 11.01.2020
972 Clouds 1 1016 75 10000 4.1 220 12:21 11.01.2020
973 Clouds 0 1016 92 10000 3.6 210 11:48 11.01.2020
974 Clouds -2 1016 86 10000 2.6 210 11:26 11.01.2020
975 Clear -2 1017 92 10000 3.1 190 10:51 11.01.2020
976 Clear -3 1017 92 10000 2.1 200 10:30 11.01.2020
977 Clear -3 1017 92 10000 2.6 210 09:58 11.01.2020
978 Clear -3 1017 92 10000 3.1 210 09:38 11.01.2020
979 Clear -4 1017 92 10000 3.1 210 09:20 11.01.2020
980 Clear -5 1017 85 10000 2.1 210 08:42 11.01.2020
981 Clear -6 1017 85 10000 2.1 210 08:21 11.01.2020
982 Clear -6 1017 92 10000 3.1 210 07:44 11.01.2020
983 Clear -6 1017 92 10000 3.1 210 07:25 11.01.2020
984 Clear -6 1017 92 10000 3.1 220 06:50 11.01.2020
985 Clear -6 1016 92 10000 1 230 05:40 11.01.2020
986 Clear -6 1016 92 10000 2.6 240 04:46 11.01.2020
987 Clear -6 1016 92 10000 3.1 230 04:27 11.01.2020
988 Clear -5 1016 92 10000 1 0 02:49 11.01.2020
989 Clear -7 1015 92 10000 0.5 0 02:20 11.01.2020
990 Clear -7 1015 92 10000 2.1 260 01:42 11.01.2020
991 Clear -7 1015 92 10000 2.1 260 01:18 11.01.2020
992 Clear -6 1015 92 10000 1 0 00:38 11.01.2020
993 Clear -6 1015 92 10000 1.5 330 23:59 10.01.2020
994 Clear -7 1015 92 10000 2.1 290 23:40 10.01.2020
995 Clear -7 1015 92 10000 2.1 290 23:21 10.01.2020
996 Clear -7 1014 92 10000 1 0 22:57 10.01.2020
997 Clear -7 1014 92 10000 1 0 22:39 10.01.2020
998 Clear -6 1014 92 10000 1 0 22:20 10.01.2020
999 Clear -7 1014 92 10000 1.5 290 21:56 10.01.2020
1000 Clear -6 1014 92 10000 1.5 280 21:36 10.01.2020
1001 Clear -6 1014 92 10000 1.5 270 21:18 10.01.2020
1002 Clear -6 1014 92 10000 1.5 270 20:43 10.01.2020
1003 Clear -6 1014 92 10000 1.5 270 20:43 10.01.2020
1004 Clouds -6 1014 100 10000 1.5 290 20:24 10.01.2020
1005 Clouds -6 1014 92 10000 1 250 19:56 10.01.2020
1006 Clouds -5 1013 92 10000 2.1 300 19:37 10.01.2020
1007 Clouds -5 1013 92 10000 2.1 300 19:19 10.01.2020
1008 Clouds -5 1013 92 10000 2.1 300 19:19 10.01.2020
1009 Clouds -5 1013 92 10000 1.5 310 18:42 10.01.2020
1010 Clouds -5 1013 100 10000 1.5 310 18:19 10.01.2020
1011 Clouds -5 1013 100 10000 1.5 310 17:57 10.01.2020
1012 Clouds -5 1013 100 10000 1.5 310 17:39 10.01.2020
1013 Clear -4 1013 100 10000 1.5 310 17:20 10.01.2020
1014 Clear -4 1013 92 10000 1.5 320 16:56 10.01.2020
1015 Clear -4 1013 100 10000 0.5 0 16:37 10.01.2020
1016 Clear -4 1013 100 10000 0.5 0 16:19 10.01.2020
1017 Clear -3 1013 92 10000 1.5 320 15:56 10.01.2020
1018 Clear -3 1012 92 10000 1.5 320 15:36 10.01.2020
1019 Clear -2 1012 86 10000 2.1 340 15:18 10.01.2020
1020 Clear -2 1012 86 10000 2.1 340 14:54 10.01.2020
1021 Clear -2 1012 92 10000 1.5 340 14:36 10.01.2020
1022 Clouds -2 1012 92 10000 1.5 340 14:18 10.01.2020
1023 Clouds -2 1012 92 10000 2.1 330 13:42 10.01.2020
1024 Clouds -2 1012 92 10000 2.1 330 13:23 10.01.2020
1025 Clouds -1 1012 92 10000 1.5 340 12:58 10.01.2020
1026 Clouds -1 1012 100 10000 1.5 290 12:39 10.01.2020
1027 Clouds -1 1012 100 10000 1.5 290 12:39 10.01.2020
1028 Clouds -1 1012 100 10000 1.5 290 12:19 10.01.2020
1029 Clouds -2 1012 92 10000 0.5 0 11:55 10.01.2020
1030 Clouds -2 1012 92 10000 0.5 0 11:37 10.01.2020
1031 Clouds -2 1012 92 10000 0.5 0 11:18 10.01.2020
1032 Clouds -3 1011 92 10000 1 0 10:44 10.01.2020
1033 Clouds -3 1011 92 10000 1.5 310 10:24 10.01.2020
1034 Clouds -4 1011 92 10000 1.5 340 09:59 10.01.2020
1035 Clouds -4 1011 100 10000 1.5 250 09:40 10.01.2020
1036 Clouds -4 1011 100 10000 1.5 250 09:22 10.01.2020
1037 Clouds -4 1010 100 10000 1 0 08:43 10.01.2020
1038 Clouds -3 1010 100 10000 1 0 08:24 10.01.2020
1039 Clouds -3 1010 92 10000 1 0 07:46 10.01.2020
1040 Clouds -3 1010 100 10000 1 0 07:28 10.01.2020
1041 Clouds -4 1010 92 10000 1.5 280 06:50 10.01.2020
1042 Clouds -4 1010 92 10000 1 290 06:26 10.01.2020
1043 Clouds -4 1010 100 10000 0.5 0 05:51 10.01.2020
1044 Clouds -3 1009 100 10000 1.5 260 03:46 10.01.2020
1045 Clouds -3 1009 100 10000 1.5 260 03:27 10.01.2020
1046 Clouds -3 1009 92 10000 1 0 02:50 10.01.2020
1047 Clouds -2 1009 92 10000 2.6 260 01:47 10.01.2020
1048 Clouds -2 1009 92 10000 2.6 260 01:28 10.01.2020
1049 Clouds -2 1009 92 10000 3.44 298 00:44 10.01.2020
1050 Clouds -2 1009 92 10000 3.44 298 00:19 10.01.2020
1051 Clouds -2 1009 92 10000 3.6 230 23:39 09.01.2020
1052 Clouds -2 1009 92 10000 3.6 230 23:39 09.01.2020
1053 Clouds -2 1009 92 10000 3.6 230 23:20 09.01.2020
1054 Clouds -2 1009 92 10000 3.6 240 22:58 09.01.2020
1055 Clouds -2 1009 92 10000 3.1 250 22:39 09.01.2020
1056 Clouds -1 1009 92 10000 3.1 250 22:39 09.01.2020
1057 Clouds -1 1009 92 10000 3.1 250 22:19 09.01.2020
1058 Clouds -1 1009 92 10000 4.1 240 21:57 09.01.2020
1059 Clouds -1 1008 92 10000 4.1 220 21:38 09.01.2020
1060 Clouds -1 1008 92 10000 4.1 220 21:20 09.01.2020
1061 Clouds -1 1008 86 10000 3.1 250 20:58 09.01.2020
1062 Clouds -1 1008 86 10000 3.1 250 20:39 09.01.2020
1063 Clouds -1 1008 92 10000 3.1 260 20:20 09.01.2020
1064 Clouds -1 1008 78 10000 3.6 260 19:58 09.01.2020
1065 Clouds -1 1008 78 10000 3.6 260 19:38 09.01.2020
1066 Clouds 0 1008 78 10000 3.6 250 19:19 09.01.2020
1067 Clouds -1 1007 78 10000 4.1 260 18:55 09.01.2020
1068 Clouds -1 1007 78 10000 4.1 260 18:55 09.01.2020
1069 Clouds -1 1007 78 10000 4.1 260 18:37 09.01.2020
1070 Clouds 0 1007 78 10000 3.6 250 18:19 09.01.2020
1071 Clouds 0 1007 80 10000 3.6 250 17:41 09.01.2020
1072 Clouds 0 1007 80 10000 3.6 250 17:41 09.01.2020
1073 Clear 0 1007 80 10000 5.1 240 17:18 09.01.2020
1074 Clear 0 1007 80 10000 4.1 240 16:55 09.01.2020
1075 Clear 1 1007 80 10000 4.1 240 16:36 09.01.2020
1076 Clear 1 1007 80 10000 4.1 240 16:18 09.01.2020
1077 Clear 1 1007 80 10000 4.6 230 15:41 09.01.2020
1078 Clear 1 1006 80 10000 4.1 240 15:19 09.01.2020
1079 Clear 2 1006 74 10000 4.1 230 14:44 09.01.2020
1080 Clear 2 1006 74 10000 4.6 230 14:22 09.01.2020
1081 Clear 3 1005 74 10000 5.1 240 13:57 09.01.2020
1082 Clear 3 1005 74 10000 5.1 240 13:39 09.01.2020
1083 Clear 3 1005 74 10000 5.7 250 13:21 09.01.2020
1084 Clear 3 1005 74 10000 5.1 250 12:59 09.01.2020
1085 Clear 3 1005 74 10000 5.1 250 12:40 09.01.2020
1086 Clear 3 1005 74 10000 5.7 250 12:22 09.01.2020
1087 Clear 3 1005 74 10000 6.7 260 11:57 09.01.2020
1088 Clear 3 1005 74 10000 6.7 260 11:38 09.01.2020
1089 Clear 3 1004 74 10000 7.2 260 11:20 09.01.2020
1090 Clear 3 1004 74 10000 5.7 260 10:44 09.01.2020
1091 Clear 2 1004 74 10000 6.7 260 10:22 09.01.2020
1092 Clear 2 1004 80 10000 6.2 260 09:58 09.01.2020
1093 Clear 2 1004 80 10000 6.2 260 09:38 09.01.2020
1094 Clear 2 1003 80 10000 6.2 260 09:19 09.01.2020
1095 Clear 2 1003 80 10000 5.7 250 08:55 09.01.2020
1096 Clear 2 1003 80 10000 5.7 250 08:37 09.01.2020
1097 Clear 2 1002 80 10000 4.6 250 08:19 09.01.2020
1098 Clear 2 1002 80 10000 5.7 250 07:42 09.01.2020
1099 Clear 2 1002 80 10000 5.7 250 07:23 09.01.2020
1100 Clear 2 1001 80 10000 5.7 240 06:38 09.01.2020
1101 Clear 2 1001 80 10000 6.2 250 06:20 09.01.2020
1102 Clear 2 1001 80 10000 5.7 250 05:48 09.01.2020
1103 Clear 2 1001 80 10000 5.7 240 04:43 09.01.2020
1104 Clear 2 1001 75 10000 5.7 250 03:31 09.01.2020
1105 Clear 2 1000 75 10000 5.7 240 02:53 09.01.2020
1106 Clear 2 1000 75 10000 5.1 250 02:24 09.01.2020
1107 Clear 3 1000 75 10000 5.1 240 01:38 09.01.2020
1108 Clear 3 1000 80 10000 5.1 250 00:42 09.01.2020
1109 Clear 3 999 86 10000 5.1 240 00:21 09.01.2020
1110 Clear 3 999 93 10000 4.1 230 23:42 08.01.2020
1111 Clear 3 999 86 10000 3.6 220 23:24 08.01.2020
1112 Clear 4 999 86 10000 3.6 220 22:59 08.01.2020
1113 Clear 4 998 86 10000 3.6 230 22:39 08.01.2020
1114 Rain 4 998 93 10000 4.1 250 22:20 08.01.2020
1115 Rain 4 997 86 10000 4.1 250 21:57 08.01.2020
1116 Rain 5 997 86 10000 4.1 250 21:38 08.01.2020
1117 Rain 5 997 86 10000 5.1 240 21:19 08.01.2020
1118 Clouds 5 997 87 10000 6.7 270 20:57 08.01.2020
1119 Clouds 6 997 87 10000 6.7 270 20:38 08.01.2020
1120 Clouds 6 996 81 10000 8.2 270 20:20 08.01.2020
1121 Clouds 6 996 81 10000 8.2 270 19:56 08.01.2020
1122 Clouds 6 996 81 10000 7.7 250 19:36 08.01.2020
1123 Clouds 6 996 81 10000 7.7 250 19:36 08.01.2020
1124 Clouds 7 995 87 10000 8.2 240 19:18 08.01.2020
1125 Clouds 7 995 87 10000 8.7 230 18:55 08.01.2020
1126 Clouds 7 995 87 10000 8.7 230 18:55 08.01.2020
1127 Clouds 7 995 87 10000 8.7 230 18:55 08.01.2020
1128 Clouds 7 995 87 10000 8.7 230 18:36 08.01.2020
1129 Clouds 7 995 87 10000 8.2 230 18:18 08.01.2020
1130 Clouds 7 995 93 10000 8.7 230 17:45 08.01.2020
1131 Clouds 7 995 93 10000 9.8 230 17:24 08.01.2020
1132 Drizzle 6 995 93 10000 10.3 220 16:57 08.01.2020
1133 Drizzle 6 995 93 10000 10.3 220 16:39 08.01.2020
1134 Drizzle 6 995 93 8000 11.3 220 16:19 08.01.2020
1135 Drizzle 6 995 93 5000 11.8 220 15:57 08.01.2020
1136 Drizzle 6 995 93 5000 11.8 220 15:39 08.01.2020
1137 Drizzle 6 996 93 4000 10.8 220 15:18 08.01.2020
1138 Drizzle 6 996 93 4000 9.8 220 14:55 08.01.2020
1139 Drizzle 6 996 93 4000 9.8 220 14:36 08.01.2020
1140 Drizzle 6 996 93 3500 9.8 220 14:18 08.01.2020
1141 Clouds 6 996 93 10000 9.8 220 13:38 08.01.2020
1142 Drizzle 6 996 93 10000 10.3 210 13:18 08.01.2020
1143 Drizzle 6 997 93 10000 12.3 210 12:41 08.01.2020
1144 Drizzle 6 997 93 10000 13.4 210 12:18 08.01.2020
1145 Drizzle 5 998 93 5000 11.8 210 11:55 08.01.2020
1146 Drizzle 5 998 93 5000 11.8 210 11:36 08.01.2020
1147 Drizzle 5 998 87 9000 12.3 220 11:18 08.01.2020
1148 Drizzle 5 999 93 10000 11.3 210 10:41 08.01.2020
1149 Rain 5 999 93 10000 12.9 200 10:22 08.01.2020
1150 Rain 5 999 93 10000 12.9 200 09:58 08.01.2020
1151 Rain 5 999 93 6000 12.9 200 09:38 08.01.2020
1152 Drizzle 5 1000 93 4500 12.3 200 09:18 08.01.2020
1153 Drizzle 5 1001 86 7000 12.3 200 08:42 08.01.2020
1154 Rain 5 1001 86 10000 12.9 200 08:24 08.01.2020
1155 Rain 5 1001 86 10000 12.9 200 07:59 08.01.2020
1156 Clouds 5 1002 86 10000 12.3 200 07:41 08.01.2020
1157 Clouds 5 1002 93 10000 12.9 200 07:23 08.01.2020
1158 Rain 5 1003 93 10000 11.3 200 06:44 08.01.2020
1159 Drizzle 5 1004 93 10000 11.8 200 05:57 08.01.2020
1160 Drizzle 5 1005 86 10000 11.8 200 05:27 08.01.2020
1161 Rain 5 1006 86 10000 10.8 200 04:39 08.01.2020
1162 Clouds 5 1007 86 10000 10.8 210 03:31 08.01.2020
1163 Clouds 5 1008 86 10000 8.7 200 02:36 08.01.2020
1164 Clouds 5 1009 93 10000 8.7 210 02:18 08.01.2020
1165 Clouds 5 1009 93 10000 8.7 210 02:18 08.01.2020
1166 Clouds 4 1009 93 10000 9.8 210 01:39 08.01.2020
1167 Drizzle 4 1010 93 10000 9.3 210 00:52 08.01.2020
1168 Drizzle 4 1010 93 10000 9.3 210 00:24 08.01.2020
1169 Clouds 4 1011 93 10000 8.7 210 23:46 07.01.2020
1170 Clouds 4 1011 86 10000 9.8 210 23:21 07.01.2020
1171 Clouds 4 1011 86 10000 9.8 210 22:57 07.01.2020
1172 Clouds 5 1011 86 10000 7.7 210 22:38 07.01.2020
1173 Drizzle 4 1011 93 10000 6.7 210 22:19 07.01.2020
1174 Drizzle 5 1011 93 10000 6.7 210 21:42 07.01.2020
1175 Drizzle 5 1011 93 10000 7.2 210 21:22 07.01.2020
1176 Drizzle 5 1011 93 10000 7.2 210 20:58 07.01.2020
1177 Drizzle 4 1012 100 10000 6.2 210 20:40 07.01.2020
1178 Drizzle 4 1012 93 10000 6.7 210 20:22 07.01.2020
1179 Drizzle 4 1012 93 10000 6.7 210 19:57 07.01.2020
1180 Drizzle 4 1012 93 10000 6.2 210 19:38 07.01.2020
1181 Drizzle 4 1013 100 8000 5.7 210 19:19 07.01.2020
1182 Drizzle 4 1013 93 8000 6.2 210 18:56 07.01.2020
1183 Drizzle 4 1013 93 8000 6.2 210 18:38 07.01.2020
1184 Clouds 4 1013 93 10000 5.7 210 18:18 07.01.2020
1185 Rain 4 1013 93 10000 5.7 210 18:18 07.01.2020
1186 Clouds 4 1013 93 10000 5.7 210 18:18 07.01.2020
1187 Drizzle 4 1012 93 8000 5.7 210 17:55 07.01.2020
1188 Drizzle 4 1012 93 8000 5.7 210 17:36 07.01.2020
1189 Rain 4 1013 93 10000 4.6 220 17:18 07.01.2020
1190 Rain 4 1013 93 10000 4.6 220 16:55 07.01.2020
1191 Rain 4 1013 93 10000 4.6 220 16:36 07.01.2020
1192 Drizzle 4 1013 93 10000 4.1 230 16:18 07.01.2020
1193 Drizzle 4 1013 100 10000 6.7 220 15:42 07.01.2020
1194 Drizzle 4 1012 93 8000 6.2 220 15:24 07.01.2020
1195 Clouds 5 1012 93 10000 6.7 210 14:58 07.01.2020
1196 Clouds 5 1012 93 10000 6.7 210 14:38 07.01.2020
1197 Clouds 5 1012 93 10000 6.2 220 14:19 07.01.2020
1198 Drizzle 5 1012 93 10000 6.7 210 13:46 07.01.2020
1199 Clouds 5 1012 93 10000 5.7 220 13:20 07.01.2020
1200 Clouds 5 1012 93 10000 5.1 220 12:56 07.01.2020
1201 Clouds 5 1012 93 10000 5.1 220 12:37 07.01.2020
1202 Clouds 5 1012 93 10000 4.6 220 12:18 07.01.2020
1203 Clouds 5 1013 93 10000 5.1 230 11:41 07.01.2020
1204 Clouds 5 1012 93 10000 5.7 220 11:22 07.01.2020
1205 Clouds 5 1012 93 10000 4.6 220 10:55 07.01.2020
1206 Clouds 5 1012 93 10000 4.6 220 10:37 07.01.2020
1207 Drizzle 5 1012 93 10000 4.6 210 10:19 07.01.2020
1208 Drizzle 4 1012 100 4000 4.6 210 09:38 07.01.2020
1209 Drizzle 4 1012 100 3000 4.6 200 09:20 07.01.2020
1210 Drizzle 4 1012 100 3000 4.6 200 09:20 07.01.2020
1211 Drizzle 4 1012 100 2500 5.1 210 08:47 07.01.2020
1212 Drizzle 4 1012 100 2500 5.1 210 08:28 07.01.2020
1213 Drizzle 4 1012 100 4000 5.1 200 07:55 07.01.2020
1214 Drizzle 4 1012 100 4000 5.1 200 07:35 07.01.2020
1215 Drizzle 4 1012 100 4500 5.7 200 06:54 07.01.2020
1216 Drizzle 4 1012 100 4500 5.7 200 06:35 07.01.2020
1217 Drizzle 4 1012 93 4000 5.1 200 05:58 07.01.2020
1218 Drizzle 4 1012 93 4000 5.1 200 05:39 07.01.2020
1219 Rain 4 1012 93 10000 5.7 210 03:44 07.01.2020
1220 Clouds 4 1012 93 10000 4.6 210 02:38 07.01.2020
1221 Clouds 4 1012 93 8000 4.6 200 01:59 07.01.2020
1222 Clouds 3 1012 100 10000 5.7 210 01:35 07.01.2020
1223 Clouds 4 1012 93 10000 6.2 210 00:51 07.01.2020
1224 Drizzle 3 1013 100 5000 4.1 210 00:20 07.01.2020
1225 Drizzle 3 1013 100 5000 4.6 210 23:56 06.01.2020
1226 Drizzle 3 1013 100 5000 4.6 210 23:37 06.01.2020
1227 Drizzle 3 1013 93 4500 5.7 210 23:19 06.01.2020
1228 Drizzle 3 1013 93 4500 4.1 210 22:43 06.01.2020
1229 Drizzle 3 1013 100 2500 3.6 210 22:24 06.01.2020
1230 Drizzle 3 1013 100 2500 3.6 210 21:58 06.01.2020
1231 Drizzle 2 1013 100 1500 2.6 180 21:39 06.01.2020
1232 Drizzle 2 1014 100 2500 2.6 190 21:20 06.01.2020
1233 Drizzle 2 1014 100 2500 2.6 190 21:20 06.01.2020
1234 Drizzle 2 1014 100 2500 2.6 190 21:20 06.01.2020
1235 Drizzle 2 1014 100 3000 2.1 220 20:57 06.01.2020
1236 Drizzle 2 1014 100 3000 2.1 220 20:38 06.01.2020
1237 Drizzle 2 1014 100 3500 3.1 230 20:20 06.01.2020
1238 Drizzle 2 1014 100 3500 3.1 230 20:20 06.01.2020
1239 Drizzle 2 1014 100 600 3.1 210 19:56 06.01.2020
1240 Drizzle 2 1014 100 600 3.1 210 19:38 06.01.2020
1241 Fog 1 1014 100 500 1 0 19:20 06.01.2020
1242 Fog 1 1014 93 600 1.5 220 18:47 06.01.2020
1243 Fog 1 1014 93 600 1.5 220 18:47 06.01.2020
1244 Fog 1 1014 93 700 2.6 230 18:21 06.01.2020
1245 Fog 1 1014 93 800 3.6 220 17:58 06.01.2020
1246 Fog 1 1014 93 800 3.6 220 17:38 06.01.2020
1247 Fog 1 1014 87 900 4.1 200 17:18 06.01.2020
1248 Fog 1 1014 87 900 4.1 210 16:44 06.01.2020
1249 Mist 1 1014 87 2400 2.6 230 16:25 06.01.2020
1250 Mist 1 1014 87 2400 2.6 230 15:59 06.01.2020
1251 Mist 1 1014 100 2500 3.1 230 15:39 06.01.2020
1252 Mist 1 1014 100 1800 1.5 250 15:18 06.01.2020
1253 Mist 1 1014 100 1800 1.5 250 14:56 06.01.2020
1254 Mist 1 1014 100 2500 3.6 250 14:37 06.01.2020
1255 Fog 1 1013 100 900 2.6 240 14:18 06.01.2020
1256 Fog 1 1013 100 900 2.6 240 14:18 06.01.2020
1257 Mist 1 1013 100 3000 3.6 250 13:41 06.01.2020
1258 Mist 1 1013 100 3500 3.6 230 13:22 06.01.2020
1259 Mist 1 1013 100 3500 3.6 230 12:59 06.01.2020
1260 Mist 1 1013 85 3500 3.1 250 12:41 06.01.2020
1261 Mist 1 1013 100 5000 2.6 250 12:20 06.01.2020
1262 Mist 1 1013 100 5000 2.6 250 12:20 06.01.2020
1263 Mist 1 1013 100 5000 2.6 250 11:55 06.01.2020
1264 Mist 1 1013 100 5000 3.6 250 11:37 06.01.2020
1265 Drizzle 1 1013 100 6000 3.1 250 11:19 06.01.2020
1266 Clouds 1 1013 84 6000 2.6 260 10:42 06.01.2020
1267 Drizzle 1 1013 84 5000 2.1 250 10:21 06.01.2020
1268 Drizzle 1 1013 84 5000 3.6 260 09:42 06.01.2020
1269 Drizzle 1 1013 84 5000 3.6 260 09:24 06.01.2020
1270 Rain 1 1012 84 8000 3.1 270 08:58 06.01.2020
1271 Rain 1 1012 87 8000 3.1 270 08:39 06.01.2020
1272 Rain 1 1012 91 10000 4.1 260 08:21 06.01.2020
1273 Clouds 1 1012 91 10000 3.6 260 07:45 06.01.2020
1274 Rain 1 1011 91 10000 2.6 250 06:55 06.01.2020
1275 Rain 1 1011 91 10000 2.6 250 06:35 06.01.2020
1276 Clouds 1 1011 91 6000 2.1 240 05:48 06.01.2020
1277 Clouds 1 1011 93 6000 3.1 220 05:24 06.01.2020
1278 Rain 1 1011 93 7000 5.7 200 04:24 06.01.2020
1279 Snow 1 1011 93 5000 5.1 200 03:51 06.01.2020
1280 Snow 0 1012 97 2500 7.7 180 02:28 06.01.2020
1281 Snow 0 1012 97 2000 9.3 180 01:53 06.01.2020
1282 Snow 0 1013 97 1500 9.3 180 01:30 06.01.2020
1283 Snow 0 1013 97 1500 8.2 170 00:46 06.01.2020
1284 Snow 0 1013 97 1500 8.2 170 00:28 06.01.2020
1285 Snow 0 1014 97 1500 7.2 170 23:57 05.01.2020
1286 Snow 0 1015 100 1100 6.7 180 23:57 05.01.2020
1287 Snow 0 1015 100 1100 6.7 180 23:57 05.01.2020
1288 Snow 0 1015 100 1100 6.7 180 23:38 05.01.2020
1289 Snow 0 1015 92 2000 5.7 180 23:20 05.01.2020
1290 Snow 0 1015 73 5000 7.2 180 22:40 05.01.2020
1291 Clouds 0 1016 73 10000 6.2 180 22:21 05.01.2020
1292 Clouds -1 1017 68 10000 4.1 160 21:58 05.01.2020
1293 Clouds -1 1017 68 10000 4.1 160 21:40 05.01.2020
1294 Clouds -2 1017 73 10000 3.6 150 21:20 05.01.2020
1295 Clouds -2 1017 73 10000 3.6 150 20:58 05.01.2020
1296 Clouds -3 1018 73 10000 3.6 140 20:39 05.01.2020
1297 Clouds -4 1018 68 10000 3.6 140 20:19 05.01.2020
1298 Clouds -4 1019 79 10000 3.1 170 19:58 05.01.2020
1299 Clouds -4 1019 79 10000 3.1 170 19:39 05.01.2020
1300 Clouds -5 1019 68 10000 3.1 190 19:20 05.01.2020
1301 Clouds -5 1020 79 10000 2.6 210 18:55 05.01.2020
1302 Clouds -5 1020 79 10000 2.6 210 18:37 05.01.2020
1303 Clouds -6 1020 79 10000 2.6 210 18:19 05.01.2020
1304 Clouds -6 1020 79 10000 1.5 190 17:57 05.01.2020
1305 Clouds -6 1020 79 10000 1.5 190 17:38 05.01.2020
1306 Clouds -6 1020 79 10000 1.5 190 17:38 05.01.2020
1307 Clouds -6 1020 79 10000 1.5 190 17:38 05.01.2020
1308 Clouds -6 1020 79 10000 1.5 190 17:38 05.01.2020
1309 Clouds -6 1020 73 10000 3.1 210 17:19 05.01.2020
1310 Clouds -6 1020 73 10000 3.1 210 16:56 05.01.2020
1311 Clouds -6 1020 79 10000 2.1 210 16:38 05.01.2020
1312 Clouds -5 1020 73 10000 1 0 16:19 05.01.2020
1313 Clouds -5 1020 73 10000 1 0 16:19 05.01.2020
1314 Clouds -5 1020 73 10000 1 0 16:19 05.01.2020
1315 Clouds -5 1021 67 10000 0.5 0 15:38 05.01.2020
1316 Clouds -5 1021 67 10000 0.5 0 15:38 05.01.2020
1317 Clouds -5 1021 62 10000 2.1 270 15:20 05.01.2020
1318 Clouds -4 1021 62 10000 2.1 270 14:55 05.01.2020
1319 Clouds -4 1021 62 10000 3.1 280 14:37 05.01.2020
1320 Clouds -4 1021 62 10000 3.1 280 14:37 05.01.2020
1321 Clouds -4 1020 58 10000 3.1 300 14:19 05.01.2020
1322 Clouds -3 1020 58 10000 3.1 300 13:55 05.01.2020
1323 Clouds -3 1020 53 10000 3.6 310 13:37 05.01.2020
1324 Clouds -2 1019 53 10000 4.1 320 13:18 05.01.2020
1325 Clouds -3 1019 53 10000 4.1 320 13:18 05.01.2020
1326 Clouds -3 1019 53 10000 4.1 320 13:18 05.01.2020
1327 Clouds -3 1019 58 10000 4.1 330 12:55 05.01.2020
1328 Clouds -3 1019 58 10000 4.1 330 12:36 05.01.2020
1329 Clouds -3 1019 58 10000 4.1 330 12:36 05.01.2020
1330 Clouds -2 1018 58 10000 3.6 340 12:18 05.01.2020
1331 Clouds -3 1018 58 10000 4.1 340 11:43 05.01.2020
1332 Clouds -2 1018 58 10000 4.1 340 11:43 05.01.2020
1333 Clouds -2 1018 58 10000 4.1 340 11:43 05.01.2020
1334 Clouds -2 1018 58 10000 4.1 340 11:43 05.01.2020
1335 Clouds -2 1018 58 10000 4.1 340 11:43 05.01.2020
1336 Clouds -3 1018 63 10000 4.1 340 11:19 05.01.2020
1337 Clouds -3 1017 63 10000 6.2 340 10:58 05.01.2020
1338 Clouds -3 1017 63 10000 6.2 340 10:39 05.01.2020
1339 Clouds -3 1017 63 10000 6.2 340 10:39 05.01.2020
1340 Clouds -3 1017 63 10000 6.2 340 10:39 05.01.2020
1341 Clouds -3 1017 63 10000 6.2 340 10:39 05.01.2020
1342 Clouds -3 1017 63 10000 6.2 340 10:39 05.01.2020
1343 Clouds -3 1017 68 10000 6.7 330 10:18 05.01.2020
1344 Clouds -3 1016 68 10000 5.7 330 09:41 05.01.2020
1345 Clouds -2 1016 63 10000 6.7 330 09:21 05.01.2020
1346 Clouds -2 1015 68 10000 7.2 330 08:49 05.01.2020
1347 Clouds -2 1015 68 10000 7.2 330 08:30 05.01.2020
1348 Clouds -2 1013 63 10000 6.7 330 07:56 05.01.2020
1349 Clouds -2 1013 63 10000 6.7 330 07:37 05.01.2020
1350 Clouds -1 1012 68 10000 9.8 330 07:18 05.01.2020
1351 Clouds -1 1009 67 10000 8.2 320 05:59 05.01.2020
1352 Clouds 0 1008 69 10000 7.7 330 05:32 05.01.2020
1353 Clouds 0 1008 69 10000 7.7 330 04:43 05.01.2020
1354 Clouds -1 1006 69 10000 7.7 310 03:52 05.01.2020
1355 Clouds -1 1004 63 10000 7.2 300 02:46 05.01.2020
1356 Clouds -1 1004 63 10000 7.2 300 02:46 05.01.2020
1357 Clouds -1 1004 63 10000 6.2 300 02:23 05.01.2020
1358 Clouds -1 1003 63 10000 6.7 300 01:46 05.01.2020
1359 Clouds -1 1002 68 10000 7.2 310 01:18 05.01.2020
1360 Clouds -1 1001 68 10000 7.2 300 00:41 05.01.2020
1361 Clouds -1 1001 68 10000 7.2 300 00:41 05.01.2020
1362 Clouds -1 1001 68 10000 7.7 310 00:22 05.01.2020
1363 Clouds 0 1001 68 10000 7.7 310 23:59 04.01.2020
1364 Clouds 0 1000 62 10000 7.7 300 23:39 04.01.2020
1365 Clouds 0 999 65 10000 6.7 300 23:19 04.01.2020
1366 Clouds 0 999 65 10000 6.7 310 22:39 04.01.2020
1367 Clouds 0 998 65 10000 6.7 310 22:21 04.01.2020
1368 Clouds 1 997 69 10000 8.2 310 21:57 04.01.2020
1369 Clouds 1 997 69 10000 8.2 310 21:38 04.01.2020
1370 Clouds 1 996 69 10000 7.7 310 21:19 04.01.2020
1371 Clouds 1 995 64 10000 7.7 320 20:57 04.01.2020
1372 Clouds 1 995 64 10000 7.7 320 20:38 04.01.2020
1373 Clouds 1 994 64 10000 8.7 310 20:20 04.01.2020
1374 Clouds 1 993 69 10000 8.7 310 19:42 04.01.2020
1375 Clouds 1 993 69 10000 8.7 310 19:42 04.01.2020
1376 Clouds 2 992 64 10000 8.2 310 19:24 04.01.2020
1377 Clouds 2 991 64 10000 8.2 300 18:59 04.01.2020
1378 Clouds 2 991 64 10000 8.2 300 18:40 04.01.2020
1379 Clouds 2 991 64 10000 8.7 300 18:22 04.01.2020
1380 Clouds 2 991 64 10000 8.7 300 17:59 04.01.2020
1381 Clouds 2 990 64 10000 7.7 300 17:40 04.01.2020
1382 Clouds 2 989 64 10000 7.2 290 17:22 04.01.2020
1383 Clouds 2 988 69 10000 7.7 300 16:54 04.01.2020
1384 Clouds 2 988 69 10000 7.7 300 16:36 04.01.2020
1385 Clouds 2 987 74 10000 6.7 290 16:18 04.01.2020
1386 Clouds 2 987 86 10000 3.6 280 15:42 04.01.2020
1387 Clouds 2 987 86 10000 3.6 280 15:42 04.01.2020
1388 Rain 2 986 86 10000 6.7 280 15:20 04.01.2020
1389 Rain 2 986 86 10000 6.7 280 15:20 04.01.2020
1390 Snow 2 985 69 10000 7.2 260 14:58 04.01.2020
1391 Snow 2 985 69 10000 7.2 260 14:40 04.01.2020
1392 Clouds 3 985 69 10000 6.2 250 14:20 04.01.2020
1393 Clouds 2 985 69 10000 6.7 250 13:58 04.01.2020
1394 Clouds 2 985 69 10000 6.7 250 13:37 04.01.2020
1395 Clouds 2 985 69 10000 6.7 250 13:37 04.01.2020
1396 Clouds 2 985 69 10000 5.1 250 13:19 04.01.2020
1397 Clouds 2 984 64 10000 6.2 250 12:42 04.01.2020
1398 Clouds 2 984 64 10000 6.2 240 12:20 04.01.2020
1399 Clouds 2 984 64 10000 6.2 240 12:20 04.01.2020
1400 Clouds 2 984 69 10000 6.7 240 11:59 04.01.2020
1401 Clouds 1 984 69 10000 6.7 240 11:40 04.01.2020
1402 Clouds 1 984 69 10000 5.7 230 11:20 04.01.2020
1403 Clouds 1 985 69 10000 5.1 220 10:59 04.01.2020
1404 Clouds 1 985 69 10000 5.1 220 10:38 04.01.2020
1405 Clouds 1 985 63 10000 5.7 220 10:19 04.01.2020
1406 Clouds 0 985 63 10000 5.1 210 09:43 04.01.2020
1407 Clouds 1 985 63 10000 5.1 210 09:25 04.01.2020
1408 Clouds 1 985 63 10000 4.6 220 08:47 04.01.2020
1409 Clouds 1 985 62 10000 4.6 230 08:28 04.01.2020
1410 Clouds 1 985 58 10000 4.6 220 07:51 04.01.2020
1411 Clouds 1 985 58 10000 4.6 220 07:33 04.01.2020
1412 Clouds 1 985 74 10000 4.6 220 06:43 04.01.2020
1413 Clouds 1 986 58 10000 4.1 220 05:52 04.01.2020
1414 Clouds 2 986 80 10000 4.6 210 04:48 04.01.2020
1415 Clouds 2 986 80 10000 4.6 210 04:28 04.01.2020
1416 Clouds 2 988 69 10000 6.2 220 03:20 04.01.2020
1417 Clouds 1 988 69 10000 7.2 210 02:38 04.01.2020
1418 Clouds 1 989 59 10000 5.7 200 02:18 04.01.2020
1419 Clouds 0 989 64 10000 4.6 200 01:32 04.01.2020
1420 Clouds 0 989 64 10000 5.1 190 01:32 04.01.2020
1421 Clear 0 990 74 10000 3.6 210 00:58 04.01.2020
1422 Clear 0 990 63 10000 4.6 220 00:29 04.01.2020
1423 Clear 1 991 59 10000 5.1 250 23:53 03.01.2020
1424 Clear 1 991 59 10000 5.7 240 23:28 03.01.2020
1425 Clear 2 991 59 10000 5.7 240 22:55 03.01.2020
1426 Clear 2 991 64 10000 7.2 250 22:37 03.01.2020
1427 Clear 2 991 69 10000 6.2 240 22:18 03.01.2020
1428 Clear 2 990 74 10000 5.7 240 21:56 03.01.2020
1429 Clear 3 990 74 10000 5.7 240 21:37 03.01.2020
1430 Clear 3 990 74 10000 5.7 240 21:18 03.01.2020
1431 Clear 3 990 86 10000 6.7 230 20:54 03.01.2020
1432 Clear 3 990 86 10000 6.7 230 20:36 03.01.2020
1433 Clouds 4 990 86 10000 7.2 240 20:18 03.01.2020
1434 Clouds 4 989 86 10000 6.7 230 19:41 03.01.2020
1435 Clouds 4 990 86 10000 6.7 240 19:22 03.01.2020
1436 Clouds 4 989 93 10000 6.2 230 18:46 03.01.2020
1437 Rain 4 989 86 10000 7.7 240 18:26 03.01.2020
1438 Rain 5 989 86 10000 9.3 230 17:58 03.01.2020
1439 Rain 5 989 86 10000 9.3 230 17:58 03.01.2020
1440 Rain 5 989 86 10000 9.3 230 17:39 03.01.2020
1441 Clouds 5 989 93 10000 8.7 230 17:21 03.01.2020
1442 Rain 5 990 93 10000 8.7 220 16:43 03.01.2020
1443 Rain 5 990 93 10000 9.3 220 16:24 03.01.2020
1444 Rain 5 990 93 10000 9.3 220 15:59 03.01.2020
1445 Drizzle 5 991 93 6000 10.8 220 15:41 03.01.2020
1446 Drizzle 5 991 93 6000 11.3 220 15:19 03.01.2020
1447 Drizzle 5 991 93 4000 11.3 210 14:39 03.01.2020
1448 Drizzle 4 992 93 4000 10.8 220 14:20 03.01.2020
1449 Drizzle 4 992 93 4000 10.8 220 13:57 03.01.2020
1450 Drizzle 4 992 93 4000 11.3 220 13:38 03.01.2020
1451 Drizzle 4 992 93 10000 11.3 220 13:20 03.01.2020
1452 Rain 4 993 86 10000 11.3 220 12:40 03.01.2020
1453 Rain 4 993 86 10000 10.8 220 12:21 03.01.2020
1454 Clouds 4 994 80 10000 11.8 220 11:49 03.01.2020
1455 Clouds 4 994 86 10000 10.8 220 11:30 03.01.2020
1456 Clouds 4 995 80 10000 9.8 220 10:48 03.01.2020
1457 Clouds 4 995 80 10000 9.8 220 10:29 03.01.2020
1458 Rain 5 995 80 10000 10.8 230 09:59 03.01.2020
1459 Clouds 5 996 75 10000 10.8 230 09:41 03.01.2020
1460 Clouds 5 995 80 10000 9.8 220 09:23 03.01.2020
1461 Clouds 5 995 80 10000 9.8 220 08:57 03.01.2020
1462 Clouds 5 996 80 10000 9.8 220 08:39 03.01.2020
1463 Clouds 5 996 80 10000 10.3 220 08:21 03.01.2020
1464 Clouds 5 996 80 10000 10.8 220 07:42 03.01.2020
1465 Clouds 5 996 80 10000 9.3 220 07:19 03.01.2020
1466 Clouds 5 997 80 10000 8.7 230 06:56 03.01.2020
1467 Clouds 5 997 80 10000 8.7 230 06:37 03.01.2020
1468 Clouds 5 997 80 10000 8.7 230 06:18 03.01.2020
1469 Clouds 5 998 80 10000 10.8 230 04:42 03.01.2020
1470 Clouds 5 998 80 10000 7.7 220 03:34 03.01.2020
1471 Clouds 5 999 80 10000 8.7 230 02:47 03.01.2020
1472 Clouds 5 1000 86 10000 8.2 240 01:47 03.01.2020
1473 Clouds 5 1000 86 10000 8.2 230 00:57 03.01.2020
1474 Clouds 5 1000 86 10000 8.2 230 00:33 03.01.2020
1475 Clouds 5 1000 86 10000 7.2 230 23:58 02.01.2020
1476 Clouds 5 1000 86 10000 7.2 230 23:39 02.01.2020
1477 Clouds 5 1001 86 10000 7.2 230 23:19 02.01.2020
1478 Clouds 5 1001 86 10000 6.7 230 22:58 02.01.2020
1479 Clouds 5 1001 86 10000 6.7 230 22:39 02.01.2020
1480 Clouds 5 1001 86 10000 7.2 230 22:19 02.01.2020
1481 Clouds 5 1001 86 10000 6.2 230 21:55 02.01.2020
1482 Clouds 5 1001 86 10000 6.2 230 21:36 02.01.2020
1483 Clouds 5 1001 86 10000 6.2 220 21:18 02.01.2020
1484 Clouds 4 1001 93 10000 5.7 230 20:40 02.01.2020
1485 Clouds 4 1001 93 10000 6.7 220 20:21 02.01.2020
1486 Clouds 4 1001 93 10000 6.7 220 19:56 02.01.2020
1487 Clouds 4 1001 86 10000 6.2 220 19:38 02.01.2020
1488 Clouds 4 1002 86 10000 6.2 220 19:19 02.01.2020
1489 Clouds 4 1002 86 10000 6.2 220 18:59 02.01.2020
1490 Clouds 4 1002 86 10000 6.2 230 18:40 02.01.2020
1491 Clouds 4 1002 86 10000 6.7 220 18:22 02.01.2020
1492 Clouds 4 1002 86 10000 6.7 220 18:22 02.01.2020
1493 Clouds 4 1002 86 10000 6.7 220 18:22 02.01.2020
1494 Clouds 4 1002 86 10000 6.7 220 17:57 02.01.2020
1495 Clouds 4 1002 93 10000 6.7 230 17:38 02.01.2020
1496 Clouds 4 1002 86 10000 6.2 220 17:19 02.01.2020
1497 Clouds 4 1002 86 10000 6.2 230 16:57 02.01.2020
1498 Clouds 4 1002 86 10000 6.2 230 16:38 02.01.2020
1499 Clouds 4 1002 86 10000 6.2 230 16:38 02.01.2020
1500 Clouds 4 1001 86 10000 6.7 210 16:20 02.01.2020
1501 Clouds 4 1002 86 10000 6.2 220 15:56 02.01.2020
1502 Clouds 4 1002 86 10000 6.2 220 15:56 02.01.2020
1503 Clouds 3 1002 86 10000 6.2 220 15:37 02.01.2020
1504 Clouds 3 1002 93 10000 5.7 210 15:19 02.01.2020
1505 Clouds 3 1002 86 10000 5.7 220 14:55 02.01.2020
1506 Clouds 3 1002 86 10000 5.7 220 14:36 02.01.2020
1507 Clouds 4 1003 86 10000 4.6 220 14:18 02.01.2020
1508 Clouds 4 1002 86 10000 5.1 210 13:47 02.01.2020
1509 Clouds 4 1002 86 10000 5.1 210 13:29 02.01.2020
1510 Clouds 3 1003 86 10000 4.6 210 12:44 02.01.2020
1511 Clouds 3 1004 89 10000 4.1 230 12:24 02.01.2020
1512 Clouds 3 1004 89 10000 4.1 230 11:43 02.01.2020
1513 Clouds 3 1004 85 10000 4.1 240 11:25 02.01.2020
1514 Clouds 3 1004 85 10000 3.1 240 10:57 02.01.2020
1515 Clouds 3 1004 85 10000 3.1 240 10:38 02.01.2020
1516 Clouds 2 1004 85 10000 4.6 240 10:19 02.01.2020
1517 Clouds 2 1004 85 10000 4.6 240 09:41 02.01.2020
1518 Clouds 2 1004 85 10000 5.7 250 09:22 02.01.2020
1519 Clouds 2 1004 80 10000 5.1 240 08:44 02.01.2020
1520 Clouds 2 1003 86 10000 5.1 240 08:25 02.01.2020
1521 Clouds 2 1003 86 10000 5.1 230 07:49 02.01.2020
1522 Clouds 2 1003 86 10000 4.6 230 07:30 02.01.2020
1523 Clouds 2 1004 80 10000 4.6 240 06:43 02.01.2020
1524 Clouds 1 1003 80 10000 4.1 250 05:58 02.01.2020
1525 Clouds 2 1003 80 10000 4.6 250 04:40 02.01.2020
1526 Clouds 2 1003 80 10000 4.6 250 04:21 02.01.2020
1527 Clouds 1 1003 86 10000 5.1 240 02:25 02.01.2020
1528 Clouds 2 1003 80 10000 4.1 240 01:57 02.01.2020
1529 Clouds 2 1003 80 10000 5.1 250 01:32 02.01.2020
1530 Clouds 2 1003 86 10000 4.6 240 00:52 02.01.2020
1531 Clouds 1 1003 86 10000 4.6 240 00:32 02.01.2020
1532 Clouds 1 1003 86 10000 4.1 230 23:48 01.01.2020
1533 Clouds 2 1004 80 10000 5.7 260 23:25 01.01.2020
1534 Clouds 2 1004 80 10000 5.1 250 22:54 01.01.2020
1535 Clouds 2 1004 80 10000 5.1 250 22:36 01.01.2020
1536 Clouds 2 1004 80 10000 5.7 240 22:18 01.01.2020
1537 Clouds 2 1004 80 10000 5.7 240 21:42 01.01.2020
1538 Clouds 2 1005 80 10000 5.7 250 21:21 01.01.2020
1539 Clouds 2 1005 80 10000 5.7 260 20:58 01.01.2020
1540 Clouds 1 1005 80 10000 5.7 260 20:39 01.01.2020
1541 Clouds 1 1005 80 10000 5.1 250 20:20 01.01.2020
1542 Clouds 1 1005 80 10000 5.1 250 19:57 01.01.2020
1543 Clouds 1 1005 80 10000 4.6 250 19:39 01.01.2020
1544 Clouds 1 1005 80 10000 5.1 250 19:20 01.01.2020
1545 Clouds 1 1005 80 10000 5.7 250 18:57 01.01.2020
1546 Clouds 1 1005 80 10000 5.7 250 18:38 01.01.2020
1547 Clouds 1 1006 80 10000 6.2 250 18:20 01.01.2020
1548 Clouds 1 1006 80 10000 6.2 250 17:58 01.01.2020
1549 Clouds 2 1006 80 10000 6.2 250 17:40 01.01.2020
1550 Clouds 2 1006 74 10000 5.7 260 17:20 01.01.2020
1551 Clouds 2 1006 74 10000 5.7 260 16:57 01.01.2020
1552 Clouds 2 1006 74 10000 5.7 260 16:38 01.01.2020
1553 Clouds 2 1006 74 10000 5.7 260 16:38 01.01.2020
1554 Clouds 2 1006 80 10000 5.1 250 16:19 01.01.2020
1555 Clouds 2 1006 80 10000 5.1 250 15:56 01.01.2020
1556 Clouds 2 1006 80 10000 5.1 240 15:37 01.01.2020
1557 Clouds 2 1006 80 10000 5.1 240 15:19 01.01.2020
1558 Clouds 2 1006 74 10000 5.7 250 14:55 01.01.2020
1559 Clouds 2 1006 74 10000 5.7 250 14:37 01.01.2020
1560 Clouds 2 1006 80 10000 5.1 240 14:19 01.01.2020
1561 Clouds 2 1006 80 10000 4.6 230 13:55 01.01.2020
1562 Clouds 2 1006 80 10000 4.6 230 13:55 01.01.2020
1563 Clouds 2 1006 80 10000 4.6 230 13:36 01.01.2020
1564 Clouds 2 1007 80 10000 4.6 230 13:18 01.01.2020
1565 Clouds 2 1007 80 10000 4.1 210 12:40 01.01.2020
1566 Clouds 2 1007 80 10000 3.6 220 12:19 01.01.2020
1567 Clouds 2 1007 80 10000 3.6 220 11:56 01.01.2020
1568 Clouds 2 1007 80 10000 4.1 220 11:38 01.01.2020
1569 Clouds 2 1007 80 10000 3.6 220 11:19 01.01.2020
1570 Clouds 1 1008 86 10000 3.6 230 10:55 01.01.2020
1571 Clouds 1 1008 86 10000 3.6 230 10:36 01.01.2020
1572 Clouds 1 1008 74 10000 3.6 220 10:18 01.01.2020
1573 Clouds 1 1008 80 10000 3.1 230 09:40 01.01.2020
1574 Clouds 1 1009 80 10000 3.6 240 09:20 01.01.2020
1575 Clouds 1 1008 80 10000 3.6 230 08:57 01.01.2020
1576 Clouds 1 1008 80 10000 3.6 230 08:37 01.01.2020
1577 Clouds 1 1009 80 10000 4.1 250 08:19 01.01.2020
1578 Clouds 1 1009 80 10000 4.1 250 07:56 01.01.2020
1579 Clouds 0 1008 71 10000 4.6 240 07:38 01.01.2020
1580 Clouds -1 1009 92 10000 3.6 230 06:50 01.01.2020
1581 Clouds -1 1009 86 10000 3.6 230 06:32 01.01.2020
1582 Clouds -1 1009 86 10000 3.6 230 05:46 01.01.2020
1583 Clouds 0 1010 72 10000 5.1 270 03:48 01.01.2020
1584 Clouds -1 1010 72 10000 5.1 270 03:28 01.01.2020
1585 Clouds -1 1010 72 10000 5.1 270 02:59 01.01.2020
1586 Clouds -1 1010 86 10000 5.7 270 02:41 01.01.2020
1587 Clear -1 1010 86 10000 4.6 260 02:21 01.01.2020
1588 Clear -1 1010 86 10000 4.1 270 01:40 01.01.2020
1589 Clear -1 1010 86 10000 4.1 270 01:21 01.01.2020
1590 Clear -1 1011 86 10000 4.1 270 00:44 01.01.2020
1591 Clear -1 1011 92 10000 4.1 260 00:26 01.01.2020
1592 Clear -2 1011 92 10000 5.1 270 23:43 31.12.2019
1593 Clear -2 1011 86 10000 3.6 260 23:24 31.12.2019
1594 Clear -2 1011 86 10000 3.6 260 22:59 31.12.2019
1595 Clear -2 1011 86 10000 3.6 250 22:39 31.12.2019
1596 Clear -2 1010 79 10000 4.6 260 22:20 31.12.2019
1597 Clear -2 1010 79 10000 4.6 260 21:59 31.12.2019
1598 Clear -2 1010 86 10000 3.1 270 21:41 31.12.2019
1599 Clear -2 1010 86 10000 3.1 270 21:23 31.12.2019
1600 Clear -2 1010 86 10000 4.1 260 20:57 31.12.2019
1601 Clear -2 1010 74 10000 4.1 270 20:37 31.12.2019
1602 Clouds -2 1010 74 10000 4.6 290 20:19 31.12.2019
1603 Clouds -2 1010 74 10000 4.1 290 19:55 31.12.2019
1604 Clouds -2 1010 74 10000 4.1 290 19:37 31.12.2019
1605 Clouds -2 1009 79 10000 3.6 310 19:18 31.12.2019
1606 Clouds -1 1008 63 10000 4.6 330 18:54 31.12.2019
1607 Clouds -1 1008 63 10000 4.6 330 18:54 31.12.2019
1608 Clouds -1 1008 63 10000 4.6 330 18:36 31.12.2019
1609 Clouds -1 1008 68 10000 6.7 320 18:18 31.12.2019
1610 Clouds -1 1008 68 10000 7.7 330 17:55 31.12.2019
1611 Clouds -1 1008 68 10000 7.7 330 17:36 31.12.2019
1612 Clouds -1 1008 68 10000 7.7 330 17:36 31.12.2019
1613 Clouds 0 1007 73 10000 8.2 330 17:18 31.12.2019
1614 Clouds 0 1006 73 10000 9.3 330 16:55 31.12.2019
1615 Clouds 0 1006 73 10000 9.3 330 16:36 31.12.2019
1616 Clouds 0 1005 73 10000 9.3 330 16:18 31.12.2019
1617 Clouds 0 1004 73 10000 8.7 330 15:55 31.12.2019
1618 Clouds 0 1004 73 10000 8.7 330 15:37 31.12.2019
1619 Clouds 1 1003 74 10000 8.7 320 15:18 31.12.2019
1620 Snow 0 1002 73 10000 6.2 330 14:55 31.12.2019
1621 Snow 1 1002 73 10000 6.2 330 14:36 31.12.2019
1622 Snow 1 1001 78 10000 5.7 320 14:18 31.12.2019
1623 Rain 1 1001 69 10000 8.2 330 13:54 31.12.2019
1624 Rain 1 1001 69 10000 8.2 330 13:36 31.12.2019
1625 Snow 1 1000 74 10000 7.7 330 13:18 31.12.2019
1626 Clouds 1 999 78 10000 7.7 320 12:40 31.12.2019
1627 Clouds 1 999 78 10000 7.7 320 12:40 31.12.2019
1628 Snow 1 998 74 10000 8.7 330 12:21 31.12.2019
1629 Clouds 1 998 74 10000 8.2 330 11:58 31.12.2019
1630 Clouds 1 998 74 10000 8.2 330 11:40 31.12.2019
1631 Clouds 1 997 74 10000 9.3 330 11:21 31.12.2019
1632 Clouds 1 996 74 10000 10.3 330 10:58 31.12.2019
1633 Clouds 1 996 74 10000 10.3 330 10:39 31.12.2019
1634 Clouds 1 995 80 10000 7.7 320 10:20 31.12.2019
1635 Clouds 2 995 80 10000 7.7 320 09:59 31.12.2019
1636 Rain 2 994 80 10000 9.3 330 09:40 31.12.2019
1637 Rain 2 993 86 10000 7.7 300 09:22 31.12.2019
1638 Rain 3 993 86 10000 7.7 300 08:59 31.12.2019
1639 Rain 3 992 86 10000 7.2 290 08:41 31.12.2019
1640 Clouds 3 992 86 10000 6.2 290 08:20 31.12.2019
1641 Clouds 3 991 86 10000 6.2 290 07:44 31.12.2019
1642 Clouds 3 991 86 10000 6.2 290 07:22 31.12.2019
1643 Clouds 3 991 86 10000 5.7 280 06:51 31.12.2019
1644 Clouds 3 990 84 10000 4.6 270 06:23 31.12.2019
1645 Clouds 2 990 80 10000 5.1 270 04:54 31.12.2019
1646 Clouds 2 990 80 10000 4.6 260 04:21 31.12.2019
1647 Clouds 2 990 80 10000 4.1 250 02:56 31.12.2019
1648 Clear 2 990 77 10000 3.1 260 02:19 31.12.2019
1649 Clear 3 990 86 10000 4.1 240 01:48 31.12.2019
1650 Clouds 3 990 86 10000 3.6 250 01:29 31.12.2019
1651 Clouds 3 990 86 10000 4.6 240 00:48 31.12.2019
1652 Clouds 3 990 93 10000 3.6 230 00:23 31.12.2019
1653 Clouds 3 990 93 10000 3.6 230 23:58 30.12.2019
1654 Clouds 3 990 93 10000 4.1 230 23:38 30.12.2019
1655 Clouds 3 991 86 10000 4.1 240 23:20 30.12.2019
1656 Clouds 4 991 86 10000 3.6 240 22:58 30.12.2019
1657 Clouds 4 991 86 10000 3.6 240 22:40 30.12.2019
1658 Clouds 4 991 93 10000 4.6 230 22:20 30.12.2019
1659 Clouds 4 991 93 10000 4.6 230 22:20 30.12.2019
1660 Clouds 4 991 86 10000 5.7 250 21:57 30.12.2019
1661 Clouds 4 991 86 10000 5.7 250 21:39 30.12.2019
1662 Clouds 4 991 93 10000 5.7 250 21:19 30.12.2019
1663 Clouds 4 991 93 10000 5.7 250 20:57 30.12.2019
1664 Clouds 4 992 93 10000 4.1 240 20:39 30.12.2019
1665 Clouds 4 992 93 10000 4.6 230 20:20 30.12.2019
1666 Clouds 4 992 93 10000 5.1 240 19:58 30.12.2019
1667 Clouds 4 992 93 10000 5.1 240 19:38 30.12.2019
1668 Clouds 4 992 93 10000 4.6 240 19:19 30.12.2019
1669 Clouds 4 993 86 10000 3.6 240 18:57 30.12.2019
1670 Clouds 4 993 86 10000 3.6 240 18:38 30.12.2019
1671 Clouds 4 993 86 10000 3.6 240 18:38 30.12.2019
1672 Clouds 4 993 93 10000 3.6 240 18:20 30.12.2019
1673 Clouds 4 993 93 10000 3.6 240 18:20 30.12.2019
1674 Clouds 4 993 86 10000 4.1 250 17:55 30.12.2019
1675 Clouds 4 993 86 10000 4.1 250 17:37 30.12.2019
1676 Clouds 5 993 93 10000 4.6 260 17:18 30.12.2019
1677 Clouds 5 993 93 10000 4.6 270 16:57 30.12.2019
1678 Clouds 5 993 93 10000 4.6 270 16:36 30.12.2019
1679 Clouds 5 994 93 10000 4.6 270 16:18 30.12.2019
1680 Clouds 5 994 87 10000 5.7 280 15:55 30.12.2019
1681 Clouds 5 994 87 10000 5.7 280 15:36 30.12.2019
1682 Clouds 6 994 93 10000 5.1 280 15:18 30.12.2019
1683 Clouds 6 993 93 10000 5.7 260 14:42 30.12.2019
1684 Clouds 6 994 93 10000 5.7 250 14:19 30.12.2019
1685 Drizzle 6 994 93 6000 6.2 240 13:56 30.12.2019
1686 Drizzle 6 994 93 6000 6.2 240 13:37 30.12.2019
1687 Drizzle 6 994 93 6000 7.2 240 13:19 30.12.2019
1688 Drizzle 6 995 93 5000 6.2 230 12:43 30.12.2019
1689 Drizzle 5 995 100 3500 6.2 230 12:20 30.12.2019
1690 Drizzle 5 996 100 3500 6.2 240 11:59 30.12.2019
1691 Drizzle 5 996 100 3500 6.2 240 11:40 30.12.2019
1692 Mist 5 996 100 3000 5.7 230 11:19 30.12.2019
1693 Drizzle 5 997 100 3000 5.7 220 10:44 30.12.2019
1694 Drizzle 5 998 100 2500 5.7 220 10:22 30.12.2019
1695 Drizzle 5 998 100 2500 5.7 220 10:22 30.12.2019
1696 Drizzle 5 998 100 2000 5.1 220 09:58 30.12.2019
1697 Drizzle 5 998 100 2000 5.1 220 09:40 30.12.2019
1698 Drizzle 5 999 93 3000 5.7 220 09:20 30.12.2019
1699 Drizzle 5 999 93 3000 5.1 220 08:50 30.12.2019
1700 Mist 5 999 93 4000 6.2 220 08:23 30.12.2019
1701 Mist 5 1000 93 3500 6.2 230 07:56 30.12.2019
1702 Mist 5 1000 93 3500 6.2 230 07:37 30.12.2019
1703 Clouds 5 1001 93 6000 6.2 230 06:52 30.12.2019
1704 Drizzle 5 1002 93 7000 6.7 230 04:58 30.12.2019
1705 Drizzle 4 1004 100 6000 6.2 220 03:57 30.12.2019
1706 Drizzle 5 1005 93 6000 6.2 230 02:58 30.12.2019
1707 Drizzle 5 1005 93 6000 6.2 230 02:40 30.12.2019
1708 Drizzle 5 1005 93 6000 7.2 220 01:50 30.12.2019
1709 Drizzle 5 1006 93 4000 6.7 220 01:21 30.12.2019
1710 Drizzle 5 1007 93 4000 6.7 230 00:45 30.12.2019
1711 Drizzle 5 1007 93 3500 7.2 230 00:19 30.12.2019
1712 Drizzle 5 1007 93 4000 7.7 220 23:39 29.12.2019
1713 Drizzle 5 1008 93 4000 6.7 220 23:21 29.12.2019
1714 Drizzle 5 1008 93 4000 7.7 220 22:54 29.12.2019
1715 Drizzle 5 1008 93 4000 7.7 220 22:36 29.12.2019
1716 Drizzle 5 1008 93 4000 7.7 220 22:36 29.12.2019
1717 Drizzle 4 1009 100 4000 7.7 220 22:18 29.12.2019
1718 Drizzle 4 1009 100 5000 8.2 220 21:42 29.12.2019
1719 Drizzle 4 1010 100 5000 7.7 220 21:21 29.12.2019
1720 Drizzle 4 1010 100 5000 7.7 220 20:57 29.12.2019
1721 Drizzle 4 1011 93 8000 7.7 220 20:39 29.12.2019
1722 Clouds 4 1011 93 10000 8.7 220 20:20 29.12.2019
1723 Clouds 4 1011 93 10000 8.7 220 20:20 29.12.2019
1724 Clouds 4 1011 93 10000 8.7 220 20:20 29.12.2019
1725 Drizzle 4 1012 93 7000 8.7 220 19:59 29.12.2019
1726 Drizzle 4 1012 93 7000 8.7 220 19:40 29.12.2019
1727 Rain 4 1012 93 10000 8.2 210 19:21 29.12.2019
1728 Rain 4 1012 93 10000 8.2 210 18:57 29.12.2019
1729 Rain 4 1015 86 10000 8.7 210 18:38 29.12.2019
1730 Rain 4 1015 86 10000 8.7 210 18:19 29.12.2019
1731 Rain 3 1015 86 10000 8.7 210 17:58 29.12.2019
1732 Rain 3 1015 86 10000 8.7 210 17:39 29.12.2019
1733 Rain 3 1015 93 10000 9.8 210 17:20 29.12.2019
1734 Rain 3 1015 93 10000 9.8 210 16:56 29.12.2019
1735 Clouds 3 1016 93 10000 9.8 210 16:37 29.12.2019
1736 Rain 3 1017 93 10000 9.3 210 16:19 29.12.2019
1737 Rain 3 1017 93 10000 9.3 210 15:57 29.12.2019
1738 Clouds 3 1017 86 10000 9.8 210 15:39 29.12.2019
1739 Clouds 3 1018 86 10000 8.2 210 15:20 29.12.2019
1740 Clouds 3 1018 86 10000 8.7 190 14:57 29.12.2019
1741 Clouds 3 1018 86 10000 8.7 190 14:38 29.12.2019
1742 Clouds 3 1019 86 10000 7.7 190 14:18 29.12.2019
1743 Clouds 3 1019 86 10000 7.7 190 13:57 29.12.2019
1744 Clouds 3 1020 86 10000 7.2 200 13:57 29.12.2019
1745 Clouds 3 1020 86 10000 7.2 200 13:37 29.12.2019
1746 Clouds 3 1020 86 10000 7.2 200 13:37 29.12.2019
1747 Clouds 2 1020 93 10000 7.7 200 13:19 29.12.2019
1748 Clouds 2 1021 93 10000 9.3 180 12:45 29.12.2019
1749 Clouds 2 1022 93 10000 8.2 190 12:26 29.12.2019
1750 Snow 2 1023 79 7000 9.3 190 11:57 29.12.2019
1751 Snow 1 1023 79 7000 9.3 190 11:38 29.12.2019
1752 Snow 1 1024 96 9000 9.3 190 11:20 29.12.2019
1753 Clouds 1 1025 96 10000 8.7 190 10:43 29.12.2019
1754 Clouds 1 1025 96 10000 8.7 190 10:24 29.12.2019
1755 Clouds 1 1025 86 10000 8.2 190 09:58 29.12.2019
1756 Clouds 0 1025 86 10000 8.2 190 09:39 29.12.2019
1757 Clouds 0 1026 96 10000 7.7 180 09:21 29.12.2019
1758 Clouds 0 1027 96 10000 7.7 180 08:47 29.12.2019
1759 Clouds 0 1027 83 10000 8.2 180 08:27 29.12.2019
1760 Clouds 0 1028 83 10000 7.7 190 07:56 29.12.2019
1761 Clouds 0 1028 83 10000 7.7 190 07:28 29.12.2019
1762 Clouds 0 1029 83 10000 5.7 180 06:56 29.12.2019
1763 Clouds -1 1030 83 10000 5.7 180 06:26 29.12.2019
1764 Clouds -1 1030 92 10000 5.1 190 05:52 29.12.2019
1765 Clouds -4 1031 92 10000 4.1 170 04:36 29.12.2019
1766 Clouds -5 1031 92 10000 5.1 180 03:58 29.12.2019
1767 Clouds -4 1032 92 10000 1.5 160 03:21 29.12.2019
1768 Clouds -6 1033 92 10000 1 0 02:21 29.12.2019
1769 Clouds -7 1034 92 10000 0.5 0 01:38 29.12.2019
1770 Clouds -7 1034 92 10000 1 110 01:19 29.12.2019
1771 Clouds -7 1034 92 10000 0.5 0 00:40 29.12.2019
1772 Clouds -7 1035 92 10000 1.5 250 00:22 29.12.2019
1773 Clouds -8 1035 92 10000 0.5 0 23:43 28.12.2019
1774 Clouds -8 1035 92 10000 2.01 225 23:18 28.12.2019
1775 Clouds -9 1036 92 10000 1.5 110 22:39 28.12.2019
1776 Clouds -9 1036 92 10000 1 0 22:21 28.12.2019
1777 Clouds -10 1036 92 10000 1 0 21:58 28.12.2019
1778 Clouds -10 1036 92 10000 1 0 21:39 28.12.2019
1779 Clouds -10 1036 92 10000 0.5 0 21:21 28.12.2019
1780 Clouds -10 1036 92 10000 0.5 0 21:21 28.12.2019
1781 Clouds -9 1036 85 10000 2.01 225 20:57 28.12.2019
1782 Clouds -9 1036 85 10000 2.01 225 20:37 28.12.2019
1783 Clouds -9 1036 85 10000 2.01 225 20:37 28.12.2019
1784 Clouds -9 1037 92 10000 2.1 300 20:19 28.12.2019
1785 Clouds -10 1037 92 10000 1 0 19:57 28.12.2019
1786 Clouds -10 1037 92 10000 1 0 19:39 28.12.2019
1787 Clouds -9 1037 92 10000 0.5 340 19:20 28.12.2019
1788 Clouds -9 1037 92 10000 1 300 18:57 28.12.2019
1789 Clouds -9 1037 92 10000 1 300 18:39 28.12.2019
1790 Clouds -9 1037 92 10000 0.5 340 18:18 28.12.2019
1791 Clouds -9 1037 92 10000 1 0 17:54 28.12.2019
1792 Clouds -9 1037 92 10000 1 0 17:36 28.12.2019
1793 Clear -9 1038 100 10000 1 0 17:18 28.12.2019
1794 Clear -8 1038 100 10000 1.5 330 16:45 28.12.2019
1795 Clear -8 1037 92 10000 2.1 330 16:24 28.12.2019
1796 Clear -7 1037 92 10000 1.5 340 15:44 28.12.2019
1797 Clear -7 1038 85 10000 2.6 320 15:23 28.12.2019
1798 Clear -6 1038 85 10000 1 330 14:57 28.12.2019
1799 Clear -6 1038 85 10000 1 330 14:38 28.12.2019
1800 Clouds -6 1038 85 10000 2.1 350 14:20 28.12.2019
1801 Clouds -5 1037 79 10000 2.1 10 13:43 28.12.2019
1802 Clouds -5 1037 79 10000 3.1 20 13:21 28.12.2019
1803 Clouds -5 1038 79 10000 2.1 10 12:59 28.12.2019
1804 Clouds -5 1038 79 10000 2.1 10 12:40 28.12.2019
1805 Clouds -5 1038 79 10000 3.1 350 12:21 28.12.2019
1806 Clouds -5 1038 79 10000 3.6 360 11:40 28.12.2019
1807 Clouds -5 1038 79 10000 2.6 360 11:22 28.12.2019
1808 Clouds -5 1038 85 10000 3.6 10 10:59 28.12.2019
1809 Clouds -6 1038 85 10000 3.6 10 10:41 28.12.2019
1810 Clouds -6 1038 85 10000 3.1 360 10:20 28.12.2019
1811 Clouds -6 1038 85 10000 4.1 350 09:55 28.12.2019
1812 Clouds -6 1038 85 10000 4.1 350 09:37 28.12.2019
1813 Clouds -6 1038 85 10000 3.6 340 09:18 28.12.2019
1814 Clouds -6 1037 85 10000 3.6 350 08:43 28.12.2019
1815 Clouds -6 1037 85 10000 4.1 360 08:24 28.12.2019
1816 Clouds -6 1037 85 10000 4.6 360 07:48 28.12.2019
1817 Clouds -5 1037 92 10000 5.1 360 07:23 28.12.2019
1818 Clouds -5 1036 85 10000 5.1 360 05:51 28.12.2019
1819 Clouds -4 1035 79 10000 5.1 360 03:48 28.12.2019
1820 Clouds -3 1035 79 10000 4.1 360 02:51 28.12.2019
1821 Clouds -3 1034 79 10000 4.6 360 02:20 28.12.2019
1822 Snow -3 1034 73 10000 5.7 10 01:56 28.12.2019
1823 Clouds -4 1034 73 10000 6.2 10 01:23 28.12.2019
1824 Snow -4 1034 85 10000 6.2 10 00:50 28.12.2019
1825 Snow -4 1033 85 10000 6.2 10 00:30 28.12.2019
1826 Snow -4 1033 85 10000 5.7 360 23:58 27.12.2019
1827 Snow -4 1033 85 10000 5.7 360 23:39 27.12.2019
1828 Snow -4 1033 85 10000 7.2 350 23:19 27.12.2019
1829 Snow -4 1032 85 10000 6.2 360 22:56 27.12.2019
1830 Snow -4 1032 85 10000 6.2 360 22:37 27.12.2019
1831 Clouds -4 1032 85 10000 6.7 360 22:19 27.12.2019
1832 Clouds -4 1031 85 10000 6.7 360 21:43 27.12.2019
1833 Clouds -4 1031 79 10000 6.7 360 21:25 27.12.2019
1834 Clouds -4 1030 79 10000 5.7 10 20:57 27.12.2019
1835 Clouds -4 1030 79 10000 5.7 10 20:38 27.12.2019
1836 Clouds -4 1030 79 10000 7.2 360 20:20 27.12.2019
1837 Clouds -4 1030 79 10000 6.2 360 19:41 27.12.2019
1838 Clouds -5 1029 79 10000 6.7 360 19:20 27.12.2019
1839 Clouds -5 1029 79 10000 6.7 360 19:20 27.12.2019
1840 Clouds -5 1029 79 10000 6.7 360 19:20 27.12.2019
1841 Clouds -4 1029 79 10000 7.2 360 18:57 27.12.2019
1842 Clouds -5 1029 79 10000 7.2 360 18:37 27.12.2019
1843 Clouds -5 1029 79 10000 6.2 350 18:19 27.12.2019
1844 Clouds -5 1028 79 10000 7.2 360 17:55 27.12.2019
1845 Clouds -5 1028 79 10000 7.2 360 17:37 27.12.2019
1846 Clouds -5 1028 85 10000 5.7 350 17:18 27.12.2019
1847 Clouds -5 1028 85 10000 6.7 360 16:43 27.12.2019
1848 Clouds -5 1027 85 10000 7.2 360 16:23 27.12.2019
1849 Clouds -5 1027 85 10000 7.2 360 15:58 27.12.2019
1850 Clouds -5 1027 85 10000 7.7 350 15:40 27.12.2019
1851 Clouds -5 1027 85 10000 8.2 360 15:19 27.12.2019
1852 Clouds -5 1027 85 10000 8.2 360 14:56 27.12.2019
1853 Clouds -5 1026 85 10000 7.2 350 14:38 27.12.2019
1854 Clouds -5 1025 85 10000 6.7 350 14:20 27.12.2019
1855 Clouds -5 1025 85 10000 6.7 350 13:48 27.12.2019
1856 Clouds -5 1025 85 10000 6.7 360 13:25 27.12.2019
1857 Clouds -5 1024 85 10000 5.7 350 12:56 27.12.2019
1858 Clouds -4 1024 85 10000 5.7 350 12:38 27.12.2019
1859 Snow -4 1024 85 10000 5.7 360 12:20 27.12.2019
1860 Snow -4 1024 79 10000 6.7 360 11:42 27.12.2019
1861 Clouds -4 1024 79 10000 6.2 360 11:22 27.12.2019
1862 Clouds -4 1023 79 10000 7.7 360 10:54 27.12.2019
1863 Clouds -4 1023 79 10000 7.2 350 10:36 27.12.2019
1864 Clouds -4 1023 79 10000 7.2 350 10:18 27.12.2019
1865 Clouds -4 1022 79 10000 7.7 350 09:40 27.12.2019
1866 Clouds -3 1022 86 10000 5.7 350 09:21 27.12.2019
1867 Clouds -2 1021 79 10000 8.2 350 08:54 27.12.2019
1868 Clouds -2 1021 79 10000 8.2 350 08:34 27.12.2019
1869 Snow -2 1020 86 10000 6.7 350 07:49 27.12.2019
1870 Snow -2 1020 86 10000 6.7 350 07:28 27.12.2019
1871 Snow -1 1020 86 10000 5.7 360 06:36 27.12.2019
1872 Snow -1 1019 92 10000 5.1 360 04:59 27.12.2019
1873 Snow -1 1018 92 9000 4.1 350 02:53 27.12.2019
1874 Snow -1 1017 92 9000 3.6 350 01:59 27.12.2019
1875 Snow -1 1017 92 10000 3.1 340 01:24 27.12.2019
1876 Snow -1 1017 100 7000 3.1 340 00:54 27.12.2019
1877 Snow -1 1017 100 7000 3.1 340 00:35 27.12.2019
1878 Snow -1 1017 92 7000 3.1 340 23:59 26.12.2019
1879 Snow -1 1017 92 7000 3.6 330 23:41 26.12.2019
1880 Snow -1 1016 92 10000 3.6 330 23:21 26.12.2019
1881 Snow -1 1016 92 10000 3.6 330 22:45 26.12.2019
1882 -273 0 0 0 0 0 22:22 26.12.2019
1883 Snow -1 1016 92 10000 3.6 340 21:58 26.12.2019
1884 Snow 0 1016 81 10000 3.6 330 21:38 26.12.2019
1885 Snow 0 1016 81 10000 3.6 330 21:38 26.12.2019
1886 Clouds 0 1016 81 10000 3.1 340 21:20 26.12.2019
1887 Clouds 0 1015 81 10000 4.1 340 20:45 26.12.2019
1888 Clouds 0 1015 84 10000 4.1 340 20:23 26.12.2019
1889 Clouds 0 1015 84 10000 4.1 340 19:59 26.12.2019
1890 Clouds 0 1015 84 10000 4.1 340 19:39 26.12.2019
1891 Clouds 0 1015 84 10000 4.1 340 19:39 26.12.2019
1892 Clouds 0 1015 84 10000 3.6 350 19:20 26.12.2019
1893 Snow 0 1015 84 10000 3.1 320 18:57 26.12.2019
1894 Snow 0 1015 84 10000 3.1 320 18:38 26.12.2019
1895 Snow 0 1015 84 6000 2.6 320 18:19 26.12.2019
1896 Snow 0 1015 84 10000 2.1 340 17:43 26.12.2019
1897 Snow 0 1015 84 10000 2.1 340 17:43 26.12.2019
1898 Clouds 0 1015 82 10000 2.6 330 17:22 26.12.2019
1899 Clouds 0 1015 82 10000 2.6 320 16:58 26.12.2019
1900 Clouds 0 1015 82 10000 2.6 320 16:40 26.12.2019
1901 Clouds 0 1014 82 10000 2.6 320 16:21 26.12.2019
1902 Clouds 0 1014 82 10000 2.6 310 15:41 26.12.2019
1903 Clouds 0 1014 82 10000 2.6 310 15:22 26.12.2019
1904 Clouds 0 1014 82 10000 2.6 310 14:59 26.12.2019
1905 Clouds 0 1014 82 10000 2.6 310 14:39 26.12.2019
1906 Clouds 0 1014 82 6000 2.1 310 14:20 26.12.2019
1907 Clouds 0 1014 82 8000 2.6 310 13:43 26.12.2019
1908 Clouds 0 1014 81 4500 3.1 320 13:21 26.12.2019
1909 Clouds 0 1014 81 2800 2.6 320 12:58 26.12.2019
1910 Clouds 0 1014 81 2800 2.6 320 12:37 26.12.2019
1911 Clouds 0 1013 81 2800 3.1 310 12:19 26.12.2019
1912 Clouds 0 1013 81 7000 2.6 310 11:56 26.12.2019
1913 Clouds 0 1013 81 7000 2.6 310 11:37 26.12.2019
1914 Clouds 0 1013 81 10000 3.6 320 11:19 26.12.2019
1915 Clouds 0 1013 81 10000 3.6 320 10:42 26.12.2019
1916 Snow 0 1013 81 10000 3.1 310 10:18 26.12.2019
1917 Snow 0 1013 81 10000 3.6 310 09:45 26.12.2019
1918 Snow 0 1013 81 9000 3.1 310 09:26 26.12.2019
1919 Clouds 0 1013 81 10000 3.1 300 08:42 26.12.2019
1920 Snow 0 1013 81 9000 3.1 310 08:24 26.12.2019
1921 Snow 0 1012 81 6000 3.1 300 07:53 26.12.2019
1922 Clouds 0 1012 81 10000 2.6 310 07:26 26.12.2019
1923 Drizzle 0 1012 81 10000 2.6 300 06:53 26.12.2019
1924 Clouds 0 1012 81 10000 1.5 310 06:32 26.12.2019
1925 Clouds 0 1012 81 10000 2.6 300 05:45 26.12.2019
1926 Clouds 0 1012 86 10000 2.6 290 04:55 26.12.2019
1927 Clouds 0 1012 86 10000 2.6 280 04:29 26.12.2019
1928 Clouds 0 1011 86 10000 3.6 310 02:54 26.12.2019
1929 Clouds 0 1011 86 10000 3.6 310 02:34 26.12.2019
1930 Clouds 0 1011 84 10000 3.6 290 01:48 26.12.2019
1931 Clouds 0 1011 84 10000 3.6 290 01:28 26.12.2019
1932 Clouds 1 1011 86 10000 3.6 300 00:49 26.12.2019
1933 Clouds 1 1011 84 10000 3.6 290 00:27 26.12.2019
1934 Clouds 0 1011 84 10000 3.6 290 23:58 25.12.2019
1935 Clouds 0 1011 84 10000 3.6 290 23:39 25.12.2019
1936 Clouds 1 1011 85 10000 2.6 300 23:21 25.12.2019
1937 Clouds 1 1011 85 10000 4.1 290 22:58 25.12.2019
1938 Clouds 1 1011 85 10000 4.1 290 22:39 25.12.2019
1939 Clouds 1 1010 85 10000 3.1 310 22:20 25.12.2019
1940 Clouds 1 1010 85 10000 3.6 300 21:58 25.12.2019
1941 Clouds 1 1010 85 10000 3.6 300 21:39 25.12.2019
1942 Clouds 1 1010 85 8000 4.1 300 21:20 25.12.2019
1943 Clouds 1 1010 85 8000 4.1 300 20:54 25.12.2019
1944 Clouds 1 1010 79 10000 3.1 300 20:36 25.12.2019
1945 Clouds 1 1010 82 10000 3.1 300 20:18 25.12.2019
1946 Clouds 1 1010 82 10000 3.1 290 19:42 25.12.2019
1947 Clouds 1 1010 82 10000 3.1 300 19:22 25.12.2019
1948 Clouds 1 1009 82 10000 3.1 290 18:56 25.12.2019
1949 Clouds 1 1009 82 10000 3.1 290 18:36 25.12.2019
1950 Clouds 1 1009 82 10000 3.1 290 18:18 25.12.2019
1951 Clouds 1 1009 82 10000 3.1 280 17:40 25.12.2019
1952 Clouds 1 1009 89 10000 3.6 290 17:19 25.12.2019
1953 Clouds 1 1009 89 10000 3.6 290 16:57 25.12.2019
1954 Clouds 1 1009 89 10000 3.6 290 16:37 25.12.2019
1955 Clouds 1 1009 89 10000 3.6 280 16:18 25.12.2019
1956 Clouds 1 1009 89 10000 3.6 280 16:18 25.12.2019
1957 Clouds 1 1008 89 10000 3.6 280 15:56 25.12.2019
1958 Clouds 1 1008 89 10000 3.6 280 15:38 25.12.2019
1959 Clouds 1 1008 89 10000 3.6 280 15:19 25.12.2019
1960 Clouds 1 1008 89 10000 3.6 280 15:19 25.12.2019
1961 Clouds 1 1008 89 10000 3.6 280 14:56 25.12.2019
1962 Clouds 1 1008 89 10000 3.6 280 14:37 25.12.2019
1963 Clouds 1 1008 90 10000 3.1 300 14:19 25.12.2019
1964 Clouds 1 1008 90 10000 4.1 300 13:44 25.12.2019
1965 Clouds 1 1007 90 10000 4.6 300 13:21 25.12.2019
1966 Clouds 1 1007 90 10000 4.6 300 12:56 25.12.2019
1967 Clouds 1 1007 90 10000 3.6 310 12:38 25.12.2019
1968 Clouds 1 1007 90 10000 3.6 300 12:18 25.12.2019
1969 Clouds 1 1007 100 10000 3.1 300 11:42 25.12.2019
1970 Clouds 1 1007 100 8000 3.1 300 11:22 25.12.2019
1971 Clouds 1 1007 100 8000 2.6 290 10:58 25.12.2019
1972 Clouds 1 1007 100 8000 2.6 290 10:36 25.12.2019
1973 Clouds 1 1006 100 10000 2.6 320 10:18 25.12.2019
1974 Clouds 1 1006 100 10000 3.1 310 09:43 25.12.2019
1975 Clouds 1 1006 100 10000 2.6 310 09:25 25.12.2019
1976 Clouds 1 1006 100 10000 2.6 310 09:25 25.12.2019
1977 Clouds 1 1006 100 10000 2.1 320 08:45 25.12.2019
1978 Clouds 1 1005 94 10000 2.1 330 08:25 25.12.2019
1979 Clouds 1 1005 94 10000 2.1 330 08:25 25.12.2019
1980 Clouds 1 1005 100 10000 3.1 300 07:45 25.12.2019
1981 Rain 1 1005 100 10000 2.6 330 07:23 25.12.2019
1982 Rain 1 1005 100 10000 2.6 340 06:41 25.12.2019
1983 Rain 1 1005 100 10000 2.1 330 06:21 25.12.2019
1984 Rain 1 1005 100 10000 2.1 360 04:47 25.12.2019
1985 Rain 1 1005 100 10000 2.1 350 04:25 25.12.2019
1986 Rain 1 1005 100 10000 2.1 360 03:52 25.12.2019
1987 Rain 1 1005 100 10000 2.1 360 03:32 25.12.2019
1988 Rain 1 1005 100 10000 3.1 360 02:32 25.12.2019
1989 Rain 1 1005 93 10000 3.1 360 01:55 25.12.2019
1990 Rain 2 1005 93 10000 3.1 350 01:24 25.12.2019
1991 Rain 2 1005 100 10000 2.6 350 00:46 25.12.2019
1992 Rain 2 1005 100 9000 2.6 360 00:27 25.12.2019
1993 Rain 1 1005 100 9000 2.6 360 23:55 24.12.2019
1994 Rain 2 1005 100 9000 2.6 360 23:36 24.12.2019
1995 Rain 2 1005 100 10000 2.6 10 23:18 24.12.2019
1996 Rain 2 1005 100 10000 2.6 10 22:38 24.12.2019
1997 Rain 2 1005 93 7000 2.6 20 22:20 24.12.2019
1998 Rain 2 1005 93 10000 2.6 20 21:42 24.12.2019
1999 Rain 2 1005 93 10000 2.6 20 21:22 24.12.2019
2000 Rain 2 1005 93 8000 2.6 20 20:45 24.12.2019
2001 Rain 2 1005 93 10000 2.6 20 20:24 24.12.2019
2002 Rain 2 1005 93 10000 2.6 20 19:57 24.12.2019
2003 Rain 2 1005 93 10000 2.6 20 19:38 24.12.2019
2004 Rain 2 1005 93 10000 2.1 10 19:18 24.12.2019
2005 Rain 2 1005 93 10000 2.6 10 18:42 24.12.2019
2006 Rain 2 1006 93 10000 2.1 10 18:20 24.12.2019
2007 Rain 2 1006 93 10000 2.6 20 17:50 24.12.2019
2008 Rain 2 1006 93 10000 2.1 30 17:24 24.12.2019
2009 Rain 2 1006 93 10000 2.1 30 16:59 24.12.2019
2010 Rain 2 1006 93 10000 2.1 30 16:41 24.12.2019
2011 Rain 2 1006 100 10000 2.1 30 16:22 24.12.2019
2012 Rain 2 1006 100 10000 1.5 50 15:58 24.12.2019
2013 Rain 2 1006 100 10000 1.5 50 15:38 24.12.2019
2014 Rain 2 1006 100 10000 1.5 40 15:20 24.12.2019
2015 Rain 2 1006 100 10000 1.5 30 14:59 24.12.2019
2016 Rain 2 1006 100 10000 1.5 40 14:59 24.12.2019
2017 Rain 2 1006 100 10000 1.5 30 14:41 24.12.2019
2018 Rain 2 1006 93 10000 1.5 20 14:22 24.12.2019
2019 Rain 3 1006 93 10000 1.5 20 13:57 24.12.2019
2020 Clouds 2 1006 93 10000 1 10 13:39 24.12.2019
2021 Clouds 3 1006 93 10000 1 10 13:20 24.12.2019
2022 Rain 3 1006 93 10000 1 0 12:57 24.12.2019
2023 Rain 3 1006 93 10000 1 0 12:38 24.12.2019
2024 Rain 3 1007 93 10000 1 0 12:19 24.12.2019
2025 Rain 2 1007 100 10000 1 0 11:57 24.12.2019
2026 Rain 2 1007 100 10000 1 0 11:38 24.12.2019
2027 Rain 2 1007 100 10000 1 0 11:20 24.12.2019
2028 Rain 2 1007 100 10000 1.5 60 10:57 24.12.2019
2029 Rain 2 1007 100 10000 1.5 60 10:57 24.12.2019
2030 Rain 2 1007 100 10000 1.5 60 10:38 24.12.2019
2031 Rain 2 1007 93 10000 1 0 10:20 24.12.2019
2032 Rain 2 1007 93 10000 1.5 90 09:57 24.12.2019
2033 Rain 2 1007 93 10000 1.5 90 09:39 24.12.2019
2034 Rain 2 1007 93 10000 1.5 90 09:39 24.12.2019
2035 Rain 1 1006 100 10000 1 70 09:21 24.12.2019
2036 Clouds 1 1006 100 10000 0.5 50 08:47 24.12.2019
2037 Clouds 1 1006 100 10000 1 40 08:24 24.12.2019
2038 Clouds 1 1006 100 10000 1 40 07:59 24.12.2019
2039 Rain 2 1006 100 10000 1 70 07:39 24.12.2019
2040 Rain 2 1006 100 10000 1 0 07:20 24.12.2019
2041 Rain 2 1006 93 10000 1 0 06:39 24.12.2019
2042 Rain 2 1006 93 10000 1.5 320 06:19 24.12.2019
2043 Rain 2 1006 93 10000 1.5 300 05:51 24.12.2019
2044 Rain 2 1006 93 10000 1 290 05:19 24.12.2019
2045 Clouds 2 1005 93 10000 0.5 330 04:21 24.12.2019
2046 Clouds 2 1005 100 10000 1 350 03:46 24.12.2019
2047 Clouds 2 1005 93 10000 1.29 4 02:28 24.12.2019
2048 Clouds 2 1005 93 10000 0.5 60 01:54 24.12.2019
2049 Clouds 2 1005 100 10000 0.5 0 01:26 24.12.2019
2050 Clouds 2 1005 100 10000 0.5 0 00:58 24.12.2019
2051 Clouds 2 1005 100 10000 1.1 48 00:39 24.12.2019
2052 Clouds 2 1005 100 10000 0.5 0 00:19 24.12.2019
2053 Clouds 3 1004 93 10000 0.5 0 23:42 23.12.2019
2054 Clouds 3 1004 86 10000 1 0 23:24 23.12.2019
2055 Clouds 3 1004 86 10000 1 0 22:57 23.12.2019
2056 Clouds 3 1004 86 10000 1 0 22:38 23.12.2019
2057 Clouds 2 1004 86 10000 2.1 340 22:19 23.12.2019
2058 Clouds 3 1003 86 10000 2.6 0 21:56 23.12.2019
2059 Clouds 3 1003 86 10000 2.6 0 21:37 23.12.2019
2060 Clouds 3 1003 86 10000 2.6 350 21:19 23.12.2019
2061 Clouds 3 1003 86 10000 2.6 350 20:58 23.12.2019
2062 Clouds 3 1003 93 10000 2.6 340 20:40 23.12.2019
2063 Clouds 3 1003 93 10000 1 320 20:18 23.12.2019
2064 Clouds 3 1003 86 10000 1 0 19:56 23.12.2019
2065 Clouds 3 1003 86 10000 1 0 19:38 23.12.2019
2066 Clouds 3 1002 86 10000 1.5 320 19:20 23.12.2019
2067 Clouds 3 1002 86 10000 1.5 320 18:58 23.12.2019
2068 Clouds 3 1002 86 10000 1.5 350 18:39 23.12.2019
2069 Clouds 3 1002 93 10000 2.1 360 18:20 23.12.2019
2070 Clouds 3 1002 86 10000 1.5 10 17:58 23.12.2019
2071 Clouds 3 1002 86 10000 1.5 10 17:39 23.12.2019
2072 Clouds 3 1002 93 10000 1 340 17:19 23.12.2019
2073 Clouds 3 1002 93 10000 1 0 16:57 23.12.2019
2074 Clouds 3 1002 93 10000 1 0 16:39 23.12.2019
2075 Clouds 3 1001 86 10000 2.1 340 16:18 23.12.2019
2076 Clouds 3 1001 93 10000 2.6 340 15:56 23.12.2019
2077 Clouds 3 1001 93 10000 2.6 340 15:36 23.12.2019
2078 Clouds 3 1001 100 10000 1.5 360 15:18 23.12.2019
2079 Clouds 3 1001 93 10000 1.5 350 14:55 23.12.2019
2080 Clouds 4 1001 93 10000 1.5 350 14:36 23.12.2019
2081 Clouds 4 1001 86 10000 1 0 14:18 23.12.2019
2082 Clouds 4 1000 93 10000 1 360 13:41 23.12.2019
2083 Clouds 4 1000 86 10000 1.5 330 13:23 23.12.2019
2084 Clouds 4 1000 86 10000 1.5 330 12:59 23.12.2019
2085 Clouds 4 1000 80 10000 1.5 320 12:40 23.12.2019
2086 Clouds 4 1000 93 10000 1.5 310 12:21 23.12.2019
2087 Clouds 4 1000 93 10000 1.5 290 11:56 23.12.2019
2088 Clouds 4 1000 93 10000 1.5 290 11:38 23.12.2019
2089 Clouds 4 1000 93 10000 2.1 280 11:20 23.12.2019
2090 Clouds 4 1000 93 10000 2.1 280 11:20 23.12.2019
2091 Clouds 4 1000 93 10000 2.1 280 10:55 23.12.2019
2092 Clouds 4 1000 93 10000 2.1 280 10:55 23.12.2019
2093 Clouds 4 999 93 10000 1.5 300 10:37 23.12.2019
2094 Clouds 4 999 93 10000 1.5 340 10:18 23.12.2019
2095 Clouds 4 999 100 10000 1 0 09:54 23.12.2019
2096 Clouds 3 999 100 10000 1 0 09:36 23.12.2019
2097 Clouds 3 999 100 10000 3.06 63 09:18 23.12.2019
2098 Fog 3 999 100 10000 1 0 08:41 23.12.2019
2099 Fog 3 998 100 10000 3.26 57 08:22 23.12.2019
2100 Fog 3 998 100 10000 1 10 07:49 23.12.2019
2101 Fog 3 998 100 10000 1 0 07:22 23.12.2019
2102 Fog 3 998 100 10000 1 0 06:57 23.12.2019
2103 Fog 3 998 100 10000 1 0 06:32 23.12.2019
2104 Fog 4 998 100 9000 1 0 05:56 23.12.2019
2105 Fog 4 998 100 9000 1 0 05:33 23.12.2019
2106 Fog 4 998 93 9000 1.5 80 04:40 23.12.2019
2107 Fog 4 997 100 10000 1 80 03:36 23.12.2019
2108 Fog 3 997 100 10000 1 340 02:43 23.12.2019
2109 Fog 4 997 100 10000 1 340 02:19 23.12.2019
2110 Fog 4 997 100 10000 1.45 304 01:45 23.12.2019
2111 Fog 4 997 100 10000 1.38 274 01:27 23.12.2019
2112 Fog 4 997 100 10000 1 230 00:45 23.12.2019
2113 Fog 4 997 100 10000 0.5 0 00:24 23.12.2019
2114 Fog 4 997 100 10000 0.5 0 00:24 23.12.2019
2115 Clouds 4 997 100 10000 1 0 23:40 22.12.2019
2116 Fog 4 996 100 10000 2.1 170 23:22 22.12.2019
2117 Fog 4 996 100 10000 2.1 170 22:58 22.12.2019
2118 Fog 4 996 100 10000 2.1 170 22:58 22.12.2019
2119 Clouds 4 996 100 9000 2.6 150 22:40 22.12.2019
2120 Clouds 4 996 93 10000 2.6 160 22:22 22.12.2019
2121 Clouds 4 996 93 10000 2.6 150 21:59 22.12.2019
2122 Clouds 4 996 93 10000 2.6 150 21:40 22.12.2019
2123 Clouds 4 996 93 10000 2.6 210 21:21 22.12.2019
2124 Clouds 5 996 93 10000 2.6 210 20:59 22.12.2019
2125 Clouds 5 995 100 10000 2.6 200 20:39 22.12.2019
2126 Clouds 5 995 100 9000 2.6 210 20:19 22.12.2019
2127 Clouds 5 995 100 7000 3.1 210 19:57 22.12.2019
2128 Clouds 5 995 100 7000 3.1 210 19:39 22.12.2019
2129 Clouds 5 995 100 6000 3.6 200 19:20 22.12.2019
2130 Mist 5 995 100 5000 3.1 180 18:42 22.12.2019
2131 Mist 5 995 100 5000 3.6 200 18:24 22.12.2019
2132 Mist 5 994 100 4500 3.6 200 17:57 22.12.2019
2133 Mist 5 994 100 4500 3.6 200 17:39 22.12.2019
2134 Mist 5 994 100 5000 2.6 140 17:19 22.12.2019
2135 Mist 5 994 100 5000 2.6 140 16:57 22.12.2019
2136 Mist 5 994 100 5000 2.6 140 16:57 22.12.2019
2137 Mist 5 994 100 5000 3.1 150 16:39 22.12.2019
2138 Mist 5 994 100 4500 3.1 170 16:21 22.12.2019
2139 Mist 5 994 100 4500 3.1 170 15:56 22.12.2019
2140 Mist 5 994 100 4500 3.1 170 15:38 22.12.2019
2141 Clouds 5 994 93 6000 2.6 170 15:20 22.12.2019
2142 Mist 5 993 100 4000 3.1 180 14:55 22.12.2019
2143 Rain 5 993 100 4000 3.1 180 14:37 22.12.2019
2144 Drizzle 5 993 100 1500 3.6 180 14:18 22.12.2019
2145 Drizzle 5 993 100 1500 3.6 180 14:18 22.12.2019
2146 Mist 5 993 100 1400 3.6 190 13:55 22.12.2019
2147 Mist 5 993 100 1400 3.6 190 13:37 22.12.2019
2148 Drizzle 5 993 93 1800 2.6 170 13:19 22.12.2019
2149 Drizzle 5 993 100 3500 3.6 160 12:56 22.12.2019
2150 Drizzle 4 993 100 3500 3.6 160 12:37 22.12.2019
2151 Drizzle 4 993 100 2000 3.6 150 12:18 22.12.2019
2152 Drizzle 4 992 100 2000 3.6 130 11:56 22.12.2019
2153 Drizzle 4 992 100 2000 3.6 130 11:56 22.12.2019
2154 Drizzle 4 992 100 2000 3.6 130 11:37 22.12.2019
2155 Drizzle 4 992 100 2500 3.6 140 11:18 22.12.2019
2156 Drizzle 4 992 100 3500 3.6 130 10:55 22.12.2019
2157 Drizzle 4 992 100 3500 3.6 130 10:36 22.12.2019
2158 Drizzle 4 992 93 2000 4.6 130 10:18 22.12.2019
2159 Drizzle 4 992 93 2300 3.6 130 09:56 22.12.2019
2160 Drizzle 4 992 93 2300 3.6 130 09:37 22.12.2019
2161 Drizzle 4 992 93 2000 4.1 120 09:19 22.12.2019
2162 Drizzle 3 992 100 1800 4.1 120 08:39 22.12.2019
2163 Drizzle 3 992 100 2500 3.6 110 08:21 22.12.2019
2164 Drizzle 3 992 100 2800 3.6 110 07:40 22.12.2019
2165 Drizzle 3 992 100 7000 3.6 120 07:21 22.12.2019
2166 Drizzle 3 992 100 7000 3.6 100 06:42 22.12.2019
2167 Drizzle 3 992 100 8000 3.1 100 06:21 22.12.2019
2168 Clouds 3 992 93 10000 4.1 120 05:29 22.12.2019
2169 Clouds 3 992 93 8000 3.6 110 04:45 22.12.2019
2170 Clouds 3 992 93 6000 3.6 110 04:22 22.12.2019
2171 Drizzle 3 993 100 4000 3.6 100 02:43 22.12.2019
2172 Drizzle 3 993 100 4000 3.6 100 02:43 22.12.2019
2173 Drizzle 3 993 100 4000 3.6 100 02:43 22.12.2019
2174 Clouds 3 993 100 8000 4.6 110 01:57 22.12.2019
2175 Clouds 3 993 100 5000 4.6 110 01:31 22.12.2019
2176 Clouds 3 993 100 5000 4.6 100 00:48 22.12.2019
2177 Clouds 3 994 100 7000 4.6 120 00:28 22.12.2019
2178 Clouds 3 994 100 8000 4.6 110 23:57 21.12.2019
2179 Clouds 3 994 100 8000 4.6 110 23:39 21.12.2019
2180 Clouds 3 993 100 7000 5.1 110 23:20 21.12.2019
2181 Clouds 3 994 100 8000 4.6 110 22:46 21.12.2019
2182 Clouds 3 994 100 8000 5.1 110 22:20 21.12.2019
2183 Clouds 3 994 100 8000 5.1 110 21:58 21.12.2019
2184 Clouds 3 994 100 8000 4.6 100 21:38 21.12.2019
2185 Clouds 3 994 100 7000 5.1 120 21:20 21.12.2019
2186 Clouds 3 994 100 7000 3.1 120 20:59 21.12.2019
2187 Clouds 3 994 100 7000 3.1 120 20:40 21.12.2019
2188 Clouds 3 994 100 6000 4.1 130 20:22 21.12.2019
2189 Mist 3 994 100 3500 4.1 120 19:58 21.12.2019
2190 Mist 3 994 100 3500 4.1 120 19:40 21.12.2019
2191 Mist 3 994 100 4000 3.6 110 19:19 21.12.2019
2192 Mist 3 995 100 4500 3.6 120 18:55 21.12.2019
2193 Mist 2 995 100 4500 3.6 120 18:37 21.12.2019
2194 Drizzle 2 995 100 6000 4.6 130 18:19 21.12.2019
2195 Drizzle 2 995 100 5000 4.1 130 17:43 21.12.2019
2196 Drizzle 2 995 100 5000 4.1 130 17:25 21.12.2019
2197 Drizzle 2 995 100 5000 4.1 130 16:59 21.12.2019
2198 Drizzle 2 995 100 5000 4.1 130 16:41 21.12.2019
2199 Drizzle 2 995 100 5000 4.1 130 16:41 21.12.2019
2200 Drizzle 2 995 100 5000 4.6 130 16:19 21.12.2019
2201 Drizzle 2 995 100 5000 4.6 130 16:19 21.12.2019
2202 Drizzle 2 995 100 6000 4.1 130 15:57 21.12.2019
2203 Drizzle 2 995 100 6000 4.1 130 15:38 21.12.2019
2204 Drizzle 2 995 100 6000 4.1 130 15:38 21.12.2019
2205 Drizzle 2 995 100 6000 4.1 130 15:38 21.12.2019
2206 Mist 2 995 100 4500 4.1 130 15:19 21.12.2019
2207 Mist 2 995 100 4500 4.1 130 14:57 21.12.2019
2208 Mist 2 995 100 2500 4.6 120 14:38 21.12.2019
2209 Mist 2 996 100 1900 4.6 130 14:18 21.12.2019
2210 Mist 2 996 100 2500 4.6 120 13:55 21.12.2019
2211 Mist 2 996 100 2500 4.6 120 13:37 21.12.2019
2212 Mist 2 996 100 2500 5.1 130 13:18 21.12.2019
2213 Clouds 2 996 100 10000 4.6 130 12:54 21.12.2019
2214 Clouds 2 996 100 10000 4.6 130 12:36 21.12.2019
2215 Clouds 3 996 100 10000 5.7 130 12:18 21.12.2019
2216 Clouds 3 996 93 10000 5.1 120 11:42 21.12.2019
2217 Clouds 3 997 93 10000 5.1 110 11:24 21.12.2019
2218 Clouds 3 997 93 10000 4.6 120 10:56 21.12.2019
2219 Clouds 3 997 93 10000 4.6 120 10:37 21.12.2019
2220 Clouds 3 997 93 10000 4.6 120 10:19 21.12.2019
2221 Clouds 3 997 93 10000 4.6 120 10:19 21.12.2019
2222 Clouds 3 997 93 10000 4.6 110 09:42 21.12.2019
2223 Clouds 3 997 93 10000 5.7 110 09:21 21.12.2019
2224 Clouds 3 997 93 10000 5.7 110 08:57 21.12.2019
2225 Clouds 3 997 93 10000 5.7 110 08:37 21.12.2019
2226 Clouds 3 997 93 10000 5.7 110 08:18 21.12.2019
2227 Clouds 3 998 93 10000 4.1 110 07:41 21.12.2019
2228 Clouds 3 998 93 10000 4.1 110 07:22 21.12.2019
2229 Clouds 3 998 93 10000 4.6 120 06:44 21.12.2019
2230 Clouds 3 998 93 10000 4.1 110 06:25 21.12.2019
2231 Clouds 3 999 100 10000 4.6 120 05:47 21.12.2019
2232 Clouds 2 999 100 10000 4.1 120 04:58 21.12.2019
2233 Clouds 3 1000 93 10000 4.1 120 03:57 21.12.2019
2234 Clouds 3 1000 93 10000 4.6 120 02:52 21.12.2019
2235 Clouds 3 1000 93 10000 5.1 120 01:59 21.12.2019
2236 Clouds 3 1001 93 10000 5.1 120 01:28 21.12.2019
2237 Clouds 3 1001 93 10000 4.1 110 00:53 21.12.2019
2238 Clouds 3 1001 93 10000 4.1 110 00:33 21.12.2019
2239 Clouds 3 1002 93 10000 3.6 110 23:59 20.12.2019
2240 Clouds 3 1002 93 10000 3.6 110 23:37 20.12.2019
2241 Clouds 3 1002 93 10000 5.1 110 23:18 20.12.2019
2242 Clouds 3 1002 93 10000 5.7 110 22:40 20.12.2019
2243 Clouds 3 1003 93 10000 3.6 110 22:21 20.12.2019
2244 Clouds 3 1003 93 10000 3.6 110 21:58 20.12.2019
2245 Clouds 3 1003 93 10000 3.6 110 21:39 20.12.2019
2246 Clouds 3 1003 93 10000 4.6 110 21:20 20.12.2019
2247 Clouds 3 1003 100 10000 4.1 120 20:41 20.12.2019
2248 Clouds 3 1004 100 10000 4.1 100 20:20 20.12.2019
2249 Clouds 3 1004 100 10000 4.1 100 19:59 20.12.2019
2250 Clouds 3 1004 100 10000 4.1 120 19:40 20.12.2019
2251 Clouds 3 1004 100 9000 5.1 120 19:19 20.12.2019
2252 Fog 3 1004 100 600 4.1 130 18:54 20.12.2019
2253 Fog 3 1004 100 600 4.1 130 18:36 20.12.2019
2254 Mist 3 1005 100 3500 3.6 120 18:18 20.12.2019
2255 Rain 3 1005 93 10000 3.6 120 17:42 20.12.2019
2256 Rain 3 1005 93 10000 3.6 120 17:21 20.12.2019
2257 Rain 3 1006 93 10000 3.6 120 16:59 20.12.2019
2258 Clouds 3 1006 93 10000 4.6 130 16:39 20.12.2019
2259 Clouds 3 1006 93 10000 4.6 130 16:20 20.12.2019
2260 Clouds 3 1006 93 10000 4.6 130 15:56 20.12.2019
2261 Clouds 3 1007 93 10000 5.1 140 15:38 20.12.2019
2262 Clouds 3 1007 93 10000 5.1 140 15:19 20.12.2019
2263 Clouds 3 1007 93 10000 4.6 140 14:55 20.12.2019
2264 Clouds 3 1007 93 10000 4.6 140 14:37 20.12.2019
2265 Clouds 3 1007 93 10000 4.6 140 14:18 20.12.2019
2266 Clouds 3 1008 86 10000 5.1 160 13:41 20.12.2019
2267 Clouds 3 1008 86 10000 5.1 160 13:20 20.12.2019
2268 Clouds 3 1008 86 10000 4.6 160 12:58 20.12.2019
2269 Clouds 3 1009 93 10000 4.6 160 12:38 20.12.2019
2270 Clouds 3 1009 93 10000 4.6 160 12:19 20.12.2019
2271 Clouds 3 1009 93 10000 4.6 160 11:59 20.12.2019
2272 Clouds 3 1009 93 10000 4.6 160 11:59 20.12.2019
2273 Clouds 3 1010 93 10000 4.6 160 11:39 20.12.2019
2274 Clouds 3 1010 93 10000 4.6 160 11:19 20.12.2019
2275 Clouds 3 1010 93 10000 4.6 160 10:57 20.12.2019
2276 Clouds 3 1010 93 10000 5.1 160 10:39 20.12.2019
2277 Clouds 3 1010 93 10000 5.1 160 10:20 20.12.2019
2278 Clouds 3 1011 93 10000 4.6 180 09:44 20.12.2019
2279 Clouds 3 1011 93 10000 4.6 180 09:44 20.12.2019
2280 Clouds 3 1011 93 10000 5.1 160 09:22 20.12.2019
2281 Clouds 3 1011 93 10000 4.6 160 08:59 20.12.2019
2282 Clouds 3 1011 93 10000 4.6 160 08:59 20.12.2019
2283 Clouds 3 1011 93 10000 5.1 160 08:41 20.12.2019
2284 Clouds 3 1011 93 10000 5.1 160 08:22 20.12.2019
2285 Clouds 3 1011 86 10000 4.6 160 07:58 20.12.2019
2286 Clouds 3 1011 93 10000 5.1 160 07:39 20.12.2019
2287 Clouds 3 1011 93 10000 5.1 160 07:18 20.12.2019
2288 Clouds 3 1012 93 10000 5.1 170 06:48 20.12.2019
2289 Clouds 3 1012 93 10000 5.1 170 06:30 20.12.2019
2290 Rain 3 1013 100 10000 4.6 170 05:49 20.12.2019
2291 Drizzle 3 1013 100 8000 4.1 160 05:25 20.12.2019
2292 Rain 2 1014 100 10000 3.6 140 03:50 20.12.2019
2293 Rain 2 1015 100 10000 2.6 120 03:29 20.12.2019
2294 Clouds 1 1016 93 10000 2.1 160 02:38 20.12.2019
2295 Clouds 1 1016 100 10000 2.6 180 01:44 20.12.2019
2296 Clouds 0 1016 88 10000 2.6 140 00:59 20.12.2019
2297 Clouds 0 1016 88 10000 1 0 00:40 20.12.2019
2298 Clouds 0 1017 100 10000 1.5 120 23:59 19.12.2019
2299 Clouds -1 1017 100 10000 1 210 23:40 19.12.2019
2300 Clouds -1 1017 100 10000 1 210 23:40 19.12.2019
2301 Clouds -1 1017 100 10000 1 210 23:22 19.12.2019
2302 Clouds -1 1017 92 10000 1.5 200 22:41 19.12.2019
2303 Clouds -1 1018 100 10000 6.46 240 22:23 19.12.2019
2304 Clouds -1 1018 100 10000 1 180 21:59 19.12.2019
2305 Clouds -1 1018 100 10000 1 180 21:59 19.12.2019
2306 Clouds -1 1018 100 10000 1.5 210 21:41 19.12.2019
2307 Clouds -1 1018 100 10000 1.5 210 21:20 19.12.2019
2308 Clouds -1 1018 100 10000 1.5 230 20:58 19.12.2019
2309 Clouds -1 1018 100 10000 2.6 230 20:38 19.12.2019
2310 Clouds -1 1018 100 10000 2.6 230 20:20 19.12.2019
2311 Clouds -1 1018 100 10000 2.6 230 20:20 19.12.2019
2312 Clouds -1 1018 100 10000 2.6 230 19:59 19.12.2019
2313 Clouds -1 1018 100 10000 2.6 230 19:40 19.12.2019
2314 Clouds -1 1018 100 10000 2.6 230 19:40 19.12.2019
2315 Clouds -1 1018 100 10000 2.6 230 19:20 19.12.2019
2316 Clouds -1 1018 92 10000 2.1 230 18:59 19.12.2019
2317 Clouds -1 1018 100 10000 2.1 240 18:40 19.12.2019
2318 Clouds -1 1018 100 10000 2.1 240 18:20 19.12.2019
2319 Clouds -1 1018 77 10000 3.1 240 17:56 19.12.2019
2320 Clouds -1 1018 100 10000 2.6 240 17:38 19.12.2019
2321 Clouds -1 1018 100 10000 2.6 240 17:18 19.12.2019
2322 Clouds -1 1018 92 10000 2.1 260 16:56 19.12.2019
2323 Clouds 0 1017 100 10000 3.1 240 16:37 19.12.2019
2324 Clouds 0 1017 100 10000 3.1 240 16:37 19.12.2019
2325 Clouds 0 1017 100 10000 3.1 240 16:19 19.12.2019
2326 Clouds 0 1017 100 10000 2.6 240 15:57 19.12.2019
2327 Clouds 0 1017 76 10000 3.1 250 15:37 19.12.2019
2328 Clouds 0 1017 76 10000 3.1 250 15:19 19.12.2019
2329 Clouds 0 1017 76 10000 3.1 250 15:19 19.12.2019
2330 Clouds 0 1017 76 10000 2.6 250 14:54 19.12.2019
2331 Clouds 1 1016 86 10000 3.6 280 14:36 19.12.2019
2332 Clouds 1 1016 86 10000 4.6 280 14:18 19.12.2019
2333 Clouds 1 1016 80 10000 5.1 270 13:38 19.12.2019
2334 Clouds 2 1016 80 10000 5.1 270 13:20 19.12.2019
2335 Clouds 2 1016 80 10000 6.7 280 12:57 19.12.2019
2336 Clouds 2 1015 80 10000 5.7 270 12:39 19.12.2019
2337 Clouds 2 1015 80 10000 5.7 270 12:19 19.12.2019
2338 Clouds 2 1015 86 10000 5.7 280 11:58 19.12.2019
2339 Clouds 2 1015 86 10000 5.7 280 11:58 19.12.2019
2340 Clouds 1 1015 86 10000 5.1 270 11:40 19.12.2019
2341 Clouds 1 1015 86 10000 5.1 270 11:18 19.12.2019
2342 Clouds 1 1014 86 10000 4.6 270 10:58 19.12.2019
2343 Clouds 1 1013 86 10000 7.2 280 10:38 19.12.2019
2344 Clouds 1 1013 86 10000 7.2 280 10:20 19.12.2019
2345 Clouds 1 1013 86 10000 6.2 280 09:55 19.12.2019
2346 Clouds 1 1012 86 10000 6.2 280 09:37 19.12.2019
2347 Clouds 1 1012 86 10000 6.2 280 09:18 19.12.2019
2348 Clouds 1 1011 86 10000 6.2 280 08:42 19.12.2019
2349 Clouds 1 1011 86 10000 6.2 280 08:20 19.12.2019
2350 Clouds 1 1011 86 10000 6.2 280 08:20 19.12.2019
2351 Clouds 1 1011 86 10000 6.2 280 08:20 19.12.2019
2352 Clouds 1 1011 86 10000 6.2 280 08:20 19.12.2019
2353 Clouds 1 1010 86 10000 6.2 280 07:59 19.12.2019
2354 Clouds 1 1010 86 10000 7.2 280 07:38 19.12.2019
2355 Clouds 1 1010 86 10000 7.2 280 07:20 19.12.2019
2356 Clouds 1 1009 86 10000 6.7 270 06:52 19.12.2019
2357 Clouds 1 1009 86 10000 6.7 270 06:52 19.12.2019
2358 Clouds 1 1009 86 10000 7.2 260 06:32 19.12.2019
2359 Clouds 1 1008 86 10000 6.7 270 05:57 19.12.2019
2360 Clouds 1 1008 86 10000 7.2 280 05:39 19.12.2019
2361 Clouds 1 1007 86 10000 7.2 290 04:56 19.12.2019
2362 Clouds 1 1005 86 10000 7.2 290 03:45 19.12.2019
2363 Clouds 1 1004 80 10000 7.7 290 02:25 19.12.2019
2364 Clouds 2 1003 80 10000 8.2 290 01:24 19.12.2019
2365 Clouds 2 1002 79 10000 6.2 290 00:44 19.12.2019
2366 Clouds 2 1001 79 10000 8.2 290 00:25 19.12.2019
2367 Rain 2 1001 93 10000 7.2 290 23:58 18.12.2019
2368 Clouds 2 1000 79 10000 8.2 290 23:38 18.12.2019
2369 Clouds 2 1000 81 10000 8.2 290 23:19 18.12.2019
2370 Clouds 2 999 93 10000 8.7 280 22:56 18.12.2019
2371 Drizzle 2 998 93 10000 8.2 280 22:37 18.12.2019
2372 Drizzle 2 998 93 10000 8.2 280 22:19 18.12.2019
2373 Drizzle 2 997 93 10000 9.3 280 21:56 18.12.2019
2374 Drizzle 2 996 93 10000 9.3 280 21:38 18.12.2019
2375 Drizzle 2 996 93 10000 9.3 280 21:19 18.12.2019
2376 Drizzle 2 995 93 10000 9.8 290 20:55 18.12.2019
2377 Drizzle 2 995 93 10000 9.8 290 20:55 18.12.2019
2378 Drizzle 2 994 93 10000 10.3 290 20:37 18.12.2019
2379 Drizzle 2 994 93 10000 10.3 290 20:19 18.12.2019
2380 Rain 2 992 93 10000 10.3 290 19:55 18.12.2019
2381 Rain 2 991 87 10000 10.3 290 19:37 18.12.2019
2382 Rain 2 989 87 9000 10.3 290 19:18 18.12.2019
2383 Clouds 2 987 87 9000 10.3 290 18:44 18.12.2019
2384 Clouds 1 987 87 9000 10.3 290 18:25 18.12.2019
2385 Rain 1 986 87 10000 8.7 300 17:57 18.12.2019
2386 Rain 1 984 93 10000 9.8 300 17:38 18.12.2019
2387 Rain 2 985 87 0 2.68 296 17:19 18.12.2019
2388 Rain 3 982 93 10000 8.7 280 16:54 18.12.2019
2389 Rain 3 982 93 10000 8.7 280 16:36 18.12.2019
2390 Rain 4 982 87 8000 6.2 260 16:18 18.12.2019
2391 Rain 5 982 100 5000 5.7 230 15:55 18.12.2019
2392 Rain 5 982 100 5000 5.7 230 15:36 18.12.2019
2393 Rain 6 982 93 10000 7.2 210 15:18 18.12.2019
2394 Rain 6 982 93 10000 8.7 210 14:40 18.12.2019
2395 Rain 6 983 93 3500 6.7 210 14:20 18.12.2019
2396 Rain 6 984 100 2500 6.2 190 13:57 18.12.2019
2397 Rain 6 984 100 2500 6.2 190 13:57 18.12.2019
2398 Rain 6 984 100 2500 6.2 190 13:37 18.12.2019
2399 Drizzle 6 985 93 2500 4.1 150 13:19 18.12.2019
2400 Drizzle 6 985 93 2500 4.1 150 12:57 18.12.2019
2401 Rain 5 986 93 5000 3.1 120 12:38 18.12.2019
2402 Rain 5 987 93 5000 4.6 100 12:19 18.12.2019
2403 Rain 5 989 93 4500 4.6 130 11:55 18.12.2019
2404 Rain 5 989 93 4500 4.6 130 11:37 18.12.2019
2405 Rain 5 989 93 4500 4.6 130 11:37 18.12.2019
2406 Rain 5 989 93 4000 6.2 120 11:18 18.12.2019
2407 Rain 4 990 100 5000 6.2 120 10:55 18.12.2019
2408 Rain 4 990 100 5000 6.2 120 10:37 18.12.2019
2409 Rain 4 990 100 5000 6.2 120 10:37 18.12.2019
2410 Rain 4 992 100 4000 6.2 120 10:18 18.12.2019
2411 Drizzle 4 993 100 3500 5.7 120 09:43 18.12.2019
2412 Drizzle 4 994 100 3500 5.7 110 09:18 18.12.2019
2413 Drizzle 4 994 100 3500 5.7 110 09:18 18.12.2019
2414 Rain 3 995 100 10000 6.2 100 08:40 18.12.2019
2415 Rain 3 996 100 10000 5.7 100 08:21 18.12.2019
2416 Rain 3 997 100 6000 4.6 100 07:43 18.12.2019
2417 Rain 3 998 100 6000 4.1 110 07:22 18.12.2019
2418 Rain 3 999 93 8000 3.6 100 06:55 18.12.2019
2419 Rain 3 999 100 10000 4.1 110 06:27 18.12.2019
2420 Rain 3 1000 93 8000 3.1 100 05:44 18.12.2019
2421 Rain 4 1001 93 8000 2.6 110 04:46 18.12.2019
2422 Rain 4 1003 100 10000 2.6 180 02:51 18.12.2019
2423 Rain 4 1003 100 10000 3.6 190 02:31 18.12.2019
2424 Clouds 4 1003 100 10000 2.6 180 01:57 18.12.2019
2425 Clouds 4 1003 100 10000 2.6 180 01:37 18.12.2019
2426 Clouds 3 1003 100 10000 3.6 180 01:19 18.12.2019
2427 Clouds 3 1004 93 10000 2.6 150 00:40 18.12.2019
2428 Clouds 3 1004 100 10000 2.1 130 00:21 18.12.2019
2429 Clouds 2 1004 93 10000 2.1 120 23:54 17.12.2019
2430 Clouds 2 1004 93 10000 2.1 120 23:36 17.12.2019
2431 Clouds 3 1004 93 10000 1.5 180 23:18 17.12.2019
2432 Clouds 3 1005 86 10000 2.1 190 22:54 17.12.2019
2433 Clouds 3 1005 86 10000 2.1 190 22:36 17.12.2019
2434 Clouds 3 1005 93 10000 2.6 190 22:18 17.12.2019
2435 Clouds 3 1005 93 10000 2.6 190 22:18 17.12.2019
2436 Clouds 3 1005 86 10000 2.6 190 21:55 17.12.2019
2437 Clouds 3 1005 86 10000 2.6 190 21:36 17.12.2019
2438 Clouds 3 1005 93 10000 2.6 180 21:18 17.12.2019
2439 Clouds 3 1005 86 10000 2.6 170 20:55 17.12.2019
2440 Clouds 3 1005 86 10000 2.6 170 20:36 17.12.2019
2441 Clouds 3 1005 86 10000 2.1 200 20:18 17.12.2019
2442 Clouds 2 1004 93 10000 2.6 230 19:41 17.12.2019
2443 Clouds 3 1004 86 10000 2.1 240 19:20 17.12.2019
2444 Clouds 3 1004 86 10000 2.1 250 18:58 17.12.2019
2445 Clouds 3 1004 86 10000 2.1 250 18:40 17.12.2019
2446 Clouds 3 1004 80 10000 4.6 250 18:21 17.12.2019
2447 Clouds 3 1004 86 10000 3.1 230 17:56 17.12.2019
2448 Clouds 3 1004 86 10000 3.1 230 17:38 17.12.2019
2449 Clouds 3 1004 93 10000 2.6 230 17:18 17.12.2019
2450 Clouds 3 1004 93 10000 2.6 240 16:56 17.12.2019
2451 Clouds 3 1004 93 10000 2.6 240 16:37 17.12.2019
2452 Clouds 3 1004 93 10000 2.6 240 16:37 17.12.2019
2453 Clouds 3 1004 86 10000 2.6 240 16:18 17.12.2019
2454 Clouds 3 1004 86 10000 2.6 230 15:54 17.12.2019
2455 Clouds 3 1004 86 10000 2.6 230 15:36 17.12.2019
2456 Clouds 3 1004 86 10000 3.6 230 15:18 17.12.2019
2457 Clouds 3 1004 86 10000 4.1 240 14:54 17.12.2019
2458 Clouds 3 1004 86 10000 4.1 240 14:36 17.12.2019
2459 Clouds 3 1003 86 10000 4.1 240 14:18 17.12.2019
2460 Clouds 3 1003 86 10000 4.1 250 13:41 17.12.2019
2461 Clouds 3 1003 86 10000 2.6 250 13:19 17.12.2019
2462 Clouds 3 1003 86 10000 3.6 260 12:59 17.12.2019
2463 Clouds 3 1003 86 10000 3.6 260 12:59 17.12.2019
2464 Clouds 3 1003 86 10000 3.6 260 12:39 17.12.2019
2465 Clouds 3 1002 86 10000 3.6 250 12:18 17.12.2019
2466 Clouds 3 1002 86 10000 3.6 250 12:18 17.12.2019
2467 Clouds 3 1002 86 10000 3.6 250 11:58 17.12.2019
2468 Clouds 3 1002 86 10000 6.2 250 11:37 17.12.2019
2469 Clouds 3 1002 86 10000 4.1 250 11:18 17.12.2019
2470 Clouds 3 1002 86 10000 4.6 250 10:57 17.12.2019
2471 Clouds 3 1002 86 10000 4.6 250 10:39 17.12.2019
2472 Clouds 3 1002 86 10000 4.6 250 10:39 17.12.2019
2473 Clouds 3 1001 93 10000 3.1 260 10:19 17.12.2019
2474 Clouds 3 1001 86 10000 4.6 270 09:56 17.12.2019
2475 Clouds 3 1001 86 10000 4.6 270 09:38 17.12.2019
2476 Clouds 3 1001 86 10000 4.6 270 09:38 17.12.2019
2477 Clouds 3 1001 93 10000 4.1 250 09:18 17.12.2019
2478 Clouds 3 1000 93 10000 4.1 260 08:54 17.12.2019
2479 Clouds 3 1000 93 10000 4.1 260 08:36 17.12.2019
2480 Clouds 3 999 86 10000 5.7 260 08:18 17.12.2019
2481 Clouds 3 999 93 10000 5.7 250 07:42 17.12.2019
2482 Clouds 3 998 86 10000 5.7 260 07:22 17.12.2019
2483 Clouds 3 998 93 10000 5.1 250 06:50 17.12.2019
2484 Clouds 4 998 93 10000 5.1 250 06:32 17.12.2019
2485 Drizzle 4 997 93 10000 5.7 220 05:50 17.12.2019
2486 Drizzle 4 997 93 10000 5.7 220 05:31 17.12.2019
2487 Clouds 4 997 86 10000 5.1 210 04:00 17.12.2019
2488 Rain 4 997 93 10000 7.2 210 02:26 17.12.2019
2489 Rain 4 998 93 8000 8.2 190 01:22 17.12.2019
2490 Rain 4 998 93 9000 8.2 200 00:47 17.12.2019
2491 Rain 4 999 93 10000 7.2 180 00:22 17.12.2019
2492 Rain 4 999 93 10000 5.1 190 23:58 16.12.2019
2493 Rain 4 999 93 10000 5.1 190 23:40 16.12.2019
2494 Clouds 3 999 93 10000 5.1 190 23:18 16.12.2019
2495 Rain 3 1000 93 10000 3.6 170 22:54 16.12.2019
2496 Rain 2 1000 93 10000 3.6 170 22:36 16.12.2019
2497 Rain 2 1000 100 10000 3.1 180 22:18 16.12.2019
2498 Rain 2 1000 93 10000 2.1 160 21:54 16.12.2019
2499 Rain 2 1000 93 10000 2.1 160 21:36 16.12.2019
2500 Rain 2 1000 93 10000 2.1 160 21:36 16.12.2019
2501 Rain 2 1001 93 10000 3.1 190 21:18 16.12.2019
2502 Clouds 2 1001 93 10000 3.6 190 20:55 16.12.2019
2503 Clouds 2 1001 93 10000 3.6 190 20:37 16.12.2019
2504 Rain 2 1001 93 10000 4.1 200 20:18 16.12.2019
2505 Rain 2 1001 93 10000 4.1 200 20:18 16.12.2019
2506 Clouds 2 1001 93 10000 3.6 230 19:54 16.12.2019
2507 Clouds 2 1001 93 10000 3.6 230 19:36 16.12.2019
2508 Rain 2 1001 86 10000 5.1 230 19:18 16.12.2019
2509 Clouds 3 1001 86 10000 4.6 230 18:42 16.12.2019
2510 Clouds 3 1001 93 10000 4.6 220 18:20 16.12.2019
2511 Clouds 3 1001 93 10000 3.6 210 17:59 16.12.2019
2512 Clouds 3 1001 93 10000 3.6 210 17:41 16.12.2019
2513 Drizzle 3 1000 93 9000 3.1 220 17:22 16.12.2019
2514 Clouds 3 1000 93 10000 3.1 230 16:58 16.12.2019
2515 Clouds 3 1000 93 10000 3.1 230 16:39 16.12.2019
2516 Clouds 3 1000 93 10000 4.1 230 16:20 16.12.2019
2517 Clouds 3 1000 93 10000 4.6 220 15:59 16.12.2019
2518 Clouds 3 1000 93 10000 4.6 220 15:39 16.12.2019
2519 Clouds 3 1000 93 10000 4.6 220 15:39 16.12.2019
2520 Clouds 3 999 100 10000 3.1 230 15:21 16.12.2019
2521 Clouds 3 999 93 10000 2.6 240 14:57 16.12.2019
2522 Clouds 3 999 93 10000 2.6 240 14:38 16.12.2019
2523 Clouds 2 999 93 10000 3.1 250 14:19 16.12.2019
2524 Clouds 3 998 93 10000 2.6 250 13:57 16.12.2019
2525 Clouds 3 998 93 10000 2.6 250 13:38 16.12.2019
2526 Clouds 3 998 93 10000 2.6 250 13:20 16.12.2019
2527 Clouds 3 997 100 10000 2.1 260 12:58 16.12.2019
2528 Clouds 3 997 100 10000 2.1 260 12:39 16.12.2019
2529 Clouds 2 997 100 10000 2.1 250 12:19 16.12.2019
2530 Mist 2 996 100 5000 2.1 260 11:59 16.12.2019
2531 Mist 2 996 100 5000 2.1 260 11:40 16.12.2019
2532 Rain 2 996 100 7000 1.5 300 11:20 16.12.2019
2533 Drizzle 2 995 100 7000 2.1 320 10:57 16.12.2019
2534 Drizzle 2 995 100 7000 2.1 320 10:39 16.12.2019
2535 Drizzle 2 995 100 7000 2.1 320 10:39 16.12.2019
2536 Drizzle 2 995 100 7000 2.6 340 10:19 16.12.2019
2537 Fog 2 994 100 7000 2.1 340 09:45 16.12.2019
2538 Fog 2 994 100 7000 2.1 340 09:27 16.12.2019
2539 Drizzle 2 994 100 7000 1.5 360 09:27 16.12.2019
2540 Drizzle 2 993 100 8000 1 0 08:56 16.12.2019
2541 Drizzle 2 993 100 8000 1 0 08:37 16.12.2019
2542 Drizzle 2 993 100 5000 1.5 60 08:18 16.12.2019
2543 Drizzle 2 993 100 5000 1.5 60 08:18 16.12.2019
2544 Drizzle 2 992 100 7000 2.1 40 07:44 16.12.2019
2545 Drizzle 2 992 100 10000 1.5 40 07:22 16.12.2019
2546 Clouds 2 992 100 10000 1.5 70 06:45 16.12.2019
2547 Clouds 2 991 100 10000 2.1 60 06:25 16.12.2019
2548 Clouds 3 992 100 10000 1.5 70 05:50 16.12.2019
2549 Clouds 3 992 93 10000 2.1 120 05:31 16.12.2019
2550 Rain 3 992 93 10000 4.1 160 04:22 16.12.2019
2551 Drizzle 3 992 93 10000 3.1 140 02:19 16.12.2019
2552 Clouds 3 992 93 10000 3.1 160 01:44 16.12.2019
2553 Clouds 4 992 93 10000 3.6 160 00:42 16.12.2019
2554 Drizzle 4 992 100 10000 3.6 150 00:24 16.12.2019
2555 Drizzle 3 992 100 10000 3.6 150 23:58 15.12.2019
2556 Drizzle 3 993 100 10000 4.1 150 23:38 15.12.2019
2557 Rain 3 993 100 10000 3.6 160 23:20 15.12.2019
2558 Drizzle 3 993 100 10000 4.1 150 22:56 15.12.2019
2559 Drizzle 3 993 100 10000 4.1 150 22:37 15.12.2019
2560 Drizzle 3 993 100 2800 4.6 150 22:18 15.12.2019
2561 Drizzle 3 993 100 2800 4.6 150 22:18 15.12.2019
2562 Drizzle 3 993 93 5000 4.1 140 21:55 15.12.2019
2563 Drizzle 3 993 93 5000 4.1 140 21:37 15.12.2019
2564 Drizzle 3 993 93 6000 4.1 150 21:19 15.12.2019
2565 Drizzle 3 993 93 7000 4.6 150 20:55 15.12.2019
2566 Drizzle 3 993 93 7000 4.6 150 20:37 15.12.2019
2567 Drizzle 3 994 93 10000 4.6 160 20:18 15.12.2019
2568 Drizzle 3 994 93 10000 4.6 150 19:56 15.12.2019
2569 Drizzle 3 994 93 10000 4.6 150 19:38 15.12.2019
2570 Clouds 2 994 100 10000 3.6 130 19:18 15.12.2019
2571 Rain 2 994 100 10000 3.6 130 18:55 15.12.2019
2572 Drizzle 2 994 100 9000 4.6 150 18:37 15.12.2019
2573 Drizzle 2 994 100 9000 4.6 150 18:18 15.12.2019
2574 Drizzle 2 994 100 10000 4.1 140 17:56 15.12.2019
2575 Clouds 2 995 100 10000 3.6 130 17:36 15.12.2019
2576 Clouds 2 995 100 10000 3.6 130 17:18 15.12.2019
2577 Clouds 2 995 100 10000 3.6 130 17:18 15.12.2019
2578 Clouds 2 995 100 10000 3.6 130 17:18 15.12.2019
2579 Clouds 2 995 100 10000 3.1 130 16:43 15.12.2019
2580 Clouds 2 995 93 10000 2.6 120 16:23 15.12.2019
2581 Drizzle 2 995 93 10000 3.1 130 15:58 15.12.2019
2582 Drizzle 2 995 93 10000 3.1 130 15:39 15.12.2019
2583 Drizzle 2 995 93 8000 3.1 130 15:20 15.12.2019
2584 Drizzle 2 995 93 8000 3.1 130 14:57 15.12.2019
2585 Drizzle 2 995 93 7000 3.1 120 14:38 15.12.2019
2586 Rain 2 995 100 9000 4.1 130 14:19 15.12.2019
2587 Rain 2 995 100 9000 4.1 130 13:59 15.12.2019
2588 Rain 2 995 93 10000 3.6 120 13:39 15.12.2019
2589 Rain 2 995 100 10000 4.1 120 13:20 15.12.2019
2590 Rain 2 995 93 10000 4.6 130 12:57 15.12.2019
2591 Rain 2 995 93 10000 4.6 130 12:39 15.12.2019
2592 Rain 2 995 93 10000 4.1 130 12:21 15.12.2019
2593 Drizzle 2 995 93 6000 5.1 130 11:59 15.12.2019
2594 Drizzle 2 995 93 6000 5.1 130 11:38 15.12.2019
2595 Drizzle 2 995 93 6000 4.6 140 11:19 15.12.2019
2596 Drizzle 2 995 93 6000 4.6 140 11:19 15.12.2019
2597 Drizzle 2 995 93 6000 5.1 130 10:55 15.12.2019
2598 Drizzle 2 995 93 6000 5.1 130 10:37 15.12.2019
2599 Drizzle 2 995 100 6000 4.1 130 10:19 15.12.2019
2600 Rain 2 995 93 8000 4.6 130 09:56 15.12.2019
2601 Rain 2 995 93 8000 4.6 130 09:37 15.12.2019
2602 Rain 2 995 93 6000 4.1 130 09:18 15.12.2019
2603 Drizzle 2 995 93 5000 4.6 140 08:41 15.12.2019
2604 Drizzle 2 995 100 6000 4.6 140 08:22 15.12.2019
2605 Rain 2 995 100 6000 4.6 140 07:57 15.12.2019
2606 Rain 2 995 100 6000 4.6 140 07:37 15.12.2019
2607 Rain 2 995 93 5000 4.1 140 06:57 15.12.2019
2608 Rain 1 995 100 6000 4.1 140 06:23 15.12.2019
2609 Rain 1 995 100 6000 3.6 120 05:39 15.12.2019
2610 Rain 1 995 92 5000 3.6 120 05:19 15.12.2019
2611 Rain 1 996 92 2800 4.1 120 03:56 15.12.2019
2612 Rain 1 996 92 2200 4.1 110 02:35 15.12.2019
2613 Rain 1 996 86 5000 4.1 120 01:55 15.12.2019
2614 Rain 1 996 90 5000 4.1 120 01:37 15.12.2019
2615 Rain 1 996 100 5000 4.1 120 01:18 15.12.2019
2616 Rain 1 996 90 4500 4.6 120 00:42 15.12.2019
2617 Rain 1 997 90 5000 5.1 120 00:23 15.12.2019
2618 Rain 2 997 100 5000 4.6 120 23:40 14.12.2019
2619 Rain 2 997 93 6000 5.1 120 23:21 14.12.2019
2620 Rain 2 997 93 7000 6.7 130 22:58 14.12.2019
2621 Rain 2 997 93 7000 6.7 130 22:40 14.12.2019
2622 Rain 2 997 92 10000 6.7 140 22:21 14.12.2019
2623 Clouds 2 997 93 10000 5.7 140 21:56 14.12.2019
2624 Clouds 2 997 93 10000 5.7 140 21:38 14.12.2019
2625 Clouds 2 997 93 10000 7.2 140 21:19 14.12.2019
2626 Clouds 2 997 93 10000 7.2 140 21:19 14.12.2019
2627 Clouds 2 997 92 10000 6.2 140 20:57 14.12.2019
2628 Clouds 2 997 92 10000 6.2 140 20:38 14.12.2019
2629 Rain 2 997 83 10000 6.7 140 20:19 14.12.2019
2630 Clouds 2 997 83 10000 7.2 140 19:55 14.12.2019
2631 Clouds 2 997 83 10000 7.2 140 19:36 14.12.2019
2632 Clouds 2 997 83 10000 6.7 140 19:18 14.12.2019
2633 Clouds 2 997 83 10000 6.2 150 18:55 14.12.2019
2634 Clouds 2 997 83 10000 6.2 150 18:36 14.12.2019
2635 Clouds 2 997 83 10000 6.7 140 18:18 14.12.2019
2636 Clouds 2 997 83 10000 6.7 140 18:18 14.12.2019
2637 Clouds 2 997 83 10000 7.7 140 17:42 14.12.2019
2638 Clouds 2 997 91 10000 7.2 140 17:22 14.12.2019
2639 Clouds 2 998 91 10000 6.7 130 16:55 14.12.2019
2640 Clouds 2 998 91 10000 6.7 130 16:37 14.12.2019
2641 Clouds 2 998 91 10000 6.2 140 16:18 14.12.2019
2642 Clouds 2 998 91 10000 5.7 140 15:41 14.12.2019
2643 Snow 2 998 91 6000 5.7 140 15:20 14.12.2019
2644 Clouds 2 998 91 10000 5.1 130 14:57 14.12.2019
2645 Clouds 2 998 91 10000 5.1 130 14:38 14.12.2019
2646 Clouds 2 998 88 10000 5.1 120 14:19 14.12.2019
2647 Rain 2 998 88 10000 5.7 120 13:45 14.12.2019
2648 Rain 2 998 88 10000 6.7 120 13:20 14.12.2019
2649 Rain 2 998 89 10000 6.7 120 12:59 14.12.2019
2650 Clouds 2 998 88 10000 6.7 130 12:40 14.12.2019
2651 Clouds 2 998 89 10000 7.2 140 12:21 14.12.2019
2652 Clouds 2 998 88 10000 7.2 140 12:21 14.12.2019
2653 Clouds 2 998 89 10000 7.2 140 12:21 14.12.2019
2654 Clouds 2 998 88 10000 6.7 140 11:59 14.12.2019
2655 Clouds 2 998 88 10000 6.7 140 11:39 14.12.2019
2656 Drizzle 2 998 93 10000 5.7 130 11:20 14.12.2019
2657 Drizzle 2 998 93 9000 7.2 140 10:57 14.12.2019
2658 Drizzle 2 998 93 9000 7.2 140 10:39 14.12.2019
2659 Clouds 2 998 85 10000 6.7 150 10:21 14.12.2019
2660 Clouds 2 998 85 10000 6.7 150 09:57 14.12.2019
2661 Rain 2 998 93 10000 6.7 130 09:38 14.12.2019
2662 Clouds 2 998 93 10000 6.2 130 09:18 14.12.2019
2663 Clouds 1 998 85 8000 5.7 130 08:43 14.12.2019
2664 Rain 1 998 91 8000 5.7 130 08:20 14.12.2019
2665 Rain 1 998 91 6000 5.7 120 07:44 14.12.2019
2666 Rain 1 998 91 7000 6.2 130 07:23 14.12.2019
2667 Rain 1 998 91 7000 7.2 130 06:57 14.12.2019
2668 Rain 2 998 91 7000 7.2 130 06:37 14.12.2019
2669 Clouds 2 999 80 10000 6.7 130 05:59 14.12.2019
2670 Clouds 2 999 91 10000 4.6 120 04:47 14.12.2019
2671 Clouds 2 1000 91 9000 5.1 120 02:31 14.12.2019
2672 Clouds 2 1000 86 10000 5.7 130 01:56 14.12.2019
2673 Clouds 2 1000 86 10000 5.7 130 01:37 14.12.2019
2674 Snow 2 1000 85 10000 4.6 120 00:45 14.12.2019
2675 Clouds 2 1000 85 10000 5.1 130 00:27 14.12.2019
2676 Clouds 2 1001 85 10000 5.7 130 23:54 13.12.2019
2677 Clouds 2 1001 85 10000 5.7 130 23:36 13.12.2019
2678 Clouds 2 1001 88 10000 6.2 130 23:18 13.12.2019
2679 Clouds 2 1001 88 10000 5.7 130 22:40 13.12.2019
2680 Clouds 2 1001 88 10000 5.7 130 22:19 13.12.2019
2681 Clouds 2 1001 88 10000 4.6 120 21:56 13.12.2019
2682 Clouds 2 1001 88 10000 4.6 120 21:37 13.12.2019
2683 Clouds 2 1001 74 10000 5.1 130 21:19 13.12.2019
2684 Clouds 2 1001 74 10000 5.1 130 20:41 13.12.2019
2685 Clouds 2 1002 85 10000 5.7 140 20:22 13.12.2019
2686 Clouds 2 1002 85 10000 5.7 140 19:59 13.12.2019
2687 Clouds 2 1002 85 10000 5.7 140 19:40 13.12.2019
2688 Clouds 2 1002 85 10000 5.7 140 19:22 13.12.2019
2689 Rain 3 1002 86 10000 6.7 140 18:58 13.12.2019
2690 Drizzle 3 1002 86 10000 5.7 140 18:40 13.12.2019
2691 Drizzle 3 1002 86 10000 5.7 140 18:19 13.12.2019
2692 Drizzle 3 1002 93 10000 4.6 150 18:19 13.12.2019
2693 Drizzle 3 1002 93 8000 3.6 150 17:42 13.12.2019
2694 Drizzle 2 1002 93 8000 3.6 150 17:20 13.12.2019
2695 Clouds 2 1002 93 9000 2.1 110 16:59 13.12.2019
2696 Clouds 2 1002 96 10000 3.1 140 16:39 13.12.2019
2697 Clouds 2 1002 96 10000 3.1 140 16:20 13.12.2019
2698 Clouds 2 1002 96 10000 4.1 140 15:43 13.12.2019
2699 Clouds 2 1002 96 10000 4.1 140 15:23 13.12.2019
2700 Clouds 2 1002 86 10000 4.6 140 14:59 13.12.2019
2701 Clouds 2 1002 86 10000 4.6 140 14:41 13.12.2019
2702 Clouds 2 1002 86 10000 4.6 140 14:20 13.12.2019
2703 Clouds 3 1002 86 10000 4.1 140 13:57 13.12.2019
2704 Clouds 3 1002 86 10000 4.1 150 13:37 13.12.2019
2705 Clouds 3 1002 86 10000 4.1 150 13:19 13.12.2019
2706 Clouds 3 1002 86 10000 4.1 160 12:42 13.12.2019
2707 Clouds 3 1002 86 10000 4.1 160 12:20 13.12.2019
2708 Clouds 3 1002 86 10000 4.6 170 11:57 13.12.2019
2709 Clouds 3 1002 86 10000 4.6 170 11:57 13.12.2019
2710 Clouds 3 1002 86 10000 4.6 170 11:39 13.12.2019
2711 Clouds 3 1002 86 10000 4.6 170 11:39 13.12.2019
2712 Clouds 3 1002 86 10000 4.6 170 11:20 13.12.2019
2713 Clouds 3 1002 86 10000 5.1 170 10:42 13.12.2019
2714 Clouds 3 1002 86 10000 5.1 170 10:42 13.12.2019
2715 Clouds 3 1002 86 10000 5.1 170 10:23 13.12.2019
2716 Clouds 2 1002 86 10000 6.7 170 09:55 13.12.2019
2717 Clouds 2 1002 86 10000 5.1 170 09:36 13.12.2019
2718 Clouds 2 1002 86 10000 5.1 170 09:18 13.12.2019
2719 Clouds 2 1001 93 10000 5.1 180 08:41 13.12.2019
2720 Clouds 2 1001 93 10000 5.1 180 08:23 13.12.2019
2721 Drizzle 2 1001 93 9000 6.2 180 07:44 13.12.2019
2722 Drizzle 2 1001 93 8000 6.2 170 07:44 13.12.2019
2723 Drizzle 2 1001 93 8000 6.2 170 07:21 13.12.2019
2724 Drizzle 2 1001 93 8000 6.2 170 07:21 13.12.2019
2725 Rain 2 1001 93 9000 6.7 170 06:51 13.12.2019
2726 Rain 2 1001 93 8000 5.1 170 06:28 13.12.2019
2727 Rain 2 1001 83 7000 5.1 170 05:45 13.12.2019
2728 Drizzle 1 1001 86 6000 4.6 160 05:24 13.12.2019
2729 Clouds 1 1001 86 10000 5.7 170 04:35 13.12.2019
2730 Clouds 1 1001 80 10000 6.2 180 03:31 13.12.2019
2731 Clouds 1 1001 86 10000 6.2 170 02:32 13.12.2019
2732 Clouds 1 1001 86 10000 6.2 170 01:42 13.12.2019
2733 Clouds 1 1001 86 10000 5.7 170 00:53 13.12.2019
2734 Clouds 1 1001 86 10000 5.7 160 00:34 13.12.2019
2735 Clouds 1 1001 86 10000 5.7 160 23:57 12.12.2019
2736 Clouds 1 1001 86 10000 6.2 160 23:37 12.12.2019
2737 Clouds 1 1001 86 10000 6.2 160 23:19 12.12.2019
2738 Clouds 1 1002 83 10000 5.7 170 22:42 12.12.2019
2739 Clouds 1 1002 83 10000 5.7 170 22:23 12.12.2019
2740 Snow 1 1002 83 8000 5.1 160 21:57 12.12.2019
2741 Snow 1 1002 83 4000 5.1 170 21:39 12.12.2019
2742 Snow 1 1002 83 4000 5.1 170 21:20 12.12.2019
2743 Snow 1 1002 83 6000 5.1 170 20:59 12.12.2019
2744 Snow 1 1002 83 6000 4.6 160 20:41 12.12.2019
2745 Snow 0 1002 91 6000 4.6 160 20:23 12.12.2019
2746 Rain 1 1003 91 2200 5.7 160 19:59 12.12.2019
2747 Rain 1 1003 91 2500 5.1 160 19:41 12.12.2019
2748 Snow 0 1003 91 2500 5.1 160 19:21 12.12.2019
2749 Snow 0 1003 91 2500 5.1 150 18:58 12.12.2019
2750 Snow 1 1004 91 4000 5.7 140 18:39 12.12.2019
2751 Snow 1 1004 91 4000 5.7 140 18:20 12.12.2019
2752 Snow 1 1004 86 6000 5.7 140 17:57 12.12.2019
2753 Snow 1 1004 86 6000 5.7 140 17:57 12.12.2019
2754 Snow 1 1004 86 10000 6.2 150 17:39 12.12.2019
2755 Snow 1 1004 86 10000 6.2 150 17:20 12.12.2019
2756 Snow 1 1004 86 10000 6.2 150 17:20 12.12.2019
2757 Snow 1 1005 80 10000 6.7 150 16:57 12.12.2019
2758 Snow 1 1005 80 10000 6.2 140 16:38 12.12.2019
2759 Clouds 1 1006 80 10000 6.2 150 16:20 12.12.2019
2760 Clouds 1 1006 80 10000 6.2 150 15:54 12.12.2019
2761 Clouds 1 1006 80 10000 6.2 150 15:36 12.12.2019
2762 Clouds 1 1006 80 10000 6.2 150 15:18 12.12.2019
2763 Clouds 1 1006 86 10000 4.6 180 14:38 12.12.2019
2764 Clouds 1 1006 86 10000 4.6 180 14:38 12.12.2019
2765 Clouds 1 1006 86 10000 4.6 180 14:20 12.12.2019
2766 Clouds 1 1006 80 10000 6.2 170 13:57 12.12.2019
2767 Clouds 1 1007 80 10000 7.2 180 13:39 12.12.2019
2768 Clouds 1 1007 80 10000 7.2 180 13:21 12.12.2019
2769 Clouds 1 1007 74 10000 8.2 180 12:57 12.12.2019
2770 Clouds 1 1007 80 10000 7.7 180 12:39 12.12.2019
2771 Clouds 1 1007 80 10000 7.7 180 12:20 12.12.2019
2772 Clouds 1 1007 80 10000 6.7 180 11:56 12.12.2019
2773 Clouds 1 1007 80 10000 7.7 190 11:37 12.12.2019
2774 Clouds 1 1007 80 10000 7.7 190 11:19 12.12.2019
2775 Clouds 1 1008 74 10000 9.3 190 10:54 12.12.2019
2776 Clouds 1 1008 74 10000 8.7 180 10:36 12.12.2019
2777 Clouds 1 1008 74 10000 8.7 180 10:18 12.12.2019
2778 Clouds 1 1008 74 10000 8.7 180 10:18 12.12.2019
2779 Clouds 0 1008 81 10000 7.2 180 09:41 12.12.2019
2780 Clouds 1 1008 81 10000 7.2 180 09:23 12.12.2019
2781 Clouds 0 1008 80 10000 7.2 190 08:56 12.12.2019
2782 Clouds 0 1008 81 10000 7.2 180 08:38 12.12.2019
2783 Clouds 0 1008 76 10000 7.2 180 08:20 12.12.2019
2784 Clouds 0 1008 76 10000 8.2 180 07:43 12.12.2019
2785 Clouds 0 1008 76 10000 7.2 180 07:24 12.12.2019
2786 Clouds 1 1008 80 10000 6.7 180 06:50 12.12.2019
2787 Clouds 1 1008 86 10000 8.7 180 06:32 12.12.2019
2788 Clouds 1 1008 86 10000 7.7 180 05:39 12.12.2019
2789 Clouds 1 1008 86 10000 7.2 180 04:51 12.12.2019
2790 Clouds 1 1008 77 10000 7.2 180 03:24 12.12.2019
2791 Rain 2 1008 77 8000 6.7 180 02:38 12.12.2019
2792 Rain 1 1008 89 8000 6.7 180 02:19 12.12.2019
2793 Rain 2 1009 93 8000 6.2 180 01:37 12.12.2019
2794 Rain 2 1009 93 8000 6.2 180 01:19 12.12.2019
2795 Rain 2 1009 93 8000 6.7 180 00:46 12.12.2019
2796 Rain 2 1009 93 7000 6.2 180 00:19 12.12.2019
2797 Rain 2 1009 93 8000 6.7 180 23:44 11.12.2019
2798 Rain 2 1009 93 8000 6.7 180 23:21 11.12.2019
2799 Rain 2 1009 93 9000 6.2 180 22:57 11.12.2019
2800 Rain 2 1009 93 9000 6.7 180 22:38 11.12.2019
2801 Rain 2 1009 93 9000 6.7 180 22:20 11.12.2019
2802 Rain 2 1009 93 7000 8.2 180 21:57 11.12.2019
2803 Rain 2 1009 93 7000 8.2 180 21:57 11.12.2019
2804 Rain 2 1009 93 7000 7.7 180 21:38 11.12.2019
2805 Rain 2 1009 93 7000 7.7 180 21:19 11.12.2019
2806 Rain 2 1009 93 7000 7.7 180 21:19 11.12.2019
2807 Rain 2 1009 93 8000 8.2 180 20:56 11.12.2019
2808 Rain 2 1009 93 8000 8.2 180 20:56 11.12.2019
2809 Rain 2 1009 93 10000 8.2 180 20:37 11.12.2019
2810 Rain 2 1009 93 10000 8.2 180 20:37 11.12.2019
2811 Rain 2 1009 93 10000 8.2 180 20:37 11.12.2019
2812 Rain 2 1009 93 10000 8.2 180 20:19 11.12.2019
2813 Rain 2 1009 93 10000 8.2 180 20:19 11.12.2019
2814 Rain 2 1008 93 10000 7.7 180 19:57 11.12.2019
2815 Rain 2 1008 93 8000 10.3 190 19:38 11.12.2019
2816 Rain 2 1008 93 8000 10.3 190 19:18 11.12.2019
2817 Rain 2 1008 95 8000 7.7 180 18:40 11.12.2019
2818 Rain 1 1008 95 8000 7.7 180 18:21 11.12.2019
2819 Clouds 1 1008 95 8000 8.7 180 17:57 11.12.2019
2820 Clouds 1 1008 95 8000 8.7 180 17:57 11.12.2019
2821 Clouds 1 1009 95 7000 7.2 180 17:39 11.12.2019
2822 Clouds 1 1009 89 7000 7.2 180 17:18 11.12.2019
2823 Snow 1 1008 89 7000 8.2 180 16:57 11.12.2019
2824 Snow 1 1008 80 8000 9.8 180 16:38 11.12.2019
2825 Snow 1 1008 80 8000 9.8 180 16:38 11.12.2019
2826 Snow 1 1008 80 8000 9.8 180 16:38 11.12.2019
2827 Rain 1 1008 80 8000 9.8 180 16:20 11.12.2019
2828 Rain 1 1008 80 10000 9.8 180 15:59 11.12.2019
2829 Rain 2 1008 80 10000 9.8 180 15:39 11.12.2019
2830 Rain 2 1008 80 10000 9.8 180 15:20 11.12.2019
2831 Rain 2 1008 80 10000 10.3 180 14:56 11.12.2019
2832 Clouds 2 1008 80 10000 10.3 180 14:37 11.12.2019
2833 Clouds 2 1008 80 10000 10.3 180 14:37 11.12.2019
2834 Rain 2 1009 80 10000 10.8 180 14:19 11.12.2019
2835 Rain 2 1009 80 10000 10.8 180 13:54 11.12.2019
2836 Rain 2 1009 80 10000 8.7 180 13:36 11.12.2019
2837 Rain 2 1009 86 10000 8.7 170 13:18 11.12.2019
2838 Rain 1 1009 86 10000 8.7 170 12:54 11.12.2019
2839 Clouds 1 1010 86 10000 8.7 170 12:36 11.12.2019
2840 Clouds 1 1010 86 10000 8.7 170 12:36 11.12.2019
2841 Clouds 1 1010 86 10000 8.7 170 12:18 11.12.2019
2842 Clouds 1 1010 86 10000 10.3 170 11:54 11.12.2019
2843 Clouds 1 1011 80 10000 8.2 170 11:36 11.12.2019
2844 Clouds 1 1011 80 10000 8.2 170 11:18 11.12.2019
2845 Clouds 1 1012 86 10000 8.2 170 10:40 11.12.2019
2846 Clouds 1 1012 86 10000 8.2 170 10:22 11.12.2019
2847 Clouds 1 1012 86 10000 7.7 170 09:58 11.12.2019
2848 Clouds 0 1012 78 10000 8.2 170 09:38 11.12.2019
2849 Clouds 0 1012 86 10000 7.7 170 09:19 11.12.2019
2850 Clouds 0 1012 86 10000 7.7 170 08:56 11.12.2019
2851 Clouds 0 1013 78 10000 7.2 170 08:37 11.12.2019
2852 Clouds 0 1013 74 10000 7.2 170 08:18 11.12.2019
2853 Clouds 0 1013 74 10000 6.7 160 07:44 11.12.2019
2854 Clouds 0 1014 74 10000 5.1 170 07:24 11.12.2019
2855 Clouds 0 1014 74 10000 5.7 160 06:46 11.12.2019
2856 Clouds -1 1014 74 10000 5.7 160 06:25 11.12.2019
2857 Clouds -1 1015 92 10000 5.1 160 05:56 11.12.2019
2858 Clouds -1 1015 86 10000 4.6 160 05:35 11.12.2019
2859 Clouds -1 1015 86 10000 5.1 170 04:51 11.12.2019
2860 Clouds -2 1016 92 10000 4.1 150 03:37 11.12.2019
2861 Clouds -4 1016 100 10000 1 100 02:38 11.12.2019
2862 Clouds -6 1016 92 10000 1 0 01:22 11.12.2019
2863 Clouds -7 1016 92 10000 1.5 80 00:43 11.12.2019
2864 Clouds -7 1016 92 10000 1.5 80 00:43 11.12.2019
2865 Clouds -7 1017 92 10000 1.5 210 00:19 11.12.2019
2866 Clouds -7 1017 92 10000 1.5 210 23:46 10.12.2019
2867 Clouds -7 1017 92 10000 1.5 210 23:26 10.12.2019
2868 Clear -7 1017 92 10000 2.6 210 22:57 10.12.2019
2869 Clear -7 1016 100 10000 1.5 220 22:39 10.12.2019
2870 Clear -7 1016 92 10000 1 0 22:20 10.12.2019
2871 Clear -8 1016 92 10000 1 0 21:54 10.12.2019
2872 Clear -8 1016 92 10000 1 290 21:36 10.12.2019
2873 Clear -8 1016 92 10000 1 290 21:18 10.12.2019
2874 Clear -7 1015 100 10000 1 240 20:55 10.12.2019
2875 Clear -7 1015 100 10000 1.5 300 20:36 10.12.2019
2876 Clear -6 1015 100 10000 1.5 300 20:18 10.12.2019
2877 Clear -6 1015 100 10000 1.5 300 20:18 10.12.2019
2878 Clear -6 1015 92 10000 2.1 270 19:44 10.12.2019
2879 Clear -6 1015 92 10000 2.1 270 19:26 10.12.2019
2880 Clear -6 1014 92 10000 2.1 250 18:59 10.12.2019
2881 Clear -5 1014 92 10000 2.1 300 18:39 10.12.2019
2882 Clear -5 1014 92 10000 2.1 300 18:19 10.12.2019
2883 Clear -5 1014 92 10000 2.6 300 17:55 10.12.2019
2884 Clear -4 1013 92 10000 3.1 310 17:36 10.12.2019
2885 Clear -4 1013 92 10000 3.1 310 17:36 10.12.2019
2886 Clear -4 1013 92 10000 3.1 310 17:18 10.12.2019
2887 Clear -4 1013 92 10000 3.1 310 17:18 10.12.2019
2888 Clear -4 1013 92 10000 3.1 300 16:42 10.12.2019
2889 Clouds -4 1012 92 10000 2.6 310 16:20 10.12.2019
2890 Clouds -4 1012 92 10000 2.6 310 16:20 10.12.2019
2891 Clouds -3 1011 92 10000 3.6 330 15:54 10.12.2019
2892 Clouds -3 1011 86 10000 3.1 330 15:36 10.12.2019
2893 Clouds -3 1010 86 10000 2.1 340 15:18 10.12.2019
2894 Clouds -3 1010 86 10000 2.1 340 15:18 10.12.2019
2895 Clouds -3 1010 86 10000 2.1 340 14:42 10.12.2019
2896 Clouds -3 1010 86 10000 4.1 330 14:24 10.12.2019
2897 Clouds -3 1009 86 10000 3.6 340 13:59 10.12.2019
2898 Clouds -3 1008 86 10000 4.6 330 13:40 10.12.2019
2899 Clouds -3 1008 86 10000 4.6 330 13:20 10.12.2019
2900 Clouds -2 1008 86 10000 5.1 330 12:57 10.12.2019
2901 Clouds -2 1007 92 10000 3.6 310 12:38 10.12.2019
2902 Clouds -3 1007 92 10000 3.6 310 12:20 10.12.2019
2903 Clouds -2 1006 86 10000 5.1 330 11:41 10.12.2019
2904 Clouds -2 1006 86 10000 5.1 330 11:23 10.12.2019
2905 Clouds -2 1005 86 10000 6.2 330 10:55 10.12.2019
2906 Clouds -2 1005 86 10000 6.2 320 10:37 10.12.2019
2907 Clouds -2 1005 86 10000 6.2 320 10:18 10.12.2019
2908 Clouds -2 1004 92 10000 5.7 320 09:54 10.12.2019
2909 Clouds -2 1003 92 10000 4.6 320 09:36 10.12.2019
2910 Clouds -2 1002 92 10000 4.6 320 09:18 10.12.2019
2911 Clouds -2 1001 92 10000 5.1 320 08:41 10.12.2019
2912 Clouds -2 1001 92 10000 5.1 320 08:22 10.12.2019
2913 Rain -2 1000 92 10000 5.1 330 07:57 10.12.2019
2914 Rain -1 1000 86 10000 5.7 330 07:39 10.12.2019
2915 Rain -1 1000 86 10000 5.7 330 07:39 10.12.2019
2916 Rain -1 1000 86 10000 5.7 330 07:20 10.12.2019
2917 Snow -1 998 100 8000 5.1 330 06:46 10.12.2019
2918 Snow -1 998 100 8000 5.1 330 06:19 10.12.2019
2919 Snow -1 998 100 10000 3.6 340 06:19 10.12.2019
2920 Snow -1 998 100 10000 3.6 340 05:52 10.12.2019
2921 Clouds 0 996 96 10000 4.1 330 04:50 10.12.2019
2922 Snow 0 995 96 5000 2.1 350 03:31 10.12.2019
2923 Snow 0 994 96 2300 1.5 340 02:36 10.12.2019
2924 Snow 0 994 92 2000 2.6 330 01:42 10.12.2019
2925 Snow 1 993 90 5000 3.1 350 01:19 10.12.2019
2926 Snow 1 992 90 10000 1 0 00:38 10.12.2019
2927 Rain 1 992 90 10000 1 0 00:18 10.12.2019
2928 Rain 2 992 93 8000 3.6 310 23:40 09.12.2019
2929 Rain 2 992 93 8000 3.6 310 23:22 09.12.2019
2930 Rain 3 991 93 6000 3.1 280 22:57 09.12.2019
2931 Rain 3 990 93 10000 4.1 260 22:39 09.12.2019
2932 Rain 3 990 93 10000 4.1 260 22:18 09.12.2019
2933 Rain 3 990 93 8000 3.6 270 21:56 09.12.2019
2934 Rain 4 989 93 10000 5.7 240 21:38 09.12.2019
2935 Rain 4 989 93 10000 5.7 240 21:18 09.12.2019
2936 Clouds 4 988 93 10000 5.7 230 20:56 09.12.2019
2937 Rain 4 988 86 10000 5.7 220 20:37 09.12.2019
2938 Rain 5 988 86 10000 5.7 220 20:19 09.12.2019
2939 Clouds 5 987 86 10000 6.7 220 19:55 09.12.2019
2940 Rain 5 987 93 10000 7.2 220 19:37 09.12.2019
2941 Rain 5 987 93 10000 7.2 220 19:19 09.12.2019
2942 Rain 5 987 93 10000 3.6 220 18:55 09.12.2019
2943 Rain 5 986 93 10000 5.7 240 18:36 09.12.2019
2944 Rain 5 986 93 10000 5.7 240 18:18 09.12.2019
2945 Rain 5 986 93 10000 5.7 240 18:18 09.12.2019
2946 Rain 5 986 93 10000 5.7 230 17:56 09.12.2019
2947 Rain 5 985 93 10000 6.7 220 17:37 09.12.2019
2948 Rain 5 985 81 10000 6.7 220 17:18 09.12.2019
2949 Rain 5 985 81 10000 6.7 220 16:54 09.12.2019
2950 Rain 5 984 86 10000 6.7 220 16:36 09.12.2019
2951 Rain 5 984 86 10000 6.7 220 16:18 09.12.2019
2952 Clouds 5 984 86 10000 7.2 210 15:54 09.12.2019
2953 Rain 5 983 86 10000 6.7 210 15:36 09.12.2019
2954 Rain 5 983 86 10000 6.7 210 15:18 09.12.2019
2955 Clouds 5 982 86 10000 6.7 220 14:42 09.12.2019
2956 Clouds 5 982 86 10000 6.7 220 14:18 09.12.2019
2957 Clouds 5 982 80 10000 7.2 220 14:18 09.12.2019
2958 Clouds 5 982 80 10000 7.2 220 13:56 09.12.2019
2959 Clouds 5 981 81 10000 8.2 220 13:38 09.12.2019
2960 Clouds 5 981 81 10000 8.2 220 13:19 09.12.2019
2961 Clouds 5 981 81 10000 8.2 220 12:56 09.12.2019
2962 Clouds 5 981 81 10000 7.2 230 12:37 09.12.2019
2963 Clouds 5 981 81 10000 7.2 230 12:19 09.12.2019
2964 Clouds 5 980 81 10000 7.7 230 11:55 09.12.2019
2965 Clouds 5 980 81 10000 8.7 230 11:36 09.12.2019
2966 Clouds 5 980 81 10000 8.7 230 11:18 09.12.2019
2967 Rain 5 979 81 10000 8.2 230 10:40 09.12.2019
2968 Rain 5 979 81 10000 8.2 230 10:20 09.12.2019
2969 Clouds 5 979 81 10000 8.7 220 09:56 09.12.2019
2970 Rain 5 978 86 10000 9.8 220 09:38 09.12.2019
2971 Clouds 5 977 86 10000 8.7 220 09:20 09.12.2019
2972 Clouds 5 977 86 10000 7.2 210 08:42 09.12.2019
2973 Clouds 5 977 86 10000 7.2 210 08:24 09.12.2019
2974 Clouds 5 977 86 10000 8.7 220 07:56 09.12.2019
2975 Clouds 5 977 86 10000 9.3 220 07:37 09.12.2019
2976 Clouds 5 977 86 10000 9.3 220 07:19 09.12.2019
2977 Rain 5 976 86 10000 9.3 230 06:39 09.12.2019
2978 Rain 5 976 86 10000 9.3 230 06:21 09.12.2019
2979 Rain 5 976 81 10000 7.7 220 05:26 09.12.2019
2980 Clouds 6 976 81 10000 8.7 220 04:29 09.12.2019
2981 Clouds 6 975 87 10000 8.7 220 03:19 09.12.2019
2982 Clouds 6 975 93 10000 7.7 210 02:18 09.12.2019
2983 Rain 6 975 87 10000 9.3 210 01:40 09.12.2019
2984 Drizzle 6 974 87 9000 9.3 220 00:45 09.12.2019
2985 Drizzle 6 974 93 7000 10.3 210 00:24 09.12.2019
2986 Drizzle 6 974 100 7000 9.8 190 23:39 08.12.2019
2987 Drizzle 6 974 100 7000 9.8 190 23:21 08.12.2019
2988 Drizzle 6 974 93 6000 9.3 180 22:56 08.12.2019
2989 Drizzle 6 975 100 5000 8.2 180 22:38 08.12.2019
2990 Drizzle 5 975 93 5000 8.2 170 22:18 08.12.2019
2991 Drizzle 5 975 100 5000 8.2 180 22:18 08.12.2019
2992 Drizzle 5 975 93 5000 8.2 170 21:57 08.12.2019
2993 Drizzle 5 976 100 4500 8.2 170 21:39 08.12.2019
2994 Drizzle 5 976 100 4500 8.2 170 21:39 08.12.2019
2995 Drizzle 5 976 100 4500 8.2 170 21:19 08.12.2019
2996 Drizzle 4 977 93 5000 7.7 160 20:57 08.12.2019
2997 Drizzle 4 978 93 4500 8.2 150 20:38 08.12.2019
2998 Drizzle 3 978 93 4500 8.2 150 20:19 08.12.2019
2999 Drizzle 3 979 100 6000 8.7 160 19:57 08.12.2019
3000 Drizzle 3 979 100 6000 8.7 160 19:57 08.12.2019
3001 Rain 2 980 93 7000 7.7 150 19:39 08.12.2019
3002 Rain 2 980 93 7000 7.7 150 19:21 08.12.2019
3003 Rain 2 981 93 6000 7.2 140 18:55 08.12.2019
3004 Rain 2 982 93 6000 7.2 150 18:36 08.12.2019
3005 Rain 2 982 93 6000 7.2 150 18:18 08.12.2019
3006 Rain 2 983 93 7000 6.7 170 17:56 08.12.2019
3007 Rain 2 983 90 0 0.89 118 17:37 08.12.2019
3008 Rain 2 983 93 8000 7.2 180 17:19 08.12.2019
3009 Rain 2 984 86 7000 4.1 200 16:55 08.12.2019
3010 Rain 2 985 86 8000 5.7 170 16:37 08.12.2019
3011 Rain 2 985 86 8000 5.7 170 16:18 08.12.2019
3012 Clouds 2 986 86 10000 2.6 130 15:38 08.12.2019
3013 Clouds 1 986 86 10000 2.6 130 15:19 08.12.2019
3014 Clouds 1 986 86 10000 2.6 130 15:19 08.12.2019
3015 Clouds 2 986 86 10000 2.1 170 14:58 08.12.2019
3016 Rain 1 987 86 10000 3.6 210 14:39 08.12.2019
3017 Rain 1 987 86 10000 3.6 210 14:39 08.12.2019
3018 Clouds 1 987 74 10000 3.6 210 14:21 08.12.2019
3019 Clouds 1 987 74 10000 3.6 210 13:54 08.12.2019
3020 Clouds 1 987 86 10000 3.1 210 13:36 08.12.2019
3021 Clouds 1 987 86 10000 3.1 210 13:18 08.12.2019
3022 Clouds 1 988 86 10000 4.1 230 12:42 08.12.2019
3023 Clouds 1 988 86 10000 4.1 230 12:23 08.12.2019
3024 Clouds 1 988 86 10000 3.6 230 11:59 08.12.2019
3025 Clouds 1 988 86 10000 4.6 230 11:38 08.12.2019
3026 Clouds 1 988 86 10000 4.6 230 11:19 08.12.2019
3027 Clouds 1 989 86 10000 4.1 230 10:58 08.12.2019
3028 Clouds 1 988 80 10000 5.1 250 10:38 08.12.2019
3029 Clouds 1 988 80 10000 5.1 250 10:19 08.12.2019
3030 Clouds 1 988 80 10000 5.7 260 09:56 08.12.2019
3031 Clouds 1 988 86 10000 6.2 260 09:37 08.12.2019
3032 Clouds 1 988 86 10000 6.2 260 09:19 08.12.2019
3033 Clouds 1 988 80 10000 5.7 250 08:57 08.12.2019
3034 Clouds 1 988 80 10000 5.1 250 08:36 08.12.2019
3035 Clouds 1 988 80 10000 5.1 250 08:18 08.12.2019
3036 Clouds 1 987 86 10000 5.1 260 07:41 08.12.2019
3037 Clouds 1 987 86 10000 6.2 260 07:19 08.12.2019
3038 Clouds 1 987 86 10000 5.1 260 06:43 08.12.2019
3039 Clouds 1 987 86 10000 5.1 260 06:21 08.12.2019
3040 Clouds 1 986 86 10000 6.2 270 05:35 08.12.2019
3041 Clouds 1 985 86 10000 5.7 280 04:58 08.12.2019
3042 Clouds 2 984 77 10000 7.7 280 03:47 08.12.2019
3043 Clouds 2 984 77 10000 7.7 280 03:20 08.12.2019
3044 Clouds 2 983 93 10000 6.7 280 02:28 08.12.2019
3045 Drizzle 2 983 93 10000 6.7 280 01:48 08.12.2019
3046 Clouds 2 982 85 10000 7.2 290 00:59 08.12.2019
3047 Clouds 2 981 93 10000 6.7 290 00:38 08.12.2019
3048 Clouds 2 981 93 10000 6.7 290 00:19 08.12.2019
3049 Clouds 2 980 93 10000 6.7 300 23:40 07.12.2019
3050 Clouds 2 980 93 10000 6.7 300 23:40 07.12.2019
3051 Clouds 2 980 93 10000 6.7 300 23:20 07.12.2019
3052 Drizzle 2 980 93 8000 6.7 300 22:56 07.12.2019
3053 Drizzle 2 980 93 8000 7.7 290 22:38 07.12.2019
3054 Clouds 2 981 94 0 8.95 271 22:19 07.12.2019
3055 Drizzle 2 980 93 8000 7.7 290 22:19 07.12.2019
3056 Drizzle 3 979 100 10000 4.6 230 21:56 07.12.2019
3057 Drizzle 3 979 100 10000 4.1 210 21:38 07.12.2019
3058 Drizzle 4 979 100 10000 4.1 210 21:19 07.12.2019
3059 Drizzle 4 979 93 10000 5.1 220 20:54 07.12.2019
3060 Drizzle 4 979 93 10000 5.7 220 20:36 07.12.2019
3061 Drizzle 4 979 93 10000 5.7 220 20:18 07.12.2019
3062 Drizzle 5 979 87 10000 7.2 220 19:55 07.12.2019
3063 Drizzle 5 979 93 10000 7.2 220 19:36 07.12.2019
3064 Drizzle 5 979 93 10000 7.2 220 19:18 07.12.2019
3065 Drizzle 6 979 100 5000 6.2 200 18:43 07.12.2019
3066 Drizzle 6 980 100 4500 6.7 190 18:19 07.12.2019
3067 Drizzle 6 980 100 4000 7.2 190 17:57 07.12.2019
3068 Drizzle 6 980 100 4000 8.7 190 17:38 07.12.2019
3069 Drizzle 6 980 100 4000 8.7 190 17:20 07.12.2019
3070 Drizzle 6 981 100 4000 9.3 190 16:56 07.12.2019
3071 Drizzle 6 981 100 3500 8.7 190 16:37 07.12.2019
3072 Drizzle 6 981 100 3500 8.7 190 16:18 07.12.2019
3073 Drizzle 6 982 93 2500 8.2 190 15:42 07.12.2019
3074 Drizzle 6 982 93 2500 8.2 190 15:23 07.12.2019
3075 Drizzle 6 982 93 2500 9.3 190 14:57 07.12.2019
3076 Drizzle 6 982 93 2500 8.2 190 14:39 07.12.2019
3077 Drizzle 6 982 93 2500 8.2 190 14:18 07.12.2019
3078 Rain 6 983 93 2500 9.8 190 13:41 07.12.2019
3079 Drizzle 6 983 93 3500 8.7 190 13:21 07.12.2019
3080 Drizzle 6 984 93 2200 9.8 190 12:56 07.12.2019
3081 Drizzle 6 984 93 2800 9.3 190 12:38 07.12.2019
3082 Drizzle 6 984 93 2800 9.3 190 12:20 07.12.2019
3083 Drizzle 6 985 93 2300 10.3 190 11:56 07.12.2019
3084 Drizzle 6 985 93 2800 10.8 190 11:37 07.12.2019
3085 Drizzle 6 986 93 2400 10.3 190 11:19 07.12.2019
3086 Drizzle 6 986 93 3000 10.8 190 10:37 07.12.2019
3087 Drizzle 6 986 93 3000 10.8 190 10:19 07.12.2019
3088 Drizzle 6 986 93 3000 10.8 190 10:19 07.12.2019
3089 Drizzle 6 986 93 2400 10.8 190 09:41 07.12.2019
3090 Drizzle 6 987 100 2500 9.3 180 09:22 07.12.2019
3091 Drizzle 6 987 100 3500 8.7 180 08:47 07.12.2019
3092 Rain 6 987 100 4000 9.3 180 08:27 07.12.2019
3093 Rain 6 988 93 4500 6.7 180 07:58 07.12.2019
3094 Drizzle 6 988 100 4000 4.1 170 07:39 07.12.2019
3095 Drizzle 6 988 100 4000 4.1 170 07:21 07.12.2019
3096 Drizzle 6 988 100 4000 4.1 170 07:21 07.12.2019
3097 Drizzle 5 989 100 3500 2.6 110 06:45 07.12.2019
3098 Drizzle 4 989 100 3500 2.6 110 06:24 07.12.2019
3099 Clouds 3 990 93 10000 1 0 04:52 07.12.2019
3100 Clouds 3 990 100 10000 0.5 250 03:54 07.12.2019
3101 Clouds 3 991 93 10000 3.6 210 02:56 07.12.2019
3102 Clouds 4 991 93 10000 3.6 220 02:21 07.12.2019
3103 Clouds 4 990 86 10000 4.1 230 01:31 07.12.2019
3104 Clouds 4 990 86 10000 4.6 240 00:52 07.12.2019
3105 Drizzle 4 990 93 7000 4.6 240 00:19 07.12.2019
3106 Clouds 5 989 93 10000 4.1 230 23:47 06.12.2019
3107 Clouds 5 989 93 10000 4.1 250 23:24 06.12.2019
3108 Clouds 5 989 93 10000 4.6 240 22:58 06.12.2019
3109 Drizzle 5 989 93 10000 4.6 230 22:37 06.12.2019
3110 Drizzle 5 989 93 10000 4.6 230 22:19 06.12.2019
3111 Drizzle 5 988 93 7000 3.1 240 21:56 06.12.2019
3112 Drizzle 5 988 93 10000 3.6 230 21:38 06.12.2019
3113 Drizzle 5 988 93 10000 3.6 230 21:19 06.12.2019
3114 Drizzle 5 988 93 10000 4.1 230 20:42 06.12.2019
3115 Drizzle 5 988 93 10000 4.6 220 20:22 06.12.2019
3116 Drizzle 5 987 93 10000 3.6 230 19:57 06.12.2019
3117 Drizzle 5 987 93 10000 3.6 230 19:57 06.12.2019
3118 Clouds 5 987 93 10000 3.6 220 19:39 06.12.2019
3119 Clouds 5 987 93 10000 3.6 220 19:21 06.12.2019
3120 Drizzle 5 987 100 10000 3.6 220 18:45 06.12.2019
3121 Drizzle 5 987 100 10000 3.6 220 18:23 06.12.2019
3122 Clouds 5 986 100 10000 4.1 220 17:58 06.12.2019
3123 Clouds 5 986 100 10000 3.1 220 17:40 06.12.2019
3124 Clouds 5 986 100 10000 3.1 220 17:22 06.12.2019
3125 Clouds 5 986 100 10000 3.1 240 16:59 06.12.2019
3126 Drizzle 5 986 100 6000 3.1 230 16:40 06.12.2019
3127 Drizzle 5 986 100 6000 3.1 230 16:21 06.12.2019
3128 Drizzle 5 985 100 10000 3.1 210 15:56 06.12.2019
3129 Clouds 5 985 93 10000 3.6 210 15:38 06.12.2019
3130 Clouds 5 985 93 10000 3.6 210 15:38 06.12.2019
3131 Clouds 5 985 93 10000 3.6 210 15:18 06.12.2019
3132 Clouds 5 985 93 10000 3.6 210 15:18 06.12.2019
3133 Drizzle 4 985 93 10000 3.1 200 14:41 06.12.2019
3134 Drizzle 4 985 93 10000 3.1 200 14:20 06.12.2019
3135 Clouds 5 985 93 10000 3.6 210 13:58 06.12.2019
3136 Clouds 5 985 93 10000 4.1 210 13:40 06.12.2019
3137 Clouds 5 985 93 10000 4.1 210 13:21 06.12.2019
3138 Rain 5 985 93 10000 4.6 220 12:41 06.12.2019
3139 Rain 4 985 93 10000 4.6 220 12:22 06.12.2019
3140 Rain 4 986 86 10000 6.2 220 11:43 06.12.2019
3141 Rain 4 986 86 10000 6.2 220 11:24 06.12.2019
3142 Rain 4 986 86 10000 6.2 220 11:24 06.12.2019
3143 Rain 4 986 93 10000 5.7 210 10:59 06.12.2019
3144 Rain 4 986 93 10000 5.7 210 10:59 06.12.2019
3145 Rain 4 986 93 10000 6.7 220 10:40 06.12.2019
3146 Rain 4 986 93 10000 6.7 220 10:21 06.12.2019
3147 Rain 4 986 100 8000 5.7 220 09:56 06.12.2019
3148 Rain 4 987 93 8000 5.1 220 09:37 06.12.2019
3149 Rain 4 987 93 8000 5.1 220 09:19 06.12.2019
3150 Rain 4 987 86 10000 5.7 210 08:44 06.12.2019
3151 Rain 4 987 86 10000 5.7 210 08:44 06.12.2019
3152 Rain 3 987 86 10000 5.7 210 08:25 06.12.2019
3153 Rain 3 987 93 10000 7.7 220 07:44 06.12.2019
3154 Rain 3 987 93 10000 7.7 220 07:23 06.12.2019
3155 Rain 3 987 93 10000 7.7 220 07:23 06.12.2019
3156 Rain 3 987 93 10000 7.7 220 07:23 06.12.2019
3157 Rain 3 987 93 10000 7.7 220 07:23 06.12.2019
3158 Rain 3 987 93 10000 7.7 220 07:23 06.12.2019
3159 Rain 3 988 93 10000 6.7 220 06:53 06.12.2019
3160 Rain 3 988 93 10000 6.2 220 06:26 06.12.2019
3161 Rain 3 988 87 10000 7.2 220 05:51 06.12.2019
3162 Clouds 4 990 81 10000 7.2 230 03:57 06.12.2019
3163 Clouds 5 991 93 10000 6.7 230 01:48 06.12.2019
3164 Clouds 5 991 93 10000 6.7 230 01:48 06.12.2019
3165 Rain 6 991 81 10000 7.2 230 00:57 06.12.2019
3166 Rain 6 992 81 10000 8.2 240 00:37 06.12.2019
3167 Rain 5 992 81 10000 8.2 240 00:19 06.12.2019
3168 Clouds 6 992 75 10000 7.7 240 23:21 05.12.2019
3169 Clouds 6 992 75 10000 8.2 240 22:59 05.12.2019
3170 Clouds 6 992 70 10000 8.7 230 22:39 05.12.2019
3171 Clouds 6 992 70 10000 8.7 230 22:20 05.12.2019
3172 Clouds 6 992 70 10000 8.7 230 22:20 05.12.2019
3173 Clouds 6 993 70 10000 9.3 230 22:20 05.12.2019
3174 Clouds 6 993 70 10000 9.3 230 21:58 05.12.2019
3175 Clouds 6 993 70 10000 8.7 230 21:40 05.12.2019
3176 Clouds 6 993 70 10000 8.7 230 21:22 05.12.2019
3177 Clouds 6 993 70 10000 9.3 230 20:58 05.12.2019
3178 Clouds 6 993 70 10000 9.3 230 20:40 05.12.2019
3179 Clouds 6 993 75 10000 8.7 230 20:19 05.12.2019
3180 Clouds 6 993 75 10000 8.7 230 20:19 05.12.2019
3181 Clouds 6 994 70 10000 8.7 230 19:43 05.12.2019
3182 Clouds 6 994 70 10000 8.7 230 19:25 05.12.2019
3183 Clouds 6 994 75 10000 7.7 230 18:59 05.12.2019
3184 Clouds 6 994 75 10000 7.7 230 18:39 05.12.2019
3185 Clouds 6 994 75 10000 7.7 230 18:21 05.12.2019
3186 Clouds 6 994 75 10000 7.7 230 17:59 05.12.2019
3187 Clouds 6 994 75 10000 7.7 230 17:38 05.12.2019
3188 Clouds 6 995 75 10000 8.2 230 17:19 05.12.2019
3189 Clouds 6 995 75 10000 7.7 230 16:55 05.12.2019
3190 Clouds 6 995 75 10000 7.7 230 16:37 05.12.2019
3191 Clouds 6 995 75 10000 8.7 240 16:18 05.12.2019
3192 Clouds 6 995 70 10000 9.3 230 15:55 05.12.2019
3193 Clouds 6 995 70 10000 9.3 230 15:36 05.12.2019
3194 Clouds 6 995 81 10000 7.7 230 15:18 05.12.2019
3195 Clouds 6 995 75 10000 8.7 230 14:54 05.12.2019
3196 Clouds 6 995 75 10000 8.7 230 14:36 05.12.2019
3197 Clouds 6 996 81 10000 7.7 230 14:18 05.12.2019
3198 Clouds 6 996 81 10000 7.7 230 13:54 05.12.2019
3199 Clouds 6 996 81 10000 8.2 220 13:36 05.12.2019
3200 Clouds 6 997 81 10000 8.2 220 13:18 05.12.2019
3201 Clouds 6 997 81 10000 7.7 220 12:41 05.12.2019
3202 Clouds 6 998 81 10000 6.7 230 12:23 05.12.2019
3203 Clouds 6 998 81 10000 7.7 240 11:56 05.12.2019
3204 Clouds 6 998 81 10000 7.7 240 11:38 05.12.2019
3205 Clouds 6 998 81 10000 7.2 230 11:19 05.12.2019
3206 Clouds 6 999 81 10000 6.7 230 10:55 05.12.2019
3207 Clouds 6 999 81 10000 6.7 230 10:55 05.12.2019
3208 Clouds 6 999 81 10000 6.7 230 10:37 05.12.2019
3209 Clouds 5 999 86 10000 6.2 230 10:18 05.12.2019
3210 Clouds 5 999 86 10000 6.2 230 10:18 05.12.2019
3211 Clouds 5 1000 86 10000 7.2 240 09:43 05.12.2019
3212 Clouds 5 1000 80 10000 7.2 240 09:21 05.12.2019
3213 Clouds 5 1000 80 10000 8.7 240 08:58 05.12.2019
3214 Clouds 5 1000 80 10000 8.7 240 08:37 05.12.2019
3215 Clouds 5 1000 86 10000 7.2 250 08:19 05.12.2019
3216 Clouds 5 1000 81 10000 8.7 240 07:49 05.12.2019
3217 Clouds 5 1000 81 10000 8.7 240 07:31 05.12.2019
3218 Clouds 5 1000 81 10000 9.3 230 06:56 05.12.2019
3219 Clouds 5 1000 81 10000 9.3 230 06:37 05.12.2019
3220 Clouds 5 1000 87 10000 9.8 220 06:18 05.12.2019
3221 Clouds 5 1001 87 10000 8.2 220 05:44 05.12.2019
3222 Clouds 5 1001 93 10000 7.7 220 05:19 05.12.2019
3223 Clouds 5 1002 93 10000 7.7 220 03:52 05.12.2019
3224 Clouds 5 1002 93 10000 6.7 220 02:42 05.12.2019
3225 Clouds 4 1002 100 10000 6.7 220 02:23 05.12.2019
3226 Clouds 4 1003 100 10000 6.7 220 01:51 05.12.2019
3227 Clouds 4 1003 93 10000 6.2 220 01:24 05.12.2019
3228 Clouds 4 1003 93 10000 6.2 220 00:47 05.12.2019
3229 Clouds 4 1003 93 10000 5.7 230 00:24 05.12.2019
3230 Clouds 4 1003 93 10000 5.7 230 23:56 04.12.2019
3231 Clouds 4 1004 93 10000 5.1 230 23:37 04.12.2019
3232 Mist 3 1004 100 4000 5.7 210 23:19 04.12.2019
3233 Mist 3 1003 93 1400 5.1 200 22:39 04.12.2019
3234 Clouds 3 1004 93 10000 4.1 210 22:20 04.12.2019
3235 Clouds 3 1004 93 10000 3.6 200 21:58 04.12.2019
3236 Clouds 2 1004 93 10000 3.6 200 21:39 04.12.2019
3237 Clouds 2 1004 100 10000 3.1 230 21:20 04.12.2019
3238 Clouds 2 1004 100 10000 3.1 230 20:58 04.12.2019
3239 Clouds 2 1004 93 10000 3.6 230 20:40 04.12.2019
3240 Clouds 2 1004 93 10000 3.6 230 20:21 04.12.2019
3241 Clouds 2 1004 100 10000 3.6 240 19:58 04.12.2019
3242 Clouds 2 1004 100 10000 3.6 240 19:38 04.12.2019
3243 Clouds 2 1004 86 10000 4.1 250 19:20 04.12.2019
3244 Clouds 2 1004 93 10000 4.6 250 18:42 04.12.2019
3245 Clouds 2 1004 93 10000 4.1 250 18:24 04.12.2019
3246 Clouds 2 1004 93 10000 4.1 250 18:00 04.12.2019
3247 Clouds 2 1004 93 10000 3.6 250 17:40 04.12.2019
3248 Clouds 3 1004 86 10000 4.1 250 17:21 04.12.2019
3249 Clouds 3 1003 93 10000 3.6 260 16:57 04.12.2019
3250 Clouds 3 1003 93 10000 3.6 260 16:39 04.12.2019
3251 Clouds 3 1003 93 10000 4.1 260 16:19 04.12.2019
3252 Clouds 3 1003 86 10000 5.1 260 15:55 04.12.2019
3253 Clouds 3 1003 86 10000 5.1 260 15:55 04.12.2019
3254 Clouds 3 1003 86 10000 5.1 260 15:37 04.12.2019
3255 Clouds 4 1003 86 10000 5.1 270 15:19 04.12.2019
3256 Clouds 4 1003 86 10000 5.1 270 15:19 04.12.2019
3257 Clouds 4 1002 93 10000 5.1 280 14:44 04.12.2019
3258 Clouds 4 1002 86 10000 5.7 280 14:23 04.12.2019
3259 Clouds 5 1002 86 10000 6.2 280 13:58 04.12.2019
3260 Clouds 5 1002 86 10000 6.2 280 13:38 04.12.2019
3261 Clouds 5 1002 86 10000 6.7 280 13:19 04.12.2019
3262 Clouds 5 1002 86 10000 7.2 280 12:44 04.12.2019
3263 Clouds 5 1002 86 10000 7.2 280 12:24 04.12.2019
3264 Clouds 5 1001 86 10000 7.2 280 11:56 04.12.2019
3265 Clouds 4 1001 86 10000 7.7 270 11:38 04.12.2019
3266 Clouds 4 1001 86 10000 6.7 270 11:20 04.12.2019
3267 Clouds 4 1001 93 10000 6.7 270 10:44 04.12.2019
3268 Clouds 4 1001 93 10000 5.1 260 10:23 04.12.2019
3269 Clouds 3 1001 93 10000 5.1 260 09:56 04.12.2019
3270 Clouds 3 1000 100 10000 5.1 260 09:37 04.12.2019
3271 Clouds 3 1000 93 10000 5.1 260 09:19 04.12.2019
3272 Clouds 3 1000 93 10000 6.2 260 08:40 04.12.2019
3273 Clouds 3 1000 93 10000 6.2 250 08:21 04.12.2019
3274 Rain 3 1000 93 10000 5.1 250 07:48 04.12.2019
3275 Drizzle 3 1000 100 10000 5.1 240 07:30 04.12.2019
3276 Clouds 2 1000 100 10000 4.6 240 06:36 04.12.2019
3277 Drizzle 2 1000 100 5000 4.6 250 05:48 04.12.2019
3278 Drizzle 2 1000 100 5000 4.6 250 05:29 04.12.2019
3279 Drizzle 2 1000 100 10000 5.1 250 04:25 04.12.2019
3280 Drizzle 2 1000 100 10000 4.6 240 02:55 04.12.2019
3281 Drizzle 2 1002 93 10000 4.6 220 00:52 04.12.2019
3282 Drizzle 2 1002 93 10000 4.6 210 00:27 04.12.2019
3283 Drizzle 2 1002 93 10000 4.6 210 23:58 03.12.2019
3284 Rain 2 1002 92 10000 4.1 210 23:40 03.12.2019
3285 Clouds 2 1003 86 10000 3.1 230 23:19 03.12.2019
3286 Clouds 2 1003 80 10000 4.6 220 22:41 03.12.2019
3287 Clouds 2 1003 75 10000 3.6 210 22:19 03.12.2019
3288 Clouds 2 1004 75 10000 3.1 230 21:58 03.12.2019
3289 Clouds 2 1004 75 10000 3.1 230 21:38 03.12.2019
3290 Clouds 2 1005 75 10000 3.6 220 21:19 03.12.2019
3291 Clouds 1 1005 75 10000 3.6 220 20:58 03.12.2019
3292 Clouds 1 1005 86 10000 4.6 220 20:39 03.12.2019
3293 Clouds 1 1005 67 10000 5.1 200 20:18 03.12.2019
3294 Clouds 1 1005 86 10000 5.1 200 19:55 03.12.2019
3295 Clouds 0 1005 86 10000 5.1 200 19:37 03.12.2019
3296 Clouds -2 1006 86 10000 3.6 200 19:18 03.12.2019
3297 Clouds -2 1006 86 10000 3.6 200 18:56 03.12.2019
3298 Clouds -2 1006 86 10000 3.6 200 18:37 03.12.2019
3299 Clouds -2 1007 86 10000 3.6 210 18:19 03.12.2019
3300 Clouds -2 1007 86 10000 3.1 210 17:55 03.12.2019
3301 Clouds -2 1007 86 10000 3.1 210 17:36 03.12.2019
3302 Clouds -1 1007 86 10000 3.6 210 17:18 03.12.2019
3303 Clouds -1 1007 92 10000 3.1 210 16:56 03.12.2019
3304 Clouds -1 1007 92 10000 3.1 210 16:36 03.12.2019
3305 Clouds -2 1008 92 10000 2.6 210 16:18 03.12.2019
3306 Clouds -1 1008 92 10000 2.1 220 15:40 03.12.2019
3307 Clouds -2 1008 92 10000 2.6 230 15:20 03.12.2019
3308 Clouds -2 1008 92 10000 2.6 230 14:58 03.12.2019
3309 Clouds -2 1008 92 10000 2.6 230 14:40 03.12.2019
3310 Clear -2 1008 86 10000 2.6 240 14:19 03.12.2019
3311 Clear -1 1008 86 10000 3.1 260 13:39 03.12.2019
3312 Clear -1 1009 86 10000 3.1 270 13:21 03.12.2019
3313 Clear 0 1009 86 10000 3.1 270 12:59 03.12.2019
3314 Clear -1 1009 86 10000 4.1 280 12:38 03.12.2019
3315 Clear -2 1009 86 10000 4.6 270 12:18 03.12.2019
3316 Clear -2 1009 86 10000 4.6 270 11:58 03.12.2019
3317 Clear -2 1009 86 10000 4.6 270 11:38 03.12.2019
3318 Clear -1 1008 92 10000 4.6 270 11:19 03.12.2019
3319 Clear -1 1008 92 10000 4.6 270 11:19 03.12.2019
3320 Clear -3 1009 86 10000 3.6 270 10:56 03.12.2019
3321 Clear -3 1009 86 10000 3.6 270 10:38 03.12.2019
3322 Clear -4 1009 92 10000 5.1 270 10:19 03.12.2019
3323 Clouds -4 1009 92 10000 4.6 260 09:45 03.12.2019
3324 Clouds -5 1008 100 10000 3.1 270 09:24 03.12.2019
3325 Clouds -7 1009 92 10000 3.1 260 08:57 03.12.2019
3326 Clouds -6 1009 92 10000 3.1 260 08:38 03.12.2019
3327 Clouds -6 1008 92 10000 2.6 270 08:20 03.12.2019
3328 Clear -5 1008 92 10000 3.6 270 07:51 03.12.2019
3329 Clear -5 1008 92 10000 3.6 270 07:51 03.12.2019
3330 Clouds -5 1008 92 10000 4.6 280 07:28 03.12.2019
3331 Clouds -5 1008 92 10000 4.6 270 06:42 03.12.2019
3332 Clouds -4 1008 86 10000 5.1 280 06:20 03.12.2019
3333 Clear -4 1008 92 10000 4.6 270 04:59 03.12.2019
3334 Clouds -4 1008 85 10000 4.6 270 03:42 03.12.2019
3335 Clouds -4 1008 92 10000 3.6 270 03:21 03.12.2019
3336 Clear -4 1008 92 10000 4.1 280 02:53 03.12.2019
3337 Clear -4 1008 92 10000 4.1 270 02:32 03.12.2019
3338 Clear -4 1007 92 10000 3.6 270 01:58 03.12.2019
3339 Clear -4 1007 92 10000 3.6 270 01:38 03.12.2019
3340 Clear -4 1007 85 10000 3.6 270 01:18 03.12.2019
3341 Clear -4 1007 92 10000 4.1 270 00:41 03.12.2019
3342 Clear -4 1007 92 10000 4.1 270 00:23 03.12.2019
3343 Clear -4 1007 85 10000 3.6 270 23:44 02.12.2019
3344 Clear -4 1007 85 10000 3.6 270 23:21 02.12.2019
3345 Clear -4 1006 92 10000 3.6 270 22:56 02.12.2019
3346 Clear -4 1006 92 10000 3.6 270 22:56 02.12.2019
3347 Clear -4 1006 92 10000 3.6 270 22:37 02.12.2019
3348 Clear -4 1006 92 10000 3.6 280 22:19 02.12.2019
3349 Clear -4 1006 85 10000 4.1 280 21:39 02.12.2019
3350 Clear -4 1006 92 10000 4.1 290 21:20 02.12.2019
3351 Clear -3 1006 92 10000 4.1 280 20:57 02.12.2019
3352 Clear -3 1006 92 10000 4.1 280 20:57 02.12.2019
3353 Clear -3 1006 92 10000 4.1 280 20:39 02.12.2019
3354 Clouds -3 1005 86 10000 4.1 290 20:20 02.12.2019
3355 Clear -4 1005 92 10000 4.1 290 19:56 02.12.2019
3356 Clear -4 1005 92 10000 4.1 290 19:38 02.12.2019
3357 Clear -3 1005 92 10000 4.1 280 19:20 02.12.2019
3358 Clear -3 1005 86 10000 4.6 280 18:48 02.12.2019
3359 Clear -3 1005 86 10000 4.6 280 18:48 02.12.2019
3360 Clear -3 1004 92 10000 4.1 270 18:24 02.12.2019
3361 Clear -3 1004 86 10000 4.6 270 17:59 02.12.2019
3362 Clear -3 1004 86 10000 4.6 270 17:41 02.12.2019
3363 Clear -3 1004 86 10000 4.1 270 17:20 02.12.2019
3364 Clear -3 1004 86 10000 4.1 270 16:57 02.12.2019
3365 Clear -3 1004 92 10000 4.1 270 16:39 02.12.2019
3366 Clear -3 1003 86 10000 3.1 260 16:18 02.12.2019
3367 Clear -3 1003 92 10000 3.6 270 15:56 02.12.2019
3368 Clear -3 1003 92 10000 3.6 270 15:38 02.12.2019
3369 Clouds -3 1003 86 10000 3.6 270 15:19 02.12.2019
3370 Clouds -2 1003 92 10000 3.6 270 14:40 02.12.2019
3371 Clouds -2 1003 86 10000 3.6 270 14:20 02.12.2019
3372 Clouds -2 1003 86 10000 3.6 270 13:59 02.12.2019
3373 Clouds -2 1003 86 10000 3.6 260 13:41 02.12.2019
3374 Clouds -2 1003 86 10000 3.6 250 13:20 02.12.2019
3375 Clouds -1 1003 86 10000 4.1 260 12:59 02.12.2019
3376 Clouds -1 1003 86 10000 4.1 260 12:40 02.12.2019
3377 Clouds -1 1003 86 10000 2.6 270 12:20 02.12.2019
3378 Clouds -1 1002 86 10000 4.1 260 11:56 02.12.2019
3379 Clouds -1 1002 86 10000 4.1 260 11:37 02.12.2019
3380 Clouds -2 1002 86 10000 3.6 260 11:18 02.12.2019
3381 Clouds -2 1002 92 10000 3.6 250 10:55 02.12.2019
3382 Clouds -2 1002 92 10000 3.6 250 10:37 02.12.2019
3383 Clouds -3 1002 92 10000 3.6 250 10:19 02.12.2019
3384 Clouds -3 1002 92 10000 4.1 250 09:41 02.12.2019
3385 Clouds -3 1002 92 10000 3.6 240 09:19 02.12.2019
3386 Clouds -4 1002 92 10000 3.1 250 08:57 02.12.2019
3387 Clouds -4 1002 92 10000 3.1 250 08:38 02.12.2019
3388 Clouds -4 1002 92 10000 3.6 250 08:20 02.12.2019
3389 Clouds -4 1002 86 10000 3.6 250 07:44 02.12.2019
3390 Clouds -4 1002 92 10000 3.6 250 07:21 02.12.2019
3391 Clouds -3 1002 92 10000 3.6 250 06:56 02.12.2019
3392 Clouds -4 1002 92 10000 3.6 240 06:38 02.12.2019
3393 Clouds -2 1002 86 10000 3.1 250 05:34 02.12.2019
3394 Clouds -3 1002 92 10000 3.1 260 04:27 02.12.2019
3395 Fog -4 1002 92 10000 3.1 230 02:53 02.12.2019
3396 Fog -3 1002 92 10000 3.1 230 02:31 02.12.2019
3397 Clouds -3 1003 92 10000 2.6 270 01:26 02.12.2019
3398 Clouds -2 1003 92 10000 2.6 260 00:58 02.12.2019
3399 Clouds -2 1003 92 10000 3.6 260 00:25 02.12.2019
3400 Clouds -2 1003 92 10000 3.1 270 23:55 01.12.2019
3401 Clouds -2 1003 92 10000 3.1 270 23:37 01.12.2019
3402 Clouds -2 1002 92 10000 3.6 270 23:19 01.12.2019
3403 Clouds -2 1002 92 10000 3.6 240 22:55 01.12.2019
3404 Clouds -2 1002 92 10000 3.6 240 22:36 01.12.2019
3405 Clouds -2 1002 92 10000 4.6 230 22:18 01.12.2019
3406 Clouds -2 1002 92 10000 4.6 230 22:18 01.12.2019
3407 Clouds -1 1003 86 10000 4.1 240 21:54 01.12.2019
3408 Clouds -1 1003 86 10000 4.1 240 21:54 01.12.2019
3409 Clouds -1 1003 86 10000 4.1 240 21:36 01.12.2019
3410 Rain -1 1003 92 10000 3.6 240 21:18 01.12.2019
3411 Rain -1 1003 92 10000 3.6 240 21:18 01.12.2019
3412 Clouds -1 1003 86 10000 4.1 240 20:42 01.12.2019
3413 Clouds -1 1003 86 10000 4.1 240 20:42 01.12.2019
3414 Snow -1 1003 86 10000 3.6 240 20:24 01.12.2019
3415 Snow -2 1003 86 10000 3.6 250 19:59 01.12.2019
3416 Snow -2 1003 86 10000 3.6 250 19:40 01.12.2019
3417 Clouds -2 1003 92 10000 4.1 240 19:22 01.12.2019
3418 Clouds -2 1003 92 10000 4.1 230 18:58 01.12.2019
3419 Clouds -2 1003 92 10000 4.1 230 18:58 01.12.2019
3420 Clouds -2 1003 92 10000 4.1 230 18:39 01.12.2019
3421 Clouds -2 1003 92 10000 4.1 230 18:20 01.12.2019
3422 Clouds -2 1004 86 10000 4.1 250 18:00 01.12.2019
3423 Clouds -2 1004 86 10000 4.1 250 17:41 01.12.2019
3424 Clouds -2 1004 80 10000 4.6 240 17:23 01.12.2019
3425 Clouds -2 1004 80 10000 4.6 240 17:23 01.12.2019
3426 Clouds -2 1004 80 10000 4.6 240 17:23 01.12.2019
3427 Clouds -2 1004 86 10000 4.1 240 16:56 01.12.2019
3428 Clouds -1 1004 86 10000 4.1 240 16:38 01.12.2019
3429 Clouds -2 1003 92 10000 5.1 230 16:20 01.12.2019
3430 Clouds -2 1004 92 10000 4.6 240 15:49 01.12.2019
3431 Clouds -2 1004 92 10000 4.6 240 15:31 01.12.2019
3432 Clouds -2 1004 92 10000 4.6 240 15:31 01.12.2019
3433 Clouds -1 1004 92 10000 4.1 230 14:44 01.12.2019
3434 Clouds -1 1004 86 10000 4.6 230 14:20 01.12.2019
3435 Clouds -1 1004 86 10000 4.6 230 13:59 01.12.2019
3436 Clouds -1 1004 86 10000 5.1 230 13:39 01.12.2019
3437 Clouds -1 1005 92 10000 5.7 240 13:20 01.12.2019
3438 Clouds -1 1005 92 10000 5.1 230 12:44 01.12.2019
3439 Clouds -1 1005 92 10000 5.1 230 11:58 01.12.2019
3440 Clouds -1 1005 92 10000 5.1 230 11:39 01.12.2019
3441 Clouds -1 1005 92 10000 4.1 240 11:21 01.12.2019
3442 Clouds -2 1005 92 10000 5.1 240 10:43 01.12.2019
3443 Clouds -2 1005 86 10000 5.1 240 10:21 01.12.2019
3444 Clouds -2 1005 86 10000 4.6 240 09:57 01.12.2019
3445 Clouds -2 1005 86 10000 4.6 240 09:38 01.12.2019
3446 Clouds -2 1005 86 10000 4.6 230 09:20 01.12.2019
3447 Clouds -3 1005 86 10000 4.6 230 09:20 01.12.2019
3448 Clouds -3 1005 92 10000 5.1 230 08:44 01.12.2019
3449 Clouds -4 1006 85 10000 4.1 230 08:19 01.12.2019
3450 Clouds -4 1006 85 10000 3.6 240 07:50 01.12.2019
3451 Clouds -4 1006 85 10000 3.6 240 07:50 01.12.2019
3452 Clouds -4 1006 86 10000 4.6 240 07:30 01.12.2019
3453 Clouds -4 1006 92 10000 3.6 230 06:56 01.12.2019
3454 Clouds -4 1006 85 10000 2.6 250 06:30 01.12.2019
3455 Clouds -4 1006 92 10000 3.1 240 05:47 01.12.2019
3456 Clouds -4 1007 92 10000 3.6 250 04:49 01.12.2019
3457 Clouds -4 1007 85 10000 3.1 260 02:48 01.12.2019
3458 Clouds -5 1007 92 10000 3.6 270 02:30 01.12.2019
3459 Clouds -5 1007 92 10000 3.6 270 01:57 01.12.2019
3460 Clouds -5 1007 92 10000 3.1 260 01:39 01.12.2019
3461 Clear -6 1007 92 10000 2.6 250 01:18 01.12.2019
3462 Clear -6 1007 92 10000 2.6 240 00:39 01.12.2019
3463 Clear -6 1007 92 10000 2.6 250 00:20 01.12.2019
3464 Clear -5 1007 92 10000 4.1 260 23:42 30.11.2019
3465 Clear -5 1007 92 10000 4.1 260 23:23 30.11.2019
3466 Clear -5 1007 100 10000 4.1 270 22:49 30.11.2019
3467 Clear -5 1007 100 10000 4.1 270 22:30 30.11.2019
3468 Clouds -4 1006 92 10000 4.1 270 21:58 30.11.2019
3469 Clouds -4 1006 92 10000 4.1 270 21:39 30.11.2019
3470 Clouds -4 1006 92 10000 3.1 270 21:20 30.11.2019
3471 Clouds -4 1006 92 10000 4.1 280 20:55 30.11.2019
3472 Clouds -4 1006 92 10000 4.1 280 20:37 30.11.2019
3473 Clouds -4 1005 92 10000 4.6 290 20:18 30.11.2019
3474 Clouds -4 1005 86 10000 4.6 290 19:55 30.11.2019
3475 Clouds -4 1005 86 10000 4.6 290 19:36 30.11.2019
3476 Clouds -4 1005 92 10000 3.1 270 19:18 30.11.2019
3477 Snow -4 1005 92 8000 2.6 270 18:54 30.11.2019
3478 Clouds -5 1004 100 10000 3.1 250 18:36 30.11.2019
3479 Clouds -5 1004 100 10000 3.1 250 18:18 30.11.2019
3480 Clouds -5 1004 100 10000 3.1 250 18:18 30.11.2019
3481 Clouds -5 1004 92 10000 3.1 250 17:56 30.11.2019
3482 Clouds -5 1004 92 10000 3.1 250 17:37 30.11.2019
3483 Clouds -5 1004 92 10000 4.1 280 17:19 30.11.2019
3484 Clouds -5 1004 85 10000 3.6 280 16:42 30.11.2019
3485 Clouds -5 1004 85 10000 3.1 270 16:22 30.11.2019
3486 Clouds -5 1003 92 10000 3.6 270 15:55 30.11.2019
3487 Clouds -5 1003 92 10000 3.6 270 15:55 30.11.2019
3488 Clouds -5 1003 92 10000 3.6 270 15:37 30.11.2019
3489 Clouds -5 1003 85 10000 3.6 270 15:18 30.11.2019
3490 Clouds -4 1003 85 10000 3.6 270 14:55 30.11.2019
3491 Clouds -4 1003 79 10000 3.6 280 14:37 30.11.2019
3492 Clouds -4 1003 85 10000 3.6 280 14:18 30.11.2019
3493 Clouds -3 1002 79 10000 3.6 290 13:45 30.11.2019
3494 Clouds -3 1002 79 10000 4.6 300 13:26 30.11.2019
3495 Clouds -3 1001 86 10000 5.1 290 12:59 30.11.2019
3496 Clouds -3 1001 86 10000 5.1 290 12:41 30.11.2019
3497 Clouds -3 1001 79 10000 5.1 290 12:22 30.11.2019
3498 Clouds -3 1001 92 10000 4.1 270 11:43 30.11.2019
3499 Clouds -3 1000 85 10000 4.6 280 11:20 30.11.2019
3500 Clouds -4 1000 85 10000 4.1 280 10:56 30.11.2019
3501 Clouds -4 1000 85 10000 4.1 280 10:38 30.11.2019
3502 Clouds -4 1000 85 10000 4.6 280 10:19 30.11.2019
3503 Clouds -4 1000 85 10000 4.6 290 09:46 30.11.2019
3504 Clouds -5 1000 85 10000 4.6 290 09:27 30.11.2019
3505 Clear -5 999 92 10000 5.1 270 08:44 30.11.2019
3506 Clear -6 999 85 10000 6.2 280 08:22 30.11.2019
3507 Clear -6 999 85 10000 6.2 280 07:58 30.11.2019
3508 Clear -6 998 92 10000 4.1 290 07:39 30.11.2019
3509 Clear -6 998 92 10000 4.6 290 07:20 30.11.2019
3510 Clear -6 997 92 10000 4.1 300 06:29 30.11.2019
3511 Clear -6 997 85 10000 4.1 300 05:53 30.11.2019
3512 Clear -5 995 92 10000 5.1 300 03:54 30.11.2019
3513 Clear -5 994 92 10000 5.1 310 02:53 30.11.2019
3514 Clouds -5 994 85 10000 5.1 300 02:22 30.11.2019
3515 Clouds -5 993 85 10000 5.7 310 01:38 30.11.2019
3516 Clouds -5 993 85 10000 5.7 310 01:38 30.11.2019
3517 Clouds -4 993 92 10000 5.1 300 01:19 30.11.2019
3518 Clouds -4 992 85 10000 6.2 300 00:36 30.11.2019
3519 Clouds -4 992 86 10000 5.1 300 00:18 30.11.2019
3520 Clouds -3 991 92 10000 5.7 310 23:43 29.11.2019
3521 Clouds -3 991 86 10000 6.2 310 23:23 29.11.2019
3522 Clouds -2 990 86 10000 7.2 310 22:47 29.11.2019
3523 Clouds -2 989 92 10000 6.7 320 22:26 29.11.2019
3524 Clouds -2 989 92 10000 8.2 320 21:45 29.11.2019
3525 Snow -2 988 92 10000 6.7 320 21:26 29.11.2019
3526 Snow -1 988 92 10000 6.7 320 20:59 29.11.2019
3527 Snow -1 988 92 8000 6.7 330 20:39 29.11.2019
3528 Snow -1 987 92 4000 7.2 330 20:21 29.11.2019
3529 Snow -1 987 92 2500 8.2 330 19:58 29.11.2019
3530 Snow -1 987 92 2500 8.2 330 19:39 29.11.2019
3531 Snow -1 986 100 1500 7.7 330 19:20 29.11.2019
3532 Snow -1 986 100 1500 7.7 330 18:58 29.11.2019
3533 Snow -1 986 100 2500 8.2 330 18:40 29.11.2019
3534 Snow 0 985 97 2500 8.2 330 18:21 29.11.2019
3535 Rain 0 985 97 3000 7.2 330 17:44 29.11.2019
3536 Clouds 1 984 92 5000 8.7 330 17:26 29.11.2019
3537 Rain 4 984 93 5000 5.7 200 16:58 29.11.2019
3538 Rain 4 984 93 5000 5.7 200 16:58 29.11.2019
3539 Rain 4 984 93 5000 5.7 200 16:39 29.11.2019
3540 Rain 4 984 93 5000 5.7 200 16:39 29.11.2019
3541 Rain 4 984 93 4000 6.2 180 16:19 29.11.2019
3542 Rain 5 984 93 4000 6.2 180 15:41 29.11.2019
3543 Drizzle 5 984 93 2500 6.2 180 15:23 29.11.2019
3544 Drizzle 5 984 93 2500 6.2 180 15:23 29.11.2019
3545 Mist 5 984 93 3000 6.2 180 14:57 29.11.2019
3546 Mist 5 984 93 3000 6.2 180 14:38 29.11.2019
3547 Drizzle 5 984 93 1800 7.2 180 14:20 29.11.2019
3548 Drizzle 5 985 93 1500 6.2 170 13:42 29.11.2019
3549 Rain 5 985 93 1500 6.7 170 13:21 29.11.2019
3550 Rain 5 985 93 1500 6.7 170 13:21 29.11.2019
3551 Rain 5 985 93 1500 6.7 170 12:57 29.11.2019
3552 Rain 5 985 93 1500 6.7 170 12:57 29.11.2019
3553 Rain 5 985 93 3000 7.7 170 12:39 29.11.2019
3554 Rain 5 985 93 2500 7.2 170 12:21 29.11.2019
3555 Rain 5 985 93 6000 7.2 170 11:55 29.11.2019
3556 Rain 5 985 93 6000 7.2 170 11:36 29.11.2019
3557 Rain 5 986 93 4500 7.2 170 11:18 29.11.2019
3558 Rain 5 986 93 6000 7.2 180 10:55 29.11.2019
3559 Rain 5 986 93 6000 7.2 180 10:55 29.11.2019
3560 Rain 5 986 93 6000 7.2 180 10:36 29.11.2019
3561 Rain 5 986 93 6000 7.2 180 10:18 29.11.2019
3562 -273 0 0 0 0 0 09:54 29.11.2019
3563 Rain 5 986 93 5000 7.2 170 09:36 29.11.2019
3564 Mist 5 986 93 4500 5.7 170 09:18 29.11.2019
3565 Mist 5 987 100 4000 6.7 170 08:38 29.11.2019
3566 Rain 5 987 100 4000 7.2 180 08:20 29.11.2019
3567 Rain 4 987 93 4500 6.7 180 07:55 29.11.2019
3568 Rain 4 987 93 4500 6.7 180 07:37 29.11.2019
3569 Rain 4 987 100 5000 7.2 170 07:18 29.11.2019
3570 Rain 5 987 93 5000 6.2 170 06:41 29.11.2019
3571 Rain 4 987 100 4000 7.2 170 05:47 29.11.2019
3572 Rain 4 987 100 4000 7.7 170 05:23 29.11.2019
3573 Rain 5 988 93 4500 7.2 170 04:31 29.11.2019
3574 Rain 5 988 93 6000 7.7 170 03:21 29.11.2019
3575 Clouds 5 988 93 10000 7.7 170 02:29 29.11.2019
3576 Drizzle 5 988 93 4500 7.2 170 01:51 29.11.2019
3577 Drizzle 5 989 100 3000 7.2 180 01:25 29.11.2019
3578 Drizzle 4 989 100 4500 6.7 170 00:42 29.11.2019
3579 Drizzle 4 989 100 4000 6.2 170 00:20 29.11.2019
3580 Drizzle 4 989 100 3500 6.2 170 23:46 28.11.2019
3581 Drizzle 4 989 100 3500 5.7 170 23:22 28.11.2019
3582 Drizzle 4 989 100 3500 5.7 170 22:59 28.11.2019
3583 Drizzle 4 990 93 4000 6.7 170 22:38 28.11.2019
3584 Drizzle 4 990 93 4000 6.7 170 22:38 28.11.2019
3585 Rain 4 990 93 8000 6.2 170 22:20 28.11.2019
3586 Rain 4 990 93 9000 6.7 170 21:58 28.11.2019
3587 Rain 4 990 93 9000 6.7 170 21:39 28.11.2019
3588 Rain 4 990 93 4000 6.2 180 21:19 28.11.2019
3589 Rain 4 990 93 4000 6.2 180 21:19 28.11.2019
3590 Drizzle 4 990 100 2800 6.7 170 20:56 28.11.2019
3591 Drizzle 4 990 100 2800 6.7 170 20:38 28.11.2019
3592 Drizzle 4 990 93 5000 6.2 170 20:18 28.11.2019
3593 Rain 4 990 93 5000 6.2 170 19:41 28.11.2019
3594 Rain 4 990 93 5000 6.2 170 19:41 28.11.2019
3595 Drizzle 4 990 93 5000 5.7 170 19:23 28.11.2019
3596 Drizzle 4 990 93 5000 5.7 170 18:59 28.11.2019
3597 Rain 4 991 100 5000 5.7 170 18:40 28.11.2019
3598 Drizzle 3 991 100 5000 5.1 170 18:19 28.11.2019
3599 Drizzle 3 991 100 7000 6.2 180 17:59 28.11.2019
3600 Drizzle 3 991 100 5000 5.1 170 17:59 28.11.2019
3601 Drizzle 3 991 100 7000 6.2 180 17:41 28.11.2019
3602 Drizzle 3 991 100 8000 6.2 170 17:23 28.11.2019
3603 Rain 3 991 93 8000 6.2 170 16:58 28.11.2019
3604 Rain 3 991 93 8000 6.2 170 16:38 28.11.2019
3605 Rain 3 992 93 8000 5.1 170 16:19 28.11.2019
3606 Rain 3 992 93 7000 6.7 160 15:42 28.11.2019
3607 Rain 3 992 93 6000 5.7 160 15:21 28.11.2019
3608 Rain 3 992 93 7000 4.6 160 14:59 28.11.2019
3609 Rain 3 992 93 7000 4.6 160 14:41 28.11.2019
3610 Rain 3 993 93 6000 5.1 160 14:22 28.11.2019
3611 Rain 3 993 100 6000 5.1 160 13:58 28.11.2019
3612 Rain 3 993 100 6000 5.1 160 13:40 28.11.2019
3613 Rain 3 993 93 7000 5.1 160 13:21 28.11.2019
3614 -273 0 0 0 0 0 12:45 28.11.2019
3615 Rain 3 993 93 8000 5.7 160 12:27 28.11.2019
3616 Rain 3 994 93 6000 6.7 160 11:58 28.11.2019
3617 Rain 3 994 93 6000 6.7 160 11:40 28.11.2019
3618 Rain 3 994 100 7000 6.2 150 11:20 28.11.2019
3619 Rain 3 995 100 6000 4.6 150 10:56 28.11.2019
3620 Rain 3 995 100 6000 4.6 150 10:38 28.11.2019
3621 Rain 3 995 93 6000 5.1 140 10:18 28.11.2019
3622 Rain 3 995 93 6000 5.1 140 09:41 28.11.2019
3623 Rain 3 996 93 6000 5.7 150 09:22 28.11.2019
3624 Drizzle 3 996 100 2800 5.7 150 08:57 28.11.2019
3625 Drizzle 2 996 100 2800 5.7 150 08:38 28.11.2019
3626 Drizzle 2 996 100 2600 5.1 150 08:19 28.11.2019
3627 Drizzle 2 996 100 2800 4.6 150 07:42 28.11.2019
3628 Drizzle 2 997 100 5000 5.1 160 07:23 28.11.2019
3629 Drizzle 2 997 100 5000 4.6 160 06:50 28.11.2019
3630 Drizzle 2 997 100 5000 4.6 160 06:50 28.11.2019
3631 Drizzle 2 997 100 4000 4.6 160 06:29 28.11.2019
3632 Mist 3 997 93 3500 4.6 170 05:51 28.11.2019
3633 Mist 3 998 93 1500 4.1 160 05:18 28.11.2019
3634 Clouds 3 999 100 5000 4.6 170 02:46 28.11.2019
3635 Mist 3 999 100 3500 4.6 170 01:50 28.11.2019
3636 Mist 3 1000 100 3000 4.6 170 00:48 28.11.2019
3637 Mist 3 1000 100 4000 5.1 170 00:23 28.11.2019
3638 Drizzle 3 1000 100 6000 5.1 170 23:55 27.11.2019
3639 Drizzle 3 1000 100 6000 5.1 170 23:37 27.11.2019
3640 Drizzle 3 1000 100 6000 5.1 170 23:19 27.11.2019
3641 Drizzle 3 1000 100 6000 5.1 170 22:39 27.11.2019
3642 Drizzle 3 1000 100 5000 4.6 170 22:20 27.11.2019
3643 Drizzle 3 1001 100 5000 3.6 160 21:56 27.11.2019
3644 Drizzle 3 1001 100 5000 3.6 160 21:38 27.11.2019
3645 Rain 3 1001 100 4000 3.1 130 21:19 27.11.2019
3646 Rain 3 1001 100 4000 3.1 130 21:19 27.11.2019
3647 Rain 3 1001 100 4000 3.1 130 20:58 27.11.2019
3648 Rain 3 1001 100 10000 3.1 130 20:39 27.11.2019
3649 Rain 2 1001 100 10000 4.1 140 20:21 27.11.2019
3650 Rain 2 1002 93 10000 4.1 150 19:57 27.11.2019
3651 Rain 2 1002 93 10000 4.1 150 19:39 27.11.2019
3652 Rain 2 1002 93 10000 4.6 160 19:21 27.11.2019
3653 Rain 2 1002 93 7000 4.1 150 18:59 27.11.2019
3654 Rain 2 1002 93 7000 4.1 150 18:37 27.11.2019
3655 Rain 2 1002 93 7000 3.6 140 18:19 27.11.2019
3656 Rain 2 1003 100 8000 3.6 140 17:57 27.11.2019
3657 Rain 2 1003 100 8000 3.6 140 17:56 27.11.2019
3658 Rain 2 1003 100 8000 3.6 140 17:37 27.11.2019
3659 Rain 2 1003 100 8000 3.6 140 17:37 27.11.2019
3660 Rain 2 1003 100 8000 3.6 140 17:19 27.11.2019
3661 Rain 2 1003 93 10000 4.6 160 16:56 27.11.2019
3662 Rain 2 1003 93 10000 4.6 160 16:55 27.11.2019
3663 Rain 2 1003 93 10000 4.6 160 16:36 27.11.2019
3664 Rain 2 1003 93 10000 3.6 140 16:18 27.11.2019
3665 Rain 2 1003 100 8000 2.6 110 15:55 27.11.2019
3666 Rain 2 1003 100 8000 2.6 110 15:37 27.11.2019
3667 Rain 1 1004 100 6000 2.1 110 15:18 27.11.2019
3668 Rain 1 1004 100 4000 1.5 100 14:42 27.11.2019
3669 Rain 1 1004 96 5000 1.5 110 14:24 27.11.2019
3670 Rain 1 1004 96 5000 2.1 110 13:59 27.11.2019
3671 Rain 1 1004 93 5000 2.1 110 13:40 27.11.2019
3672 Rain 1 1004 100 4000 2.6 120 13:19 27.11.2019
3673 Rain 1 1004 100 4000 2.6 120 13:19 27.11.2019
3674 Rain 1 1004 100 5000 2.6 120 12:59 27.11.2019
3675 Clouds 1 1004 100 5000 2.6 120 12:40 27.11.2019
3676 Clouds 2 1005 100 9000 2.1 130 12:20 27.11.2019
3677 Clouds 1 1005 100 10000 2.6 150 11:54 27.11.2019
3678 Clouds 1 1005 100 10000 2.6 150 11:54 27.11.2019
3679 Clouds 1 1005 100 10000 3.1 150 11:36 27.11.2019
3680 Clouds 1 1005 100 10000 3.1 150 11:18 27.11.2019
3681 Clouds 1 1005 96 10000 3.1 150 10:42 27.11.2019
3682 Clouds 1 1005 96 10000 3.1 150 10:42 27.11.2019
3683 Drizzle 1 1005 96 10000 3.6 150 10:23 27.11.2019
3684 Clouds 1 1005 100 8000 3.6 150 09:49 27.11.2019
3685 Clouds 1 1005 100 10000 3.1 160 09:26 27.11.2019
3686 Clouds 1 1005 100 10000 2.6 170 08:59 27.11.2019
3687 Clouds 1 1005 100 10000 2.6 170 08:41 27.11.2019
3688 Clouds 1 1005 100 8000 3.6 180 08:22 27.11.2019
3689 Clouds 1 1005 100 8000 3.6 180 08:22 27.11.2019
3690 Clouds 1 1005 100 6000 3.1 190 07:47 27.11.2019
3691 Clouds 1 1006 100 10000 3.1 190 07:28 27.11.2019
3692 Clouds 2 1006 93 10000 3.6 190 06:53 27.11.2019
3693 Drizzle 2 1006 93 10000 1.5 210 06:35 27.11.2019
3694 Drizzle 2 1006 93 9000 1.5 210 05:45 27.11.2019
3695 Drizzle 2 1006 93 9000 1.5 210 05:45 27.11.2019
3696 Drizzle 1 1006 100 8000 2.1 210 05:19 27.11.2019
3697 Drizzle 1 1006 100 5000 3.1 220 04:43 27.11.2019
3698 Drizzle 2 1006 93 4000 4.1 200 03:55 27.11.2019
3699 Drizzle 2 1006 93 4000 4.1 200 03:36 27.11.2019
3700 Drizzle 2 1006 100 4500 4.6 200 03:18 27.11.2019
3701 Drizzle 2 1007 93 7000 4.6 190 01:48 27.11.2019
3702 Drizzle 2 1007 93 5000 5.1 190 00:46 27.11.2019
3703 Drizzle 2 1007 93 5000 5.7 190 00:27 27.11.2019
3704 Drizzle 2 1007 93 3000 5.1 190 23:50 26.11.2019
3705 Drizzle 2 1007 93 2500 5.7 180 23:29 26.11.2019
3706 Drizzle 2 1007 93 2500 5.7 180 22:59 26.11.2019
3707 Drizzle 2 1008 93 3000 5.7 190 22:39 26.11.2019
3708 Drizzle 2 1008 93 3000 4.6 180 22:19 26.11.2019
3709 Drizzle 1 1008 100 4500 4.6 180 21:59 26.11.2019
3710 Drizzle 1 1008 100 4500 4.6 180 21:38 26.11.2019
3711 Rain 1 1008 100 5000 5.1 180 21:19 26.11.2019
3712 Rain 1 1009 100 5000 4.1 180 20:55 26.11.2019
3713 Rain 1 1009 100 5000 4.1 180 20:37 26.11.2019
3714 Drizzle 1 1009 100 4000 4.1 180 20:19 26.11.2019
3715 Drizzle 1 1009 100 3000 5.1 190 19:55 26.11.2019
3716 Drizzle 1 1009 100 3000 5.1 190 19:55 26.11.2019
3717 Drizzle 1 1009 100 3000 4.6 180 19:37 26.11.2019
3718 Drizzle 1 1009 100 3000 4.6 180 19:18 26.11.2019
3719 Drizzle 1 1009 100 3000 4.6 190 18:56 26.11.2019
3720 Drizzle 1 1009 100 3000 4.6 190 18:38 26.11.2019
3721 Drizzle 1 1010 100 3000 4.6 190 18:20 26.11.2019
3722 Drizzle 1 1010 100 4000 5.1 180 17:55 26.11.2019
3723 Drizzle 1 1010 88 8000 4.1 190 17:37 26.11.2019
3724 Drizzle 1 1010 85 8000 4.1 190 17:18 26.11.2019
3725 Clouds 1 1010 85 10000 3.6 190 16:55 26.11.2019
3726 Clouds 1 1010 85 10000 3.6 190 16:37 26.11.2019
3727 Clouds 1 1010 86 10000 3.6 190 16:18 26.11.2019
3728 Clouds 1 1011 86 10000 3.1 190 15:56 26.11.2019
3729 Clouds 1 1011 86 10000 3.1 190 15:37 26.11.2019
3730 Clouds 1 1011 86 10000 3.6 190 15:18 26.11.2019
3731 Clouds 1 1011 86 10000 3.1 200 14:45 26.11.2019
3732 Clouds 1 1011 86 10000 3.1 220 14:24 26.11.2019
3733 Clouds 1 1011 86 10000 3.1 220 13:43 26.11.2019
3734 Clouds 1 1012 86 10000 2.6 210 13:24 26.11.2019
3735 Clouds 1 1012 86 10000 2.1 220 12:57 26.11.2019
3736 Clouds 1 1012 86 10000 2.1 210 12:36 26.11.2019
3737 Clouds 1 1012 86 10000 2.1 210 12:18 26.11.2019
3738 Clouds 1 1012 86 10000 3.1 200 11:55 26.11.2019
3739 Clouds 1 1013 86 10000 2.6 190 11:36 26.11.2019
3740 Clouds 1 1013 86 10000 2.6 190 11:18 26.11.2019
3741 Drizzle 1 1013 86 10000 2.1 200 10:55 26.11.2019
3742 Drizzle 1 1013 83 10000 3.6 210 10:37 26.11.2019
3743 Drizzle 1 1013 83 10000 3.6 210 10:18 26.11.2019
3744 Drizzle 1 1013 83 10000 3.6 210 09:42 26.11.2019
3745 Drizzle 1 1013 86 10000 3.6 200 09:23 26.11.2019
3746 Drizzle 1 1014 86 10000 3.6 180 08:47 26.11.2019
3747 Drizzle 1 1014 86 10000 3.1 190 08:28 26.11.2019
3748 Drizzle 0 1014 86 10000 3.1 190 07:57 26.11.2019
3749 Drizzle 0 1014 86 10000 2.6 220 07:38 26.11.2019
3750 Clouds 0 1014 84 10000 1 200 07:19 26.11.2019
3751 Clouds 0 1014 84 10000 1 200 06:46 26.11.2019
3752 Clouds 0 1015 84 10000 4.92 204 05:59 26.11.2019
3753 Clouds 0 1015 79 10000 1.5 240 05:19 26.11.2019
3754 Clouds 0 1016 79 10000 2.6 180 03:21 26.11.2019
3755 Clouds 0 1017 74 10000 1.5 210 01:37 26.11.2019
3756 Clouds 0 1017 73 10000 2.1 220 01:19 26.11.2019
3757 Clouds 0 1017 73 10000 4.66 212 00:41 26.11.2019
3758 Clouds 0 1017 73 10000 1.5 90 23:59 25.11.2019
3759 Clouds 0 1017 73 10000 1 0 23:38 25.11.2019
3760 Clouds 0 1017 64 10000 1 0 23:19 25.11.2019
3761 Clouds 0 1017 64 10000 1 0 22:40 25.11.2019
3762 Clouds 0 1018 64 9000 2.1 120 22:19 25.11.2019
3763 Clouds 0 1018 64 9000 2.1 120 21:59 25.11.2019
3764 Clouds 0 1018 64 9000 0.5 0 21:41 25.11.2019
3765 Clouds 0 1018 64 9000 1 0 21:23 25.11.2019
3766 Clouds 0 1018 64 10000 1.5 90 20:58 25.11.2019
3767 Clouds 0 1018 64 10000 1.5 90 20:40 25.11.2019
3768 Clouds 0 1018 58 10000 1.5 90 20:20 25.11.2019
3769 Clouds 0 1018 58 8000 1.5 120 19:57 25.11.2019
3770 Clouds 0 1018 58 8000 1.5 120 19:39 25.11.2019
3771 Clouds 0 1019 58 8000 1.5 100 19:20 25.11.2019
3772 Clouds 0 1019 58 7000 1 0 18:58 25.11.2019
3773 Clouds 0 1019 58 8000 1.5 100 18:58 25.11.2019
3774 Clouds 0 1019 58 7000 1 0 18:58 25.11.2019
3775 Clouds 0 1019 58 7000 1 0 18:40 25.11.2019
3776 Clouds 0 1019 58 6000 1 80 18:22 25.11.2019
3777 Mist 0 1019 100 5000 1.5 80 17:58 25.11.2019
3778 Mist 0 1019 100 5000 1.5 80 17:40 25.11.2019
3779 Clouds 0 1019 100 5000 1.5 60 17:22 25.11.2019
3780 Clouds 0 1019 100 5000 1 90 16:59 25.11.2019
3781 Clouds 0 1019 100 5000 1 90 16:59 25.11.2019
3782 Clouds 0 1019 100 5000 1 90 16:41 25.11.2019
3783 Clouds 0 1019 100 5000 1.5 70 16:22 25.11.2019
3784 Clouds -1 1020 100 5000 2.1 70 15:56 25.11.2019
3785 Clouds -1 1020 100 5000 2.1 70 15:37 25.11.2019
3786 Clouds 0 1020 100 6000 2.6 50 15:19 25.11.2019
3787 Clouds 0 1020 100 6000 2.6 50 15:19 25.11.2019
3788 Clouds 0 1020 100 8000 1.5 30 14:44 25.11.2019
3789 Clouds 0 1020 92 10000 1.5 360 14:26 25.11.2019
3790 Clouds 0 1020 59 10000 1.5 40 13:58 25.11.2019
3791 Clouds 0 1020 59 10000 1.5 50 13:38 25.11.2019
3792 Clouds 0 1020 61 10000 1.5 50 13:20 25.11.2019
3793 Clouds 0 1020 61 10000 1.5 50 12:59 25.11.2019
3794 Clouds 0 1020 61 10000 1.5 50 12:59 25.11.2019
3795 Clouds -1 1021 92 10000 1.5 10 12:39 25.11.2019
3796 Clouds -1 1021 92 10000 1.5 40 12:19 25.11.2019
3797 Clouds -1 1021 92 10000 1 0 11:40 25.11.2019
3798 Clouds -1 1021 92 10000 4.97 192 11:21 25.11.2019
3799 Clouds -1 1021 92 10000 4.97 192 11:21 25.11.2019
3800 Clouds -1 1021 92 10000 0.5 0 10:59 25.11.2019
3801 Clouds -1 1021 92 10000 0.5 0 10:41 25.11.2019
3802 Clouds -1 1021 86 10000 1 0 10:20 25.11.2019
3803 Clouds -2 1021 92 10000 1.5 130 09:44 25.11.2019
3804 Clouds -2 1021 92 10000 1.5 130 09:26 25.11.2019
3805 Clouds -3 1021 92 10000 2.1 110 08:58 25.11.2019
3806 Clouds -3 1021 92 10000 2.1 110 08:39 25.11.2019
3807 Clouds -4 1022 92 10000 1.5 80 08:20 25.11.2019
3808 Clouds -4 1022 100 10000 1.5 50 07:41 25.11.2019
3809 Clouds -5 1021 100 10000 1.5 60 07:18 25.11.2019
3810 Clouds -5 1021 92 10000 2.1 50 06:43 25.11.2019
3811 Clouds -5 1022 92 10000 1.5 50 06:19 25.11.2019
3812 Clouds -5 1022 100 10000 2.1 60 05:37 25.11.2019
3813 Clouds -4 1022 92 10000 2.1 60 04:50 25.11.2019
3814 Clouds -5 1023 92 10000 1.5 70 02:48 25.11.2019
3815 Clouds -5 1023 92 10000 1.5 70 01:57 25.11.2019
3816 Clouds -5 1023 92 10000 1.5 70 01:38 25.11.2019
3817 Clouds -4 1023 92 10000 2.1 60 01:19 25.11.2019
3818 Clouds -4 1023 100 10000 2.1 40 00:21 25.11.2019
3819 Clouds -4 1024 92 10000 2.1 60 23:46 24.11.2019
3820 Clouds -4 1024 92 10000 2.1 50 23:21 24.11.2019
3821 Clouds -4 1024 100 10000 2.6 50 22:59 24.11.2019
3822 Clouds -4 1024 100 10000 2.6 50 22:40 24.11.2019
3823 Clouds -4 1023 100 10000 2.1 70 22:20 24.11.2019
3824 Clouds -3 1023 92 10000 2.1 60 21:58 24.11.2019
3825 Clouds -3 1023 92 10000 2.1 60 21:40 24.11.2019
3826 Clouds -3 1024 100 10000 1 0 21:21 24.11.2019
3827 Clouds -3 1024 100 10000 1 0 20:58 24.11.2019
3828 Clouds -2 1024 86 10000 1.5 110 20:38 24.11.2019
3829 Clouds -2 1024 92 10000 1.5 100 20:19 24.11.2019
3830 Clouds -2 1024 86 10000 1.5 80 19:56 24.11.2019
3831 Clouds -2 1024 86 10000 1.5 80 19:38 24.11.2019
3832 Clouds -2 1024 86 10000 1.5 90 19:20 24.11.2019
3833 Clouds -1 1025 86 10000 2.1 80 18:58 24.11.2019
3834 Clouds -1 1025 86 10000 2.6 70 18:37 24.11.2019
3835 Clouds -1 1025 86 10000 2.6 70 18:19 24.11.2019
3836 Clouds -1 1025 86 10000 2.6 70 18:19 24.11.2019
3837 Clouds -1 1025 86 10000 2.6 60 17:56 24.11.2019
3838 Clouds -1 1025 86 10000 2.6 60 17:37 24.11.2019
3839 Clouds -1 1025 80 10000 2.6 70 17:19 24.11.2019
3840 Clouds -1 1025 80 10000 2.6 80 16:57 24.11.2019
3841 Clouds -1 1025 80 10000 2.6 80 16:38 24.11.2019
3842 Clouds -1 1025 80 10000 2.6 70 16:19 24.11.2019
3843 Clouds -1 1025 80 10000 2.1 0 15:43 24.11.2019
3844 Clouds -1 1025 80 10000 2.6 80 15:25 24.11.2019
3845 Clouds -1 1025 80 10000 2.6 80 14:58 24.11.2019
3846 Clouds -1 1025 80 10000 2.6 80 14:38 24.11.2019
3847 Clouds -1 1025 80 10000 2.6 90 14:18 24.11.2019
3848 Clouds 0 1025 60 10000 2.6 90 13:41 24.11.2019
3849 Clouds 0 1025 59 10000 2.6 100 13:22 24.11.2019
3850 Clouds 0 1025 59 10000 2.6 100 12:59 24.11.2019
3851 Clouds 0 1025 59 10000 2.6 100 12:41 24.11.2019
3852 Clouds 0 1025 59 10000 3.1 100 12:19 24.11.2019
3853 Clouds -1 1026 86 10000 2.6 110 11:56 24.11.2019
3854 Clouds -1 1026 86 10000 2.6 110 11:37 24.11.2019
3855 Clouds -1 1026 86 10000 2.1 70 11:18 24.11.2019
3856 Clouds -1 1026 86 10000 1.5 70 10:46 24.11.2019
3857 Clouds -1 1026 92 10000 2.6 80 10:28 24.11.2019
3858 Clouds -1 1026 86 10000 2.6 70 09:57 24.11.2019
3859 Clouds -1 1026 86 10000 2.6 70 09:37 24.11.2019
3860 Clouds -2 1026 86 10000 3.1 70 09:18 24.11.2019
3861 Clouds -2 1026 92 10000 2.1 50 08:44 24.11.2019
3862 Clouds -3 1026 86 10000 2.6 50 08:22 24.11.2019
3863 Clouds -3 1026 92 10000 2.1 50 07:57 24.11.2019
3864 Clouds -3 1026 92 10000 2.6 70 07:37 24.11.2019
3865 Clouds -3 1026 92 10000 2.6 70 07:19 24.11.2019
3866 Clouds -2 1026 86 10000 2.6 70 06:19 24.11.2019
3867 Clouds -2 1026 86 10000 2.6 70 06:19 24.11.2019
3868 Clouds -2 1026 86 10000 2.6 60 04:48 24.11.2019
3869 Clear -2 1026 86 10000 2.6 70 03:33 24.11.2019
3870 Clear -2 1026 86 10000 1.5 70 03:33 24.11.2019
3871 Clouds -2 1027 92 10000 2.6 60 01:59 24.11.2019
3872 Clouds -2 1027 92 10000 2.1 50 01:40 24.11.2019
3873 Clouds -2 1027 86 10000 1.5 60 01:21 24.11.2019
3874 Clouds -2 1027 92 10000 2.1 70 00:47 24.11.2019
3875 Clouds -2 1027 100 10000 1.5 70 00:23 24.11.2019
3876 Clouds -2 1027 100 10000 1.5 70 00:23 24.11.2019
3877 Clouds -2 1027 92 10000 1 70 23:45 23.11.2019
3878 Clouds -2 1027 92 10000 1.5 100 23:23 23.11.2019
3879 Clouds -2 1027 92 10000 1.5 110 22:59 23.11.2019
3880 Clouds -2 1027 92 10000 1.5 110 22:59 23.11.2019
3881 Clouds -2 1027 92 10000 1.5 110 22:40 23.11.2019
3882 Clouds -2 1027 92 10000 2.1 90 22:22 23.11.2019
3883 Clouds -1 1027 86 10000 2.1 90 21:59 23.11.2019
3884 Clouds -1 1027 86 10000 2.1 90 21:40 23.11.2019
3885 Clouds -1 1027 86 10000 2.1 80 21:22 23.11.2019
3886 Clouds -1 1027 86 10000 2.6 100 20:55 23.11.2019
3887 Clouds -1 1027 86 10000 2.6 100 20:36 23.11.2019
3888 Clouds -1 1027 86 10000 2.1 70 20:18 23.11.2019
3889 Clouds -1 1027 86 10000 2.6 70 19:54 23.11.2019
3890 Clouds -1 1027 80 10000 2.1 90 19:36 23.11.2019
3891 Clouds -1 1027 80 10000 2.1 90 19:18 23.11.2019
3892 Clouds -1 1027 80 10000 2.6 70 18:39 23.11.2019
3893 Clouds 0 1027 80 10000 2.6 80 18:20 23.11.2019
3894 Clouds 0 1027 80 10000 2.6 80 18:20 23.11.2019
3895 Clouds 0 1027 80 10000 2.6 80 18:20 23.11.2019
3896 Clouds -1 1027 80 10000 2.1 80 17:54 23.11.2019
3897 Clouds -1 1027 80 10000 2.1 80 17:36 23.11.2019
3898 Clouds -1 1027 80 10000 2.1 80 17:36 23.11.2019
3899 Clouds -1 1027 80 10000 2.1 70 17:18 23.11.2019
3900 Clouds -1 1027 80 10000 2.1 80 16:55 23.11.2019
3901 Clouds 0 1027 80 10000 2.1 80 16:36 23.11.2019
3902 Clouds 0 1027 80 10000 2.1 80 16:36 23.11.2019
3903 Clouds 0 1027 80 10000 2.6 70 16:18 23.11.2019
3904 Clouds 0 1027 55 10000 2.6 80 15:54 23.11.2019
3905 Clouds 0 1027 55 10000 2.6 80 15:54 23.11.2019
3906 Clouds 0 1027 55 10000 2.6 80 15:36 23.11.2019
3907 Clouds 0 1027 55 10000 2.6 90 15:18 23.11.2019
3908 Clouds 0 1027 55 10000 3.1 110 14:42 23.11.2019
3909 Clouds 0 1027 54 10000 2.6 110 14:21 23.11.2019
3910 Clouds 0 1027 54 10000 2.6 110 14:21 23.11.2019
3911 Clouds 0 1027 54 10000 4.1 110 13:57 23.11.2019
3912 Clouds 1 1027 54 10000 4.1 110 13:38 23.11.2019
3913 Clouds 1 1028 59 10000 3.1 120 13:18 23.11.2019
3914 Clouds 1 1028 59 10000 3.6 110 12:43 23.11.2019
3915 Clouds 1 1028 64 10000 3.1 120 12:24 23.11.2019
3916 Clouds 1 1028 59 10000 3.6 130 11:45 23.11.2019
3917 Clouds 1 1028 59 10000 3.1 120 11:24 23.11.2019
3918 Clouds 1 1028 53 10000 3.1 120 10:57 23.11.2019
3919 Clouds 1 1028 53 10000 3.1 120 10:39 23.11.2019
3920 Clouds 0 1028 53 10000 3.1 130 10:18 23.11.2019
3921 Clouds 0 1028 53 10000 3.6 120 09:41 23.11.2019
3922 Clouds 0 1028 53 10000 3.1 130 09:18 23.11.2019
3923 Clouds 0 1028 53 10000 3.1 120 08:41 23.11.2019
3924 Clouds 0 1028 53 10000 3.1 120 08:41 23.11.2019
3925 Clouds 0 1028 53 10000 2.6 110 08:19 23.11.2019
3926 Clouds 0 1028 53 10000 3.1 130 07:42 23.11.2019
3927 Clouds 0 1028 53 10000 3.6 120 07:00 23.11.2019
3928 Clouds 0 1028 53 10000 3.6 120 06:40 23.11.2019
3929 Clouds 0 1028 53 10000 3.1 120 06:19 23.11.2019
3930 Clouds 0 1028 53 10000 2.6 120 05:41 23.11.2019
3931 Clouds 0 1028 60 10000 2.6 120 05:22 23.11.2019
3932 Clouds 0 1028 60 10000 2.6 110 04:34 23.11.2019
3933 Clouds 0 1028 60 10000 2.1 110 03:32 23.11.2019
3934 Clouds 0 1028 60 10000 3.1 130 02:39 23.11.2019
3935 Clouds 0 1028 60 10000 3.1 130 02:39 23.11.2019
3936 Clouds 0 1029 64 10000 4.1 130 01:41 23.11.2019
3937 Clouds 0 1029 61 10000 3.6 120 00:49 23.11.2019
3938 Clouds 0 1029 61 10000 3.6 120 00:21 23.11.2019
3939 Clouds 0 1029 61 10000 3.6 110 23:56 22.11.2019
3940 Clouds 0 1029 61 10000 3.1 120 23:37 22.11.2019
3941 Clouds 0 1029 65 10000 3.1 120 23:18 22.11.2019
3942 Clouds 0 1029 65 10000 3.6 120 22:55 22.11.2019
3943 Clouds 0 1029 65 10000 3.6 120 22:37 22.11.2019
3944 Clouds 0 1029 65 10000 3.6 120 22:18 22.11.2019
3945 Clouds 0 1029 65 10000 3.6 120 22:18 22.11.2019
3946 Clouds 0 1029 86 10000 3.6 110 21:41 22.11.2019
3947 Clouds 0 1029 86 10000 4.1 120 21:21 22.11.2019
3948 Clouds 0 1029 80 10000 5.1 130 20:55 22.11.2019
3949 Clouds 0 1029 80 10000 5.1 130 20:37 22.11.2019
3950 Clouds 0 1029 86 10000 5.1 140 20:19 22.11.2019
3951 Clouds 0 1029 86 10000 4.6 120 19:40 22.11.2019
3952 Clouds 0 1029 66 10000 4.6 120 19:21 22.11.2019
3953 Clouds 0 1029 66 10000 4.6 120 18:59 22.11.2019
3954 Clouds 0 1029 66 10000 5.7 120 18:38 22.11.2019
3955 Clouds 0 1029 66 10000 5.7 120 18:20 22.11.2019
3956 Clouds 0 1029 66 10000 5.1 110 17:42 22.11.2019
3957 Clouds 0 1029 72 10000 6.2 120 17:23 22.11.2019
3958 Clouds 0 1029 72 10000 6.2 110 16:55 22.11.2019
3959 Clouds 0 1029 72 10000 6.2 110 16:37 22.11.2019
3960 Clouds 0 1029 72 10000 6.2 110 16:18 22.11.2019
3961 Clouds 0 1029 72 10000 5.7 110 15:39 22.11.2019
3962 Clouds 0 1029 72 10000 6.7 130 15:20 22.11.2019
3963 Clouds 0 1029 72 10000 5.1 110 14:54 22.11.2019
3964 Clouds 0 1029 72 10000 5.1 110 14:36 22.11.2019
3965 Clouds 0 1029 72 10000 5.1 110 14:36 22.11.2019
3966 Clouds 1 1029 80 10000 5.1 120 14:18 22.11.2019
3967 Clouds 1 1029 80 10000 5.1 120 14:18 22.11.2019
3968 Clouds 1 1029 80 10000 5.1 120 13:39 22.11.2019
3969 Clouds 1 1029 80 10000 6.2 120 13:20 22.11.2019
3970 Clouds 1 1030 74 10000 4.1 120 12:58 22.11.2019
3971 Clouds 1 1030 74 10000 4.1 120 12:58 22.11.2019
3972 Clouds 1 1030 74 10000 4.1 120 12:40 22.11.2019
3973 Clouds 1 1030 74 10000 4.6 120 12:19 22.11.2019
3974 Clouds 1 1030 74 10000 4.1 120 11:57 22.11.2019
3975 Clouds 1 1030 74 10000 4.1 120 11:37 22.11.2019
3976 Clouds 1 1030 74 10000 4.6 130 11:18 22.11.2019
3977 Clouds 1 1030 74 10000 4.6 140 10:55 22.11.2019
3978 Clouds 1 1030 74 10000 4.6 140 10:37 22.11.2019
3979 Clouds 1 1030 74 10000 4.6 140 10:18 22.11.2019
3980 Clouds 1 1030 80 10000 5.7 150 09:41 22.11.2019
3981 Clouds 1 1030 74 10000 5.1 130 09:22 22.11.2019
3982 Clouds 2 1030 74 10000 5.7 120 08:58 22.11.2019
3983 Clouds 2 1030 74 10000 5.7 120 08:38 22.11.2019
3984 Clouds 2 1030 74 10000 5.7 120 08:38 22.11.2019
3985 Clouds 2 1030 74 10000 5.7 120 08:38 22.11.2019
3986 Clouds 2 1030 74 10000 5.1 130 08:20 22.11.2019
3987 Clouds 2 1030 74 10000 5.7 140 07:42 22.11.2019
3988 Clouds 2 1030 74 10000 5.1 130 07:20 22.11.2019
3989 Clouds 3 1030 69 10000 6.2 120 06:47 22.11.2019
3990 Clouds 3 1030 74 10000 5.7 130 06:27 22.11.2019
3991 Clouds 3 1030 74 10000 5.7 140 05:37 22.11.2019
3992 Clouds 3 1030 79 10000 5.1 150 03:26 22.11.2019
3993 Drizzle 3 1030 86 10000 4.6 150 02:43 22.11.2019
3994 Drizzle 3 1030 86 10000 5.7 150 02:23 22.11.2019
3995 Drizzle 4 1030 80 10000 6.2 150 01:43 22.11.2019
3996 Clouds 4 1030 80 10000 7.2 150 01:18 22.11.2019
3997 Clouds 4 1030 80 10000 5.7 150 00:43 22.11.2019
3998 Clouds 4 1030 80 10000 6.2 150 00:22 22.11.2019
3999 Clouds 4 1031 80 10000 6.7 150 23:43 21.11.2019
4000 Clouds 4 1031 86 10000 5.7 140 23:24 21.11.2019
4001 Drizzle 4 1031 86 10000 6.2 140 22:56 21.11.2019
4002 Drizzle 4 1031 86 10000 6.2 140 22:38 21.11.2019
4003 Rain 4 1031 86 10000 5.7 130 22:19 21.11.2019
4004 Clouds 4 1031 86 10000 3.1 130 21:55 21.11.2019
4005 Clouds 4 1031 86 10000 3.1 130 21:36 21.11.2019
4006 Rain 4 1031 93 10000 4.1 160 21:18 21.11.2019
4007 Rain 4 1031 86 10000 5.7 140 20:57 21.11.2019
4008 Rain 4 1031 86 10000 5.7 140 20:37 21.11.2019
4009 Rain 4 1031 86 10000 5.1 140 20:18 21.11.2019
4010 Rain 4 1031 75 10000 6.7 140 19:56 21.11.2019
4011 Rain 4 1031 75 10000 6.7 140 19:37 21.11.2019
4012 Clouds 5 1031 74 10000 5.7 140 19:19 21.11.2019
4013 Clouds 4 1032 74 10000 5.7 150 18:42 21.11.2019
4014 Clouds 4 1032 74 10000 5.7 150 18:42 21.11.2019
4015 Clouds 4 1032 74 10000 5.7 140 18:21 21.11.2019
4016 Clouds 4 1032 74 10000 5.7 140 17:58 21.11.2019
4017 Clouds 4 1032 74 10000 5.7 140 17:39 21.11.2019
4018 Clouds 4 1032 76 10000 5.1 160 17:21 21.11.2019
4019 Clouds 4 1032 76 10000 5.1 150 16:58 21.11.2019
4020 Clouds 4 1032 76 10000 5.1 150 16:40 21.11.2019
4021 Clouds 4 1032 76 10000 5.1 150 16:20 21.11.2019
4022 Clouds 4 1032 76 10000 5.1 150 15:55 21.11.2019
4023 Clouds 4 1032 69 10000 6.2 150 15:37 21.11.2019
4024 Clouds 4 1032 69 10000 6.7 140 15:18 21.11.2019
4025 Clouds 4 1032 76 10000 5.7 130 14:39 21.11.2019
4026 Clouds 4 1032 77 10000 5.1 140 14:20 21.11.2019
4027 Clouds 4 1033 77 10000 6.2 150 13:59 21.11.2019
4028 Clouds 4 1033 77 10000 6.2 150 13:38 21.11.2019
4029 Clouds 4 1033 77 10000 6.2 150 13:19 21.11.2019
4030 Clouds 4 1033 77 10000 6.7 140 12:43 21.11.2019
4031 Clouds 3 1033 77 10000 5.7 130 12:24 21.11.2019
4032 Clouds 3 1033 77 10000 5.1 140 11:59 21.11.2019
4033 Clouds 3 1033 77 10000 5.1 140 11:40 21.11.2019
4034 Clouds 3 1033 80 10000 7.2 140 11:21 21.11.2019
4035 Clouds 3 1033 80 10000 6.7 140 10:55 21.11.2019
4036 Clouds 3 1033 80 10000 6.7 140 10:37 21.11.2019
4037 Clouds 3 1033 80 10000 6.7 140 10:37 21.11.2019
4038 Drizzle 3 1033 93 10000 6.7 140 10:19 21.11.2019
4039 Drizzle 3 1033 93 10000 6.2 120 09:43 21.11.2019
4040 Clouds 4 1033 86 10000 3.6 120 09:23 21.11.2019
4041 Clouds 4 1033 86 10000 4.1 110 08:58 21.11.2019
4042 Clouds 4 1033 86 10000 4.1 110 08:39 21.11.2019
4043 Clouds 4 1033 86 10000 6.2 110 08:18 21.11.2019
4044 Clouds 4 1033 86 10000 6.2 110 07:40 21.11.2019
4045 Clouds 4 1033 86 10000 6.2 120 07:18 21.11.2019
4046 Clouds 5 1033 86 10000 4.6 120 06:47 21.11.2019
4047 Clouds 5 1033 86 10000 4.6 120 06:28 21.11.2019
4048 Clouds 5 1033 86 10000 4.6 110 05:27 21.11.2019
4049 Clouds 5 1033 86 10000 3.6 160 03:31 21.11.2019
4050 Clouds 5 1033 93 10000 3.1 130 02:40 21.11.2019
4051 Clouds 5 1033 86 10000 5.1 130 01:53 21.11.2019
4052 Clouds 5 1033 86 10000 3.6 120 01:23 21.11.2019
4053 Clouds 5 1033 86 10000 3.6 110 00:52 21.11.2019
4054 Clouds 5 1033 86 10000 2.6 110 00:20 21.11.2019
4055 Clouds 5 1033 86 10000 2.6 100 23:51 20.11.2019
4056 Clouds 5 1033 86 10000 2.1 110 23:23 20.11.2019
4057 Clouds 5 1033 86 10000 2.1 110 22:59 20.11.2019
4058 Clouds 5 1033 86 10000 3.1 110 22:41 20.11.2019
4059 Clouds 5 1033 86 10000 4.1 100 22:20 20.11.2019
4060 Clouds 5 1033 86 10000 3.1 90 21:59 20.11.2019
4061 Clouds 5 1033 86 10000 3.1 90 21:59 20.11.2019
4062 Clouds 5 1033 86 10000 3.1 90 21:40 20.11.2019
4063 Clouds 5 1033 93 10000 2.6 90 21:22 20.11.2019
4064 Clouds 5 1033 93 10000 2.6 100 20:58 20.11.2019
4065 Clouds 5 1033 93 10000 2.6 100 20:40 20.11.2019
4066 Clouds 5 1033 93 10000 3.6 120 20:22 20.11.2019
4067 Clouds 5 1033 93 10000 3.1 130 19:59 20.11.2019
4068 Clouds 5 1033 93 10000 3.1 130 19:37 20.11.2019
4069 Clouds 5 1033 93 10000 4.1 140 19:19 20.11.2019
4070 Clouds 5 1033 93 10000 4.1 140 18:59 20.11.2019
4071 Clouds 5 1032 93 10000 4.1 140 18:40 20.11.2019
4072 Clouds 5 1032 93 10000 4.1 130 18:21 20.11.2019
4073 Clouds 5 1032 93 10000 4.1 130 17:58 20.11.2019
4074 Clouds 6 1032 87 10000 4.1 140 17:39 20.11.2019
4075 Clouds 6 1032 87 10000 4.1 130 17:20 20.11.2019
4076 Clouds 6 1032 93 10000 4.1 130 16:57 20.11.2019
4077 Clouds 6 1032 93 10000 4.1 130 16:39 20.11.2019
4078 Clouds 6 1032 93 10000 4.1 140 16:19 20.11.2019
4079 Clouds 6 1031 93 10000 4.1 150 15:56 20.11.2019
4080 Clouds 6 1031 93 10000 4.1 150 15:56 20.11.2019
4081 Clouds 6 1031 93 10000 4.1 150 15:38 20.11.2019
4082 Clouds 6 1031 93 10000 3.6 140 15:18 20.11.2019
4083 Clouds 6 1031 93 10000 3.6 180 14:40 20.11.2019
4084 Clouds 6 1031 93 10000 3.6 180 14:22 20.11.2019
4085 Clouds 6 1031 93 10000 3.6 180 14:22 20.11.2019
4086 Clouds 6 1031 93 10000 3.6 180 14:22 20.11.2019
4087 Clouds 6 1031 93 10000 3.6 180 14:22 20.11.2019
4088 Clouds 6 1031 93 10000 3.6 180 14:22 20.11.2019
4089 Clouds 6 1031 93 10000 3.1 150 13:58 20.11.2019
4090 Clouds 6 1031 93 10000 3.1 150 13:39 20.11.2019
4091 Clouds 6 1030 93 10000 3.6 150 13:20 20.11.2019
4092 Clouds 6 1030 93 10000 3.6 150 12:57 20.11.2019
4093 Clouds 6 1030 93 10000 3.6 150 12:37 20.11.2019
4094 Clouds 6 1030 93 10000 4.1 160 12:19 20.11.2019
4095 Clouds 6 1030 93 10000 4.1 160 11:45 20.11.2019
4096 Clouds 6 1029 93 10000 4.1 160 11:22 20.11.2019
4097 Clouds 6 1029 93 10000 5.1 150 10:56 20.11.2019
4098 Clouds 6 1029 93 10000 5.1 150 10:38 20.11.2019
4099 Clouds 6 1029 93 10000 5.1 160 10:20 20.11.2019
4100 Clouds 6 1029 93 10000 5.1 160 09:55 20.11.2019
4101 Clouds 6 1029 93 10000 5.1 160 09:37 20.11.2019
4102 Clouds 6 1028 93 10000 5.1 160 09:18 20.11.2019
4103 Clouds 6 1028 93 10000 5.1 160 08:39 20.11.2019
4104 Clouds 6 1028 93 10000 5.7 160 08:21 20.11.2019
4105 Clouds 6 1027 93 10000 5.1 160 07:48 20.11.2019
4106 Clouds 6 1027 93 10000 5.1 160 07:28 20.11.2019
4107 Clouds 6 1027 100 10000 5.7 160 06:50 20.11.2019
4108 Clouds 6 1027 100 10000 5.1 160 06:22 20.11.2019
4109 Drizzle 5 1027 100 9000 5.1 150 05:51 20.11.2019
4110 Drizzle 5 1026 93 6000 5.1 140 03:52 20.11.2019
4111 Drizzle 5 1025 93 4000 5.1 130 02:22 20.11.2019
4112 Drizzle 5 1025 93 9000 4.6 140 01:33 20.11.2019
4113 Drizzle 5 1025 93 9000 4.6 150 00:43 20.11.2019
4114 Drizzle 5 1025 93 9000 4.6 170 23:59 19.11.2019
4115 Drizzle 6 1025 93 8000 5.7 170 23:36 19.11.2019
4116 Drizzle 6 1025 93 7000 5.7 160 23:18 19.11.2019
4117 Clouds 6 1024 93 10000 6.2 140 22:42 19.11.2019
4118 Clouds 6 1024 87 10000 5.7 150 22:19 19.11.2019
4119 Clouds 6 1024 93 10000 5.1 140 21:57 19.11.2019
4120 Clouds 6 1024 93 10000 5.1 140 21:38 19.11.2019
4121 Clouds 6 1024 93 10000 5.1 140 21:20 19.11.2019
4122 Clouds 6 1024 93 10000 4.6 140 20:57 19.11.2019
4123 Clouds 6 1024 93 10000 5.1 140 20:57 19.11.2019
4124 Clouds 6 1024 93 10000 4.6 140 20:39 19.11.2019
4125 Clouds 6 1024 93 10000 5.1 140 20:20 19.11.2019
4126 Clouds 6 1023 93 10000 5.1 140 19:57 19.11.2019
4127 Clouds 6 1023 93 10000 5.1 140 19:57 19.11.2019
4128 Clouds 6 1023 93 10000 5.1 140 19:39 19.11.2019
4129 Clouds 6 1023 93 10000 5.1 140 19:19 19.11.2019
4130 Clouds 6 1023 93 10000 5.1 140 18:56 19.11.2019
4131 Clouds 6 1023 87 10000 5.1 140 18:38 19.11.2019
4132 Clouds 6 1023 87 10000 6.2 140 18:18 19.11.2019
4133 Clouds 6 1023 93 10000 5.1 130 17:56 19.11.2019
4134 Clouds 6 1023 93 10000 5.1 130 17:37 19.11.2019
4135 Drizzle 6 1023 93 10000 6.2 140 17:18 19.11.2019
4136 Clouds 6 1023 93 10000 5.7 140 16:43 19.11.2019
4137 Clouds 6 1022 93 10000 5.1 130 16:24 19.11.2019
4138 Clouds 6 1022 93 10000 5.1 130 15:59 19.11.2019
4139 Drizzle 6 1022 93 10000 5.1 120 15:39 19.11.2019
4140 Drizzle 6 1022 93 10000 5.1 120 15:39 19.11.2019
4141 Drizzle 6 1022 87 10000 5.1 140 15:21 19.11.2019
4142 Drizzle 6 1022 87 10000 5.1 140 14:56 19.11.2019
4143 Clouds 6 1022 87 10000 5.1 140 14:56 19.11.2019
4144 Clouds 6 1022 87 10000 5.1 140 14:37 19.11.2019
4145 Clouds 6 1022 87 10000 5.1 140 14:19 19.11.2019
4146 Clouds 6 1022 87 10000 5.7 140 13:40 19.11.2019
4147 Clouds 6 1022 87 10000 6.2 140 13:19 19.11.2019
4148 Clouds 6 1021 87 10000 6.2 150 12:41 19.11.2019
4149 Clouds 6 1021 81 10000 5.7 140 12:22 19.11.2019
4150 Clouds 7 1021 81 10000 4.6 150 11:58 19.11.2019
4151 Clouds 7 1021 81 10000 4.6 150 11:38 19.11.2019
4152 Clouds 7 1021 81 10000 5.7 150 11:19 19.11.2019
4153 Clouds 7 1021 81 10000 6.7 140 10:48 19.11.2019
4154 Clouds 7 1021 81 10000 6.7 130 10:23 19.11.2019
4155 Clouds 7 1021 81 10000 6.7 130 10:23 19.11.2019
4156 Clouds 7 1021 87 10000 7.2 140 09:58 19.11.2019
4157 Clouds 6 1021 87 10000 7.2 140 09:40 19.11.2019
4158 Clouds 6 1021 93 10000 6.2 140 09:19 19.11.2019
4159 Clouds 6 1020 93 10000 6.2 140 08:41 19.11.2019
4160 Clouds 6 1020 93 10000 5.7 120 08:23 19.11.2019
4161 Clouds 6 1020 87 10000 6.2 130 07:57 19.11.2019
4162 Clouds 6 1020 87 10000 6.2 130 07:39 19.11.2019
4163 Clouds 6 1020 87 10000 6.2 130 07:20 19.11.2019
4164 Clouds 6 1020 93 10000 5.1 120 06:50 19.11.2019
4165 Clouds 6 1020 93 10000 5.1 120 06:30 19.11.2019
4166 Clouds 7 1020 93 10000 6.2 120 05:28 19.11.2019
4167 Rain 7 1020 93 10000 6.2 120 03:50 19.11.2019
4168 Rain 6 1020 100 8000 5.7 110 03:31 19.11.2019
4169 Rain 6 1020 100 8000 5.7 100 02:55 19.11.2019
4170 Rain 6 1020 93 10000 4.1 100 01:59 19.11.2019
4171 Drizzle 6 1021 100 6000 4.6 100 01:27 19.11.2019
4172 Drizzle 6 1021 93 4000 5.7 110 00:21 19.11.2019
4173 Drizzle 6 1021 93 3500 6.2 100 23:56 18.11.2019
4174 Drizzle 6 1021 93 3500 6.2 100 23:37 18.11.2019
4175 Drizzle 6 1021 100 3500 5.7 100 23:18 18.11.2019
4176 Drizzle 6 1021 100 3500 5.7 90 22:42 18.11.2019
4177 Drizzle 6 1021 93 3500 6.2 90 22:23 18.11.2019
4178 Drizzle 6 1021 93 4000 6.2 80 21:55 18.11.2019
4179 Drizzle 6 1021 93 4000 6.2 80 21:36 18.11.2019
4180 Drizzle 6 1022 100 5000 6.2 80 21:18 18.11.2019
4181 Drizzle 6 1022 93 9000 5.1 80 20:42 18.11.2019
4182 Clouds 6 1022 93 10000 6.2 80 20:20 18.11.2019
4183 Clouds 6 1022 100 10000 6.2 80 19:58 18.11.2019
4184 Clouds 6 1022 100 10000 6.2 80 19:39 18.11.2019
4185 Clouds 6 1022 100 10000 5.7 80 19:21 18.11.2019
4186 Clouds 6 1022 100 10000 5.7 80 18:58 18.11.2019
4187 Clouds 6 1023 93 9000 4.6 80 18:39 18.11.2019
4188 Clouds 6 1023 93 8000 5.1 80 18:20 18.11.2019
4189 Clouds 6 1023 93 8000 5.1 80 18:20 18.11.2019
4190 Clouds 6 1023 93 8000 5.1 80 17:59 18.11.2019
4191 Clouds 6 1023 93 8000 5.1 70 17:38 18.11.2019
4192 Clouds 5 1023 100 7000 5.7 70 17:19 18.11.2019
4193 Clouds 5 1023 100 7000 5.7 70 17:19 18.11.2019
4194 Clouds 5 1023 100 6000 4.6 60 16:43 18.11.2019
4195 Clouds 5 1023 100 6000 5.7 70 16:25 18.11.2019
4196 Clouds 5 1023 100 6000 5.7 70 16:25 18.11.2019
4197 Clouds 5 1023 100 6000 5.7 70 15:59 18.11.2019
4198 Mist 5 1024 100 5000 4.1 80 15:41 18.11.2019
4199 Mist 5 1024 100 5000 4.1 80 15:41 18.11.2019
4200 Mist 5 1023 100 5000 4.1 70 15:22 18.11.2019
4201 Clouds 5 1024 100 6000 3.6 80 14:59 18.11.2019
4202 Clouds 5 1024 100 6000 3.6 80 14:41 18.11.2019
4203 Clouds 5 1024 100 6000 4.1 100 14:22 18.11.2019
4204 Clouds 5 1024 100 6000 3.6 90 13:45 18.11.2019
4205 Clouds 5 1024 100 6000 3.6 90 13:27 18.11.2019
4206 Clouds 5 1024 93 7000 4.1 90 13:27 18.11.2019
4207 Clouds 6 1024 93 8000 3.1 90 12:57 18.11.2019
4208 Clouds 6 1024 93 8000 3.1 90 12:37 18.11.2019
4209 Clouds 6 1024 93 8000 3.6 90 12:18 18.11.2019
4210 Clouds 6 1024 93 8000 4.6 110 11:43 18.11.2019
4211 Mist 5 1024 100 1500 3.1 120 11:25 18.11.2019
4212 Fog 5 1024 100 800 4.1 120 10:46 18.11.2019
4213 Fog 5 1024 100 800 4.1 120 10:27 18.11.2019
4214 Mist 4 1024 100 1000 1.5 120 09:59 18.11.2019
4215 Fog 3 1024 100 200 1.5 90 09:39 18.11.2019
4216 Fog 3 1024 93 400 1.5 80 09:21 18.11.2019
4217 Fog 2 1024 93 800 2.1 130 08:59 18.11.2019
4218 Fog 2 1024 93 800 2.1 130 08:41 18.11.2019
4219 Clouds 1 1023 87 10000 1.5 90 08:20 18.11.2019
4220 Clouds 2 1023 87 10000 1 0 07:47 18.11.2019
4221 Clouds 2 1023 87 10000 1 0 07:47 18.11.2019
4222 Clouds 2 1023 100 10000 1 0 07:27 18.11.2019
4223 Clouds 2 1023 87 10000 1 0 06:49 18.11.2019
4224 Clouds 2 1023 93 10000 1 0 06:29 18.11.2019
4225 Clouds 3 1023 100 10000 1 0 05:47 18.11.2019
4226 Clouds 5 1022 86 10000 3.6 210 04:39 18.11.2019
4227 Clouds 7 1022 81 10000 4.1 210 01:49 18.11.2019
4228 Clouds 7 1022 87 10000 4.1 210 01:31 18.11.2019
4229 Clouds 7 1021 87 10000 4.1 210 00:22 18.11.2019
4230 Clouds 7 1021 93 10000 3.6 200 23:43 17.11.2019
4231 Clouds 7 1021 87 10000 4.1 210 23:24 17.11.2019
4232 Clouds 7 1021 87 10000 4.6 190 22:58 17.11.2019
4233 Clouds 7 1021 87 10000 4.6 190 22:40 17.11.2019
4234 Clouds 7 1021 87 10000 4.1 210 22:22 17.11.2019
4235 Clouds 7 1021 87 10000 4.1 210 21:57 17.11.2019
4236 Clouds 7 1020 93 10000 3.6 210 21:39 17.11.2019
4237 Drizzle 7 1020 93 10000 2.6 200 21:19 17.11.2019
4238 Clouds 7 1020 93 10000 3.6 200 20:56 17.11.2019
4239 Clouds 7 1020 93 10000 3.6 200 20:37 17.11.2019
4240 Clouds 7 1019 87 10000 4.1 200 20:19 17.11.2019
4241 Clouds 7 1019 87 10000 5.1 190 19:56 17.11.2019
4242 Clouds 7 1019 87 10000 5.1 190 19:37 17.11.2019
4243 Clouds 7 1019 87 10000 5.1 190 19:19 17.11.2019
4244 Clouds 8 1019 87 10000 6.2 190 18:54 17.11.2019
4245 Clouds 8 1019 87 10000 6.2 190 18:36 17.11.2019
4246 Clouds 8 1019 87 10000 6.2 190 18:36 17.11.2019
4247 Clouds 8 1019 87 10000 5.7 190 18:18 17.11.2019
4248 Clouds 8 1018 87 10000 7.2 190 17:57 17.11.2019
4249 Clouds 8 1018 87 10000 7.2 190 17:38 17.11.2019
4250 Clouds 8 1018 87 10000 6.7 200 17:19 17.11.2019
4251 Drizzle 8 1018 87 10000 6.7 190 16:55 17.11.2019
4252 Drizzle 8 1018 87 10000 6.7 190 16:37 17.11.2019
4253 Drizzle 8 1018 87 10000 6.7 190 16:19 17.11.2019
4254 Drizzle 7 1018 87 10000 7.7 190 15:54 17.11.2019
4255 Drizzle 7 1018 87 10000 7.7 190 15:36 17.11.2019
4256 Drizzle 8 1018 87 10000 7.2 190 15:18 17.11.2019
4257 Drizzle 8 1018 87 10000 7.2 190 15:18 17.11.2019
4258 Drizzle 7 1018 87 10000 5.7 180 14:54 17.11.2019
4259 Drizzle 7 1018 87 10000 6.2 180 14:36 17.11.2019
4260 Drizzle 7 1018 87 10000 6.2 180 14:18 17.11.2019
4261 Clouds 7 1018 81 10000 5.7 190 13:40 17.11.2019
4262 Clouds 7 1017 81 10000 6.7 180 13:20 17.11.2019
4263 Clouds 7 1017 81 10000 5.1 190 12:55 17.11.2019
4264 Clouds 7 1017 81 10000 5.1 190 12:36 17.11.2019
4265 Clouds 7 1017 87 10000 4.6 190 12:18 17.11.2019
4266 Clouds 7 1017 87 10000 4.6 190 12:18 17.11.2019
4267 Clouds 7 1017 87 10000 6.7 210 11:54 17.11.2019
4268 Clouds 7 1017 87 10000 6.7 210 11:36 17.11.2019
4269 Clouds 7 1017 87 10000 5.1 200 11:18 17.11.2019
4270 Clouds 7 1017 93 10000 6.2 200 10:41 17.11.2019
4271 Clouds 8 1016 93 10000 5.7 200 10:22 17.11.2019
4272 Rain 7 1016 93 7000 5.7 190 09:42 17.11.2019
4273 Mist 8 1016 93 4000 6.2 190 09:24 17.11.2019
4274 Mist 7 1015 100 3000 4.6 170 08:47 17.11.2019
4275 Drizzle 7 1015 100 2500 4.6 150 08:27 17.11.2019
4276 Mist 6 1015 100 2000 4.1 150 07:59 17.11.2019
4277 Mist 6 1015 100 2000 4.1 150 07:40 17.11.2019
4278 Mist 6 1015 100 3000 4.6 130 07:20 17.11.2019
4279 Drizzle 6 1015 93 3000 5.1 140 06:54 17.11.2019
4280 Drizzle 6 1015 93 4000 5.7 140 06:29 17.11.2019
4281 Drizzle 5 1015 100 3000 5.7 130 05:24 17.11.2019
4282 Drizzle 5 1016 93 3000 5.1 130 04:18 17.11.2019
4283 Drizzle 5 1016 93 7000 5.1 130 03:39 17.11.2019
4284 Clouds 5 1016 93 10000 5.7 130 03:20 17.11.2019
4285 Drizzle 4 1016 93 8000 6.2 120 01:59 17.11.2019
4286 Clouds 4 1016 93 10000 7.7 110 01:21 17.11.2019
4287 Clouds 4 1016 93 10000 7.2 110 00:41 17.11.2019
4288 Clouds 4 1018 93 10000 4.6 100 00:21 17.11.2019
4289 Clouds 4 1018 93 10000 4.6 110 23:42 16.11.2019
4290 Clouds 3 1018 100 8000 3.6 80 23:19 16.11.2019
4291 Clouds 3 1017 100 8000 4.1 80 22:55 16.11.2019
4292 Clouds 2 1017 100 8000 4.1 80 22:36 16.11.2019
4293 Clouds 2 1017 100 8000 4.6 60 22:18 16.11.2019
4294 Drizzle 2 1017 100 5000 5.7 60 21:41 16.11.2019
4295 Drizzle 2 1018 93 5000 4.6 70 21:23 16.11.2019
4296 Drizzle 2 1019 93 4000 4.6 70 20:58 16.11.2019
4297 Drizzle 2 1019 93 4000 4.6 70 20:58 16.11.2019
4298 Drizzle 2 1019 93 4000 4.6 70 20:39 16.11.2019
4299 Drizzle 2 1018 100 3000 5.1 70 20:19 16.11.2019
4300 Drizzle 2 1019 100 2000 5.1 60 19:54 16.11.2019
4301 Drizzle 1 1019 100 2000 5.1 60 19:36 16.11.2019
4302 Drizzle 1 1019 100 2500 5.1 60 19:18 16.11.2019
4303 Mist 1 1019 100 2500 4.6 70 18:40 16.11.2019
4304 Mist 1 1019 100 2500 5.1 70 18:20 16.11.2019
4305 Drizzle 1 1019 83 2000 4.6 60 17:55 16.11.2019
4306 Drizzle 1 1019 83 2000 4.6 60 17:37 16.11.2019
4307 Drizzle 1 1019 91 2000 5.7 60 17:18 16.11.2019
4308 Mist 1 1020 91 3000 4.6 50 16:45 16.11.2019
4309 Mist 1 1020 91 3000 4.6 50 16:26 16.11.2019
4310 Clouds 1 1020 91 7000 4.6 50 15:56 16.11.2019
4311 Clouds 1 1020 91 7000 4.6 50 15:37 16.11.2019
4312 Clouds 1 1020 91 7000 4.6 50 15:18 16.11.2019
4313 Clouds 1 1020 91 10000 4.1 50 14:40 16.11.2019
4314 Clouds 1 1020 91 10000 3.6 50 14:21 16.11.2019
4315 Clouds 1 1020 91 10000 4.1 50 13:56 16.11.2019
4316 Clouds 1 1020 91 10000 4.1 50 13:38 16.11.2019
4317 Clouds 1 1020 91 10000 3.6 40 13:19 16.11.2019
4318 Clouds 1 1020 91 10000 5.1 40 12:58 16.11.2019
4319 Clouds 1 1020 91 10000 5.1 40 12:40 16.11.2019
4320 Clouds 1 1021 91 10000 4.1 40 12:20 16.11.2019
4321 Clouds 1 1021 91 10000 4.1 40 11:45 16.11.2019
4322 Clouds 1 1021 91 10000 4.1 40 11:26 16.11.2019
4323 Clouds 0 1021 88 10000 4.6 50 10:57 16.11.2019
4324 Clouds 0 1021 88 10000 4.6 50 10:39 16.11.2019
4325 Clouds 0 1022 88 10000 4.6 40 10:20 16.11.2019
4326 Clouds 0 1022 88 10000 5.1 40 09:43 16.11.2019
4327 Clouds 0 1022 88 10000 5.1 40 09:21 16.11.2019
4328 Clouds 0 1022 88 10000 4.6 40 08:58 16.11.2019
4329 Clouds 0 1022 88 10000 4.6 40 08:38 16.11.2019
4330 Clouds 0 1022 87 10000 4.6 40 08:18 16.11.2019
4331 Clouds 0 1022 87 10000 4.6 40 08:18 16.11.2019
4332 Clouds 0 1022 87 10000 5.1 40 07:41 16.11.2019
4333 Clouds 0 1022 87 10000 5.1 40 07:20 16.11.2019
4334 Clouds 0 1022 87 10000 4.6 40 06:51 16.11.2019
4335 Clouds 0 1022 87 10000 4.6 30 06:33 16.11.2019
4336 Clouds 0 1022 87 10000 3.1 30 05:28 16.11.2019
4337 Clouds 0 1023 100 10000 3.1 20 03:42 16.11.2019
4338 Clouds -1 1023 100 10000 3.1 20 03:23 16.11.2019
4339 Clouds -1 1024 92 10000 3.6 30 01:44 16.11.2019
4340 Clouds -1 1024 92 10000 3.6 30 01:19 16.11.2019
4341 Clouds -2 1025 100 10000 3.6 20 00:41 16.11.2019
4342 Clouds -2 1025 100 10000 3.1 20 00:20 16.11.2019
4343 Clouds -2 1025 92 10000 2.6 30 23:39 15.11.2019
4344 Clouds -2 1025 92 10000 2.6 30 23:39 15.11.2019
4345 Clear -2 1025 100 10000 3.1 40 23:20 15.11.2019
4346 Clear -2 1025 92 10000 3.1 30 22:55 15.11.2019
4347 Clear -2 1025 92 10000 3.1 30 22:55 15.11.2019
4348 Clear -2 1025 92 10000 3.1 30 22:36 15.11.2019
4349 Clear -2 1026 100 10000 3.1 30 22:18 15.11.2019
4350 Clear -2 1026 100 10000 2.6 40 21:41 15.11.2019
4351 Clear -2 1026 92 10000 2.6 20 21:20 15.11.2019
4352 Clear -1 1026 92 10000 2.6 30 20:58 15.11.2019
4353 Clear -1 1026 92 10000 2.6 30 20:40 15.11.2019
4354 Clear -1 1026 92 10000 2.6 30 20:40 15.11.2019
4355 Clear -1 1026 92 10000 2.1 40 20:21 15.11.2019
4356 Clear -1 1027 100 10000 2.6 30 19:58 15.11.2019
4357 Clear -1 1027 100 10000 2.6 30 19:39 15.11.2019
4358 Clear -1 1027 92 10000 2.1 40 19:20 15.11.2019
4359 Clear -1 1027 100 10000 2.1 50 18:58 15.11.2019
4360 Clear -1 1027 100 10000 2.1 50 18:39 15.11.2019
4361 Clear -1 1027 100 10000 2.1 40 18:21 15.11.2019
4362 Clear -1 1027 92 10000 2.1 40 17:42 15.11.2019
4363 Clear 0 1027 92 10000 2.1 70 17:24 15.11.2019
4364 Clear 0 1027 76 10000 1.5 50 16:57 15.11.2019
4365 Clear 0 1027 76 10000 1.5 50 16:38 15.11.2019
4366 Clear 0 1027 76 10000 2.1 50 16:19 15.11.2019
4367 Clear 0 1026 76 10000 2.1 30 15:39 15.11.2019
4368 Clear 1 1027 76 10000 2.1 30 15:20 15.11.2019
4369 Clear 1 1027 76 10000 1.5 40 14:57 15.11.2019
4370 Clear 2 1027 76 10000 1.5 40 14:38 15.11.2019
4371 Clouds 3 1027 76 10000 1.5 60 14:19 15.11.2019
4372 Clouds 3 1027 76 10000 1.5 60 13:58 15.11.2019
4373 Clouds 3 1026 86 10000 1.5 100 13:39 15.11.2019
4374 Clouds 3 1026 80 10000 2.1 130 13:20 15.11.2019
4375 Clouds 3 1026 80 10000 2.1 100 12:58 15.11.2019
4376 Clouds 3 1026 80 10000 2.1 100 12:39 15.11.2019
4377 Clouds 3 1026 80 10000 2.1 100 12:20 15.11.2019
4378 Clouds 3 1026 86 10000 1 0 11:57 15.11.2019
4379 Clouds 3 1026 86 10000 1 0 11:38 15.11.2019
4380 Clouds 2 1026 86 10000 1 0 11:20 15.11.2019
4381 Clouds 2 1026 93 10000 1 0 10:56 15.11.2019
4382 Clouds 2 1026 93 10000 1 0 10:38 15.11.2019
4383 Clouds 1 1026 100 10000 0.5 0 10:18 15.11.2019
4384 Clouds 1 1026 100 10000 0.5 0 10:18 15.11.2019
4385 Clouds 0 1026 75 10000 0.5 0 09:40 15.11.2019
4386 Clouds 0 1026 100 10000 1.91 59 09:19 15.11.2019
4387 Clouds 0 1025 92 10000 0.5 0 08:44 15.11.2019
4388 Clouds 0 1025 92 10000 1 0 08:23 15.11.2019
4389 Clouds 0 1024 100 10000 1 0 07:49 15.11.2019
4390 Clouds 1 1024 76 10000 2.1 350 07:28 15.11.2019
4391 Clouds 0 1024 76 10000 2.6 320 06:50 15.11.2019
4392 Clouds 0 1024 76 10000 2.6 320 06:31 15.11.2019
4393 Clouds 2 1023 86 10000 2.1 280 05:40 15.11.2019
4394 Clouds 3 1023 80 10000 2.6 270 05:22 15.11.2019
4395 Clouds 4 1022 86 10000 3.1 250 03:50 15.11.2019
4396 Clouds 4 1022 86 10000 2.6 250 03:22 15.11.2019
4397 Clouds 4 1021 86 10000 5.1 260 02:19 15.11.2019
4398 Clouds 4 1020 86 10000 4.1 250 01:33 15.11.2019
4399 Clouds 4 1019 86 10000 4.1 240 00:51 15.11.2019
4400 Clouds 4 1018 86 10000 3.6 250 00:32 15.11.2019
4401 Clouds 4 1018 86 10000 4.6 250 23:52 14.11.2019
4402 Clouds 4 1017 86 10000 4.6 260 23:28 14.11.2019
4403 Clouds 4 1016 86 10000 5.7 260 22:58 14.11.2019
4404 Clouds 4 1016 86 10000 5.7 260 22:39 14.11.2019
4405 Clouds 4 1016 86 10000 6.2 260 22:21 14.11.2019
4406 Clouds 5 1015 80 10000 6.7 260 21:55 14.11.2019
4407 Clouds 5 1015 80 10000 6.7 260 21:37 14.11.2019
4408 Clouds 5 1014 86 10000 6.7 260 21:18 14.11.2019
4409 Clouds 5 1013 86 10000 6.2 260 20:42 14.11.2019
4410 Clouds 5 1012 86 10000 7.2 260 20:23 14.11.2019
4411 Drizzle 5 1011 93 10000 8.2 250 19:59 14.11.2019
4412 Drizzle 5 1011 93 10000 8.2 250 19:40 14.11.2019
4413 Drizzle 6 1010 93 10000 9.3 230 19:18 14.11.2019
4414 Drizzle 5 1010 93 10000 9.3 230 19:18 14.11.2019
4415 Drizzle 6 1008 93 10000 9.3 210 18:55 14.11.2019
4416 Clouds 6 1006 87 10000 10.3 200 18:36 14.11.2019
4417 Clouds 6 1006 87 10000 10.3 200 18:18 14.11.2019
4418 Clouds 7 1006 87 10000 12.9 190 17:39 14.11.2019
4419 Clouds 8 1006 87 10000 12.9 190 17:20 14.11.2019
4420 Clouds 8 1006 87 10000 12.3 190 16:58 14.11.2019
4421 Clouds 9 1006 87 10000 12.3 190 16:39 14.11.2019
4422 Clouds 9 1005 81 10000 10.8 190 16:21 14.11.2019
4423 Clouds 9 1004 87 10000 7.7 160 15:59 14.11.2019
4424 Clouds 9 1004 87 10000 7.7 160 15:41 14.11.2019
4425 Clouds 10 1005 93 10000 7.7 160 15:22 14.11.2019
4426 Drizzle 10 1005 93 6000 6.2 160 14:58 14.11.2019
4427 Drizzle 10 1005 93 6000 6.2 160 14:40 14.11.2019
4428 Drizzle 10 1004 93 6000 6.7 160 14:22 14.11.2019
4429 Clouds 10 1004 93 8000 6.7 160 13:55 14.11.2019
4430 Clouds 10 1004 93 8000 6.7 160 13:36 14.11.2019
4431 Clouds 9 1004 93 7000 5.7 160 13:18 14.11.2019
4432 Drizzle 9 1004 100 2400 6.7 170 12:44 14.11.2019
4433 Drizzle 9 1004 100 4000 6.7 160 12:24 14.11.2019
4434 Drizzle 9 1004 93 2500 6.2 160 11:56 14.11.2019
4435 Drizzle 9 1004 93 2500 6.2 160 11:37 14.11.2019
4436 Clouds 9 1004 93 8000 6.2 150 11:19 14.11.2019
4437 Clouds 9 1004 93 9000 6.7 140 10:57 14.11.2019
4438 Clouds 9 1004 93 9000 6.7 140 10:37 14.11.2019
4439 Rain 9 1004 93 8000 7.2 140 10:19 14.11.2019
4440 Clouds 9 1004 93 9000 7.7 140 09:42 14.11.2019
4441 Clouds 9 1004 93 9000 7.7 140 09:42 14.11.2019
4442 Rain 9 1003 100 3500 7.2 130 09:24 14.11.2019
4443 Rain 9 1003 100 3500 7.2 130 08:59 14.11.2019
4444 Rain 9 1003 100 3500 7.2 130 08:40 14.11.2019
4445 Rain 9 1003 100 4000 5.1 130 08:22 14.11.2019
4446 Rain 9 1004 100 4000 5.7 130 07:42 14.11.2019
4447 Drizzle 9 1004 100 4000 5.1 140 07:24 14.11.2019
4448 Rain 9 1004 100 4000 4.6 130 06:46 14.11.2019
4449 Mist 9 1004 100 2500 4.1 130 06:21 14.11.2019
4450 Mist 9 1005 100 1800 4.6 140 05:38 14.11.2019
4451 Drizzle 9 1005 100 1600 3.1 140 04:38 14.11.2019
4452 Drizzle 8 1005 100 3000 3.6 150 03:27 14.11.2019
4453 Drizzle 8 1005 100 3000 3.1 140 02:35 14.11.2019
4454 Mist 8 1005 100 2000 3.6 150 01:40 14.11.2019
4455 Drizzle 8 1004 100 4000 3.6 150 00:57 14.11.2019
4456 Drizzle 8 1004 100 4000 3.6 150 00:37 14.11.2019
4457 Drizzle 8 1004 100 4000 4.1 150 00:18 14.11.2019
4458 Drizzle 8 1005 100 4000 4.1 160 23:38 13.11.2019
4459 Drizzle 8 1005 100 4000 3.6 160 23:20 13.11.2019
4460 Drizzle 8 1004 100 4000 4.1 150 22:55 13.11.2019
4461 Drizzle 8 1004 100 4000 4.1 150 22:37 13.11.2019
4462 Drizzle 8 1004 100 4000 4.1 150 22:37 13.11.2019
4463 Drizzle 8 1004 100 4000 4.6 140 22:18 13.11.2019
4464 Drizzle 8 1004 100 5000 3.6 130 21:54 13.11.2019
4465 Drizzle 8 1004 100 5000 3.6 130 21:36 13.11.2019
4466 Drizzle 8 1004 93 7000 3.6 120 21:18 13.11.2019
4467 Rain 8 1005 93 6000 3.6 130 20:54 13.11.2019
4468 Rain 8 1005 93 6000 3.6 130 20:36 13.11.2019
4469 Rain 7 1005 100 6000 4.1 140 20:18 13.11.2019
4470 Rain 7 1005 100 5000 4.6 130 19:41 13.11.2019
4471 Rain 7 1005 100 5000 4.6 140 19:19 13.11.2019
4472 Rain 7 1005 100 4500 4.6 130 18:56 13.11.2019
4473 Rain 7 1005 100 4500 4.6 130 18:37 13.11.2019
4474 Rain 7 1005 100 4000 4.6 140 18:18 13.11.2019
4475 Rain 7 1005 100 6000 5.1 130 17:56 13.11.2019
4476 Rain 7 1005 100 6000 5.1 130 17:38 13.11.2019
4477 Rain 7 1006 100 7000 5.7 140 17:19 13.11.2019
4478 Rain 7 1005 100 7000 5.1 130 16:56 13.11.2019
4479 Rain 7 1005 100 7000 5.1 130 16:37 13.11.2019
4480 Rain 7 1006 93 6000 5.7 130 16:19 13.11.2019
4481 Drizzle 7 1006 93 6000 5.7 130 15:57 13.11.2019
4482 Drizzle 7 1006 93 6000 5.7 130 15:37 13.11.2019
4483 Rain 7 1006 93 7000 5.1 130 15:18 13.11.2019
4484 Rain 6 1006 93 7000 5.1 130 14:41 13.11.2019
4485 Rain 6 1007 100 5000 5.1 130 14:21 13.11.2019
4486 Rain 6 1007 100 6000 4.6 120 13:39 13.11.2019
4487 Rain 6 1007 100 4000 4.6 140 13:39 13.11.2019
4488 Rain 6 1007 100 6000 4.6 120 13:20 13.11.2019
4489 Drizzle 6 1007 93 6000 5.1 120 12:59 13.11.2019
4490 Drizzle 6 1007 93 6000 5.1 120 12:41 13.11.2019
4491 Drizzle 6 1007 93 3500 4.6 120 12:23 13.11.2019
4492 Drizzle 6 1008 93 4500 4.6 130 11:55 13.11.2019
4493 Drizzle 6 1008 93 4500 4.6 130 11:37 13.11.2019
4494 Drizzle 6 1008 93 5000 6.2 120 11:18 13.11.2019
4495 Drizzle 6 1008 93 6000 5.7 120 10:55 13.11.2019
4496 Drizzle 6 1008 93 6000 5.7 120 10:37 13.11.2019
4497 Drizzle 6 1009 93 5000 5.7 130 10:19 13.11.2019
4498 Rain 6 1009 93 6000 6.2 130 09:42 13.11.2019
4499 Rain 6 1009 93 10000 5.7 130 09:20 13.11.2019
4500 Drizzle 6 1009 93 5000 6.7 140 08:41 13.11.2019
4501 Rain 6 1009 93 9000 5.7 130 08:23 13.11.2019
4502 Rain 6 1009 93 5000 5.7 140 07:58 13.11.2019
4503 Rain 6 1009 93 5000 5.7 140 07:39 13.11.2019
4504 Rain 6 1009 93 6000 5.1 140 07:18 13.11.2019
4505 Rain 6 1010 93 5000 5.1 150 06:41 13.11.2019
4506 Rain 6 1010 93 5000 5.7 150 06:18 13.11.2019
4507 Drizzle 6 1010 93 4000 6.2 150 05:47 13.11.2019
4508 Drizzle 6 1010 100 3500 5.7 150 04:59 13.11.2019
4509 Rain 6 1010 93 6000 5.7 150 03:56 13.11.2019
4510 Rain 6 1011 93 8000 5.7 160 01:51 13.11.2019
4511 Rain 6 1011 93 8000 5.7 160 01:27 13.11.2019
4512 Rain 6 1011 93 8000 6.2 150 00:43 13.11.2019
4513 Rain 5 1012 100 7000 6.2 150 23:56 12.11.2019
4514 Rain 5 1012 100 7000 6.2 150 23:37 12.11.2019
4515 Rain 5 1012 93 9000 5.7 140 23:18 12.11.2019
4516 Rain 5 1012 93 9000 5.7 140 22:40 12.11.2019
4517 Rain 5 1012 93 9000 5.7 130 22:18 12.11.2019
4518 Rain 5 1012 93 10000 6.2 130 21:56 12.11.2019
4519 Rain 5 1012 93 10000 6.2 130 21:36 12.11.2019
4520 Rain 5 1012 93 10000 6.2 130 21:36 12.11.2019
4521 Rain 5 1013 93 10000 6.7 130 21:18 12.11.2019
4522 Rain 5 1013 93 10000 7.2 130 20:54 12.11.2019
4523 Rain 4 1013 86 10000 8.2 120 20:36 12.11.2019
4524 Rain 4 1013 86 10000 8.2 120 20:18 12.11.2019
4525 Rain 4 1013 86 10000 7.7 120 19:54 12.11.2019
4526 Rain 4 1013 86 10000 7.7 120 19:36 12.11.2019
4527 Rain 5 1014 86 10000 7.7 130 19:18 12.11.2019
4528 Rain 5 1014 75 10000 8.7 130 18:41 12.11.2019
4529 Clouds 5 1014 86 10000 7.7 120 18:23 12.11.2019
4530 Clouds 5 1015 80 10000 7.2 120 17:58 12.11.2019
4531 Clouds 5 1015 80 10000 7.2 120 17:58 12.11.2019
4532 Clouds 5 1015 80 10000 7.2 120 17:40 12.11.2019
4533 Clouds 5 1015 80 10000 7.2 120 17:21 12.11.2019
4534 Clouds 5 1015 80 10000 6.2 110 16:59 12.11.2019
4535 Clouds 4 1015 80 10000 6.2 110 16:40 12.11.2019
4536 Clouds 4 1016 86 10000 4.6 110 16:22 12.11.2019
4537 Clouds 3 1016 93 10000 3.6 70 15:42 12.11.2019
4538 Clouds 3 1017 93 10000 3.6 80 15:23 12.11.2019
4539 Clouds 3 1017 93 10000 3.6 80 14:57 12.11.2019
4540 Clouds 3 1017 93 10000 3.6 80 14:39 12.11.2019
4541 Clouds 3 1017 93 10000 3.6 80 14:19 12.11.2019
4542 Clouds 3 1018 100 10000 3.1 80 13:57 12.11.2019
4543 Clouds 3 1018 100 10000 3.1 80 13:57 12.11.2019
4544 Clouds 3 1018 100 10000 3.1 80 13:38 12.11.2019
4545 Clouds 3 1018 100 10000 3.1 70 13:19 12.11.2019
4546 Clouds 3 1018 100 10000 3.1 70 12:43 12.11.2019
4547 Clouds 3 1018 100 10000 3.1 70 12:43 12.11.2019
4548 Clouds 3 1018 100 10000 3.1 70 12:20 12.11.2019
4549 Clouds 3 1018 100 10000 3.1 70 12:20 12.11.2019
4550 Clouds 4 1018 80 10000 2.1 70 11:59 12.11.2019
4551 Clouds 3 1018 80 10000 2.1 70 11:41 12.11.2019
4552 Clouds 2 1018 86 10000 2.1 60 11:22 12.11.2019
4553 Clouds 1 1018 86 10000 1.5 80 10:57 12.11.2019
4554 Clouds 1 1018 86 10000 1.5 80 10:38 12.11.2019
4555 Clouds 1 1018 86 10000 2.6 90 10:20 12.11.2019
4556 Clouds 1 1017 100 10000 2.6 90 09:56 12.11.2019
4557 Clouds 1 1017 100 10000 2.6 90 09:38 12.11.2019
4558 Clouds 1 1017 100 10000 2.6 90 09:38 12.11.2019
4559 Clouds 0 1017 92 10000 2.6 90 09:18 12.11.2019
4560 Clouds 0 1017 100 10000 2.1 70 08:41 12.11.2019
4561 Clouds 0 1017 100 10000 2.1 70 08:41 12.11.2019
4562 Clouds -1 1017 100 10000 2.1 80 08:22 12.11.2019
4563 Clouds -1 1017 100 10000 2.1 100 07:41 12.11.2019
4564 Clouds -2 1017 100 10000 2.6 130 07:23 12.11.2019
4565 Clouds -2 1016 100 10000 2.6 140 06:45 12.11.2019
4566 Clouds -2 1016 92 10000 2.1 100 06:23 12.11.2019
4567 Clouds -2 1016 92 10000 1.5 70 05:46 12.11.2019
4568 Clouds -2 1016 100 10000 1.5 90 04:50 12.11.2019
4569 Clouds -1 1015 100 10000 2.1 40 03:49 12.11.2019
4570 Snow 0 1015 92 6000 1 290 01:49 12.11.2019
4571 Snow 0 1015 92 5000 1 290 01:22 12.11.2019
4572 Snow 0 1015 92 5000 1 290 01:22 12.11.2019
4573 Snow 0 1014 92 5000 1 0 00:48 12.11.2019
4574 Snow 0 1014 92 6000 1.5 310 00:29 12.11.2019
4575 Snow 0 1014 92 6000 2.6 290 23:47 11.11.2019
4576 Snow 0 1013 92 6000 2.6 290 23:24 11.11.2019
4577 Snow 0 1013 92 6000 2.6 290 22:58 11.11.2019
4578 Clouds -1 1013 92 10000 4.1 310 22:37 11.11.2019
4579 Clouds -1 1013 100 10000 4.1 310 22:18 11.11.2019
4580 Clouds -1 1012 92 10000 3.6 310 21:57 11.11.2019
4581 Clouds -1 1012 92 10000 3.6 310 21:38 11.11.2019
4582 Clouds -1 1012 100 8000 3.6 300 21:19 11.11.2019
4583 Clouds -1 1012 100 6000 3.6 280 20:43 11.11.2019
4584 Snow -1 1012 92 6000 4.1 310 20:21 11.11.2019
4585 Snow -1 1011 92 7000 3.6 320 19:59 11.11.2019
4586 Snow -1 1011 92 7000 3.6 320 19:41 11.11.2019
4587 Snow -1 1011 92 6000 3.6 300 19:19 11.11.2019
4588 Snow -1 1011 100 7000 3.1 300 18:56 11.11.2019
4589 Snow -1 1011 100 7000 3.1 300 18:37 11.11.2019
4590 Snow -1 1011 100 7000 3.6 300 18:19 11.11.2019
4591 Snow -1 1011 100 8000 3.6 310 17:42 11.11.2019
4592 Snow -1 1011 100 8000 4.1 270 17:24 11.11.2019
4593 Snow -1 1011 100 10000 2.6 320 16:43 11.11.2019
4594 Snow -1 1011 100 10000 3.1 330 16:24 11.11.2019
4595 Snow -1 1011 100 10000 3.1 330 16:24 11.11.2019
4596 Snow 0 1011 100 10000 3.1 330 15:59 11.11.2019
4597 Clouds 0 1011 100 10000 3.6 290 15:40 11.11.2019
4598 Clouds 0 1010 100 10000 3.6 270 15:20 11.11.2019
4599 Clouds -1 1010 100 10000 3.6 310 14:44 11.11.2019
4600 Drizzle 0 1010 84 7000 3.1 340 14:25 11.11.2019
4601 Drizzle 0 1010 84 8000 3.1 340 13:58 11.11.2019
4602 Drizzle 0 1010 88 8000 3.1 340 13:38 11.11.2019
4603 Clouds 0 1010 88 10000 3.1 350 13:19 11.11.2019
4604 Clouds 0 1010 88 10000 2.6 340 12:57 11.11.2019
4605 Clouds 0 1010 88 10000 2.6 340 12:39 11.11.2019
4606 Clouds 0 1010 88 10000 2.6 340 12:39 11.11.2019
4607 Drizzle 0 1010 88 10000 2.6 330 12:21 11.11.2019
4608 Clouds 0 1010 88 10000 3.6 300 11:42 11.11.2019
4609 Clouds 0 1010 92 10000 3.6 310 11:22 11.11.2019
4610 Drizzle 0 1010 92 10000 3.1 330 10:57 11.11.2019
4611 Drizzle 0 1010 92 10000 3.1 330 10:38 11.11.2019
4612 Drizzle 0 1010 92 10000 2.1 300 10:18 11.11.2019
4613 Clouds 0 1010 92 10000 4.1 300 09:54 11.11.2019
4614 Clouds 0 1010 92 10000 4.1 300 09:36 11.11.2019
4615 Drizzle 0 1010 92 10000 3.1 300 09:18 11.11.2019
4616 Drizzle 0 1010 89 10000 3.1 320 08:37 11.11.2019
4617 Clouds 0 1009 90 10000 4.6 310 08:19 11.11.2019
4618 -273 0 0 0 0 0 07:54 11.11.2019
4619 Clouds 0 1010 90 10000 4.1 310 07:36 11.11.2019
4620 Clouds 0 1010 90 10000 4.1 310 07:36 11.11.2019
4621 Drizzle 0 1009 90 10000 4.1 320 07:18 11.11.2019
4622 Clouds 0 1009 90 10000 4.1 320 06:41 11.11.2019
4623 Clouds 1 1009 90 10000 5.1 320 06:20 11.11.2019
4624 Clouds 1 1009 90 10000 4.1 290 05:49 11.11.2019
4625 Clouds 1 1009 90 10000 4.1 290 05:49 11.11.2019
4626 Clouds 1 1008 88 10000 3.1 300 03:59 11.11.2019
4627 Clouds 1 1008 88 10000 5.7 310 03:20 11.11.2019
4628 Drizzle 1 1008 100 10000 5.1 290 02:20 11.11.2019
4629 Drizzle 1 1008 100 10000 4.6 290 01:52 11.11.2019
4630 Clouds 1 1008 93 10000 6.2 290 01:31 11.11.2019
4631 Clouds 2 1007 93 10000 5.7 300 00:42 11.11.2019
4632 Clouds 2 1007 93 10000 5.1 300 23:58 10.11.2019
4633 Clouds 3 1007 100 10000 4.1 310 23:39 10.11.2019
4634 Drizzle 3 1006 100 10000 5.1 300 23:19 10.11.2019
4635 Drizzle 3 1006 100 10000 5.1 300 22:57 10.11.2019
4636 Rain 4 1006 100 10000 6.2 300 22:38 10.11.2019
4637 Mist 5 1005 93 4000 1 0 22:20 10.11.2019
4638 Clouds 5 1005 93 7000 2.1 190 21:57 10.11.2019
4639 Clouds 6 1005 93 7000 2.1 190 21:38 10.11.2019
4640 Drizzle 6 1005 93 8000 2.1 220 21:20 10.11.2019
4641 Clouds 7 1005 93 10000 3.1 190 20:42 10.11.2019
4642 Clouds 7 1005 100 10000 3.6 180 20:22 10.11.2019
4643 Clouds 7 1005 100 10000 3.6 180 20:22 10.11.2019
4644 Clouds 7 1005 100 10000 3.6 180 20:22 10.11.2019
4645 Clouds 7 1004 93 10000 4.6 190 19:56 10.11.2019
4646 Clouds 7 1004 93 10000 4.6 190 19:38 10.11.2019
4647 Clouds 7 1004 93 10000 4.6 190 19:38 10.11.2019
4648 Clouds 7 1004 93 10000 4.6 190 19:38 10.11.2019
4649 Rain 7 1004 93 7000 4.1 190 19:19 10.11.2019
4650 Rain 7 1004 93 7000 4.1 190 18:58 10.11.2019
4651 Rain 7 1004 93 6000 3.6 200 18:58 10.11.2019
4652 Rain 7 1004 93 6000 3.6 200 18:40 10.11.2019
4653 Rain 7 1004 93 6000 3.6 200 18:40 10.11.2019
4654 Rain 7 1004 93 7000 4.1 190 18:19 10.11.2019
4655 Rain 7 1004 93 7000 4.1 190 17:57 10.11.2019
4656 Rain 7 1004 93 6000 5.1 190 17:38 10.11.2019
4657 Rain 8 1004 93 7000 6.2 190 17:20 10.11.2019
4658 Rain 8 1004 93 7000 7.2 180 16:58 10.11.2019
4659 Rain 8 1004 93 7000 7.2 180 16:39 10.11.2019
4660 Rain 8 1004 93 7000 6.2 190 16:21 10.11.2019
4661 Rain 8 1004 100 6000 5.7 180 15:56 10.11.2019
4662 Rain 8 1004 100 6000 5.7 180 15:36 10.11.2019
4663 Rain 8 1004 100 7000 5.1 180 15:18 10.11.2019
4664 Rain 8 1004 100 6000 4.6 170 14:55 10.11.2019
4665 Rain 8 1004 100 6000 4.6 170 14:36 10.11.2019
4666 Rain 8 1004 100 7000 3.6 160 14:18 10.11.2019
4667 Clouds 8 1004 100 7000 3.1 160 13:41 10.11.2019
4668 Clouds 8 1004 93 7000 4.6 180 13:20 10.11.2019
4669 Rain 8 1004 100 7000 4.1 170 12:54 10.11.2019
4670 Rain 8 1004 100 7000 4.1 170 12:36 10.11.2019
4671 Clouds 8 1004 100 8000 4.1 160 12:18 10.11.2019
4672 Mist 7 1004 100 4000 4.1 140 11:54 10.11.2019
4673 Mist 7 1004 100 4000 4.1 140 11:36 10.11.2019
4674 Rain 7 1005 100 2000 3.6 130 11:18 10.11.2019
4675 Rain 7 1005 100 5000 2.1 100 10:41 10.11.2019
4676 Rain 7 1005 100 2500 2.6 80 10:20 10.11.2019
4677 Rain 6 1005 100 900 2.6 70 09:44 10.11.2019
4678 Rain 6 1005 100 900 2.6 80 09:26 10.11.2019
4679 Rain 6 1005 100 900 2.6 80 08:59 10.11.2019
4680 Rain 6 1005 100 700 3.1 70 08:37 10.11.2019
4681 Rain 6 1005 100 600 3.1 70 08:18 10.11.2019
4682 Rain 6 1005 100 700 3.1 70 07:42 10.11.2019
4683 Rain 5 1005 100 1400 2.6 60 07:24 10.11.2019
4684 Drizzle 5 1005 100 1200 3.1 60 06:33 10.11.2019
4685 Fog 5 1006 100 700 2.6 70 05:40 10.11.2019
4686 Drizzle 5 1007 100 2000 2.6 70 03:22 10.11.2019
4687 Rain 5 1007 93 4000 2.6 60 01:53 10.11.2019
4688 Rain 5 1008 93 4500 2.6 60 01:19 10.11.2019
4689 Rain 5 1008 100 4000 2.6 60 00:41 10.11.2019
4690 Rain 5 1008 100 4000 2.6 60 00:41 10.11.2019
4691 Rain 5 1008 100 3000 2.6 50 23:56 09.11.2019
4692 Rain 5 1008 100 3000 2.6 50 23:37 09.11.2019
4693 Drizzle 5 1008 100 2000 2.1 40 23:18 09.11.2019
4694 Drizzle 5 1008 93 3500 2.6 40 22:41 09.11.2019
4695 Drizzle 5 1008 100 4000 2.1 50 22:21 09.11.2019
4696 Drizzle 5 1008 93 4000 2.1 50 21:56 09.11.2019
4697 Drizzle 5 1008 93 4000 2.1 50 21:37 09.11.2019
4698 Drizzle 5 1009 93 3500 3.1 50 21:19 09.11.2019
4699 Drizzle 5 1009 93 3500 3.1 50 21:19 09.11.2019
4700 Drizzle 5 1009 100 4000 3.1 40 20:42 09.11.2019
4701 Mist 5 1009 100 4000 2.1 70 20:22 09.11.2019
4702 Mist 5 1009 100 4000 2.1 70 19:58 09.11.2019
4703 Mist 5 1009 100 4000 1.5 70 19:39 09.11.2019
4704 Clouds 5 1009 100 6000 2.1 60 19:21 09.11.2019
4705 Clouds 5 1009 100 6000 2.1 60 18:55 09.11.2019
4706 Clouds 5 1009 100 6000 2.1 60 18:36 09.11.2019
4707 Clouds 5 1009 100 7000 2.1 80 18:18 09.11.2019
4708 Drizzle 5 1010 100 8000 2.6 90 17:41 09.11.2019
4709 Drizzle 5 1010 100 8000 3.1 80 17:22 09.11.2019
4710 Drizzle 5 1010 100 8000 2.6 0 16:44 09.11.2019
4711 Drizzle 5 1010 93 8000 2.6 70 16:23 09.11.2019
4712 Drizzle 5 1010 93 8000 2.6 70 15:59 09.11.2019
4713 Clouds 5 1010 93 8000 2.6 90 15:41 09.11.2019
4714 Drizzle 6 1010 93 8000 2.1 80 15:23 09.11.2019
4715 Drizzle 6 1010 93 10000 2.1 80 14:45 09.11.2019
4716 Drizzle 6 1011 93 10000 2.1 100 14:22 09.11.2019
4717 Drizzle 6 1011 93 10000 2.1 100 13:58 09.11.2019
4718 Drizzle 6 1011 93 10000 2.6 100 13:39 09.11.2019
4719 Clouds 6 1011 93 10000 2.1 120 13:19 09.11.2019
4720 Clouds 6 1011 93 10000 3.6 120 12:56 09.11.2019
4721 Clouds 6 1011 93 10000 3.6 120 12:56 09.11.2019
4722 Clouds 6 1011 93 10000 3.6 120 12:38 09.11.2019
4723 Drizzle 6 1012 93 10000 3.6 130 12:20 09.11.2019
4724 Drizzle 6 1012 93 7000 4.1 130 11:47 09.11.2019
4725 Drizzle 6 1012 93 10000 4.1 130 11:21 09.11.2019
4726 Clouds 6 1012 93 10000 4.6 130 10:57 09.11.2019
4727 Clouds 6 1012 93 10000 4.6 130 10:38 09.11.2019
4728 Clouds 5 1013 93 10000 4.1 130 10:18 09.11.2019
4729 Clouds 5 1013 93 10000 4.6 130 09:43 09.11.2019
4730 Clouds 5 1013 93 10000 4.1 120 09:21 09.11.2019
4731 Clouds 5 1013 93 10000 2.6 120 08:52 09.11.2019
4732 Clouds 5 1014 93 10000 3.6 120 08:26 09.11.2019
4733 Clouds 5 1014 93 10000 3.6 120 07:57 09.11.2019
4734 Clouds 5 1014 93 10000 3.6 130 07:38 09.11.2019
4735 Clouds 5 1014 100 10000 3.6 120 07:19 09.11.2019
4736 Clouds 5 1014 93 10000 3.6 130 06:45 09.11.2019
4737 Clouds 5 1014 93 10000 3.6 130 06:27 09.11.2019
4738 Clouds 5 1014 93 10000 4.1 120 05:40 09.11.2019
4739 Clouds 5 1015 93 10000 3.1 130 04:30 09.11.2019
4740 Clouds 4 1016 93 10000 4.1 150 02:55 09.11.2019
4741 Clouds 4 1016 93 10000 4.1 150 02:36 09.11.2019
4742 Clouds 5 1016 93 10000 4.1 150 01:18 09.11.2019
4743 Clouds 5 1016 93 10000 4.6 150 00:41 09.11.2019
4744 Clouds 5 1016 93 10000 3.6 150 00:22 09.11.2019
4745 Rain 4 1016 93 10000 4.1 140 23:41 08.11.2019
4746 Rain 4 1016 93 10000 4.6 150 23:22 08.11.2019
4747 Rain 4 1016 93 10000 4.6 150 22:59 08.11.2019
4748 Rain 4 1016 100 8000 4.1 140 22:39 08.11.2019
4749 Drizzle 4 1016 100 7000 4.1 140 22:21 08.11.2019
4750 Drizzle 4 1016 100 6000 4.1 120 21:42 08.11.2019
4751 Drizzle 3 1016 100 6000 3.1 120 21:23 08.11.2019
4752 Drizzle 3 1016 93 7000 3.6 100 20:58 08.11.2019
4753 Drizzle 3 1016 93 7000 3.6 100 20:40 08.11.2019
4754 Drizzle 3 1016 100 6000 3.1 90 20:20 08.11.2019
4755 Drizzle 2 1016 93 7000 3.1 80 19:55 08.11.2019
4756 Drizzle 2 1016 93 7000 3.1 80 19:36 08.11.2019
4757 Clouds 2 1016 100 7000 3.1 70 19:18 08.11.2019
4758 Clouds 2 1016 100 7000 3.1 70 19:18 08.11.2019
4759 Clouds 2 1017 100 7000 2.6 100 18:54 08.11.2019
4760 Clouds 2 1017 100 7000 2.6 100 18:36 08.11.2019
4761 Clouds 1 1016 100 7000 3.6 80 18:18 08.11.2019
4762 Clouds 1 1016 88 7000 4.1 80 17:54 08.11.2019
4763 Clouds 1 1016 88 7000 4.1 80 17:36 08.11.2019
4764 Clouds 1 1017 85 6000 3.1 70 17:18 08.11.2019
4765 Clouds 1 1017 85 6000 2.1 80 16:57 08.11.2019
4766 Clouds 1 1017 85 6000 2.1 80 16:57 08.11.2019
4767 Clouds 1 1017 85 6000 2.1 80 16:38 08.11.2019
4768 Clouds 1 1017 85 6000 2.1 70 16:18 08.11.2019
4769 Clouds 0 1016 85 6000 2.6 70 15:41 08.11.2019
4770 Mist 0 1016 85 5000 3.1 70 15:23 08.11.2019
4771 Mist 1 1016 85 5000 3.1 70 14:58 08.11.2019
4772 Mist 1 1016 85 5000 3.1 70 14:58 08.11.2019
4773 Drizzle 1 1016 85 4500 2.1 50 14:38 08.11.2019
4774 Drizzle 1 1016 84 4000 1.5 50 14:20 08.11.2019
4775 Mist 1 1016 84 4500 2.1 60 13:59 08.11.2019
4776 Mist 1 1016 85 4500 2.1 60 13:39 08.11.2019
4777 Drizzle 0 1016 85 4000 2.1 50 13:21 08.11.2019
4778 Drizzle 0 1016 85 4000 1.5 60 12:48 08.11.2019
4779 Drizzle 0 1016 85 4000 1.5 60 12:29 08.11.2019
4780 Mist 0 1015 85 3500 3.1 40 11:58 08.11.2019
4781 Mist 0 1015 85 3500 3.1 40 11:40 08.11.2019
4782 Mist 0 1015 84 2600 2.1 40 11:21 08.11.2019
4783 Mist 0 1015 84 2600 2.1 40 10:59 08.11.2019
4784 Mist 0 1015 100 2700 2.1 50 10:41 08.11.2019
4785 Clouds 0 1015 100 6000 2.6 60 10:21 08.11.2019
4786 Mist -1 1014 100 5000 2.6 60 09:58 08.11.2019
4787 Mist -1 1014 100 5000 2.6 60 09:38 08.11.2019
4788 Mist -1 1014 100 4000 2.6 70 09:19 08.11.2019
4789 Mist -1 1014 100 2800 2.1 60 08:45 08.11.2019
4790 Mist -1 1013 92 4500 2.1 40 08:21 08.11.2019
4791 Clouds -1 1013 92 6000 3.1 60 07:45 08.11.2019
4792 Snow -2 1013 100 5000 2.6 60 07:23 08.11.2019
4793 Snow -2 1013 100 4500 3.1 60 06:57 08.11.2019
4794 Snow -2 1013 100 4500 3.1 60 06:37 08.11.2019
4795 Snow -2 1013 100 4500 3.1 60 06:19 08.11.2019
4796 Snow -2 1013 100 5000 3.1 40 05:32 08.11.2019
4797 Snow -2 1012 92 10000 4.1 50 04:29 08.11.2019
4798 Snow -2 1012 92 10000 4.1 50 04:29 08.11.2019
4799 Snow -2 1012 92 10000 4.1 50 03:42 08.11.2019
4800 Snow -2 1012 92 10000 4.6 50 03:19 08.11.2019
4801 Snow -2 1012 86 10000 4.6 50 01:54 08.11.2019
4802 Snow -2 1012 86 10000 4.6 50 01:36 08.11.2019
4803 Clouds -1 1011 86 10000 4.6 50 00:46 08.11.2019
4804 Clouds -1 1011 80 10000 4.6 50 00:22 08.11.2019
4805 Clouds -1 1011 80 10000 4.6 50 00:22 08.11.2019
4806 Clouds -1 1012 80 10000 4.6 50 23:49 07.11.2019
4807 Clouds -1 1011 80 10000 4.6 40 23:28 07.11.2019
4808 Clouds -1 1011 80 10000 4.6 40 22:58 07.11.2019
4809 Snow -1 1011 80 10000 4.6 50 22:40 07.11.2019
4810 Snow -1 1011 80 10000 4.6 40 22:20 07.11.2019
4811 Snow -1 1011 80 10000 4.1 50 21:40 07.11.2019
4812 Snow -1 1011 80 10000 4.6 50 21:21 07.11.2019
4813 Snow -1 1011 80 10000 4.6 50 21:21 07.11.2019
4814 Snow -1 1011 80 10000 4.6 50 20:59 07.11.2019
4815 Snow -1 1011 80 10000 4.6 50 20:59 07.11.2019
4816 Snow -1 1011 80 10000 4.6 50 20:41 07.11.2019
4817 Snow -1 1010 80 10000 5.1 60 20:22 07.11.2019
4818 Snow -1 1010 80 10000 5.1 60 19:59 07.11.2019
4819 Snow -1 1010 80 10000 5.1 60 19:40 07.11.2019
4820 Snow -1 1010 80 10000 5.1 60 19:21 07.11.2019
4821 Snow -1 1010 80 10000 5.7 60 18:57 07.11.2019
4822 Snow -1 1010 80 10000 5.7 60 18:39 07.11.2019
4823 Snow -1 1010 80 10000 5.1 60 18:19 07.11.2019
4824 Snow -1 1010 80 10000 5.1 60 17:56 07.11.2019
4825 Snow -1 1010 80 10000 5.7 50 17:38 07.11.2019
4826 Clouds -1 1010 86 10000 5.1 50 17:20 07.11.2019
4827 Clouds -1 1010 86 10000 5.1 50 16:55 07.11.2019
4828 Clouds -1 1010 86 10000 5.7 50 16:37 07.11.2019
4829 Clouds -1 1010 86 10000 5.7 50 16:19 07.11.2019
4830 Clouds -1 1009 86 10000 5.7 50 15:40 07.11.2019
4831 Clouds -1 1009 86 10000 5.7 50 15:21 07.11.2019
4832 Clouds -1 1009 86 10000 5.7 40 14:58 07.11.2019
4833 Clouds -1 1009 92 10000 6.2 50 14:38 07.11.2019
4834 Clouds -2 1009 92 10000 6.2 50 14:20 07.11.2019
4835 Clouds -2 1009 92 10000 6.2 50 13:55 07.11.2019
4836 Clouds -2 1009 92 10000 5.7 50 13:37 07.11.2019
4837 Snow -2 1009 92 10000 4.6 50 13:18 07.11.2019
4838 Snow -1 1009 92 10000 4.6 50 12:56 07.11.2019
4839 Snow -2 1009 92 10000 5.1 40 12:38 07.11.2019
4840 Snow -2 1009 92 10000 5.1 50 12:18 07.11.2019
4841 Snow -2 1009 86 7000 5.1 50 11:41 07.11.2019
4842 Snow -2 1009 86 7000 5.1 50 11:22 07.11.2019
4843 Snow -2 1008 92 2200 5.7 40 10:42 07.11.2019
4844 Snow -2 1008 92 2200 5.7 40 10:19 07.11.2019
4845 Snow -2 1008 92 2200 5.7 40 10:19 07.11.2019
4846 Snow -2 1008 92 2200 5.7 40 10:19 07.11.2019
4847 Snow -2 1008 92 2000 5.1 40 09:55 07.11.2019
4848 Snow -2 1008 92 2500 6.2 50 09:37 07.11.2019
4849 Snow -2 1008 92 2500 6.2 50 09:19 07.11.2019
4850 Clouds -3 1007 86 10000 5.7 40 08:41 07.11.2019
4851 Clouds -3 1007 86 10000 5.7 40 08:22 07.11.2019
4852 Clouds -3 1007 86 10000 5.7 40 07:57 07.11.2019
4853 Clouds -3 1007 86 10000 5.7 40 07:56 07.11.2019
4854 Clouds -3 1007 86 10000 5.7 40 07:37 07.11.2019
4855 Snow -3 1006 86 10000 5.7 40 07:19 07.11.2019
4856 Snow -3 1006 86 10000 5.7 40 06:42 07.11.2019
4857 Snow -3 1006 86 10000 5.7 40 06:23 07.11.2019
4858 Snow -3 1006 86 10000 5.7 40 06:22 07.11.2019
4859 Snow -3 1006 92 10000 6.2 40 05:48 07.11.2019
4860 Snow -3 1006 92 10000 6.2 40 05:29 07.11.2019
4861 Snow -3 1006 92 10000 6.2 40 05:29 07.11.2019
4862 Snow -3 1006 92 10000 5.7 40 04:42 07.11.2019
4863 Snow -4 1005 92 4500 5.1 40 03:32 07.11.2019
4864 Clouds -4 1004 85 10000 5.7 30 00:58 07.11.2019
4865 Clouds -4 1004 85 10000 5.7 30 00:22 07.11.2019
4866 -273 0 0 0 0 0 00:22 07.11.2019
4867 Clouds -4 1004 79 10000 5.7 30 23:48 06.11.2019
4868 Clouds -4 1004 79 10000 5.7 30 23:22 06.11.2019
4869 Clouds -4 1004 79 10000 5.7 30 22:57 06.11.2019
4870 Clouds -4 1004 73 10000 5.7 30 22:38 06.11.2019
4871 Clouds -4 1004 73 10000 5.7 30 22:19 06.11.2019
4872 Clouds -4 1004 79 10000 5.7 30 21:56 06.11.2019
4873 Clouds -4 1004 79 10000 4.6 30 21:38 06.11.2019
4874 Clouds -4 1004 79 10000 4.6 30 21:18 06.11.2019
4875 Clouds -4 1004 73 10000 4.6 40 20:41 06.11.2019
4876 Clouds -4 1004 73 10000 4.6 40 20:23 06.11.2019
4877 Clouds -4 1004 73 10000 5.7 40 19:59 06.11.2019
4878 Clouds -4 1004 73 10000 5.1 40 19:40 06.11.2019
4879 Clouds -4 1004 73 10000 5.1 40 19:21 06.11.2019
4880 Clouds -4 1004 73 10000 5.1 40 18:59 06.11.2019
4881 Clouds -4 1004 73 10000 5.1 40 18:39 06.11.2019
4882 Clouds -4 1004 73 10000 5.7 40 18:19 06.11.2019
4883 Clouds -4 1004 73 10000 5.7 40 17:58 06.11.2019
4884 Clouds -4 1004 68 10000 5.7 40 17:40 06.11.2019
4885 Clouds -4 1004 68 10000 4.6 50 17:21 06.11.2019
4886 Clouds -4 1004 68 10000 4.6 50 17:21 06.11.2019
4887 Clouds -3 1004 63 10000 5.7 40 16:56 06.11.2019
4888 Clouds -3 1004 63 10000 5.7 40 16:37 06.11.2019
4889 Clouds -3 1004 58 10000 5.7 40 16:18 06.11.2019
4890 Clouds -3 1003 58 10000 6.2 30 15:56 06.11.2019
4891 Clouds -3 1003 58 10000 6.2 30 15:37 06.11.2019
4892 Clouds -3 1003 58 10000 6.2 30 15:19 06.11.2019
4893 Clouds -3 1003 54 10000 5.1 30 14:56 06.11.2019
4894 Clouds -2 1003 54 10000 5.1 30 14:38 06.11.2019
4895 Clouds -2 1003 50 10000 4.6 30 14:20 06.11.2019
4896 Clouds -2 1003 50 10000 5.7 30 13:41 06.11.2019
4897 Clouds -2 1003 50 10000 5.1 20 13:22 06.11.2019
4898 Clouds -2 1004 50 10000 5.1 30 12:58 06.11.2019
4899 Clouds -2 1004 50 10000 5.1 30 12:39 06.11.2019
4900 Clouds -2 1004 50 10000 5.7 30 12:21 06.11.2019
4901 Clouds -2 1004 50 10000 5.7 30 11:58 06.11.2019
4902 Clouds -2 1004 46 10000 5.1 30 11:38 06.11.2019
4903 Clouds -2 1004 49 10000 5.1 40 11:18 06.11.2019
4904 Clouds -3 1004 58 10000 5.1 30 10:56 06.11.2019
4905 Clouds -3 1004 58 10000 5.1 30 10:38 06.11.2019
4906 Clouds -3 1004 58 10000 4.6 30 10:20 06.11.2019
4907 Clouds -3 1004 52 0 10.98 58 09:56 06.11.2019
4908 Clouds -4 1004 57 0 5.81 53 09:36 06.11.2019
4909 Clouds -4 1004 57 10000 4.6 20 09:18 06.11.2019
4910 Clouds -5 1004 57 0 4.47 20 08:54 06.11.2019
4911 Clouds -5 1004 62 10000 4.1 20 08:36 06.11.2019
4912 Clouds -5 1003 47 0 0.45 305 08:18 06.11.2019
4913 Clouds -5 1003 57 10000 5.1 20 07:40 06.11.2019
4914 Clouds -5 1003 53 10000 4.6 20 07:21 06.11.2019
4915 Clouds -5 1003 53 10000 4.6 20 07:21 06.11.2019
4916 Clouds -5 1003 53 10000 5.1 20 06:45 06.11.2019
4917 Clouds -5 1003 53 10000 5.1 10 06:25 06.11.2019
4918 Clouds -4 1002 53 10000 5.1 20 04:52 06.11.2019
4919 Clouds -4 1002 53 10000 5.7 20 02:22 06.11.2019
4920 Clouds -4 1002 53 10000 5.1 20 01:37 06.11.2019
4921 Clouds -3 1002 53 10000 5.1 10 00:39 06.11.2019
4922 Clouds -3 1001 45 10000 5.7 10 23:58 05.11.2019
4923 Clouds -3 1001 45 10000 5.7 10 23:38 05.11.2019
4924 Clouds -3 1001 45 10000 5.7 20 23:20 05.11.2019
4925 Clouds -2 1000 42 10000 6.2 10 22:45 05.11.2019
4926 Clouds -2 1000 42 10000 6.2 10 22:20 05.11.2019
4927 Clouds -2 1000 42 10000 6.2 20 21:59 05.11.2019
4928 Clouds -2 1000 42 10000 6.2 20 21:59 05.11.2019
4929 Clouds -2 1000 42 10000 6.2 20 21:41 05.11.2019
4930 Clouds -2 1000 42 10000 6.2 20 21:41 05.11.2019
4931 Clouds -2 1000 42 10000 6.2 20 21:21 05.11.2019
4932 Clouds -2 1000 46 10000 6.2 20 20:57 05.11.2019
4933 Clouds -2 1000 46 10000 6.2 20 20:38 05.11.2019
4934 Clouds -2 1000 46 10000 7.2 20 20:20 05.11.2019
4935 Clouds -2 1000 50 10000 7.2 10 19:56 05.11.2019
4936 Clouds -2 1000 50 10000 7.2 10 19:38 05.11.2019
4937 Clouds -2 1000 50 10000 7.2 10 19:38 05.11.2019
4938 Clouds -2 999 50 10000 6.7 10 19:20 05.11.2019
4939 Clouds -2 999 50 10000 7.2 20 18:56 05.11.2019
4940 Clouds -2 999 50 10000 7.2 20 18:56 05.11.2019
4941 Clouds -2 999 50 10000 7.2 20 18:38 05.11.2019
4942 Clouds -2 999 50 10000 7.7 20 18:19 05.11.2019
4943 Clouds -2 999 54 10000 6.7 10 17:56 05.11.2019
4944 Clouds -2 999 54 10000 6.7 10 17:37 05.11.2019
4945 Clouds -2 999 54 10000 6.7 10 17:18 05.11.2019
4946 Clouds -1 999 50 10000 7.2 10 16:42 05.11.2019
4947 Clouds -2 998 54 10000 7.2 10 16:22 05.11.2019
4948 Rain -1 998 54 10000 7.2 10 15:59 05.11.2019
4949 Rain -1 998 50 10000 7.2 10 15:37 05.11.2019
4950 Rain -1 998 50 10000 7.2 10 15:18 05.11.2019
4951 Clouds -1 998 50 10000 7.2 10 14:55 05.11.2019
4952 Clouds -1 998 50 10000 6.7 10 14:55 05.11.2019
4953 Clouds -1 998 50 10000 7.2 10 14:55 05.11.2019
4954 Clouds -1 998 50 10000 6.7 10 14:36 05.11.2019
4955 Clouds 0 998 65 10000 7.7 10 14:18 05.11.2019
4956 Clouds 0 998 65 10000 7.2 20 13:43 05.11.2019
4957 Clouds 0 998 67 10000 7.7 20 13:24 05.11.2019
4958 Clouds -1 999 54 10000 7.7 20 12:42 05.11.2019
4959 Clouds -1 999 58 10000 7.2 20 12:23 05.11.2019
4960 Clouds -1 999 58 10000 7.2 20 11:59 05.11.2019
4961 Clouds -1 999 58 10000 7.2 20 11:40 05.11.2019
4962 Clouds -1 999 68 10000 6.2 20 11:21 05.11.2019
4963 Clouds -2 999 68 10000 6.2 20 10:58 05.11.2019
4964 Clouds -2 999 68 10000 6.2 20 10:40 05.11.2019
4965 Clouds -2 999 68 10000 6.2 20 10:22 05.11.2019
4966 Clouds -2 999 68 10000 6.2 20 09:55 05.11.2019
4967 Clouds -2 1000 74 10000 6.2 30 09:37 05.11.2019
4968 Clouds -2 999 79 10000 6.7 20 09:18 05.11.2019
4969 Clouds -2 1000 79 10000 6.2 20 08:39 05.11.2019
4970 Clouds -3 1000 79 10000 5.7 20 08:20 05.11.2019
4971 Clouds -3 1000 79 10000 6.2 30 07:57 05.11.2019
4972 Clouds -3 1000 79 10000 6.2 30 07:39 05.11.2019
4973 Clouds -3 1000 79 10000 6.2 30 07:39 05.11.2019
4974 Clouds -3 1000 79 10000 6.2 30 07:39 05.11.2019
4975 Clouds -3 1000 86 10000 6.7 30 07:20 05.11.2019
4976 Clouds -3 1000 86 10000 6.2 20 06:49 05.11.2019
4977 Clouds -3 1000 86 10000 6.7 30 05:51 05.11.2019
4978 Clouds -3 1000 86 10000 7.2 30 05:22 05.11.2019
4979 Clouds -3 1000 86 10000 7.2 30 05:22 05.11.2019
4980 Clouds -3 1001 86 10000 7.7 30 04:25 05.11.2019
4981 Clouds -3 1001 86 10000 7.7 30 04:25 05.11.2019
4982 Clouds -3 1001 86 10000 6.7 30 03:49 05.11.2019
4983 Clouds -3 1002 86 10000 5.1 30 02:46 05.11.2019
4984 Clouds -3 1001 86 10000 5.7 30 02:18 05.11.2019
4985 Clouds -3 1002 86 10000 5.7 30 00:52 05.11.2019
4986 Clouds -3 1002 86 10000 5.7 30 00:30 05.11.2019
4987 Clouds -3 1002 86 10000 6.2 30 23:56 04.11.2019
4988 Clouds -3 1002 86 10000 5.1 30 23:37 04.11.2019
4989 Clouds -3 1002 86 10000 5.1 30 23:18 04.11.2019
4990 Clouds -3 1002 86 10000 4.6 20 22:41 04.11.2019
4991 Clouds -3 1002 86 10000 5.1 30 22:23 04.11.2019
4992 Clouds -3 1003 86 10000 5.1 30 21:56 04.11.2019
4993 Clouds -3 1003 86 10000 5.1 30 21:38 04.11.2019
4994 Clouds -3 1003 92 10000 5.7 30 21:19 04.11.2019
4995 Clouds -3 1003 92 10000 5.7 30 20:58 04.11.2019
4996 Clouds -3 1003 92 10000 5.1 30 20:39 04.11.2019
4997 Clouds -3 1003 92 10000 5.7 30 20:21 04.11.2019
4998 Clouds -3 1003 92 10000 5.1 30 19:59 04.11.2019
4999 Clouds -3 1003 92 10000 5.1 30 19:40 04.11.2019
5000 Clouds -3 1003 92 10000 4.6 30 19:21 04.11.2019
5001 Clouds -2 1003 86 10000 5.1 30 18:57 04.11.2019
5002 Clouds -2 1003 86 10000 5.1 30 18:38 04.11.2019
5003 Clouds -2 1003 86 10000 6.2 40 18:19 04.11.2019
5004 Clouds -2 1003 86 10000 6.7 40 17:40 04.11.2019
5005 Clouds -2 1003 86 10000 6.2 30 17:21 04.11.2019
5006 Clouds -2 1003 86 10000 5.7 30 16:57 04.11.2019
5007 Clouds -2 1003 86 10000 5.7 30 16:39 04.11.2019
5008 Clouds -1 1002 80 10000 5.1 20 16:21 04.11.2019
5009 Clouds -1 1002 80 10000 5.7 30 15:55 04.11.2019
5010 Clouds -1 1002 80 10000 5.7 30 15:36 04.11.2019
5011 Clouds -1 1002 80 10000 5.7 30 15:18 04.11.2019
5012 Clouds -1 1002 80 10000 4.6 20 14:41 04.11.2019
5013 Clouds 0 1002 86 10000 4.6 30 14:21 04.11.2019
5014 Clouds 0 1002 66 10000 5.7 30 13:59 04.11.2019
5015 Clouds 0 1002 66 10000 5.7 30 13:41 04.11.2019
5016 Clouds 0 1002 66 10000 5.7 40 13:21 04.11.2019
5017 Clouds 0 1002 66 10000 6.7 30 12:58 04.11.2019
5018 Clouds 0 1002 66 10000 6.7 30 12:40 04.11.2019
5019 Clouds 0 1002 86 10000 5.7 30 12:21 04.11.2019
5020 Clouds 0 1002 86 10000 5.7 30 11:56 04.11.2019
5021 Clouds 0 1002 86 10000 5.7 30 11:38 04.11.2019
5022 Clouds 0 1002 86 10000 6.2 30 11:19 04.11.2019
5023 Clouds -1 1002 86 10000 5.1 20 10:42 04.11.2019
5024 Clouds -1 1002 86 10000 5.1 20 10:42 04.11.2019
5025 Clouds -1 1002 86 10000 5.1 20 10:24 04.11.2019
5026 Clouds -1 1002 86 10000 4.6 20 09:46 04.11.2019
5027 Clouds -1 1001 86 10000 4.6 20 09:28 04.11.2019
5028 Clouds -1 1001 86 10000 4.6 20 09:28 04.11.2019
5029 Clouds -1 1001 86 10000 4.6 20 08:59 04.11.2019
5030 Clouds -2 1001 92 10000 4.6 30 08:38 04.11.2019
5031 Clouds -2 1001 92 10000 4.6 30 08:38 04.11.2019
5032 Clouds -2 1001 92 10000 4.6 20 08:20 04.11.2019
5033 Clouds -2 1001 92 10000 4.6 20 07:44 04.11.2019
5034 Clouds -2 1001 92 10000 4.6 30 07:24 04.11.2019
5035 Clouds -2 1001 92 10000 4.6 20 06:57 04.11.2019
5036 Clouds -2 1000 92 10000 4.6 20 06:34 04.11.2019
5037 Clouds -2 1000 92 10000 4.6 30 05:49 04.11.2019
5038 Clouds -2 1000 92 10000 4.6 20 04:44 04.11.2019
5039 Clouds -1 1000 92 10000 4.6 20 04:21 04.11.2019
5040 Clouds -1 1000 92 10000 4.1 20 02:32 04.11.2019
5041 Clouds -1 1000 92 10000 4.1 20 01:22 04.11.2019
5042 Clouds -1 1000 80 10000 3.6 30 00:41 04.11.2019
5043 Clouds -1 999 80 10000 3.1 10 00:20 04.11.2019
5044 Clouds -1 1000 100 10000 2.6 10 23:43 03.11.2019
5045 Clouds -1 999 92 10000 3.1 360 23:21 03.11.2019
5046 Clouds -1 999 92 10000 3.1 360 22:59 03.11.2019
5047 Clouds -1 999 92 10000 3.6 360 22:41 03.11.2019
5048 Clouds -1 999 92 10000 3.6 10 22:20 03.11.2019
5049 Clouds 0 999 84 10000 3.6 360 21:57 03.11.2019
5050 Clouds 0 999 84 10000 3.6 360 21:57 03.11.2019
5051 Clouds 0 999 84 10000 3.6 360 21:38 03.11.2019
5052 Clouds 0 999 84 10000 4.1 360 21:20 03.11.2019
5053 Clouds 0 999 84 10000 4.1 360 20:55 03.11.2019
5054 Clouds 0 999 84 10000 4.1 360 20:36 03.11.2019
5055 Clouds 1 998 80 10000 4.1 360 20:18 03.11.2019
5056 Clouds 0 998 80 10000 3.1 360 19:55 03.11.2019
5057 Clouds 1 998 80 10000 3.1 360 19:37 03.11.2019
5058 Clouds 1 998 80 10000 3.6 360 19:18 03.11.2019
5059 Clouds 1 998 100 7000 2.1 360 18:38 03.11.2019
5060 Clouds 1 998 100 7000 2.1 360 18:38 03.11.2019
5061 Clouds 0 997 100 8000 1 330 18:18 03.11.2019
5062 Clouds 0 997 100 10000 2.1 320 17:58 03.11.2019
5063 Clouds 0 997 100 10000 2.1 320 17:39 03.11.2019
5064 Clouds 1 996 77 10000 1.5 330 17:18 03.11.2019
5065 Clouds 1 996 100 10000 1.5 320 16:54 03.11.2019
5066 Clouds 1 996 100 10000 1.5 320 16:54 03.11.2019
5067 Clouds 1 996 100 10000 1.5 320 16:54 03.11.2019
5068 Clouds 1 996 100 10000 1.5 320 16:36 03.11.2019
5069 Clouds 2 996 100 10000 2.1 310 16:18 03.11.2019
5070 Clouds 2 996 93 10000 2.6 310 15:54 03.11.2019
5071 Clouds 3 996 93 10000 2.6 310 15:36 03.11.2019
5072 Clouds 3 995 93 10000 3.1 320 15:18 03.11.2019
5073 Clouds 3 995 93 10000 2.6 320 14:40 03.11.2019
5074 Clouds 3 995 100 10000 3.1 310 14:18 03.11.2019
5075 Clouds 3 995 100 7000 2.1 300 13:54 03.11.2019
5076 Clouds 3 995 100 7000 2.1 300 13:36 03.11.2019
5077 Mist 3 994 100 3500 2.1 320 13:18 03.11.2019
5078 Fog 3 994 100 700 2.6 330 12:38 03.11.2019
5079 Mist 3 994 100 1100 3.1 330 12:19 03.11.2019
5080 Fog 3 994 100 550 3.1 320 11:55 03.11.2019
5081 Fog 3 994 100 550 3.1 320 11:37 03.11.2019
5082 Fog 3 993 100 500 1.5 310 11:19 03.11.2019
5083 Fog 2 993 100 350 1.5 300 10:40 03.11.2019
5084 Fog 2 993 100 250 3.1 330 10:22 03.11.2019
5085 Fog 2 993 100 250 3.1 330 10:22 03.11.2019
5086 Fog 2 993 100 250 3.1 330 10:22 03.11.2019
5087 Fog 2 993 100 250 3.1 330 10:22 03.11.2019
5088 Fog 2 993 100 400 2.1 320 09:57 03.11.2019
5089 Fog 2 993 100 400 2.1 320 09:39 03.11.2019
5090 Fog 2 993 100 400 2.1 320 09:39 03.11.2019
5091 Fog 2 993 100 800 2.1 330 09:21 03.11.2019
5092 Fog 2 992 100 200 1.5 310 08:42 03.11.2019
5093 Fog 2 992 100 150 1 0 08:24 03.11.2019
5094 Fog 2 992 100 150 1.5 0 07:46 03.11.2019
5095 Fog 2 992 100 100 1.5 0 07:28 03.11.2019
5096 Fog 2 992 100 100 1 0 06:53 03.11.2019
5097 Fog 3 991 100 150 2.46 20 06:34 03.11.2019
5098 Mist 3 991 100 1200 1 0 05:40 03.11.2019
5099 Mist 3 991 100 1200 1 0 05:40 03.11.2019
5100 Mist 3 991 100 2500 1.5 40 04:58 03.11.2019
5101 Mist 3 991 100 2500 1.5 40 04:38 03.11.2019
5102 Drizzle 3 991 100 1100 1 50 03:38 03.11.2019
5103 Drizzle 3 991 100 2200 0.5 120 02:45 03.11.2019
5104 Drizzle 3 991 100 3000 0.5 0 02:20 03.11.2019
5105 Drizzle 3 991 100 9000 0.5 0 01:42 03.11.2019
5106 Drizzle 3 992 100 10000 6.78 194 01:20 03.11.2019
5107 Clouds 3 992 100 10000 0.5 0 00:45 03.11.2019
5108 Clouds 3 992 100 10000 2.1 180 00:27 03.11.2019
5109 Clouds 3 992 100 10000 2.1 180 23:58 02.11.2019
5110 Clouds 3 992 93 10000 2.1 190 23:38 02.11.2019
5111 Clouds 3 992 93 10000 3.1 170 23:19 02.11.2019
5112 Drizzle 3 992 93 7000 3.1 180 22:56 02.11.2019
5113 Drizzle 3 992 93 7000 3.1 180 22:37 02.11.2019
5114 Rain 3 993 93 10000 4.1 180 22:18 02.11.2019
5115 Drizzle 3 993 93 6000 3.1 180 21:56 02.11.2019
5116 Drizzle 3 993 93 6000 3.1 180 21:38 02.11.2019
5117 Drizzle 3 993 93 6000 3.1 180 21:18 02.11.2019
5118 Drizzle 3 993 93 6000 3.1 180 21:18 02.11.2019
5119 Rain 3 994 93 10000 3.6 170 20:58 02.11.2019
5120 Rain 3 994 93 10000 3.6 170 20:39 02.11.2019
5121 Rain 3 994 93 10000 4.6 160 20:19 02.11.2019
5122 Rain 4 994 93 10000 4.6 160 20:19 02.11.2019
5123 Rain 4 994 93 9000 4.6 170 19:41 02.11.2019
5124 Rain 4 995 93 8000 3.6 160 19:23 02.11.2019
5125 Rain 4 995 93 8000 3.6 160 18:57 02.11.2019
5126 Rain 4 995 93 9000 4.1 160 18:38 02.11.2019
5127 Rain 4 995 86 9000 6.7 170 18:20 02.11.2019
5128 Rain 4 995 80 10000 6.2 160 17:57 02.11.2019
5129 Clouds 4 995 80 10000 6.2 160 17:38 02.11.2019
5130 Clouds 5 996 80 10000 5.1 160 17:20 02.11.2019
5131 Clouds 5 996 75 10000 5.7 150 16:57 02.11.2019
5132 Clouds 5 996 75 10000 5.7 150 16:36 02.11.2019
5133 Clouds 5 996 80 10000 6.7 160 16:18 02.11.2019
5134 Clouds 5 996 80 10000 6.7 160 16:18 02.11.2019
5135 Clouds 5 997 80 10000 6.7 150 15:41 02.11.2019
5136 Clouds 5 997 80 10000 6.7 150 15:41 02.11.2019
5137 Clouds 5 997 80 10000 6.7 150 15:20 02.11.2019
5138 Clouds 5 998 80 10000 6.2 150 14:43 02.11.2019
5139 Clouds 5 998 80 10000 5.7 150 14:24 02.11.2019
5140 Clouds 5 999 80 10000 6.2 150 13:58 02.11.2019
5141 Clouds 5 999 80 10000 6.2 150 13:38 02.11.2019
5142 Clouds 5 999 80 10000 7.7 150 13:19 02.11.2019
5143 Clouds 5 1000 80 10000 7.2 150 12:41 02.11.2019
5144 Clouds 5 1000 86 10000 6.7 150 12:23 02.11.2019
5145 Clouds 5 1000 86 10000 6.7 150 11:58 02.11.2019
5146 Clouds 5 1001 86 10000 7.7 150 11:39 02.11.2019
5147 Clouds 5 1001 93 10000 6.2 150 11:21 02.11.2019
5148 Clouds 5 1002 100 10000 6.2 150 10:50 02.11.2019
5149 Clouds 5 1002 100 10000 6.2 150 10:28 02.11.2019
5150 Rain 5 1003 93 10000 4.6 140 09:58 02.11.2019
5151 Rain 4 1003 93 10000 4.6 140 09:39 02.11.2019
5152 Rain 4 1003 93 9000 4.6 150 09:19 02.11.2019
5153 Rain 4 1003 93 10000 4.6 150 08:45 02.11.2019
5154 Rain 4 1004 100 10000 4.1 140 08:22 02.11.2019
5155 Rain 4 1004 100 10000 3.1 140 07:49 02.11.2019
5156 Rain 3 1005 93 10000 2.1 120 07:29 02.11.2019
5157 Rain 3 1005 93 10000 3.1 120 06:55 02.11.2019
5158 Rain 3 1005 93 10000 3.1 120 06:37 02.11.2019
5159 Clouds 2 1006 86 10000 2.6 120 05:56 02.11.2019
5160 Clouds 2 1006 88 10000 3.1 120 05:20 02.11.2019
5161 Clouds 0 1007 88 10000 2.6 100 04:21 02.11.2019
5162 Clouds 0 1007 88 10000 2.1 90 03:50 02.11.2019
5163 Clouds -1 1008 100 10000 2.6 100 02:42 02.11.2019
5164 Clouds -3 1009 100 10000 2.1 100 01:44 02.11.2019
5165 Clouds -3 1009 100 10000 2.1 110 01:23 02.11.2019
5166 Clouds -4 1010 100 10000 2.1 100 00:51 02.11.2019
5167 Clouds -4 1010 92 10000 1.5 100 00:26 02.11.2019
5168 Clouds -4 1010 100 10000 1.5 90 23:48 01.11.2019
5169 Clouds -4 1010 100 10000 1.5 80 23:22 01.11.2019
5170 Clouds -4 1010 100 10000 1.5 80 22:58 01.11.2019
5171 Clouds -4 1010 100 10000 1.5 80 22:39 01.11.2019
5172 Clouds -3 1011 100 10000 2.1 80 22:20 01.11.2019
5173 Clouds -3 1011 92 10000 1.5 90 21:41 01.11.2019
5174 Clouds -3 1011 92 10000 1 0 21:23 01.11.2019
5175 Clouds -3 1011 100 10000 0.5 0 20:57 01.11.2019
5176 Clouds -2 1011 100 10000 0.5 0 20:39 01.11.2019
5177 Clouds -2 1011 100 10000 1 0 20:19 01.11.2019
5178 Clouds -3 1011 100 10000 1 0 19:56 01.11.2019
5179 Clouds -3 1011 100 10000 0.5 0 19:37 01.11.2019
5180 Clouds -2 1012 92 10000 1.5 240 19:18 01.11.2019
5181 Clouds -2 1012 92 10000 2.1 220 18:39 01.11.2019
5182 Clouds -2 1012 92 10000 0.5 0 18:20 01.11.2019
5183 Clouds -2 1012 92 10000 1.84 304 17:55 01.11.2019
5184 Clouds -2 1012 92 10000 1.84 304 17:37 01.11.2019
5185 Clouds -1 1012 66 10000 2.6 280 17:18 01.11.2019
5186 Clouds 0 1012 66 10000 2.6 270 16:38 01.11.2019
5187 Clouds 0 1012 80 10000 2.1 260 16:19 01.11.2019
5188 Clouds 1 1012 80 10000 2.1 250 15:41 01.11.2019
5189 Clouds 2 1012 80 10000 2.6 260 15:23 01.11.2019
5190 Clouds 2 1012 74 10000 2.6 270 14:58 01.11.2019
5191 Clouds 2 1012 74 10000 2.6 270 14:40 01.11.2019
5192 Clouds 3 1012 74 10000 3.1 270 14:22 01.11.2019
5193 Clouds 3 1012 74 10000 3.1 280 13:56 01.11.2019
5194 Clouds 3 1012 74 10000 3.1 280 13:37 01.11.2019
5195 Clouds 3 1012 74 10000 3.6 280 13:19 01.11.2019
5196 Clouds 3 1012 74 10000 4.1 280 12:43 01.11.2019
5197 Clouds 3 1012 74 10000 3.6 300 12:25 01.11.2019
5198 Clouds 3 1012 74 10000 4.1 300 11:44 01.11.2019
5199 Clouds 3 1012 74 10000 4.1 300 11:44 01.11.2019
5200 Clouds 3 1012 80 10000 4.1 300 11:25 01.11.2019
5201 Clouds 3 1012 80 10000 3.6 290 10:59 01.11.2019
5202 Clouds 2 1012 80 10000 3.6 290 10:40 01.11.2019
5203 Clouds 2 1013 86 10000 3.6 300 10:21 01.11.2019
5204 Clouds 1 1013 86 10000 3.1 300 09:56 01.11.2019
5205 Clouds 1 1013 86 10000 3.1 300 09:56 01.11.2019
5206 Clouds 1 1013 86 10000 3.1 300 09:36 01.11.2019
5207 Clouds 1 1013 86 10000 3.1 300 09:36 01.11.2019
5208 Clouds 1 1012 71 10000 2.6 270 09:18 01.11.2019
5209 Clouds 0 1012 71 10000 2.1 300 08:42 01.11.2019
5210 Clouds -1 1012 92 10000 2.6 270 08:21 01.11.2019
5211 Clouds -1 1012 92 10000 3.6 280 07:53 01.11.2019
5212 Clear -1 1012 86 10000 3.6 290 07:26 01.11.2019
5213 Clear -2 1012 92 10000 3.1 280 06:57 01.11.2019
5214 Clear -1 1012 92 10000 3.1 280 06:39 01.11.2019
5215 Clear -2 1012 92 10000 3.1 280 06:21 01.11.2019
5216 Clear -1 1012 72 10000 4.6 280 05:43 01.11.2019
5217 Clear -1 1012 72 10000 3.6 280 03:34 01.11.2019
5218 Clear -1 1012 92 10000 3.6 270 03:34 01.11.2019
5219 Clear -1 1012 100 10000 3.6 260 01:56 01.11.2019
5220 Clear -1 1012 100 10000 3.6 260 01:28 01.11.2019
5221 Clear -1 1012 73 10000 4.6 260 00:21 01.11.2019
5222 Clear 0 1012 73 10000 4.6 260 23:56 31.10.2019
5223 Clear 0 1012 73 10000 4.1 270 23:38 31.10.2019
5224 Clear 0 1012 76 10000 4.1 270 23:19 31.10.2019
5225 Clear 1 1012 76 10000 4.6 270 22:42 31.10.2019
5226 Clear 1 1012 76 10000 4.1 270 22:24 31.10.2019
5227 Clear 1 1012 76 10000 3.6 270 21:58 31.10.2019
5228 Clear 1 1012 76 10000 3.6 270 21:40 31.10.2019
5229 Clouds 1 1012 76 10000 3.6 260 21:19 31.10.2019
5230 Clouds 2 1012 93 10000 4.1 270 20:41 31.10.2019
5231 Clouds 2 1012 86 10000 5.1 270 20:23 31.10.2019
5232 Clouds 2 1011 80 10000 4.6 270 19:59 31.10.2019
5233 Clouds 3 1011 80 10000 4.6 270 19:38 31.10.2019
5234 Clouds 3 1011 80 10000 4.6 270 19:38 31.10.2019
5235 Clouds 3 1011 80 10000 4.1 290 19:20 31.10.2019
5236 Clouds 3 1011 80 10000 3.6 280 18:44 31.10.2019
5237 Clouds 3 1011 80 10000 3.6 280 18:26 31.10.2019
5238 Clouds 3 1011 80 10000 4.1 270 17:59 31.10.2019
5239 Clouds 3 1011 80 10000 4.1 270 17:40 31.10.2019
5240 Clouds 3 1011 80 10000 3.6 250 17:20 31.10.2019
5241 Clouds 3 1011 86 10000 4.1 270 16:55 31.10.2019
5242 Clouds 3 1011 86 10000 4.1 270 16:37 31.10.2019
5243 Clouds 4 1011 86 10000 3.1 260 16:18 31.10.2019
5244 Clouds 4 1011 86 10000 3.6 270 15:40 31.10.2019
5245 Clouds 4 1011 86 10000 3.6 270 15:40 31.10.2019
5246 Clouds 4 1011 86 10000 4.1 270 15:21 31.10.2019
5247 Clouds 4 1011 86 10000 4.1 270 15:21 31.10.2019
5248 Clouds 4 1011 86 10000 3.1 260 14:58 31.10.2019
5249 Clouds 4 1011 86 10000 3.1 260 14:40 31.10.2019
5250 Clouds 4 1011 86 10000 3.6 260 14:22 31.10.2019
5251 Clouds 4 1011 86 10000 4.1 260 13:59 31.10.2019
5252 Clouds 4 1011 86 10000 4.1 260 13:38 31.10.2019
5253 Clouds 5 1011 80 10000 4.6 280 13:19 31.10.2019
5254 Clouds 5 1011 80 10000 4.6 280 13:19 31.10.2019
5255 Clouds 4 1011 80 10000 3.1 270 12:55 31.10.2019
5256 Clouds 4 1011 80 10000 3.1 270 12:37 31.10.2019
5257 Clouds 4 1011 80 10000 3.6 260 12:18 31.10.2019
5258 Clouds 4 1012 80 10000 4.1 270 11:45 31.10.2019
5259 Clouds 4 1012 86 10000 3.1 280 11:20 31.10.2019
5260 Rain 4 1012 80 10000 3.1 280 10:58 31.10.2019
5261 Rain 4 1012 80 10000 3.1 280 10:39 31.10.2019
5262 Rain 3 1012 86 10000 2.1 260 10:20 31.10.2019
5263 Clouds 2 1013 86 10000 2.1 220 09:45 31.10.2019
5264 Clouds 2 1013 93 10000 2.6 240 09:20 31.10.2019
5265 Clouds 2 1013 93 10000 2.6 240 09:20 31.10.2019
5266 Clouds 1 1013 100 10000 2.6 220 08:57 31.10.2019
5267 Clouds 1 1013 100 10000 2.6 220 08:39 31.10.2019
5268 Clouds 0 1013 93 10000 3.1 200 08:20 31.10.2019
5269 Clouds 1 1013 93 10000 2.6 220 07:45 31.10.2019
5270 Rain 1 1013 76 10000 3.6 210 07:24 31.10.2019
5271 Rain 1 1014 100 10000 3.1 220 06:52 31.10.2019
5272 Rain 1 1014 93 10000 4.1 200 06:30 31.10.2019
5273 Rain 0 1015 93 10000 3.6 190 05:19 31.10.2019
5274 Rain 0 1015 93 10000 3.6 190 05:19 31.10.2019
5275 Clouds -2 1017 100 10000 3.1 200 02:49 31.10.2019
5276 Clouds -1 1017 84 10000 2.6 180 02:22 31.10.2019
5277 Clouds -1 1018 85 10000 2.6 190 00:51 31.10.2019
5278 Clouds -1 1019 85 10000 3.1 170 00:25 31.10.2019
5279 Clouds -1 1019 85 10000 2.6 150 23:41 30.10.2019
5280 Clouds -1 1019 88 10000 1 0 23:22 30.10.2019
5281 Clouds -2 1020 86 10000 2.1 170 22:41 30.10.2019
5282 Clouds -2 1020 86 10000 2.1 200 22:19 30.10.2019
5283 Clouds -2 1021 86 10000 3.1 180 21:54 30.10.2019
5284 Clouds -2 1021 86 10000 3.1 180 21:36 30.10.2019
5285 Clouds -2 1021 86 10000 3.1 180 21:36 30.10.2019
5286 Clouds -2 1021 80 10000 3.6 140 21:18 30.10.2019
5287 Clouds -2 1021 80 10000 3.6 140 21:18 30.10.2019
5288 Clouds -1 1021 80 10000 3.6 140 20:57 30.10.2019
5289 Clouds -2 1021 74 10000 1.5 110 20:37 30.10.2019
5290 Clouds -2 1021 92 10000 2.1 110 20:19 30.10.2019
5291 Clouds -2 1022 86 10000 1.5 120 19:42 30.10.2019
5292 Clouds -2 1022 92 10000 2.1 170 19:23 30.10.2019
5293 Clouds -2 1022 92 10000 2.1 170 18:59 30.10.2019
5294 Clouds -3 1023 92 10000 1 0 18:38 30.10.2019
5295 Clouds -3 1023 92 10000 2.1 190 18:19 30.10.2019
5296 Clouds -3 1023 79 10000 2.6 220 17:55 30.10.2019
5297 Clouds -3 1023 79 10000 2.6 220 17:55 30.10.2019
5298 Clouds -3 1023 79 10000 2.6 220 17:37 30.10.2019
5299 Clear -3 1023 74 10000 2.6 220 17:18 30.10.2019
5300 Clear -3 1023 74 10000 2.1 220 16:42 30.10.2019
5301 Clear -2 1023 74 10000 2.1 230 16:23 30.10.2019
5302 Clear -2 1023 74 10000 2.1 230 15:59 30.10.2019
5303 Clouds -1 1024 74 10000 2.1 260 15:38 30.10.2019
5304 Clouds -1 1024 74 10000 2.6 270 15:19 30.10.2019
5305 Clouds -1 1024 74 10000 3.1 280 14:57 30.10.2019
5306 Clouds 0 1024 74 10000 3.1 280 14:39 30.10.2019
5307 Clouds 0 1024 58 10000 3.6 270 14:21 30.10.2019
5308 Clouds 0 1024 58 10000 3.6 270 13:54 30.10.2019
5309 Clouds 0 1024 58 10000 3.6 270 13:36 30.10.2019
5310 Clouds 0 1024 58 10000 3.1 280 13:18 30.10.2019
5311 Clouds 0 1024 58 10000 3.1 280 12:43 30.10.2019
5312 Clouds 0 1024 58 10000 3.1 280 12:43 30.10.2019
5313 Clouds 0 1024 58 10000 3.1 280 12:25 30.10.2019
5314 Clear 0 1024 86 10000 3.1 270 11:57 30.10.2019
5315 Clear 0 1024 86 10000 3.1 270 11:57 30.10.2019
5316 Clear 0 1024 86 10000 3.1 270 11:38 30.10.2019
5317 Clear -1 1024 80 10000 2.6 270 11:18 30.10.2019
5318 Clear -1 1024 86 10000 2.1 280 10:42 30.10.2019
5319 Clear -1 1024 86 10000 3.1 280 10:23 30.10.2019
5320 Clear -2 1024 86 10000 2.6 280 09:42 30.10.2019
5321 Clear -2 1024 86 10000 2.6 280 09:42 30.10.2019
5322 Clear -2 1024 86 10000 2.6 270 09:23 30.10.2019
5323 Clear -3 1024 92 10000 3.6 300 08:57 30.10.2019
5324 Clear -3 1024 92 10000 3.6 300 08:39 30.10.2019
5325 Clear -4 1023 92 10000 3.6 310 08:19 30.10.2019
5326 Clear -5 1023 92 10000 3.1 0 07:43 30.10.2019
5327 Clear -5 1023 92 10000 2.6 310 07:20 30.10.2019
5328 Clear -5 1023 92 10000 2.6 310 06:42 30.10.2019
5329 Clear -5 1023 92 10000 3.1 300 06:18 30.10.2019
5330 Clear -5 1022 92 10000 3.6 310 05:41 30.10.2019
5331 Clear -4 1022 92 10000 4.1 310 04:42 30.10.2019
5332 Clear -4 1022 85 10000 4.6 310 03:43 30.10.2019
5333 Clear -4 1022 85 10000 4.6 310 03:43 30.10.2019
5334 Clear -4 1021 85 10000 4.6 300 02:51 30.10.2019
5335 Clear -4 1021 85 10000 4.6 300 01:55 30.10.2019
5336 Clear -4 1021 85 10000 3.6 300 00:55 30.10.2019
5337 Clear -4 1020 85 10000 4.1 320 00:28 30.10.2019
5338 Clear -4 1020 92 10000 3.6 320 23:42 29.10.2019
5339 Clear -4 1020 92 10000 4.1 320 23:22 29.10.2019
5340 Clear -3 1020 86 10000 4.6 320 22:46 29.10.2019
5341 Clear -4 1020 85 10000 3.6 310 22:20 29.10.2019
5342 Clear -4 1020 92 10000 4.1 310 21:56 29.10.2019
5343 Clear -3 1020 92 10000 4.1 310 21:38 29.10.2019
5344 Clear -3 1019 92 10000 3.1 310 21:20 29.10.2019
5345 Clear -4 1019 92 10000 4.1 320 20:54 29.10.2019
5346 Clear -4 1019 92 10000 4.1 320 20:36 29.10.2019
5347 Clouds -3 1019 92 10000 3.6 320 20:18 29.10.2019
5348 Clouds -3 1018 86 10000 4.1 300 19:55 29.10.2019
5349 Clouds -3 1018 86 10000 4.1 300 19:36 29.10.2019
5350 Clouds -3 1018 92 10000 3.1 310 19:18 29.10.2019
5351 Clouds -3 1018 92 10000 3.1 310 18:54 29.10.2019
5352 Clouds -3 1018 92 10000 3.1 310 18:36 29.10.2019
5353 Clouds -3 1017 86 10000 3.6 310 18:18 29.10.2019
5354 Clouds -3 1017 92 10000 3.1 310 17:40 29.10.2019
5355 Clouds -2 1017 86 10000 2.6 290 17:21 29.10.2019
5356 Clouds -2 1017 86 10000 2.6 310 16:58 29.10.2019
5357 Clouds -2 1017 86 10000 2.6 310 16:38 29.10.2019
5358 Clouds -1 1016 86 10000 2.6 300 16:19 29.10.2019
5359 Clouds -1 1016 86 10000 3.1 300 15:54 29.10.2019
5360 Clouds -1 1016 86 10000 3.1 300 15:36 29.10.2019
5361 Clouds 0 1016 64 10000 3.1 310 15:18 29.10.2019
5362 Clouds 0 1016 64 10000 4.1 330 14:42 29.10.2019
5363 Clouds 0 1016 64 10000 4.1 330 14:42 29.10.2019
5364 Clouds 0 1016 68 10000 3.6 320 14:23 29.10.2019
5365 Clouds 0 1016 68 10000 3.6 320 13:58 29.10.2019
5366 Clouds 0 1015 67 10000 3.6 320 13:39 29.10.2019
5367 Clouds 0 1015 67 10000 4.6 320 13:21 29.10.2019
5368 Clouds 0 1015 67 10000 4.6 320 13:21 29.10.2019
5369 Clouds 0 1015 67 10000 5.1 340 12:43 29.10.2019
5370 Clouds 0 1015 67 10000 5.1 340 12:43 29.10.2019
5371 Clouds 0 1015 67 10000 5.1 340 12:43 29.10.2019
5372 Clouds 0 1015 67 10000 4.6 350 12:25 29.10.2019
5373 Clouds 0 1015 67 10000 6.2 330 11:55 29.10.2019
5374 Clouds 0 1015 67 10000 6.2 330 11:37 29.10.2019
5375 Clouds 0 1014 75 10000 5.1 320 11:18 29.10.2019
5376 Clouds 0 1014 75 10000 4.1 310 10:57 29.10.2019
5377 Clouds 0 1014 75 10000 4.1 310 10:38 29.10.2019
5378 Clouds -1 1014 92 10000 3.6 300 10:19 29.10.2019
5379 Clouds -1 1014 92 10000 3.1 280 09:42 29.10.2019
5380 Clouds -1 1014 92 10000 3.1 290 09:23 29.10.2019
5381 Clouds -1 1014 92 10000 3.1 290 09:23 29.10.2019
5382 Clouds -2 1014 92 10000 3.1 290 08:57 29.10.2019
5383 Clouds -2 1014 92 10000 3.1 290 08:39 29.10.2019
5384 Clouds -2 1013 92 10000 3.1 280 08:20 29.10.2019
5385 Clouds -2 1013 100 10000 2.6 280 07:48 29.10.2019
5386 Clouds -3 1013 92 10000 3.6 290 07:21 29.10.2019
5387 Clouds -3 1013 92 10000 3.1 290 06:54 29.10.2019
5388 Clouds -3 1013 92 10000 3.1 290 06:31 29.10.2019
5389 Clouds -4 1013 100 10000 2.6 290 05:56 29.10.2019
5390 Clouds -4 1013 100 10000 2.6 290 05:38 29.10.2019
5391 Clouds -4 1013 100 10000 2.1 310 04:41 29.10.2019
5392 Clear -3 1012 100 10000 1.5 340 02:39 29.10.2019
5393 Clouds -3 1012 100 10000 2.6 350 01:56 29.10.2019
5394 Clouds -3 1012 92 10000 2.1 340 01:36 29.10.2019
5395 Clouds -3 1012 92 10000 3.1 320 00:53 29.10.2019
5396 Clouds -3 1012 92 10000 2.6 330 00:24 29.10.2019
5397 Clouds -2 1012 92 10000 3.1 350 23:38 28.10.2019
5398 Clouds -2 1012 92 10000 3.1 360 23:20 28.10.2019
5399 Clouds -2 1012 92 10000 3.1 360 23:20 28.10.2019
5400 Rain -2 1011 92 10000 3.1 340 22:39 28.10.2019
5401 Rain -2 1011 92 10000 3.6 340 22:20 28.10.2019
5402 Rain -1 1011 92 10000 3.6 340 21:58 28.10.2019
5403 Clouds -1 1011 100 10000 3.1 330 21:39 28.10.2019
5404 Clouds -1 1011 92 10000 3.6 340 21:21 28.10.2019
5405 Clouds -1 1011 100 10000 2.6 340 20:59 28.10.2019
5406 Clouds -1 1011 100 10000 2.6 340 20:40 28.10.2019
5407 Clouds 0 1011 100 10000 3.1 340 20:21 28.10.2019
5408 Clouds 0 1011 88 10000 2.1 360 19:54 28.10.2019
5409 Clouds 0 1011 88 10000 2.1 360 19:36 28.10.2019
5410 Clouds 0 1011 88 10000 2.6 360 19:18 28.10.2019
5411 Clouds 0 1011 88 10000 2.6 360 19:18 28.10.2019
5412 Clouds 0 1011 88 10000 2.6 360 18:56 28.10.2019
5413 Clouds 0 1011 88 10000 2.6 360 18:56 28.10.2019
5414 Clouds 0 1011 88 10000 1.5 360 18:38 28.10.2019
5415 Clouds 0 1011 88 10000 1.5 340 18:20 28.10.2019
5416 Clouds 0 1010 88 10000 2.1 360 17:55 28.10.2019
5417 Clouds 0 1010 88 10000 2.1 360 17:55 28.10.2019
5418 Clouds 0 1010 88 10000 2.1 360 17:36 28.10.2019
5419 Snow 0 1010 95 10000 2.6 360 17:18 28.10.2019
5420 Snow 0 1010 95 10000 2.6 360 17:18 28.10.2019
5421 Snow 0 1010 95 5000 2.6 10 16:54 28.10.2019
5422 Snow 0 1010 95 3000 2.1 360 16:36 28.10.2019
5423 Snow 0 1010 95 3000 2.1 360 16:18 28.10.2019
5424 Snow 0 1010 95 3000 1.5 10 15:42 28.10.2019
5425 Snow 0 1010 95 1200 2.1 360 15:24 28.10.2019
5426 Snow 1 1010 95 2000 2.6 350 14:59 28.10.2019
5427 Snow 1 1010 95 2000 2.6 350 14:40 28.10.2019
5428 Clouds 1 1010 86 6000 2.6 360 14:19 28.10.2019
5429 Clouds 1 1010 86 10000 2.1 10 13:59 28.10.2019
5430 Clouds 2 1010 86 10000 2.1 10 13:41 28.10.2019
5431 Rain 2 1009 86 10000 1.5 10 13:18 28.10.2019
5432 Rain 1 1009 80 10000 1 0 12:43 28.10.2019
5433 Clouds 1 1009 80 10000 1 0 12:22 28.10.2019
5434 Clouds 1 1009 80 10000 1 0 11:59 28.10.2019
5435 Clouds 1 1009 80 10000 1 0 11:37 28.10.2019
5436 Clouds 1 1009 80 10000 1.5 80 11:19 28.10.2019
5437 Clouds 1 1009 74 10000 1.5 90 10:41 28.10.2019
5438 Rain 1 1009 80 10000 1.5 140 10:22 28.10.2019
5439 Clouds 1 1008 74 10000 1.5 110 09:58 28.10.2019
5440 Clouds 1 1008 74 10000 1.5 110 09:39 28.10.2019
5441 Clouds 0 1008 74 10000 1.5 90 09:19 28.10.2019
5442 Clouds 0 1008 74 10000 1.5 90 08:57 28.10.2019
5443 Clouds 0 1008 75 10000 1.5 80 08:38 28.10.2019
5444 Clouds 0 1007 76 10000 1 0 08:19 28.10.2019
5445 Clouds 0 1007 76 10000 0.5 0 07:56 28.10.2019
5446 Clouds 0 1007 76 10000 0.5 0 07:38 28.10.2019
5447 Clouds 0 1007 100 10000 1 340 07:19 28.10.2019
5448 Clouds 0 1006 76 10000 1 0 06:40 28.10.2019
5449 Clouds 0 1006 92 10000 2.1 340 05:47 28.10.2019
5450 Snow 0 1005 77 10000 2.1 320 03:56 28.10.2019
5451 Snow 0 1005 77 10000 2.1 320 03:38 28.10.2019
5452 Clouds 0 1004 77 10000 1.5 300 02:40 28.10.2019
5453 Clouds 1 1003 79 10000 3.1 310 00:57 28.10.2019
5454 Clouds 1 1003 79 10000 3.1 310 00:38 28.10.2019
5455 Snow 1 1003 79 10000 3.1 310 00:19 28.10.2019
5456 Clouds 1 1002 79 10000 2.6 310 23:42 27.10.2019
5457 Clouds 1 1002 76 10000 3.6 310 23:18 27.10.2019
5458 Clouds 1 1001 76 10000 3.1 300 22:42 27.10.2019
5459 Clouds 1 1001 76 10000 3.6 300 22:22 27.10.2019
5460 Clouds 1 1000 76 10000 4.6 290 21:58 27.10.2019
5461 Clouds 1 1000 76 10000 4.6 290 21:39 27.10.2019
5462 Clouds 1 1000 76 10000 5.1 290 21:21 27.10.2019
5463 Clouds 1 999 76 10000 5.1 300 20:57 27.10.2019
5464 Clouds 1 999 79 10000 5.1 300 20:38 27.10.2019
5465 Clouds 1 999 80 10000 6.2 290 20:20 27.10.2019
5466 Drizzle 1 998 80 10000 5.7 290 19:55 27.10.2019
5467 Drizzle 1 998 80 10000 5.7 290 19:36 27.10.2019
5468 Clouds 1 998 80 10000 5.7 290 19:18 27.10.2019
5469 Drizzle 1 997 80 10000 5.1 290 18:55 27.10.2019
5470 Drizzle 1 997 80 10000 5.1 290 18:36 27.10.2019
5471 Clouds 1 996 80 10000 5.1 300 18:18 27.10.2019
5472 Rain 1 996 80 10000 5.7 300 17:40 27.10.2019
5473 Rain 1 995 95 10000 5.1 310 17:20 27.10.2019
5474 Rain 1 994 95 10000 5.1 310 16:58 27.10.2019
5475 Rain 1 994 95 10000 5.1 310 16:39 27.10.2019
5476 Rain 1 994 95 7000 4.6 320 16:21 27.10.2019
5477 Snow 1 994 95 7000 4.6 320 15:56 27.10.2019
5478 Rain 1 993 95 3000 4.6 330 15:38 27.10.2019
5479 Rain 1 992 95 2500 4.6 330 15:19 27.10.2019
5480 Rain 1 992 100 3000 4.1 350 14:42 27.10.2019
5481 Rain 2 992 93 7000 4.1 350 14:21 27.10.2019
5482 Rain 2 992 100 9000 4.1 10 13:58 27.10.2019
5483 Rain 2 992 100 9000 4.1 10 13:38 27.10.2019
5484 Rain 2 992 100 9000 4.1 30 13:20 27.10.2019
5485 Rain 3 993 93 9000 4.6 20 12:55 27.10.2019
5486 Rain 3 993 93 9000 4.6 20 12:37 27.10.2019
5487 Rain 3 993 93 8000 4.1 30 12:19 27.10.2019
5488 Rain 3 993 100 10000 4.1 50 11:41 27.10.2019
5489 Rain 4 994 100 10000 4.6 40 11:21 27.10.2019
5490 Rain 3 995 100 10000 2.6 40 10:44 27.10.2019
5491 Rain 4 995 100 10000 3.1 50 10:25 27.10.2019
5492 Rain 4 996 100 6000 2.1 30 09:57 27.10.2019
5493 Rain 3 996 100 6000 2.1 30 09:39 27.10.2019
5494 Rain 3 997 100 10000 1.5 40 09:18 27.10.2019
5495 Mist 3 997 93 3000 1 0 08:56 27.10.2019
5496 Mist 3 997 93 3000 1 0 08:37 27.10.2019
5497 Mist 3 997 100 1200 1 0 08:18 27.10.2019
5498 Fog 3 998 100 600 1 350 07:43 27.10.2019
5499 Fog 3 998 100 500 0.5 0 07:24 27.10.2019
5500 Fog 3 998 100 300 1 0 06:49 27.10.2019
5501 Fog 3 999 100 400 1.5 250 06:26 27.10.2019
5502 Fog 3 999 100 500 1.5 230 05:39 27.10.2019
5503 Clouds 3 999 100 10000 2.1 240 04:51 27.10.2019
5504 Clouds 3 1000 93 10000 3.1 240 02:55 27.10.2019
5505 Clouds 4 1000 93 10000 3.6 240 01:49 27.10.2019
5506 Rain 4 1000 93 10000 4.1 260 01:20 27.10.2019
5507 Rain 4 1000 93 10000 4.1 270 00:46 27.10.2019
5508 Clouds 4 1000 93 10000 3.6 280 00:22 27.10.2019
5509 Clouds 4 1000 93 10000 3.6 270 23:55 26.10.2019
5510 Clouds 4 1000 93 10000 3.6 270 23:36 26.10.2019
5511 Clouds 4 1000 93 10000 4.1 270 23:18 26.10.2019
5512 Clouds 4 999 93 10000 4.6 260 22:40 26.10.2019
5513 Clouds 4 999 93 10000 4.1 260 22:20 26.10.2019
5514 Clouds 4 999 93 10000 4.1 260 21:59 26.10.2019
5515 Clouds 4 999 93 10000 4.1 260 21:41 26.10.2019
5516 Clouds 4 998 93 10000 4.1 260 21:21 26.10.2019
5517 Clouds 5 998 93 10000 4.1 270 20:45 26.10.2019
5518 Clouds 5 998 93 10000 4.1 270 20:45 26.10.2019
5519 Clouds 5 997 93 10000 4.1 270 20:20 26.10.2019
5520 Clouds 5 997 100 10000 3.1 290 19:57 26.10.2019
5521 Clouds 5 997 100 10000 3.1 290 19:38 26.10.2019
5522 Clouds 5 996 100 10000 4.1 320 19:19 26.10.2019
5523 Clouds 6 995 93 10000 4.1 330 18:56 26.10.2019
5524 Clouds 6 995 93 10000 4.1 330 18:37 26.10.2019
5525 Rain 6 995 93 10000 4.6 340 18:18 26.10.2019
5526 Drizzle 6 994 100 8000 4.6 350 17:39 26.10.2019
5527 Drizzle 6 994 100 8000 4.6 350 17:39 26.10.2019
5528 Drizzle 6 994 100 8000 4.6 350 17:39 26.10.2019
5529 Rain 6 994 100 6000 4.6 360 17:21 26.10.2019
5530 Rain 6 994 100 6000 4.6 360 16:59 26.10.2019
5531 Drizzle 6 994 100 3500 6.2 10 16:59 26.10.2019
5532 Drizzle 6 994 100 3500 6.2 10 16:41 26.10.2019
5533 Drizzle 6 994 100 3500 6.2 10 16:41 26.10.2019
5534 Rain 6 994 100 8000 4.1 20 16:22 26.10.2019
5535 Rain 7 994 93 10000 4.1 30 15:41 26.10.2019
5536 Rain 7 996 100 6000 3.6 350 15:20 26.10.2019
5537 Rain 7 996 93 4500 2.1 80 14:41 26.10.2019
5538 Rain 7 997 93 7000 2.1 70 14:22 26.10.2019
5539 Rain 10 998 96 0 6.87 203 13:59 26.10.2019
5540 Rain 6 998 100 7000 1.5 90 13:41 26.10.2019
5541 Rain 7 996 87 0 6.87 203 13:21 26.10.2019
5542 Rain 6 1000 93 9000 3.6 190 12:48 26.10.2019
5543 Rain 7 1002 81 10000 5.7 220 12:25 26.10.2019
5544 Rain 7 1002 81 10000 5.7 220 11:50 26.10.2019
5545 Rain 7 1002 81 10000 5.7 220 11:29 26.10.2019
5546 Clouds 8 1002 75 10000 4.6 220 10:57 26.10.2019
5547 Clouds 8 1002 75 10000 4.6 220 10:39 26.10.2019
5548 Clouds 8 1003 70 10000 5.1 230 10:21 26.10.2019
5549 Clouds 8 1003 70 10000 5.1 230 09:44 26.10.2019
5550 Clouds 7 1003 75 10000 5.1 230 09:26 26.10.2019
5551 Clouds 7 1003 75 10000 5.7 230 08:44 26.10.2019
5552 Clouds 7 1003 75 10000 7.7 230 08:25 26.10.2019
5553 Clouds 7 1003 75 10000 7.7 230 07:55 26.10.2019
5554 Clouds 7 1003 70 10000 7.2 240 07:31 26.10.2019
5555 Clouds 8 1003 70 10000 7.2 240 06:46 26.10.2019
5556 Clouds 7 1003 75 10000 7.2 240 06:27 26.10.2019
5557 Clouds 7 1003 81 10000 7.2 230 05:21 26.10.2019
5558 Clouds 7 1003 81 10000 6.2 230 04:30 26.10.2019
5559 Clouds 8 1003 75 10000 5.7 230 02:57 26.10.2019
5560 Clouds 8 1003 70 10000 5.7 240 01:57 26.10.2019
5561 Clouds 9 1003 70 10000 5.7 240 01:34 26.10.2019
5562 Clear 10 1002 76 10000 6.7 230 00:26 26.10.2019
5563 Clear 9 1002 81 10000 7.2 230 23:44 25.10.2019
5564 Clear 9 1002 81 10000 7.2 230 23:44 25.10.2019
5565 Clear 10 1002 76 10000 8.2 230 23:20 25.10.2019
5566 Clear 10 1002 76 10000 6.7 230 22:41 25.10.2019
5567 Clouds 10 1002 81 10000 7.7 230 22:23 25.10.2019
5568 Clouds 10 1002 81 10000 6.7 230 21:58 25.10.2019
5569 Clouds 10 1002 81 10000 6.7 230 21:40 25.10.2019
5570 Rain 10 1001 81 10000 6.7 230 21:21 25.10.2019
5571 Clouds 10 1001 81 10000 8.2 230 20:56 25.10.2019
5572 Clouds 10 1001 81 10000 8.2 230 20:38 25.10.2019
5573 Clouds 11 1001 87 10000 7.2 230 20:19 25.10.2019
5574 Clouds 11 1001 87 9000 8.2 220 19:44 25.10.2019
5575 Clouds 11 1001 87 8000 7.7 210 19:25 25.10.2019
5576 Rain 12 1001 93 6000 9.3 210 18:46 25.10.2019
5577 Rain 12 1001 93 5000 8.2 210 18:24 25.10.2019
5578 Mist 12 1001 93 5000 9.3 210 17:42 25.10.2019
5579 Rain 11 1002 100 4500 8.7 210 17:22 25.10.2019
5580 Rain 11 1002 100 7000 7.2 210 16:58 25.10.2019
5581 Rain 11 1002 100 7000 7.2 210 16:58 25.10.2019
5582 Rain 11 1002 100 7000 7.2 210 16:40 25.10.2019
5583 Rain 11 1003 100 7000 7.7 210 16:19 25.10.2019
5584 Clouds 11 1003 100 6000 7.2 210 15:41 25.10.2019
5585 Drizzle 11 1003 93 4500 6.7 210 15:23 25.10.2019
5586 Drizzle 11 1003 93 8000 6.7 220 14:59 25.10.2019
5587 Drizzle 11 1003 93 8000 6.7 220 14:40 25.10.2019
5588 Drizzle 11 1003 93 6000 6.7 210 14:21 25.10.2019
5589 Drizzle 11 1004 93 4000 7.2 200 13:44 25.10.2019
5590 Drizzle 11 1004 93 4000 7.2 200 13:44 25.10.2019
5591 Drizzle 11 1004 93 4000 7.2 200 13:44 25.10.2019
5592 Drizzle 11 1004 93 2200 7.2 190 13:24 25.10.2019
5593 Drizzle 10 1004 100 2200 7.2 190 12:57 25.10.2019
5594 Drizzle 10 1004 100 2200 7.2 190 12:39 25.10.2019
5595 Drizzle 10 1005 100 2500 6.7 180 12:19 25.10.2019
5596 Drizzle 10 1005 100 2200 6.2 180 11:41 25.10.2019
5597 Drizzle 10 1006 100 1800 6.2 180 11:22 25.10.2019
5598 Drizzle 10 1006 100 2500 7.2 180 10:59 25.10.2019
5599 Drizzle 10 1006 100 2500 7.2 180 10:39 25.10.2019
5600 Drizzle 10 1006 93 6000 6.2 170 10:20 25.10.2019
5601 Clouds 10 1007 93 10000 6.2 160 09:54 25.10.2019
5602 Clouds 10 1007 93 10000 6.2 160 09:36 25.10.2019
5603 Clouds 10 1007 93 10000 5.7 160 09:18 25.10.2019
5604 Clouds 9 1008 93 10000 6.2 160 08:42 25.10.2019
5605 Clouds 9 1008 93 10000 5.7 140 08:23 25.10.2019
5606 Clouds 9 1008 93 10000 6.7 140 07:49 25.10.2019
5607 Clouds 9 1008 93 10000 6.7 140 07:49 25.10.2019
5608 Clouds 9 1008 93 10000 6.7 140 07:49 25.10.2019
5609 Clouds 9 1009 93 10000 5.1 150 07:30 25.10.2019
5610 Clouds 9 1009 93 10000 5.7 140 06:38 25.10.2019
5611 Clouds 8 1010 93 10000 4.1 140 05:50 25.10.2019
5612 Clouds 8 1011 93 10000 3.1 130 05:32 25.10.2019
5613 Clouds 8 1011 93 10000 3.6 140 04:37 25.10.2019
5614 Clouds 9 1012 93 10000 3.6 170 02:42 25.10.2019
5615 Clouds 9 1013 87 10000 4.6 190 01:53 25.10.2019
5616 Clouds 10 1013 87 10000 6.2 190 00:39 25.10.2019
5617 Clouds 10 1014 87 10000 4.6 190 23:56 24.10.2019
5618 Clouds 10 1014 87 10000 4.6 190 23:37 24.10.2019
5619 Clouds 10 1014 87 10000 4.1 200 23:19 24.10.2019
5620 Clouds 10 1014 87 10000 4.1 200 23:19 24.10.2019
5621 Clouds 10 1014 87 10000 4.1 200 22:39 24.10.2019
5622 Clouds 10 1014 87 10000 4.1 200 22:39 24.10.2019
5623 Clouds 10 1014 87 10000 4.6 210 22:19 24.10.2019
5624 Clouds 10 1014 87 10000 4.6 210 21:58 24.10.2019
5625 Clouds 10 1014 87 10000 5.1 210 21:40 24.10.2019
5626 Clouds 10 1014 87 10000 6.2 210 21:20 24.10.2019
5627 Clouds 10 1014 81 10000 5.7 200 20:59 24.10.2019
5628 Clouds 10 1014 81 10000 5.7 200 20:40 24.10.2019
5629 Clouds 10 1014 81 10000 5.7 200 20:40 24.10.2019
5630 Clouds 11 1014 81 10000 5.7 200 20:22 24.10.2019
5631 Clouds 11 1014 81 10000 6.2 210 19:58 24.10.2019
5632 Clouds 11 1014 81 10000 6.2 210 19:40 24.10.2019
5633 Clouds 11 1014 81 10000 6.2 200 19:22 24.10.2019
5634 Clouds 11 1014 81 10000 5.7 210 18:57 24.10.2019
5635 Clouds 11 1014 81 10000 5.7 210 18:38 24.10.2019
5636 Clouds 11 1014 81 10000 5.7 210 18:19 24.10.2019
5637 Clouds 11 1014 76 10000 5.1 220 17:42 24.10.2019
5638 Clouds 11 1014 76 10000 5.7 210 17:20 24.10.2019
5639 Clouds 11 1014 76 10000 5.7 210 16:58 24.10.2019
5640 Clouds 11 1014 71 10000 5.1 210 16:40 24.10.2019
5641 Clouds 11 1014 71 10000 5.7 220 16:21 24.10.2019
5642 Clouds 11 1014 71 10000 5.7 220 15:58 24.10.2019
5643 Clouds 11 1014 66 10000 6.2 220 15:58 24.10.2019
5644 Clouds 11 1014 66 10000 6.2 220 15:40 24.10.2019
5645 Clouds 11 1014 71 10000 5.1 230 15:21 24.10.2019
5646 Clouds 11 1014 71 10000 5.1 230 14:57 24.10.2019
5647 Clouds 12 1014 71 10000 5.7 220 14:38 24.10.2019
5648 Clouds 12 1014 71 10000 5.7 230 14:20 24.10.2019
5649 Clouds 12 1014 76 10000 5.7 230 13:41 24.10.2019
5650 Clouds 12 1014 76 10000 5.1 230 13:20 24.10.2019
5651 Clouds 11 1014 76 10000 5.7 220 12:58 24.10.2019
5652 Clouds 11 1014 76 10000 5.7 220 12:39 24.10.2019
5653 Clouds 11 1014 76 10000 5.1 220 12:19 24.10.2019
5654 Clouds 11 1014 81 10000 6.7 210 11:57 24.10.2019
5655 Clouds 11 1014 81 10000 6.7 210 11:38 24.10.2019
5656 Clouds 11 1014 76 10000 6.2 210 11:19 24.10.2019
5657 Clouds 11 1014 81 10000 6.2 210 10:57 24.10.2019
5658 Clouds 11 1014 81 10000 6.2 210 10:38 24.10.2019
5659 Clouds 11 1014 81 10000 6.2 210 10:20 24.10.2019
5660 Clouds 10 1013 87 10000 6.2 200 09:38 24.10.2019
5661 Clouds 10 1013 87 10000 6.2 200 09:38 24.10.2019
5662 Clouds 10 1013 87 10000 5.7 210 09:18 24.10.2019
5663 Clouds 9 1014 87 10000 5.1 210 08:44 24.10.2019
5664 Clouds 9 1013 93 10000 4.6 210 08:22 24.10.2019
5665 Clouds 9 1013 93 10000 4.6 210 08:00 24.10.2019
5666 Clouds 9 1013 93 10000 5.1 210 07:41 24.10.2019
5667 Clouds 9 1013 87 10000 5.1 210 07:21 24.10.2019
5668 Clouds 9 1013 81 10000 4.6 210 06:39 24.10.2019
5669 Clouds 10 1013 81 10000 4.1 210 06:20 24.10.2019
5670 Clouds 10 1013 76 10000 4.1 220 05:48 24.10.2019
5671 Clouds 10 1013 76 10000 4.6 210 05:27 24.10.2019
5672 Clouds 10 1013 81 10000 3.6 220 03:37 24.10.2019
5673 Clouds 10 1013 87 10000 4.1 230 02:55 24.10.2019
5674 Clouds 10 1013 87 10000 3.6 220 02:24 24.10.2019
5675 Clouds 10 1013 93 10000 3.6 210 01:34 24.10.2019
5676 Clouds 10 1013 93 10000 3.6 200 00:58 24.10.2019
5677 Clouds 10 1013 93 10000 3.6 200 00:38 24.10.2019
5678 Clouds 10 1013 93 10000 3.6 200 00:18 24.10.2019
5679 Clouds 10 1013 93 10000 3.1 210 23:42 23.10.2019
5680 Clouds 10 1013 93 10000 3.1 220 23:23 23.10.2019
5681 Drizzle 10 1013 93 10000 2.6 200 22:57 23.10.2019
5682 Drizzle 10 1013 93 10000 2.6 200 22:38 23.10.2019
5683 Clouds 10 1013 93 10000 2.6 200 22:18 23.10.2019
5684 Clouds 10 1013 87 10000 2.6 210 21:57 23.10.2019
5685 Clouds 10 1013 93 10000 2.6 200 21:57 23.10.2019
5686 Clouds 9 1013 87 10000 2.6 210 21:38 23.10.2019
5687 Clouds 9 1013 93 10000 2.1 210 21:19 23.10.2019
5688 Clouds 9 1013 93 10000 3.1 210 20:56 23.10.2019
5689 Clouds 9 1013 93 10000 3.1 210 20:56 23.10.2019
5690 Clouds 9 1013 93 10000 3.1 210 20:37 23.10.2019
5691 Clouds 9 1013 93 10000 3.1 210 20:37 23.10.2019
5692 Clouds 9 1013 87 10000 2.6 210 20:19 23.10.2019
5693 Clouds 9 1013 93 10000 3.1 210 19:54 23.10.2019
5694 Clouds 9 1013 93 10000 3.1 210 19:36 23.10.2019
5695 Clouds 9 1013 87 10000 3.6 210 19:18 23.10.2019
5696 Clouds 9 1013 81 10000 3.6 210 18:39 23.10.2019
5697 Clouds 9 1013 81 10000 4.1 210 18:19 23.10.2019
5698 Clouds 9 1013 81 10000 3.6 210 17:58 23.10.2019
5699 Clouds 9 1013 81 10000 3.6 210 17:58 23.10.2019
5700 Clouds 9 1013 81 10000 3.6 210 17:40 23.10.2019
5701 Clouds 10 1013 81 10000 4.6 210 17:19 23.10.2019
5702 Clouds 10 1012 76 10000 4.6 200 16:41 23.10.2019
5703 Clouds 10 1013 71 10000 3.1 210 16:21 23.10.2019
5704 Clouds 10 1012 66 10000 2.6 230 15:58 23.10.2019
5705 Clouds 11 1012 66 10000 2.6 230 15:40 23.10.2019
5706 Clouds 11 1012 62 10000 3.6 240 15:21 23.10.2019
5707 Clouds 11 1012 66 10000 3.6 230 14:56 23.10.2019
5708 Clouds 11 1012 66 10000 3.6 230 14:38 23.10.2019
5709 Clouds 11 1012 62 10000 5.1 240 14:19 23.10.2019
5710 Clouds 11 1012 62 10000 5.1 240 13:54 23.10.2019
5711 Clouds 11 1012 62 10000 5.1 240 13:36 23.10.2019
5712 Clouds 11 1012 62 10000 4.6 250 13:18 23.10.2019
5713 Clouds 11 1012 62 10000 4.1 260 12:41 23.10.2019
5714 Clear 10 1011 66 10000 4.1 270 12:20 23.10.2019
5715 Clouds 10 1011 71 10000 4.1 260 11:58 23.10.2019
5716 Clouds 10 1011 71 10000 4.1 260 11:40 23.10.2019
5717 Clouds 10 1011 81 10000 4.6 270 11:21 23.10.2019
5718 Clouds 9 1011 81 10000 5.1 260 10:57 23.10.2019
5719 Clouds 9 1011 81 10000 5.1 260 10:38 23.10.2019
5720 Clouds 9 1011 81 10000 4.6 260 10:19 23.10.2019
5721 Clouds 8 1010 87 10000 5.1 250 09:40 23.10.2019
5722 Clouds 8 1010 87 10000 5.1 250 09:40 23.10.2019
5723 Clouds 7 1010 93 10000 3.6 230 09:22 23.10.2019
5724 Clouds 6 1010 100 10000 3.1 230 08:55 23.10.2019
5725 Clouds 7 1010 100 10000 3.1 230 08:55 23.10.2019
5726 Clouds 6 1010 100 10000 3.1 230 08:37 23.10.2019
5727 Clouds 6 1009 93 10000 3.1 240 08:18 23.10.2019
5728 Clouds 6 1009 93 10000 2.6 240 07:44 23.10.2019
5729 Clouds 6 1009 93 10000 3.6 240 07:20 23.10.2019
5730 Clouds 7 1008 87 10000 3.6 240 06:43 23.10.2019
5731 Clouds 7 1008 93 10000 3.6 230 06:19 23.10.2019
5732 Clouds 7 1008 87 10000 3.6 240 05:20 23.10.2019
5733 Clouds 8 1007 87 10000 4.6 240 03:47 23.10.2019
5734 Clouds 8 1007 87 10000 5.1 240 02:44 23.10.2019
5735 Clouds 8 1006 87 10000 5.1 230 01:43 23.10.2019
5736 Clouds 8 1006 81 10000 4.6 230 01:18 23.10.2019
5737 Clouds 9 1006 81 10000 5.1 240 00:34 23.10.2019
5738 Clouds 9 1006 81 10000 6.7 240 23:56 22.10.2019
5739 Clouds 9 1006 81 10000 6.7 240 23:37 22.10.2019
5740 Clouds 9 1006 81 10000 5.7 240 23:18 22.10.2019
5741 Clouds 10 1006 81 10000 6.7 240 22:41 22.10.2019
5742 Clouds 10 1006 81 10000 6.7 240 22:41 22.10.2019
5743 Clouds 9 1006 81 10000 6.7 240 22:41 22.10.2019
5744 Clouds 10 1006 81 10000 6.7 240 22:23 22.10.2019
5745 Clouds 10 1006 81 10000 7.2 240 21:57 22.10.2019
5746 Clouds 10 1006 81 10000 7.2 240 21:39 22.10.2019
5747 Clouds 10 1006 81 10000 6.2 240 21:19 22.10.2019
5748 Clouds 10 1006 81 10000 6.7 230 20:59 22.10.2019
5749 Clouds 10 1006 81 10000 6.7 230 20:40 22.10.2019
5750 Clouds 9 1006 81 10000 6.2 230 20:22 22.10.2019
5751 Clouds 9 1006 81 10000 6.2 230 19:59 22.10.2019
5752 Clouds 10 1006 76 10000 6.7 230 19:40 22.10.2019
5753 Clouds 10 1006 76 10000 7.7 240 19:22 22.10.2019
5754 Clouds 9 1006 81 10000 7.2 240 18:56 22.10.2019
5755 Clouds 9 1006 81 10000 7.2 240 18:37 22.10.2019
5756 Clouds 9 1006 71 10000 7.2 240 18:19 22.10.2019
5757 Clouds 9 1006 81 10000 8.7 230 17:55 22.10.2019
5758 Clouds 9 1006 81 10000 8.7 230 17:36 22.10.2019
5759 Clouds 10 1006 76 10000 7.7 240 17:18 22.10.2019
5760 Clouds 10 1006 76 10000 10.8 240 16:39 22.10.2019
5761 Clouds 10 1006 76 10000 10.8 240 16:39 22.10.2019
5762 Clouds 10 1006 81 10000 7.7 230 16:20 22.10.2019
5763 Clouds 10 1006 81 10000 8.2 230 15:59 22.10.2019
5764 Clouds 10 1006 81 10000 8.2 230 15:41 22.10.2019
5765 Clouds 10 1006 87 10000 7.2 230 15:19 22.10.2019
5766 Clouds 10 1007 87 10000 9.3 230 14:46 22.10.2019
5767 Clouds 10 1007 87 10000 9.3 230 14:46 22.10.2019
5768 Clouds 10 1007 93 10000 7.2 220 14:22 22.10.2019
5769 Clouds 11 1007 93 10000 7.2 220 13:54 22.10.2019
5770 Drizzle 11 1007 93 4000 6.7 220 13:36 22.10.2019
5771 Drizzle 11 1008 93 7000 6.7 210 13:18 22.10.2019
5772 Drizzle 11 1008 93 3000 6.7 210 12:41 22.10.2019
5773 Drizzle 10 1008 93 6000 7.7 200 12:22 22.10.2019
5774 Drizzle 10 1008 93 6000 7.7 200 11:59 22.10.2019
5775 Drizzle 10 1009 100 9000 6.2 200 11:39 22.10.2019
5776 Drizzle 10 1009 93 10000 7.7 200 11:21 22.10.2019
5777 Drizzle 10 1009 93 10000 7.7 200 11:21 22.10.2019
5778 Drizzle 10 1009 93 10000 7.7 200 10:58 22.10.2019
5779 Drizzle 10 1010 93 10000 7.2 190 10:37 22.10.2019
5780 Drizzle 10 1010 93 10000 7.2 190 10:37 22.10.2019
5781 Rain 10 1010 93 10000 6.7 190 10:19 22.10.2019
5782 Drizzle 10 1011 93 10000 6.7 190 09:55 22.10.2019
5783 Drizzle 10 1011 93 10000 6.7 190 09:36 22.10.2019
5784 Clouds 10 1011 93 10000 6.7 190 09:18 22.10.2019
5785 Drizzle 9 1012 93 10000 6.7 190 08:42 22.10.2019
5786 Clouds 9 1012 93 10000 8.2 200 08:21 22.10.2019
5787 Clouds 9 1013 87 10000 7.2 200 07:48 22.10.2019
5788 Clouds 9 1013 87 10000 7.7 200 07:26 22.10.2019
5789 Clouds 9 1013 87 10000 7.2 200 07:26 22.10.2019
5790 Clouds 8 1013 87 10000 7.2 200 06:51 22.10.2019
5791 Clouds 8 1013 87 10000 7.2 200 06:31 22.10.2019
5792 Clouds 8 1013 87 10000 7.2 200 06:31 22.10.2019
5793 Clouds 7 1014 93 10000 6.2 190 05:56 22.10.2019
5794 Drizzle 6 1015 93 4500 3.6 140 05:20 22.10.2019
5795 Clouds 3 1018 84 10000 2.6 140 02:47 22.10.2019
5796 Clouds 3 1018 83 10000 2.6 160 02:28 22.10.2019
5797 Clouds 3 1019 83 10000 1 110 01:27 22.10.2019
5798 Clouds 3 1019 83 10000 1 110 00:57 22.10.2019
5799 Clouds 2 1019 83 10000 1 0 00:39 22.10.2019
5800 Clouds 3 1020 74 10000 1.5 330 00:20 22.10.2019
5801 Clouds 3 1020 74 10000 4.1 260 23:54 21.10.2019
5802 Clouds 3 1020 74 10000 4.1 260 23:36 21.10.2019
5803 Clouds 3 1020 74 10000 4.1 260 23:36 21.10.2019
5804 Drizzle 3 1019 93 10000 4.1 260 23:18 21.10.2019
5805 Drizzle 3 1019 93 10000 4.1 260 22:54 21.10.2019
5806 Drizzle 3 1020 93 10000 2.6 240 22:54 21.10.2019
5807 Drizzle 3 1020 93 10000 2.6 240 22:36 21.10.2019
5808 Drizzle 3 1020 93 8000 2.6 260 22:18 21.10.2019
5809 Drizzle 3 1020 93 9000 3.6 250 21:41 21.10.2019
5810 Drizzle 3 1020 93 10000 1.5 230 21:23 21.10.2019
5811 Drizzle 3 1020 93 10000 1.5 230 20:58 21.10.2019
5812 Drizzle 3 1020 93 10000 1.5 250 20:40 21.10.2019
5813 Drizzle 3 1020 93 10000 2.6 270 20:21 21.10.2019
5814 Drizzle 4 1020 93 10000 2.6 270 19:58 21.10.2019
5815 Drizzle 3 1020 93 10000 3.6 280 19:40 21.10.2019
5816 Drizzle 4 1020 93 10000 3.6 270 19:22 21.10.2019
5817 Clouds 4 1020 93 10000 2.6 290 18:56 21.10.2019
5818 Clouds 4 1020 93 10000 2.6 290 18:37 21.10.2019
5819 Clouds 4 1020 93 10000 2.6 280 18:19 21.10.2019
5820 Clouds 4 1020 86 10000 3.1 260 17:56 21.10.2019
5821 Clouds 4 1020 86 10000 3.1 260 17:37 21.10.2019
5822 Clouds 4 1020 86 10000 3.1 320 17:18 21.10.2019
5823 Clouds 5 1019 86 10000 3.1 300 16:56 21.10.2019
5824 Clouds 5 1019 86 10000 3.1 300 16:37 21.10.2019
5825 Clouds 5 1019 81 10000 4.1 290 16:19 21.10.2019
5826 Clouds 6 1019 81 10000 3.6 270 15:42 21.10.2019
5827 Clouds 5 1019 81 10000 3.6 270 15:24 21.10.2019
5828 Clouds 6 1019 81 10000 3.6 280 14:57 21.10.2019
5829 Clouds 6 1019 81 10000 3.6 280 14:38 21.10.2019
5830 Clouds 6 1019 81 10000 3.6 280 14:19 21.10.2019
5831 Clouds 6 1018 81 10000 3.1 310 13:56 21.10.2019
5832 Clouds 6 1018 81 10000 3.1 310 13:37 21.10.2019
5833 Clouds 6 1018 87 10000 3.6 310 13:18 21.10.2019
5834 Drizzle 6 1017 87 10000 3.6 300 12:41 21.10.2019
5835 Clouds 6 1017 87 10000 4.6 310 12:22 21.10.2019
5836 Clouds 6 1017 87 10000 4.6 310 11:55 21.10.2019
5837 Clouds 6 1017 87 10000 3.6 310 11:37 21.10.2019
5838 Clouds 6 1016 93 10000 3.1 290 11:19 21.10.2019
5839 Clouds 6 1016 87 10000 3.6 300 10:55 21.10.2019
5840 Clouds 6 1016 87 10000 3.6 300 10:55 21.10.2019
5841 Clouds 6 1016 87 10000 3.6 300 10:37 21.10.2019
5842 Clouds 6 1016 93 10000 4.1 300 10:18 21.10.2019
5843 Clouds 6 1015 93 10000 5.1 300 09:44 21.10.2019
5844 Clouds 6 1015 93 10000 5.1 310 09:25 21.10.2019
5845 Clouds 5 1014 93 10000 4.6 320 08:43 21.10.2019
5846 Clouds 6 1013 93 10000 3.6 330 08:24 21.10.2019
5847 Clouds 6 1013 93 10000 3.6 330 07:59 21.10.2019
5848 Clouds 6 1013 93 10000 5.7 320 07:37 21.10.2019
5849 Clouds 6 1012 93 10000 6.7 320 07:19 21.10.2019
5850 Clouds 7 1012 93 10000 6.2 310 06:53 21.10.2019
5851 Clouds 7 1012 93 10000 6.2 310 06:33 21.10.2019
5852 Drizzle 8 1010 93 7000 5.1 280 05:50 21.10.2019
5853 Drizzle 8 1010 93 7000 5.1 280 05:50 21.10.2019
5854 Drizzle 9 1009 93 10000 4.6 250 04:43 21.10.2019
5855 Clouds 9 1009 93 10000 3.1 230 02:42 21.10.2019
5856 Rain 9 1009 87 10000 4.1 250 02:23 21.10.2019
5857 Rain 9 1009 87 10000 4.1 250 02:23 21.10.2019
5858 Rain 10 1009 93 10000 4.1 240 01:53 21.10.2019
5859 Drizzle 10 1009 100 10000 4.1 230 01:23 21.10.2019
5860 Drizzle 10 1009 93 6000 3.6 180 00:42 21.10.2019
5861 Drizzle 10 1009 93 6000 3.6 180 00:42 21.10.2019
5862 Clouds 10 1009 100 10000 2.6 170 00:23 21.10.2019
5863 Clouds 10 1009 100 10000 2.6 170 00:23 21.10.2019
5864 Clouds 9 1009 100 10000 2.6 180 23:40 20.10.2019
5865 Rain 9 1009 100 10000 2.6 130 23:22 20.10.2019
5866 Rain 9 1009 100 10000 2.6 130 22:55 20.10.2019
5867 Rain 9 1009 100 8000 3.1 130 22:36 20.10.2019
5868 Rain 9 1010 100 8000 2.1 130 22:18 20.10.2019
5869 Rain 9 1010 100 8000 3.1 130 21:41 20.10.2019
5870 Rain 9 1010 100 8000 3.1 130 21:41 20.10.2019
5871 Rain 9 1010 100 8000 3.1 130 21:41 20.10.2019
5872 Rain 9 1011 100 7000 4.1 170 21:22 20.10.2019
5873 Rain 9 1011 100 7000 4.1 170 21:22 20.10.2019
5874 Rain 9 1011 100 7000 4.1 170 20:59 20.10.2019
5875 Rain 9 1011 93 7000 4.1 150 20:39 20.10.2019
5876 Rain 9 1011 93 7000 3.6 130 20:18 20.10.2019
5877 Rain 9 1011 93 7000 3.1 120 19:56 20.10.2019
5878 Rain 10 1011 93 7000 3.1 120 19:37 20.10.2019
5879 Rain 9 1012 93 8000 3.6 130 19:19 20.10.2019
5880 Rain 10 1012 93 7000 3.1 120 18:42 20.10.2019
5881 Rain 10 1012 93 7000 3.1 120 18:42 20.10.2019
5882 Rain 10 1013 93 9000 3.6 120 18:23 20.10.2019
5883 Rain 9 1013 100 10000 5.1 100 17:59 20.10.2019
5884 Rain 9 1013 93 9000 3.6 120 17:59 20.10.2019
5885 Rain 9 1013 100 10000 5.1 100 17:40 20.10.2019
5886 Rain 9 1013 100 10000 4.1 110 17:21 20.10.2019
5887 Rain 10 1013 93 10000 4.1 110 16:56 20.10.2019
5888 Rain 10 1013 93 10000 4.1 110 16:37 20.10.2019
5889 Rain 10 1014 93 10000 4.6 110 16:18 20.10.2019
5890 Clouds 10 1014 93 10000 4.1 100 15:54 20.10.2019
5891 -273 0 0 0 0 0 15:54 20.10.2019
5892 Clouds 10 1014 93 10000 4.1 100 15:36 20.10.2019
5893 Clouds 10 1014 93 10000 4.1 120 15:18 20.10.2019
5894 Rain 10 1014 93 10000 2.6 70 14:39 20.10.2019
5895 Clouds 10 1014 100 10000 1.5 140 14:21 20.10.2019
5896 Rain 10 1015 93 10000 2.1 80 13:56 20.10.2019
5897 Rain 10 1015 93 10000 2.1 80 13:37 20.10.2019
5898 Clouds 10 1015 93 10000 1.5 70 13:19 20.10.2019
5899 Clouds 10 1015 93 10000 1.5 70 12:57 20.10.2019
5900 Clouds 10 1015 93 10000 2.1 60 12:39 20.10.2019
5901 Clouds 10 1015 93 10000 2.1 60 12:39 20.10.2019
5902 Clouds 10 1015 93 10000 2.1 110 12:21 20.10.2019
5903 Clouds 10 1015 93 10000 2.1 110 11:59 20.10.2019
5904 Clouds 10 1015 93 8000 2.1 60 11:40 20.10.2019
5905 Clouds 9 1015 100 6000 1.5 70 11:22 20.10.2019
5906 Clouds 9 1015 100 6000 1.5 70 11:22 20.10.2019
5907 Clouds 9 1015 100 6000 1 0 10:57 20.10.2019
5908 Clouds 9 1015 100 6000 1 0 10:38 20.10.2019
5909 Fog 9 1014 100 7000 1.5 350 10:20 20.10.2019
5910 Clouds 8 1014 93 10000 1 0 09:44 20.10.2019
5911 Clouds 8 1014 100 10000 0.9 321.042 09:23 20.10.2019
5912 Clouds 8 1014 100 10000 0.71 308.307 08:59 20.10.2019
5913 Clouds 7 1014 100 10000 1 0 08:39 20.10.2019
5914 Fog 7 1014 100 10000 2.6 210 08:20 20.10.2019
5915 Fog 7 1014 100 10000 3.1 200 07:47 20.10.2019
5916 Fog 7 1014 100 10000 3.1 200 07:26 20.10.2019
5917 Clouds 8 1013 93 10000 3.1 210 06:28 20.10.2019
5918 Clouds 9 1012 93 10000 2.6 230 04:28 20.10.2019
5919 Clouds 9 1012 93 10000 3.1 220 03:49 20.10.2019
5920 Clouds 9 1012 87 10000 3.6 240 03:22 20.10.2019
5921 Clouds 9 1012 93 10000 2.6 230 02:46 20.10.2019
5922 Clouds 9 1011 93 10000 3.6 210 02:18 20.10.2019
5923 Clouds 9 1011 87 10000 3.6 210 01:45 20.10.2019
5924 Clouds 10 1011 87 10000 4.1 220 01:19 20.10.2019
5925 Clouds 10 1011 87 10000 4.1 220 00:47 20.10.2019
5926 Clouds 10 1011 87 10000 4.1 220 00:47 20.10.2019
5927 Clouds 10 1011 87 10000 4.6 230 00:20 20.10.2019
5928 Clouds 10 1010 87 10000 4.6 220 23:44 19.10.2019
5929 Clouds 10 1010 81 10000 5.7 230 23:24 19.10.2019
5930 Clouds 10 1010 87 10000 5.1 220 22:58 19.10.2019
5931 Clouds 10 1010 87 10000 5.1 220 22:40 19.10.2019
5932 Clouds 10 1009 87 10000 5.1 200 22:20 19.10.2019
5933 Clouds 10 1009 87 10000 4.6 200 21:46 19.10.2019
5934 Clouds 10 1009 87 10000 4.6 210 21:25 19.10.2019
5935 Clouds 10 1009 87 10000 4.6 210 20:57 19.10.2019
5936 Clouds 10 1009 87 10000 4.6 210 20:57 19.10.2019
5937 Clouds 10 1009 87 10000 4.6 210 20:39 19.10.2019
5938 Clouds 10 1009 81 10000 6.2 220 20:20 19.10.2019
5939 Clouds 10 1008 93 10000 5.7 210 19:41 19.10.2019
5940 Clouds 10 1008 87 10000 6.2 200 19:23 19.10.2019
5941 Clouds 10 1008 87 10000 5.7 210 18:54 19.10.2019
5942 Clouds 10 1008 87 10000 5.7 210 18:54 19.10.2019
5943 Clouds 10 1008 87 10000 5.7 210 18:36 19.10.2019
5944 Clouds 10 1008 87 10000 6.7 210 18:18 19.10.2019
5945 Clouds 10 1008 87 10000 6.7 210 18:18 19.10.2019
5946 Clouds 10 1008 87 10000 6.7 210 18:18 19.10.2019
5947 Clouds 10 1008 93 10000 5.7 220 17:41 19.10.2019
5948 Clouds 10 1008 93 10000 5.7 210 17:21 19.10.2019
5949 Clouds 11 1007 87 10000 6.2 210 16:55 19.10.2019
5950 Clouds 11 1007 87 10000 6.2 210 16:37 19.10.2019
5951 Clouds 11 1007 81 10000 6.2 210 16:18 19.10.2019
5952 Clouds 11 1007 81 10000 6.2 210 16:18 19.10.2019
5953 Clouds 11 1007 81 10000 5.7 220 15:40 19.10.2019
5954 Clouds 11 1007 81 10000 7.7 230 15:22 19.10.2019
5955 Clouds 12 1006 82 10000 6.7 220 14:39 19.10.2019
5956 Clouds 12 1006 87 10000 7.7 210 14:20 19.10.2019
5957 Clouds 12 1006 87 10000 7.7 210 13:57 19.10.2019
5958 Rain 12 1006 93 10000 5.1 210 13:39 19.10.2019
5959 Clouds 11 1006 87 10000 5.7 210 13:18 19.10.2019
5960 Clouds 12 1005 93 10000 5.7 210 12:55 19.10.2019
5961 Clouds 12 1005 93 10000 5.7 210 12:36 19.10.2019
5962 Clouds 12 1006 93 10000 5.1 210 12:18 19.10.2019
5963 Rain 11 1005 93 10000 6.2 190 11:41 19.10.2019
5964 Rain 11 1005 93 7000 7.2 190 11:22 19.10.2019
5965 Rain 11 1005 93 4000 7.2 180 10:55 19.10.2019
5966 Rain 11 1005 93 4500 6.2 160 10:37 19.10.2019
5967 Rain 11 1005 93 5000 5.1 160 10:19 19.10.2019
5968 Clouds 11 1005 100 4500 5.1 150 09:41 19.10.2019
5969 Clouds 12 1005 100 4500 5.1 150 09:23 19.10.2019
5970 Mist 12 1006 100 4500 4.6 160 08:58 19.10.2019
5971 Mist 12 1006 100 4500 4.6 160 08:58 19.10.2019
5972 Mist 12 1006 100 4500 5.1 150 08:39 19.10.2019
5973 Mist 12 1006 100 4500 5.1 150 08:20 19.10.2019
5974 Rain 12 1006 93 4000 4.6 160 07:43 19.10.2019
5975 Rain 12 1006 93 4000 4.6 160 07:24 19.10.2019
5976 Rain 12 1007 93 2500 4.1 150 06:45 19.10.2019
5977 Rain 11 1007 93 2000 3.6 160 05:56 19.10.2019
5978 Mist 11 1007 100 1000 3.6 160 05:27 19.10.2019
5979 Drizzle 11 1008 100 500 3.1 140 03:59 19.10.2019
5980 Rain 11 1009 100 600 2.1 130 02:38 19.10.2019
5981 Fog 10 1009 100 600 1.5 140 01:51 19.10.2019
5982 Fog 10 1009 100 400 1.5 150 01:18 19.10.2019
5983 Fog 10 1010 100 400 2.1 180 00:45 19.10.2019
5984 Fog 10 1010 100 400 2.1 150 00:22 19.10.2019
5985 Fog 10 1010 100 600 2.6 140 23:40 18.10.2019
5986 Drizzle 10 1010 100 500 2.6 130 23:21 18.10.2019
5987 Drizzle 10 1010 100 700 3.1 140 22:55 18.10.2019
5988 Rain 10 1010 100 700 3.1 140 22:37 18.10.2019
5989 Rain 10 1010 100 700 3.1 140 22:37 18.10.2019
5990 Rain 10 1010 100 800 3.1 120 22:19 18.10.2019
5991 Rain 10 1010 100 1000 3.1 120 21:56 18.10.2019
5992 Drizzle 10 1010 100 1000 3.1 120 21:37 18.10.2019
5993 Drizzle 10 1010 100 1000 3.1 120 21:37 18.10.2019
5994 Drizzle 10 1010 100 1500 4.1 130 21:18 18.10.2019
5995 Drizzle 10 1011 100 2500 3.6 130 20:43 18.10.2019
5996 Drizzle 10 1011 100 2500 3.6 130 20:24 18.10.2019
5997 Drizzle 10 1011 93 2800 4.1 110 19:59 18.10.2019
5998 Drizzle 10 1011 93 2800 4.1 110 19:41 18.10.2019
5999 Drizzle 10 1011 93 2800 3.6 120 19:22 18.10.2019
6000 Drizzle 10 1011 93 2200 3.6 130 18:59 18.10.2019
6001 Drizzle 10 1011 93 2200 3.6 130 18:41 18.10.2019
6002 Drizzle 10 1011 93 2500 3.6 130 18:23 18.10.2019
6003 Mist 10 1011 93 4000 3.6 130 17:56 18.10.2019
6004 Mist 10 1011 93 4000 3.6 130 17:37 18.10.2019
6005 Mist 9 1011 100 4000 3.1 130 17:19 18.10.2019
6006 Drizzle 9 1011 100 4500 2.6 110 16:42 18.10.2019
6007 Drizzle 9 1012 100 7000 2.6 100 16:21 18.10.2019
6008 Drizzle 9 1012 100 7000 2.6 100 15:58 18.10.2019
6009 Clouds 9 1012 100 10000 2.1 110 15:38 18.10.2019
6010 Clouds 9 1012 93 8000 2.1 100 15:20 18.10.2019
6011 Clouds 9 1012 93 8000 2.1 100 15:20 18.10.2019
6012 Clouds 9 1012 93 8000 2.6 120 14:57 18.10.2019
6013 Clouds 9 1012 93 8000 2.6 120 14:38 18.10.2019
6014 Clouds 9 1012 93 9000 2.6 120 14:19 18.10.2019
6015 Clouds 9 1012 100 8000 2.1 110 13:55 18.10.2019
6016 Clouds 8 1012 100 8000 2.1 110 13:36 18.10.2019
6017 Clouds 8 1012 100 6000 2.1 100 13:18 18.10.2019
6018 Mist 8 1013 100 5000 2.1 100 12:54 18.10.2019
6019 Mist 8 1013 100 5000 2.1 100 12:54 18.10.2019
6020 Mist 8 1013 100 5000 2.1 100 12:36 18.10.2019
6021 Mist 7 1013 100 3000 2.1 120 12:18 18.10.2019
6022 Mist 7 1013 100 1500 2.1 100 11:41 18.10.2019
6023 Mist 7 1013 100 1500 2.1 100 11:41 18.10.2019
6024 Fog 7 1013 100 800 1.5 110 11:20 18.10.2019
6025 Fog 6 1013 100 300 1.5 100 10:57 18.10.2019
6026 Fog 6 1013 100 300 1.5 100 10:57 18.10.2019
6027 Fog 6 1013 100 300 1.5 100 10:39 18.10.2019
6028 Fog 6 1013 100 200 1.5 100 10:19 18.10.2019
6029 Fog 6 1012 100 200 1.5 90 09:57 18.10.2019
6030 Fog 5 1012 100 200 1.5 90 09:39 18.10.2019
6031 Fog 5 1012 100 300 1 0 09:19 18.10.2019
6032 Fog 5 1012 100 300 1 0 08:43 18.10.2019
6033 Fog 5 1012 100 400 1 0 08:24 18.10.2019
6034 Fog 5 1012 100 700 1 0 07:51 18.10.2019
6035 Fog 5 1012 100 700 1 0 07:33 18.10.2019
6036 Mist 5 1012 100 2500 2.1 80 06:48 18.10.2019
6037 Mist 4 1012 100 2500 2.1 80 06:30 18.10.2019
6038 Clouds 4 1012 100 7000 2.1 60 05:59 18.10.2019
6039 Clouds 4 1012 100 8000 2.1 60 05:24 18.10.2019
6040 Clouds 5 1012 100 10000 1.5 50 04:56 18.10.2019
6041 Rain 4 1011 100 10000 2.1 30 03:34 18.10.2019
6042 Rain 4 1011 100 10000 2.1 20 02:51 18.10.2019
6043 Clouds 4 1011 100 10000 2.1 20 02:32 18.10.2019
6044 Rain 4 1011 100 10000 3.1 30 01:39 18.10.2019
6045 Rain 4 1011 100 10000 2.6 20 00:56 18.10.2019
6046 Rain 4 1011 100 10000 2.6 20 00:38 18.10.2019
6047 Rain 4 1011 100 10000 4.1 40 00:18 18.10.2019
6048 Rain 5 1011 100 10000 4.1 30 23:38 17.10.2019
6049 Rain 5 1011 100 10000 3.6 30 23:19 17.10.2019
6050 Rain 5 1011 100 10000 3.6 30 22:56 17.10.2019
6051 Rain 5 1011 100 10000 3.6 30 22:38 17.10.2019
6052 Rain 5 1011 100 10000 3.6 30 22:19 17.10.2019
6053 Rain 5 1010 100 10000 4.1 30 21:56 17.10.2019
6054 Rain 5 1010 100 10000 4.1 30 21:38 17.10.2019
6055 Rain 5 1010 93 10000 4.1 40 21:20 17.10.2019
6056 Rain 5 1010 93 10000 4.1 40 20:57 17.10.2019
6057 -273 0 0 0 0 0 20:39 17.10.2019
6058 Rain 5 1010 93 10000 4.6 50 20:39 17.10.2019
6059 Rain 5 1010 93 10000 4.1 50 20:19 17.10.2019
6060 Rain 5 1010 93 10000 4.6 50 19:57 17.10.2019
6061 Rain 5 1010 93 10000 4.6 50 19:38 17.10.2019
6062 Rain 5 1010 93 10000 6.2 50 19:19 17.10.2019
6063 Clouds 5 1010 93 10000 5.1 50 18:43 17.10.2019
6064 Clouds 5 1009 93 10000 4.6 50 18:21 17.10.2019
6065 Clouds 5 1009 93 10000 4.6 50 17:58 17.10.2019
6066 Clouds 5 1009 93 10000 5.7 50 17:40 17.10.2019
6067 Clouds 5 1009 93 10000 5.7 60 17:22 17.10.2019
6068 Clouds 5 1009 93 9000 5.1 60 16:56 17.10.2019
6069 Clouds 5 1009 93 9000 5.1 60 16:37 17.10.2019
6070 Clouds 5 1009 93 9000 5.1 60 16:37 17.10.2019
6071 Clouds 5 1009 93 9000 5.7 60 16:18 17.10.2019
6072 Clouds 5 1009 93 8000 5.1 60 15:55 17.10.2019
6073 Clouds 5 1009 93 8000 5.1 60 15:37 17.10.2019
6074 Drizzle 5 1008 93 7000 5.7 50 15:18 17.10.2019
6075 Clouds 5 1008 93 9000 5.1 60 14:42 17.10.2019
6076 Clouds 5 1008 100 10000 5.7 60 14:23 17.10.2019
6077 Clouds 5 1008 100 10000 5.7 60 14:23 17.10.2019
6078 Clouds 4 1008 100 10000 5.7 60 13:55 17.10.2019
6079 Clouds 4 1008 100 10000 5.7 60 13:36 17.10.2019
6080 Clouds 4 1008 100 10000 5.7 60 13:18 17.10.2019
6081 Clouds 4 1008 100 10000 5.7 50 12:41 17.10.2019
6082 Clouds 4 1008 93 10000 5.7 50 12:20 17.10.2019
6083 Clouds 4 1008 100 10000 7.2 60 11:58 17.10.2019
6084 Clouds 4 1008 100 10000 7.2 60 11:40 17.10.2019
6085 Rain 4 1008 93 10000 6.7 50 11:19 17.10.2019
6086 Rain 4 1008 93 8000 5.7 50 10:54 17.10.2019
6087 Rain 4 1008 93 8000 5.7 50 10:54 17.10.2019
6088 Rain 4 1008 93 8000 5.7 50 10:54 17.10.2019
6089 Rain 4 1008 93 8000 5.7 50 10:36 17.10.2019
6090 Rain 4 1008 93 6000 5.7 60 10:18 17.10.2019
6091 Rain 4 1008 93 6000 5.7 60 10:18 17.10.2019
6092 Rain 4 1008 93 6000 5.7 60 10:18 17.10.2019
6093 Rain 4 1008 93 5000 6.2 50 09:41 17.10.2019
6094 Drizzle 4 1008 93 5000 6.2 50 09:21 17.10.2019
6095 Drizzle 4 1008 93 4000 6.2 50 08:58 17.10.2019
6096 Drizzle 4 1008 93 4000 6.2 50 08:39 17.10.2019
6097 Drizzle 4 1008 93 4000 6.2 50 08:20 17.10.2019
6098 Drizzle 4 1008 93 3000 5.7 50 07:55 17.10.2019
6099 Drizzle 4 1008 93 3000 5.7 50 07:54 17.10.2019
6100 Drizzle 4 1008 93 3000 5.7 50 07:36 17.10.2019
6101 Drizzle 4 1008 93 5000 6.2 60 07:18 17.10.2019
6102 Drizzle 4 1008 93 5000 5.7 60 06:39 17.10.2019
6103 Drizzle 4 1008 93 6000 6.2 60 06:20 17.10.2019
6104 Drizzle 4 1008 93 10000 6.2 60 05:49 17.10.2019
6105 Drizzle 4 1008 100 6000 6.2 50 05:30 17.10.2019
6106 Drizzle 4 1008 100 9000 6.2 50 04:51 17.10.2019
6107 Drizzle 4 1009 100 7000 5.1 60 03:54 17.10.2019
6108 Drizzle 4 1009 100 7000 5.7 50 02:36 17.10.2019
6109 Clouds 4 1009 100 10000 5.1 50 00:56 17.10.2019
6110 Clouds 4 1009 100 10000 5.1 50 00:38 17.10.2019
6111 Drizzle 4 1009 100 10000 5.1 50 00:18 17.10.2019
6112 Rain 4 1009 100 10000 6.2 50 23:42 16.10.2019
6113 Rain 4 1009 100 10000 5.7 50 23:20 16.10.2019
6114 Rain 4 1009 100 10000 5.1 50 22:55 16.10.2019
6115 Rain 4 1009 100 10000 5.1 50 22:36 16.10.2019
6116 Rain 4 1009 100 10000 5.7 50 22:18 16.10.2019
6117 Drizzle 4 1010 100 5000 5.1 40 21:55 16.10.2019
6118 Drizzle 4 1010 100 5000 5.1 40 21:37 16.10.2019
6119 Drizzle 4 1010 100 5000 5.7 40 21:18 16.10.2019
6120 Drizzle 4 1010 100 5000 5.7 40 21:18 16.10.2019
6121 Drizzle 4 1010 100 6000 5.7 50 20:56 16.10.2019
6122 Drizzle 4 1010 100 6000 5.7 50 20:38 16.10.2019
6123 Drizzle 4 1010 100 4000 5.7 40 20:20 16.10.2019
6124 Drizzle 4 1010 100 4000 5.7 40 20:20 16.10.2019
6125 Drizzle 4 1010 100 3500 5.7 50 19:43 16.10.2019
6126 Drizzle 4 1010 100 3500 5.7 50 19:21 16.10.2019
6127 Drizzle 4 1010 100 3500 5.7 50 18:59 16.10.2019
6128 Drizzle 4 1010 100 4000 5.7 50 18:39 16.10.2019
6129 Drizzle 4 1010 100 4500 5.7 50 18:19 16.10.2019
6130 Drizzle 4 1010 100 4500 5.7 50 17:56 16.10.2019
6131 Drizzle 4 1010 100 6000 5.1 50 17:38 16.10.2019
6132 Drizzle 4 1010 100 3000 5.7 50 17:19 16.10.2019
6133 Drizzle 4 1010 100 3000 5.7 50 16:58 16.10.2019
6134 Drizzle 4 1010 100 3000 5.1 40 16:38 16.10.2019
6135 Drizzle 4 1010 100 3000 5.1 40 16:20 16.10.2019
6136 Drizzle 4 1010 100 4000 5.1 40 15:54 16.10.2019
6137 Drizzle 4 1010 100 4000 5.1 40 15:54 16.10.2019
6138 Drizzle 4 1010 100 4000 5.1 40 15:54 16.10.2019
6139 -273 0 0 0 0 0 15:54 16.10.2019
6140 Drizzle 5 1010 100 4000 5.1 40 15:36 16.10.2019
6141 Drizzle 5 1010 100 4500 5.1 40 15:18 16.10.2019
6142 Drizzle 5 1010 100 4500 5.1 40 15:18 16.10.2019
6143 Drizzle 5 1010 100 4500 5.1 40 14:55 16.10.2019
6144 Drizzle 5 1010 100 4500 5.1 40 14:36 16.10.2019
6145 Drizzle 6 1010 100 4500 5.1 30 14:18 16.10.2019
6146 Drizzle 6 1010 93 10000 4.6 30 13:42 16.10.2019
6147 Drizzle 6 1011 93 10000 4.6 30 13:23 16.10.2019
6148 Clouds 7 1011 93 10000 5.1 80 12:44 16.10.2019
6149 Clouds 7 1011 93 10000 4.6 80 12:20 16.10.2019
6150 Clouds 7 1011 93 10000 4.6 80 11:59 16.10.2019
6151 Clouds 7 1011 93 10000 4.1 70 11:41 16.10.2019
6152 Rain 7 1012 93 10000 4.6 70 11:18 16.10.2019
6153 Rain 7 1012 93 10000 4.6 80 10:37 16.10.2019
6154 Drizzle 7 1012 93 10000 5.7 80 10:19 16.10.2019
6155 Clouds 7 1012 93 10000 5.1 80 09:54 16.10.2019
6156 Clouds 7 1012 93 10000 5.1 80 09:36 16.10.2019
6157 Clouds 7 1013 87 10000 5.7 80 09:18 16.10.2019
6158 Clouds 6 1013 93 10000 4.6 80 08:42 16.10.2019
6159 Clouds 6 1013 93 10000 5.1 80 08:23 16.10.2019
6160 Drizzle 6 1014 93 8000 5.7 90 07:45 16.10.2019
6161 Drizzle 6 1014 93 3000 5.7 90 07:25 16.10.2019
6162 Drizzle 6 1014 93 3000 5.7 90 07:24 16.10.2019
6163 Drizzle 6 1014 93 5000 5.1 90 06:58 16.10.2019
6164 Drizzle 6 1014 93 5000 5.1 90 06:39 16.10.2019
6165 Clouds 6 1015 87 10000 6.2 90 05:44 16.10.2019
6166 Rain 6 1018 93 10000 5.1 60 02:58 16.10.2019
6167 Rain 5 1018 93 10000 5.1 60 02:38 16.10.2019
6168 Rain 5 1019 93 10000 4.6 70 01:19 16.10.2019
6169 Rain 5 1020 86 10000 4.1 80 00:47 16.10.2019
6170 Rain 5 1020 86 10000 4.1 80 00:27 16.10.2019
6171 Rain 5 1020 86 10000 4.6 60 23:40 15.10.2019
6172 Clouds 5 1020 86 10000 4.1 70 23:21 15.10.2019
6173 Clouds 5 1021 86 10000 4.1 70 22:56 15.10.2019
6174 Rain 5 1021 86 10000 4.1 70 22:37 15.10.2019
6175 Rain 5 1021 86 10000 3.6 90 22:19 15.10.2019
6176 Rain 5 1021 86 10000 3.6 90 21:55 15.10.2019
6177 Rain 5 1021 86 10000 4.6 100 21:37 15.10.2019
6178 Rain 5 1021 80 10000 4.6 120 21:19 15.10.2019
6179 Rain 5 1022 80 10000 2.6 120 20:57 15.10.2019
6180 Rain 5 1022 80 10000 2.6 120 20:39 15.10.2019
6181 Rain 5 1022 80 10000 3.1 90 20:20 15.10.2019
6182 Rain 5 1021 80 10000 3.6 80 19:56 15.10.2019
6183 Rain 5 1021 80 10000 3.6 80 19:56 15.10.2019
6184 Rain 5 1021 80 10000 3.6 80 19:56 15.10.2019
6185 Rain 5 1021 80 10000 3.6 80 19:37 15.10.2019
6186 Rain 5 1021 80 10000 4.6 80 19:19 15.10.2019
6187 Rain 5 1022 80 10000 3.6 60 18:44 15.10.2019
6188 Rain 5 1022 80 10000 3.6 60 18:26 15.10.2019
6189 Clouds 5 1022 80 10000 3.6 70 17:56 15.10.2019
6190 Clouds 5 1022 80 10000 3.6 70 17:38 15.10.2019
6191 Clouds 5 1022 80 10000 3.1 70 17:19 15.10.2019
6192 Clouds 5 1022 86 10000 3.1 60 16:45 15.10.2019
6193 Clouds 5 1022 86 10000 3.1 60 16:45 15.10.2019
6194 Clouds 6 1022 75 10000 2.6 80 16:22 15.10.2019
6195 Clouds 6 1022 81 10000 2.6 80 15:58 15.10.2019
6196 Clouds 6 1022 81 10000 2.6 80 15:40 15.10.2019
6197 Clouds 6 1022 81 10000 2.6 80 15:40 15.10.2019
6198 Clouds 6 1022 75 10000 3.1 90 15:20 15.10.2019
6199 Clouds 6 1022 75 10000 3.6 100 14:57 15.10.2019
6200 Clouds 6 1022 75 10000 3.6 100 14:37 15.10.2019
6201 Clouds 6 1022 70 10000 3.1 100 14:19 15.10.2019
6202 Clouds 6 1023 70 10000 3.1 120 13:43 15.10.2019
6203 Clouds 6 1023 70 10000 4.1 120 13:21 15.10.2019
6204 Clouds 6 1023 70 10000 4.1 120 12:59 15.10.2019
6205 Clouds 6 1023 70 10000 4.1 120 12:59 15.10.2019
6206 Clouds 5 1023 70 10000 2.6 110 12:38 15.10.2019
6207 Clouds 5 1023 69 10000 2.6 120 12:20 15.10.2019
6208 Clouds 5 1023 75 10000 2.1 140 11:44 15.10.2019
6209 Clouds 4 1023 79 0 2.724 123 11:20 15.10.2019
6210 Clouds 3 1023 89 0 1.44 153.31 10:57 15.10.2019
6211 Clear 2 1022 79 10000 0.5 0 10:39 15.10.2019
6212 Clear 2 1022 79 10000 0.5 0 10:19 15.10.2019
6213 Clear 2 1022 79 10000 0.5 0 09:56 15.10.2019
6214 Clear 1 1022 89 10000 0.5 0 09:37 15.10.2019
6215 Clear 0 1022 89 10000 1.5 40 09:19 15.10.2019
6216 Clear -1 1022 92 10000 0.5 0 08:41 15.10.2019
6217 Clear -2 1021 100 10000 0.87 63.849 08:21 15.10.2019
6218 -273 0 0 0 0 0 07:55 15.10.2019
6219 Fog -3 1021 92 10000 0.5 0 07:36 15.10.2019
6220 Fog -2 1021 100 10000 1 350 07:18 15.10.2019
6221 Fog -2 1021 100 10000 0.5 0 06:43 15.10.2019
6222 Fog -2 1021 100 10000 1.16 307.266 06:20 15.10.2019
6223 Fog -1 1021 100 10000 1 270 05:37 15.10.2019
6224 Fog -1 1020 92 10000 1 320 04:54 15.10.2019
6225 Fog -1 1020 100 10000 1.16 307.266 04:20 15.10.2019
6226 Clear -1 1019 100 10000 2.1 320 03:35 15.10.2019
6227 Clear -1 1019 100 10000 2.1 320 03:35 15.10.2019
6228 Clear -1 1018 100 10000 1.5 270 02:19 15.10.2019
6229 Clouds 0 1018 100 10000 1.5 300 01:41 15.10.2019
6230 Clouds 0 1017 93 10000 1.5 330 01:18 15.10.2019
6231 Clouds 1 1016 94 10000 2.1 350 00:26 15.10.2019
6232 Clouds 1 1016 94 10000 2.1 350 23:59 14.10.2019
6233 Clouds 1 1016 100 10000 2.1 340 23:38 14.10.2019
6234 Clouds 1 1016 93 10000 2.6 340 23:19 14.10.2019
6235 Clouds 1 1015 93 10000 2.1 340 22:40 14.10.2019
6236 Clouds 2 1015 93 10000 2.1 340 22:21 14.10.2019
6237 Clouds 1 1015 93 10000 2.1 340 21:59 14.10.2019
6238 Clouds 2 1014 100 10000 3.1 330 21:40 14.10.2019
6239 Clouds 1 1014 100 10000 3.1 330 21:40 14.10.2019
6240 Clouds 2 1014 93 10000 2.1 340 21:21 14.10.2019
6241 Clouds 2 1013 93 10000 2.6 330 20:58 14.10.2019
6242 Clouds 3 1013 93 10000 2.6 330 20:38 14.10.2019
6243 Clouds 3 1012 100 10000 2.6 350 20:19 14.10.2019
6244 Clouds 3 1012 93 10000 3.1 350 19:56 14.10.2019
6245 Clouds 3 1012 93 10000 3.1 350 19:37 14.10.2019
6246 Clouds 4 1011 93 10000 3.1 360 19:19 14.10.2019
6247 Clouds 4 1011 93 10000 3.1 360 18:57 14.10.2019
6248 Clouds 4 1011 93 10000 4.1 360 18:37 14.10.2019
6249 Clouds 5 1010 93 10000 3.6 360 18:18 14.10.2019
6250 Clouds 5 1009 93 10000 4.1 10 17:41 14.10.2019
6251 Clouds 5 1008 86 10000 4.1 10 17:23 14.10.2019
6252 Clouds 5 1007 86 10000 4.6 20 16:54 14.10.2019
6253 Clouds 5 1007 86 10000 4.6 20 16:54 14.10.2019
6254 Clouds 5 1007 86 10000 4.6 20 16:36 14.10.2019
6255 Clouds 5 1006 93 10000 5.1 30 16:18 14.10.2019
6256 Clouds 5 1006 93 10000 6.2 40 15:41 14.10.2019
6257 Rain 5 1006 93 10000 6.7 30 15:21 14.10.2019
6258 Rain 6 1005 93 10000 7.2 40 14:44 14.10.2019
6259 Rain 6 1005 93 10000 7.2 40 14:44 14.10.2019
6260 Rain 6 1005 100 10000 6.2 30 14:25 14.10.2019
6261 Rain 6 1005 100 10000 6.2 30 13:58 14.10.2019
6262 Rain 6 1005 100 9000 6.2 30 13:40 14.10.2019
6263 Rain 6 1005 100 5000 6.2 30 13:21 14.10.2019
6264 Rain 6 1005 93 4500 6.2 40 12:42 14.10.2019
6265 Rain 6 1005 93 4500 5.7 40 12:21 14.10.2019
6266 Rain 6 1005 93 8000 5.7 50 11:55 14.10.2019
6267 Rain 6 1005 93 8000 5.7 50 11:54 14.10.2019
6268 Rain 6 1005 93 8000 5.7 50 11:36 14.10.2019
6269 Rain 6 1005 93 10000 5.1 50 11:18 14.10.2019
6270 Rain 6 1006 93 10000 5.1 60 10:43 14.10.2019
6271 Rain 6 1006 100 9000 4.6 50 10:21 14.10.2019
6272 Rain 6 1006 100 9000 4.6 50 10:21 14.10.2019
6273 Rain 5 1007 93 9000 5.1 60 09:57 14.10.2019
6274 Rain 5 1007 93 9000 5.1 60 09:38 14.10.2019
6275 Rain 5 1007 93 10000 4.6 60 09:19 14.10.2019
6276 Rain 4 1007 100 10000 4.6 60 08:46 14.10.2019
6277 Rain 5 1008 100 10000 4.1 60 08:23 14.10.2019
6278 Rain 4 1008 100 10000 3.6 60 07:44 14.10.2019
6279 Rain 3 1008 93 10000 3.6 70 07:21 14.10.2019
6280 Clouds 4 1009 93 10000 3.6 70 06:54 14.10.2019
6281 Clouds 3 1009 86 10000 4.1 60 06:27 14.10.2019
6282 Clouds 2 1009 93 10000 3.6 70 05:51 14.10.2019
6283 Clouds 1 1010 100 10000 1.5 70 04:50 14.10.2019
6284 Clouds 1 1011 89 10000 2.1 60 03:48 14.10.2019
6285 Clouds 1 1011 94 10000 2.1 50 03:21 14.10.2019
6286 Clouds 1 1012 94 10000 1.5 80 01:36 14.10.2019
6287 Clouds 1 1012 94 10000 1 100 01:18 14.10.2019
6288 Clouds 2 1012 100 10000 1 0 00:23 14.10.2019
6289 Clouds 2 1012 93 10000 1.5 220 23:46 13.10.2019
6290 Clouds 2 1012 100 10000 1.82 270.662 23:21 13.10.2019
6291 Clouds 2 1012 93 10000 1.5 240 23:00 13.10.2019
6292 Clouds 3 1012 93 10000 1.5 240 22:41 13.10.2019
6293 Clouds 3 1011 100 10000 1.5 270 22:22 13.10.2019
6294 Clouds 3 1011 100 10000 1.5 270 22:22 13.10.2019
6295 Clouds 3 1011 100 10000 1.5 270 21:58 13.10.2019
6296 Clouds 3 1011 93 10000 2.6 250 21:39 13.10.2019
6297 Clouds 4 1011 93 10000 2.1 260 21:19 13.10.2019
6298 Clear 4 1010 86 10000 2.6 270 20:58 13.10.2019
6299 Clear 4 1010 86 10000 2.6 270 20:40 13.10.2019
6300 Clouds 4 1010 80 10000 3.1 270 20:21 13.10.2019
6301 Clouds 5 1010 80 10000 3.1 270 20:00 13.10.2019
6302 Clouds 5 1009 81 10000 4.1 290 19:39 13.10.2019
6303 Clouds 6 1009 75 10000 5.1 300 19:21 13.10.2019
6304 Clouds 7 1009 87 10000 3.6 280 18:59 13.10.2019
6305 Clouds 7 1009 87 10000 3.6 280 18:59 13.10.2019
6306 Clouds 7 1009 87 10000 3.6 280 18:58 13.10.2019
6307 Clouds 7 1009 87 10000 3.6 280 18:58 13.10.2019
6308 Clouds 7 1009 87 10000 3.6 280 18:38 13.10.2019
6309 Clouds 7 1009 87 10000 3.6 280 18:38 13.10.2019
6310 Clouds 7 1008 81 10000 3.6 250 18:19 13.10.2019
6311 Clouds 7 1007 75 10000 4.1 250 17:58 13.10.2019
6312 Clouds 8 1007 75 10000 4.1 250 17:39 13.10.2019
6313 Clouds 8 1007 70 10000 4.6 260 17:21 13.10.2019
6314 Clouds 9 1006 70 10000 5.1 270 16:43 13.10.2019
6315 Clouds 9 1006 66 10000 4.6 270 16:19 13.10.2019
6316 -273 0 0 0 0 0 15:57 13.10.2019
6317 Clouds 9 1006 70 10000 6.2 290 15:57 13.10.2019
6318 Clouds 9 1006 70 10000 6.2 290 15:57 13.10.2019
6319 Clouds 9 1006 70 10000 6.2 290 15:38 13.10.2019
6320 Clouds 10 1005 66 10000 7.7 290 15:19 13.10.2019
6321 Clouds 10 1004 71 10000 7.7 290 14:57 13.10.2019
6322 Clouds 10 1004 71 10000 7.7 290 14:38 13.10.2019
6323 Clouds 10 1004 66 10000 7.2 290 14:19 13.10.2019
6324 Clouds 10 1003 66 10000 6.2 260 13:42 13.10.2019
6325 Clouds 10 1003 66 10000 6.2 260 13:42 13.10.2019
6326 Clouds 10 1002 76 10000 6.7 260 13:23 13.10.2019
6327 Clouds 10 1002 81 10000 5.7 260 12:59 13.10.2019
6328 Clouds 10 1002 81 10000 5.7 260 12:39 13.10.2019
6329 Clouds 11 1002 81 10000 6.2 260 12:21 13.10.2019
6330 Clouds 10 1002 81 10000 6.2 260 11:59 13.10.2019
6331 Clouds 11 1001 81 10000 5.7 260 11:39 13.10.2019
6332 Clouds 11 1001 81 10000 5.1 260 11:20 13.10.2019
6333 Clouds 10 1000 87 10000 3.6 260 10:57 13.10.2019
6334 Clouds 10 1000 87 10000 3.6 260 10:38 13.10.2019
6335 Clouds 10 1000 93 10000 3.6 240 10:20 13.10.2019
6336 Clouds 10 999 93 10000 3.6 230 09:39 13.10.2019
6337 Rain 9 999 100 10000 3.6 230 09:21 13.10.2019
6338 Clouds 9 999 93 10000 3.1 240 08:44 13.10.2019
6339 Clouds 9 998 93 10000 3.1 240 08:26 13.10.2019
6340 Clouds 8 998 100 10000 2.6 230 07:52 13.10.2019
6341 Clouds 8 998 100 10000 2.6 230 07:33 13.10.2019
6342 Rain 8 998 100 10000 3.1 240 06:53 13.10.2019
6343 Rain 8 998 100 10000 3.1 240 06:24 13.10.2019
6344 Clouds 7 997 93 10000 1.5 220 05:21 13.10.2019
6345 Clouds 7 997 100 10000 1 0 04:34 13.10.2019
6346 Clouds 7 997 100 10000 1 0 04:34 13.10.2019
6347 Clouds 7 997 93 10000 2.1 190 03:24 13.10.2019
6348 Clouds 7 997 93 10000 2.1 220 02:30 13.10.2019
6349 Clouds 8 997 93 10000 2.6 200 01:36 13.10.2019
6350 Clouds 8 997 93 10000 2.6 200 01:36 13.10.2019
6351 Clouds 8 997 93 10000 2.1 210 00:55 13.10.2019
6352 Clouds 8 997 93 10000 2.1 210 00:37 13.10.2019
6353 Clouds 8 997 93 10000 2.1 210 00:37 13.10.2019
6354 Clouds 8 997 93 10000 2.6 210 00:18 13.10.2019
6355 Clouds 8 997 93 10000 3.1 200 23:41 12.10.2019
6356 Clouds 8 997 93 10000 3.6 210 23:22 12.10.2019
6357 Clouds 8 997 93 10000 2.1 210 22:58 12.10.2019
6358 Clouds 8 997 93 10000 2.1 210 22:40 12.10.2019
6359 Clouds 8 997 93 10000 2.1 210 22:40 12.10.2019
6360 Clouds 8 996 93 10000 1 230 22:22 12.10.2019
6361 Clouds 8 996 93 10000 1 230 22:22 12.10.2019
6362 Clouds 8 996 93 10000 2.6 220 21:57 12.10.2019
6363 Clouds 8 996 93 10000 2.6 220 21:39 12.10.2019
6364 Clouds 8 996 93 10000 2.6 240 21:20 12.10.2019
6365 Clouds 8 996 93 10000 2.1 250 20:46 12.10.2019
6366 Clouds 8 996 93 10000 2.1 250 20:46 12.10.2019
6367 Clouds 8 996 93 10000 3.1 250 20:28 12.10.2019
6368 -273 0 0 0 0 0 19:57 12.10.2019
6369 Clouds 8 996 93 10000 3.1 260 19:36 12.10.2019
6370 Clouds 8 995 93 10000 3.6 270 19:18 12.10.2019
6371 Rain 8 995 100 10000 4.1 270 18:41 12.10.2019
6372 Rain 8 994 93 10000 3.6 280 18:23 12.10.2019
6373 Rain 9 994 93 10000 3.6 280 17:45 12.10.2019
6374 Rain 9 993 93 10000 5.1 260 17:21 12.10.2019
6375 Rain 9 993 93 10000 5.1 260 16:58 12.10.2019
6376 Rain 9 993 93 10000 4.6 270 16:58 12.10.2019
6377 Rain 9 993 93 10000 4.6 270 16:40 12.10.2019
6378 Rain 9 992 100 10000 5.7 260 16:20 12.10.2019
6379 Rain 10 991 87 10000 6.2 250 15:46 12.10.2019
6380 Rain 10 991 87 10000 6.2 260 15:27 12.10.2019
6381 Rain 10 990 81 10000 6.7 260 14:59 12.10.2019
6382 Rain 10 990 81 10000 6.7 260 14:38 12.10.2019
6383 Rain 10 989 81 10000 6.2 260 14:20 12.10.2019
6384 Rain 10 989 87 10000 7.7 270 13:49 12.10.2019
6385 Rain 10 989 93 10000 5.7 260 13:31 12.10.2019
6386 Rain 10 988 87 10000 5.7 260 12:55 12.10.2019
6387 Rain 10 988 87 10000 5.7 260 12:37 12.10.2019
6388 Clouds 10 988 87 10000 6.2 260 12:18 12.10.2019
6389 Rain 10 987 87 10000 5.7 260 11:41 12.10.2019
6390 Rain 10 987 87 10000 5.7 260 11:22 12.10.2019
6391 Rain 10 987 93 10000 5.7 260 10:57 12.10.2019
6392 Rain 10 987 93 10000 5.7 260 10:38 12.10.2019
6393 Rain 9 987 93 8000 3.6 250 10:19 12.10.2019
6394 Rain 9 987 93 10000 4.1 250 09:56 12.10.2019
6395 Rain 9 987 93 10000 4.1 250 09:56 12.10.2019
6396 Rain 9 987 93 10000 4.1 250 09:37 12.10.2019
6397 Rain 9 987 93 8000 4.1 250 09:19 12.10.2019
6398 Rain 9 986 93 5000 3.1 240 08:42 12.10.2019
6399 Rain 8 986 100 5000 1.5 330 08:22 12.10.2019
6400 Rain 8 987 100 2000 3.6 240 07:40 12.10.2019
6401 Fog 8 986 93 800 1 0 07:22 12.10.2019
6402 Rain 9 987 93 10000 2.6 130 05:54 12.10.2019
6403 Rain 9 988 100 10000 2.6 140 05:25 12.10.2019
6404 Rain 9 989 100 6000 1 0 04:29 12.10.2019
6405 Rain 9 990 100 6000 1 0 03:46 12.10.2019
6406 Rain 10 992 100 5000 3.1 210 02:37 12.10.2019
6407 Rain 9 993 100 6000 4.6 180 01:31 12.10.2019
6408 Rain 9 993 93 7000 3.1 180 00:44 12.10.2019
6409 Rain 9 994 100 3000 4.1 160 00:24 12.10.2019
6410 Rain 9 994 100 3500 3.6 150 23:41 11.10.2019
6411 Rain 9 995 100 3500 3.1 180 23:21 11.10.2019
6412 Rain 9 995 100 3500 3.1 180 22:59 11.10.2019
6413 Rain 9 995 93 6000 4.1 170 22:37 11.10.2019
6414 Rain 9 995 93 6000 4.1 170 22:37 11.10.2019
6415 Rain 9 995 93 10000 4.1 180 22:18 11.10.2019
6416 Rain 9 996 93 10000 2.1 200 21:40 11.10.2019
6417 Rain 9 996 93 8000 6.7 210 21:21 11.10.2019
6418 Rain 9 997 100 7000 5.1 200 20:54 11.10.2019
6419 Rain 9 997 100 7000 5.1 200 20:54 11.10.2019
6420 Rain 9 997 100 7000 5.1 200 20:36 11.10.2019
6421 Rain 8 997 93 10000 3.6 180 20:18 11.10.2019
6422 Clouds 8 997 93 10000 3.6 190 19:54 11.10.2019
6423 Clouds 8 997 93 10000 3.6 190 19:54 11.10.2019
6424 Clouds 8 997 100 10000 3.6 180 19:36 11.10.2019
6425 Clouds 8 997 100 10000 3.6 180 19:18 11.10.2019
6426 Clouds 8 997 100 10000 3.6 180 19:18 11.10.2019
6427 Clouds 8 997 100 10000 3.6 180 19:18 11.10.2019
6428 Rain 8 997 93 10000 4.1 200 18:39 11.10.2019
6429 Rain 9 998 93 10000 3.6 190 18:19 11.10.2019
6430 Rain 9 998 93 10000 4.6 200 17:59 11.10.2019
6431 Rain 9 998 93 10000 4.6 200 17:38 11.10.2019
6432 Rain 9 998 93 10000 5.1 210 17:20 11.10.2019
6433 Rain 9 998 93 10000 5.1 210 16:59 11.10.2019
6434 Rain 10 998 87 10000 6.2 220 16:39 11.10.2019
6435 Rain 10 998 87 10000 6.2 220 16:39 11.10.2019
6436 Rain 10 998 87 10000 6.2 210 16:19 11.10.2019
6437 Rain 10 998 81 10000 6.7 210 15:55 11.10.2019
6438 Clouds 11 998 81 10000 6.7 210 15:36 11.10.2019
6439 Rain 11 999 81 10000 5.1 220 15:18 11.10.2019
6440 Rain 11 999 81 10000 5.1 220 15:18 11.10.2019
6441 Rain 11 998 87 10000 3.6 220 14:42 11.10.2019
6442 Clouds 11 999 87 10000 3.6 210 14:23 11.10.2019
6443 Rain 11 999 87 10000 4.1 210 13:47 11.10.2019
6444 Rain 11 999 93 7000 3.6 230 13:26 11.10.2019
6445 Rain 11 999 87 10000 4.6 220 12:58 11.10.2019
6446 Rain 11 999 87 10000 4.6 220 12:40 11.10.2019
6447 Clouds 11 999 87 10000 4.1 230 12:21 11.10.2019
6448 -273 0 0 0 0 0 11:59 11.10.2019
6449 Clouds 10 999 93 10000 4.6 230 11:39 11.10.2019
6450 Clouds 10 999 93 10000 4.1 230 11:21 11.10.2019
6451 Clouds 10 999 93 10000 4.6 210 10:56 11.10.2019
6452 Clouds 10 999 93 10000 4.6 180 10:37 11.10.2019
6453 Clouds 10 999 93 10000 4.6 180 10:18 11.10.2019
6454 Clouds 10 999 93 10000 4.6 180 10:18 11.10.2019
6455 Clouds 9 999 93 10000 3.6 190 09:42 11.10.2019
6456 Rain 9 999 93 10000 4.6 190 09:21 11.10.2019
6457 Clouds 9 999 93 10000 4.6 200 08:59 11.10.2019
6458 Clouds 8 999 93 10000 4.6 200 08:39 11.10.2019
6459 Clouds 8 999 93 10000 4.1 190 08:20 11.10.2019
6460 Clouds 8 999 93 10000 4.1 180 07:54 11.10.2019
6461 Clouds 8 999 93 10000 4.1 190 07:34 11.10.2019
6462 Rain 8 999 87 10000 4.1 190 06:50 11.10.2019
6463 Rain 8 999 93 10000 4.1 190 06:25 11.10.2019
6464 Clouds 8 999 93 10000 3.6 190 05:48 11.10.2019
6465 Clouds 8 999 93 10000 3.6 190 05:30 11.10.2019
6466 Rain 8 999 100 10000 2.6 190 04:58 11.10.2019
6467 Clouds 7 999 93 10000 2.6 160 03:45 11.10.2019
6468 Clouds 6 1000 100 10000 2.6 130 01:28 11.10.2019
6469 Clouds 6 1000 100 10000 2.1 140 00:41 11.10.2019
6470 Clouds 6 1000 100 10000 1.5 110 00:20 11.10.2019
6471 Clouds 6 1000 100 10000 1.5 110 00:20 11.10.2019
6472 Clouds 6 1000 100 10000 0.5 0 23:41 10.10.2019
6473 Clouds 6 1000 100 10000 1 110 23:20 10.10.2019
6474 Clouds 5 1000 100 10000 0.5 0 22:56 10.10.2019
6475 Clouds 5 1000 100 10000 0.5 0 22:36 10.10.2019
6476 Clouds 5 1000 100 10000 1.5 230 22:18 10.10.2019
6477 Clouds 5 1000 100 10000 1.5 230 22:18 10.10.2019
6478 Clouds 5 1000 100 10000 1.5 110 21:42 10.10.2019
6479 Fog 5 1000 100 10000 1 0 21:22 10.10.2019
6480 Fog 5 1000 100 10000 1 0 20:59 10.10.2019
6481 Fog 5 1000 100 10000 1 0 20:59 10.10.2019
6482 Fog 5 1000 100 200 1 0 20:40 10.10.2019
6483 Fog 5 1000 100 10000 1.63 181.092 20:20 10.10.2019
6484 Fog 6 1000 100 10000 1.63 181.092 19:57 10.10.2019
6485 Fog 6 1000 100 10000 1.63 181.092 19:39 10.10.2019
6486 Fog 6 1000 100 10000 1.5 50 19:19 10.10.2019
6487 Clouds 6 1000 100 10000 1.5 30 18:54 10.10.2019
6488 Clouds 7 1000 100 10000 1.5 30 18:36 10.10.2019
6489 Clouds 7 1000 100 10000 1 0 18:18 10.10.2019
6490 Clouds 8 1000 93 10000 1 0 17:40 10.10.2019
6491 Clouds 9 1000 87 10000 1 60 17:19 10.10.2019
6492 Clouds 9 1000 87 10000 0.5 0 16:57 10.10.2019
6493 Clouds 9 1000 87 10000 0.5 0 16:38 10.10.2019
6494 Clouds 9 1000 87 10000 1 0 16:20 10.10.2019
6495 Clouds 9 1000 87 10000 1.5 110 15:42 10.10.2019
6496 Clouds 9 1000 87 10000 2.1 120 15:23 10.10.2019
6497 Clouds 9 1000 87 10000 1.5 130 14:59 10.10.2019
6498 Clouds 9 1000 87 10000 1.5 130 14:37 10.10.2019
6499 Clouds 9 1000 87 10000 1.5 130 14:19 10.10.2019
6500 Clouds 9 1000 87 10000 1.5 150 13:58 10.10.2019
6501 Clouds 9 1000 87 10000 1.5 150 13:39 10.10.2019
6502 Clouds 9 1000 87 10000 3.6 130 13:18 10.10.2019
6503 Clouds 9 1000 87 10000 2.1 100 12:42 10.10.2019
6504 Clouds 9 1000 87 10000 2.1 100 12:42 10.10.2019
6505 Clouds 8 1000 93 10000 2.1 90 12:21 10.10.2019
6506 Clouds 8 1000 87 10000 2.1 60 11:58 10.10.2019
6507 Clouds 8 1000 87 10000 2.1 60 11:40 10.10.2019
6508 Clouds 7 1000 93 10000 2.1 50 11:19 10.10.2019
6509 Clouds 7 1000 93 10000 2.1 50 10:47 10.10.2019
6510 Clouds 7 1000 93 10000 2.1 50 10:47 10.10.2019
6511 Clouds 6 1000 93 10000 2.1 50 10:28 10.10.2019
6512 Clouds 6 1000 93 10000 2.1 50 10:28 10.10.2019
6513 Clouds 6 1000 100 10000 1.5 60 09:59 10.10.2019
6514 Clouds 5 1000 100 10000 1.5 60 09:41 10.10.2019
6515 Clouds 5 1000 93 10000 1.5 40 09:23 10.10.2019
6516 Clouds 5 1000 93 10000 1.5 40 08:59 10.10.2019
6517 Clouds 4 1000 100 10000 2.1 20 08:40 10.10.2019
6518 Clouds 4 1000 93 10000 2.1 50 08:21 10.10.2019
6519 Clouds 4 1000 93 10000 2.1 50 07:47 10.10.2019
6520 Clouds 4 1000 93 10000 2.1 30 07:26 10.10.2019
6521 Clouds 4 1001 100 10000 2.1 350 06:55 10.10.2019
6522 Clouds 4 1001 100 10000 2.1 350 06:36 10.10.2019
6523 Clouds 4 1001 93 10000 2.6 70 05:39 10.10.2019
6524 Clouds 4 1001 93 10000 1.5 70 05:18 10.10.2019
6525 Clouds 4 1001 93 10000 2.1 40 04:34 10.10.2019
6526 Clouds 4 1002 100 10000 2.1 50 02:29 10.10.2019
6527 Clouds 4 1002 100 10000 2.1 40 01:37 10.10.2019
6528 Clouds 4 1002 100 10000 2.1 40 01:18 10.10.2019
6529 Clouds 4 1002 100 10000 2.6 50 00:33 10.10.2019
6530 Rain 4 1002 100 10000 3.1 50 23:42 09.10.2019
6531 Rain 4 1002 93 10000 3.1 40 23:24 09.10.2019
6532 Rain 4 1002 93 10000 2.1 40 22:59 09.10.2019
6533 Rain 4 1002 93 10000 2.1 40 22:41 09.10.2019
6534 Rain 4 1002 93 10000 2.1 30 22:22 09.10.2019
6535 Rain 4 1002 86 10000 2.6 50 21:56 09.10.2019
6536 Rain 5 1002 86 10000 2.6 50 21:38 09.10.2019
6537 Rain 5 1002 86 10000 2.6 20 21:19 09.10.2019
6538 Rain 5 1002 86 10000 2.6 40 20:55 09.10.2019
6539 Clouds 5 1002 86 10000 2.6 40 20:36 09.10.2019
6540 Clouds 5 1002 86 10000 2.6 40 20:18 09.10.2019
6541 Clouds 5 1002 86 10000 2.6 40 20:18 09.10.2019
6542 Clouds 5 1002 86 10000 2.6 40 19:43 09.10.2019
6543 Rain 5 1002 86 10000 1.5 40 19:22 09.10.2019
6544 Clouds 5 1002 86 10000 1.5 60 18:39 09.10.2019
6545 Clouds 6 1002 81 10000 2.1 60 18:21 09.10.2019
6546 Clouds 6 1002 81 10000 1.5 70 17:58 09.10.2019
6547 Clouds 6 1002 81 10000 1.5 70 17:40 09.10.2019
6548 Clouds 6 1002 81 10000 1.5 80 17:22 09.10.2019
6549 Rain 6 1001 81 10000 1.5 60 16:57 09.10.2019
6550 Rain 6 1001 81 10000 1.5 60 16:39 09.10.2019
6551 Rain 6 1001 81 10000 1.5 60 16:39 09.10.2019
6552 Rain 6 1001 70 10000 1.5 60 16:20 09.10.2019
6553 Rain 7 1001 70 10000 1.5 60 16:20 09.10.2019
6554 Clouds 7 1001 70 10000 1 0 15:56 09.10.2019
6555 Clouds 7 1001 70 10000 1 0 15:37 09.10.2019
6556 Clouds 7 1001 70 10000 1.5 60 15:19 09.10.2019
6557 Clouds 7 1001 75 10000 1.5 60 14:45 09.10.2019
6558 Clouds 7 1001 70 10000 1.5 70 14:19 09.10.2019
6559 Clouds 7 1001 70 10000 1.5 70 13:59 09.10.2019
6560 Clouds 7 1001 70 10000 1.5 70 13:38 09.10.2019
6561 Clouds 6 1001 75 10000 0.5 0 13:18 09.10.2019
6562 Clouds 6 1001 70 10000 2.1 60 12:44 09.10.2019
6563 Clouds 6 1001 70 10000 2.1 60 12:44 09.10.2019
6564 Clouds 6 1001 75 10000 2.1 50 12:23 09.10.2019
6565 Clouds 6 1001 75 10000 2.1 30 11:58 09.10.2019
6566 Clouds 5 1001 75 10000 2.1 30 11:40 09.10.2019
6567 Clouds 4 1000 80 10000 2.1 360 11:20 09.10.2019
6568 Clouds 4 1000 80 10000 1.5 50 10:58 09.10.2019
6569 Clouds 4 1000 80 10000 1.5 50 10:40 09.10.2019
6570 Clouds 4 1000 80 10000 1.5 50 10:40 09.10.2019
6571 Clear 3 1000 80 10000 1.5 60 10:18 09.10.2019
6572 Clear 2 1000 78 10000 1.5 50 09:43 09.10.2019
6573 Clear 2 1000 92 10000 2.1 40 09:20 09.10.2019
6574 Clear 1 1000 92 10000 2.1 40 08:58 09.10.2019
6575 Clear 1 1000 92 10000 1.5 10 08:38 09.10.2019
6576 Clear 0 1000 92 10000 2.1 360 08:19 09.10.2019
6577 Clear 0 1000 92 10000 1.5 10 07:47 09.10.2019
6578 Clear 0 1000 92 10000 1.5 30 07:24 09.10.2019
6579 Clouds 0 1000 92 10000 2.1 40 06:56 09.10.2019
6580 Clouds 0 999 92 10000 2.6 40 06:25 09.10.2019
6581 Clouds 0 1000 94 10000 2.6 40 05:47 09.10.2019
6582 Clouds 0 999 94 10000 3.1 40 04:41 09.10.2019
6583 Clouds 0 1000 94 10000 2.6 50 03:43 09.10.2019
6584 Clouds 1 1000 93 10000 2.1 40 01:55 09.10.2019
6585 Clouds 2 1000 93 10000 3.1 50 01:22 09.10.2019
6586 Clouds 2 1000 93 10000 2.6 40 00:59 09.10.2019
6587 Clouds 2 1000 93 10000 2.6 40 00:40 09.10.2019
6588 Clouds 2 1000 100 10000 2.1 40 00:22 09.10.2019
6589 Clouds 2 1000 100 10000 2.1 40 00:22 09.10.2019
6590 Clouds 2 1000 100 10000 1.5 30 23:57 08.10.2019
6591 Clouds 2 1000 100 10000 1.5 30 23:37 08.10.2019
6592 Clouds 2 1000 93 10000 1.5 20 23:18 08.10.2019
6593 Clouds 2 1000 93 10000 2.1 0 22:39 08.10.2019
6594 Clear 3 1001 100 10000 2.1 40 22:20 08.10.2019
6595 Clear 2 1001 100 10000 2.1 40 22:20 08.10.2019
6596 Clear 3 1001 100 10000 2.1 40 21:58 08.10.2019
6597 Clear 3 1001 100 10000 2.1 40 21:39 08.10.2019
6598 Clear 3 1001 100 10000 1 60 21:19 08.10.2019
6599 Clear 3 1001 100 10000 1.5 50 20:57 08.10.2019
6600 Clear 3 1001 100 10000 1 60 20:57 08.10.2019
6601 Clear 3 1001 100 10000 1.5 50 20:39 08.10.2019
6602 Clear 3 1001 100 10000 1.5 40 20:21 08.10.2019
6603 Clear 3 1001 93 10000 2.6 50 19:58 08.10.2019
6604 Clear 3 1001 93 10000 2.6 50 19:58 08.10.2019
6605 Clear 3 1001 93 10000 2.6 50 19:58 08.10.2019
6606 Clear 3 1001 93 10000 2.6 50 19:40 08.10.2019
6607 Clouds 4 1001 93 10000 2.1 0 19:21 08.10.2019
6608 Clouds 4 1001 93 10000 2.1 0 19:21 08.10.2019
6609 Clouds 4 1002 93 10000 1.5 40 18:55 08.10.2019
6610 Clouds 4 1002 93 10000 1.5 40 18:55 08.10.2019
6611 Clouds 4 1002 93 10000 1.5 40 18:36 08.10.2019
6612 Clouds 5 1002 86 10000 1.5 10 18:18 08.10.2019
6613 Clouds 5 1002 86 10000 1 0 17:40 08.10.2019
6614 Clouds 6 1002 81 10000 1.6 54.97 17:21 08.10.2019
6615 Clouds 6 1002 70 10000 0.5 0 16:59 08.10.2019
6616 Clouds 6 1002 70 10000 0.5 0 16:40 08.10.2019
6617 Clouds 6 1002 75 10000 1 0 16:21 08.10.2019
6618 Rain 6 1002 81 10000 2.1 180 15:41 08.10.2019
6619 Rain 6 1003 75 10000 1 0 15:22 08.10.2019
6620 Rain 6 1003 75 10000 1 0 15:22 08.10.2019
6621 Rain 6 1003 75 10000 1 0 14:58 08.10.2019
6622 Rain 6 1003 75 10000 1 0 14:39 08.10.2019
6623 Clouds 6 1003 81 10000 1 0 14:21 08.10.2019
6624 Clouds 6 1003 81 10000 0.5 0 13:57 08.10.2019
6625 Clouds 6 1003 81 10000 0.5 0 13:38 08.10.2019
6626 Clouds 6 1004 86 10000 0.5 0 13:19 08.10.2019
6627 Clouds 5 1004 86 10000 0.5 0 12:58 08.10.2019
6628 Clouds 5 1004 86 10000 0.5 0 12:38 08.10.2019
6629 Clouds 5 1004 86 10000 0.5 0 12:18 08.10.2019
6630 Clouds 4 1004 93 10000 1.73 95.194 11:42 08.10.2019
6631 Clouds 4 1005 93 10000 1.5 40 11:24 08.10.2019
6632 Clouds 4 1005 93 10000 2.1 40 10:58 08.10.2019
6633 Clouds 3 1005 93 10000 2.1 40 10:37 08.10.2019
6634 Fog 3 1005 93 10000 2.1 40 10:19 08.10.2019
6635 Clear 3 1005 89 0 1.73 95.194 09:55 08.10.2019
6636 Fog 2 1005 100 900 1 0 09:37 08.10.2019
6637 Clear 2 1005 90 0 1.2 47.8 09:19 08.10.2019
6638 Fog 2 1006 93 300 1 0 08:42 08.10.2019
6639 Fog 1 1006 93 8000 1.5 70 08:23 08.10.2019
6640 Fog 1 1006 100 10000 1.5 40 07:44 08.10.2019
6641 Fog 1 1006 100 10000 1.5 20 07:21 08.10.2019
6642 Clouds 1 1007 93 10000 1.5 360 06:51 08.10.2019
6643 Clouds 1 1007 93 10000 1.5 360 06:28 08.10.2019
6644 Clouds 2 1007 93 10000 1.5 340 05:46 08.10.2019
6645 Clouds 2 1008 93 10000 0.74 5.074 05:26 08.10.2019
6646 Clouds 2 1008 100 10000 0.74 5.074 04:31 08.10.2019
6647 Clouds 2 1008 93 10000 1.5 20 03:27 08.10.2019
6648 Clouds 3 1009 93 10000 2.1 300 02:36 08.10.2019
6649 Clouds 2 1009 100 10000 0.5 0 01:45 08.10.2019
6650 Clouds 2 1009 100 10000 0.5 330 01:26 08.10.2019
6651 Clouds 3 1009 100 10000 1 300 00:46 08.10.2019
6652 Clouds 3 1010 100 10000 1.5 20 00:20 08.10.2019
6653 Clouds 3 1010 100 10000 1.5 360 23:39 07.10.2019
6654 Clouds 3 1010 100 10000 2.6 300 23:20 07.10.2019
6655 Clouds 3 1010 100 10000 1 0 22:56 07.10.2019
6656 Clouds 3 1010 100 10000 1 0 22:38 07.10.2019
6657 Clouds 3 1011 100 10000 1 0 22:19 07.10.2019
6658 Clouds 3 1011 93 10000 1 0 21:55 07.10.2019
6659 Clouds 3 1011 93 10000 1 0 21:37 07.10.2019
6660 Clouds 3 1011 100 10000 1.21 316.778 21:18 07.10.2019
6661 Clouds 3 1011 100 10000 1 0 20:57 07.10.2019
6662 Clouds 3 1011 100 10000 1 0 20:38 07.10.2019
6663 Clouds 3 1012 100 10000 1.5 300 20:19 07.10.2019
6664 Clouds 3 1012 100 10000 1 0 19:56 07.10.2019
6665 Clouds 3 1012 100 10000 1 0 19:38 07.10.2019
6666 Clouds 3 1012 100 10000 0.5 290 19:18 07.10.2019
6667 Clouds 4 1012 100 10000 0.5 0 18:43 07.10.2019
6668 Clouds 4 1012 100 10000 1 0 18:19 07.10.2019
6669 Rain 5 1012 93 10000 1.5 150 17:59 07.10.2019
6670 Rain 5 1012 93 10000 1.5 150 17:41 07.10.2019
6671 Rain 5 1012 86 10000 2.1 100 17:19 07.10.2019
6672 Rain 5 1012 86 10000 1.5 70 16:46 07.10.2019
6673 Rain 5 1012 86 10000 1.5 70 16:46 07.10.2019
6674 Rain 6 1012 75 10000 1.5 350 16:28 07.10.2019
6675 Rain 6 1012 75 10000 1.5 350 15:59 07.10.2019
6676 Rain 6 1013 81 10000 2.1 290 15:40 07.10.2019
6677 Rain 6 1013 86 10000 2.1 290 15:21 07.10.2019
6678 Rain 6 1013 80 10000 4.6 330 14:42 07.10.2019
6679 Rain 6 1013 75 10000 3.1 10 14:23 07.10.2019
6680 Rain 6 1013 80 10000 3.1 330 13:45 07.10.2019
6681 Clouds 6 1013 75 10000 2.1 30 13:21 07.10.2019
6682 Clouds 6 1013 75 10000 2.1 30 12:59 07.10.2019
6683 Clouds 6 1013 86 10000 1.5 30 12:40 07.10.2019
6684 Rain 5 1013 86 10000 4.1 20 12:21 07.10.2019
6685 Rain 5 1013 86 10000 4.1 20 12:21 07.10.2019
6686 Clouds 6 1013 81 10000 3.1 340 11:59 07.10.2019
6687 Rain 5 1013 86 10000 4.1 20 11:59 07.10.2019
6688 Clouds 5 1013 81 10000 3.1 340 11:40 07.10.2019
6689 Clouds 5 1013 75 10000 3.1 350 11:21 07.10.2019
6690 Clouds 5 1013 75 10000 3.1 350 11:21 07.10.2019
6691 Clouds 5 1013 80 10000 3.1 10 10:57 07.10.2019
6692 Clouds 5 1013 80 10000 3.1 10 10:39 07.10.2019
6693 Clouds 4 1014 93 10000 2.6 20 10:20 07.10.2019
6694 Clouds 4 1014 93 10000 3.1 10 09:39 07.10.2019
6695 Clouds 4 1014 93 10000 3.1 10 09:39 07.10.2019
6696 Clouds 3 1014 100 10000 2.6 340 09:21 07.10.2019
6697 Clouds 3 1014 100 10000 1 350 08:44 07.10.2019
6698 Clouds 3 1014 100 10000 1.5 350 08:21 07.10.2019
6699 Rain 3 1014 100 5000 0.65 287.852 07:56 07.10.2019
6700 Rain 3 1014 100 5000 0.65 287.852 07:38 07.10.2019
6701 Rain 2 1014 100 6000 1 350 07:19 07.10.2019
6702 Drizzle 2 1014 100 7000 1.5 350 06:43 07.10.2019
6703 Drizzle 2 1014 93 10000 0.5 0 06:22 07.10.2019
6704 Fog 2 1014 100 10000 1.5 290 05:27 07.10.2019
6705 Fog 2 1014 100 10000 1.5 280 04:56 07.10.2019
6706 Clouds 2 1014 98 10000 1.5 330 03:51 07.10.2019
6707 Clouds 2 1014 98 10000 1.5 330 03:32 07.10.2019
6708 Clouds 2 1015 100 10000 1.5 310 02:53 07.10.2019